<?xml version="1.0" encoding="UTF-8" standalone="no" ?>
<gpx xmlns="http://www.topografix.com/GPX/1/1" xmlns:xsi="http://www.w3.org/2001/XMLSchema-instance" xsi:schemaLocation="http://www.topografix.com/GPX/1/1 http://www.topografix.com/GPX/1/1/gpx.xsd" version="1.1" creator="VisuGPX - https://www.visugpx.com">
  <metadata>
    <name>8027237-téléthon</name>
    <desc><![CDATA[12-19
]]></desc>
  </metadata>
  <trk>
    <name><![CDATA[8027237-téléthon]]></name>
    <trkseg>
      <trkpt lat="46.6943" lon="-1.93689">
        <ele>3</ele>
        <time>2018-04-27T08:02:12Z</time>
      </trkpt>
      <trkpt lat="46.69425" lon="-1.93665">
        <ele>3</ele>
        <time>2018-04-27T08:03:12Z</time>
      </trkpt>
      <trkpt lat="46.69423" lon="-1.93652">
        <ele>3</ele>
        <time>2018-04-27T08:04:12Z</time>
      </trkpt>
      <trkpt lat="46.69422" lon="-1.93638">
        <ele>2</ele>
        <time>2018-04-27T08:05:12Z</time>
      </trkpt>
      <trkpt lat="46.69422" lon="-1.93633">
        <ele>2</ele>
        <time>2018-04-27T08:06:12Z</time>
      </trkpt>
      <trkpt lat="46.69423" lon="-1.93624">
        <ele>2</ele>
        <time>2018-04-27T08:07:12Z</time>
      </trkpt>
      <trkpt lat="46.69425" lon="-1.93616">
        <ele>2</ele>
        <time>2018-04-27T08:08:12Z</time>
      </trkpt>
      <trkpt lat="46.69427" lon="-1.9361">
        <ele>2</ele>
        <time>2018-04-27T08:09:12Z</time>
      </trkpt>
      <trkpt lat="46.69428" lon="-1.93608">
        <ele>2</ele>
        <time>2018-04-27T08:10:12Z</time>
      </trkpt>
      <trkpt lat="46.69433" lon="-1.93601">
        <ele>2</ele>
        <time>2018-04-27T08:11:12Z</time>
      </trkpt>
      <trkpt lat="46.6944" lon="-1.93596">
        <ele>2</ele>
        <time>2018-04-27T08:12:12Z</time>
      </trkpt>
      <trkpt lat="46.69455" lon="-1.9359">
        <ele>2</ele>
        <time>2018-04-27T08:13:12Z</time>
      </trkpt>
      <trkpt lat="46.69478" lon="-1.93583">
        <ele>2</ele>
        <time>2018-04-27T08:14:12Z</time>
      </trkpt>
      <trkpt lat="46.69488" lon="-1.93581">
        <ele>3</ele>
        <time>2018-04-27T08:15:12Z</time>
      </trkpt>
      <trkpt lat="46.69498" lon="-1.93578">
        <ele>3</ele>
        <time>2018-04-27T08:16:12Z</time>
      </trkpt>
      <trkpt lat="46.69507" lon="-1.93574">
        <ele>3</ele>
        <time>2018-04-27T08:17:12Z</time>
      </trkpt>
      <trkpt lat="46.6951" lon="-1.93574">
        <ele>3</ele>
        <time>2018-04-27T08:18:12Z</time>
      </trkpt>
      <trkpt lat="46.69514" lon="-1.93574">
        <ele>3</ele>
        <time>2018-04-27T08:19:12Z</time>
      </trkpt>
      <trkpt lat="46.69519" lon="-1.93575">
        <ele>3</ele>
        <time>2018-04-27T08:20:12Z</time>
      </trkpt>
      <trkpt lat="46.6953" lon="-1.93579">
        <ele>3</ele>
        <time>2018-04-27T08:21:12Z</time>
      </trkpt>
      <trkpt lat="46.69542" lon="-1.93584">
        <ele>4</ele>
        <time>2018-04-27T08:22:12Z</time>
      </trkpt>
      <trkpt lat="46.69552" lon="-1.93588">
        <ele>4</ele>
        <time>2018-04-27T08:23:12Z</time>
      </trkpt>
      <trkpt lat="46.69561" lon="-1.93593">
        <ele>4</ele>
        <time>2018-04-27T08:24:12Z</time>
      </trkpt>
      <trkpt lat="46.69564" lon="-1.93594">
        <ele>4</ele>
        <time>2018-04-27T08:25:12Z</time>
      </trkpt>
      <trkpt lat="46.69585" lon="-1.93586">
        <ele>4</ele>
        <time>2018-04-27T08:26:12Z</time>
      </trkpt>
      <trkpt lat="46.69585" lon="-1.93586">
        <ele>4</ele>
        <time>2018-04-27T08:27:12Z</time>
      </trkpt>
      <trkpt lat="46.69585" lon="-1.93585">
        <ele>4</ele>
        <time>2018-04-27T08:28:12Z</time>
      </trkpt>
      <trkpt lat="46.69585" lon="-1.93584">
        <ele>4</ele>
        <time>2018-04-27T08:29:12Z</time>
      </trkpt>
      <trkpt lat="46.69585" lon="-1.93583">
        <ele>4</ele>
        <time>2018-04-27T08:30:12Z</time>
      </trkpt>
      <trkpt lat="46.69585" lon="-1.93582">
        <ele>4</ele>
        <time>2018-04-27T08:31:12Z</time>
      </trkpt>
      <trkpt lat="46.69586" lon="-1.93582">
        <ele>4</ele>
        <time>2018-04-27T08:32:12Z</time>
      </trkpt>
      <trkpt lat="46.69586" lon="-1.93581">
        <ele>4</ele>
        <time>2018-04-27T08:33:12Z</time>
      </trkpt>
      <trkpt lat="46.69586" lon="-1.9358">
        <ele>4</ele>
        <time>2018-04-27T08:34:12Z</time>
      </trkpt>
      <trkpt lat="46.69587" lon="-1.9358">
        <ele>4</ele>
        <time>2018-04-27T08:35:12Z</time>
      </trkpt>
      <trkpt lat="46.69587" lon="-1.93579">
        <ele>4</ele>
        <time>2018-04-27T08:36:12Z</time>
      </trkpt>
      <trkpt lat="46.69587" lon="-1.93578">
        <ele>4</ele>
        <time>2018-04-27T08:37:12Z</time>
      </trkpt>
      <trkpt lat="46.69588" lon="-1.93578">
        <ele>4</ele>
        <time>2018-04-27T08:38:12Z</time>
      </trkpt>
      <trkpt lat="46.69588" lon="-1.93577">
        <ele>4</ele>
        <time>2018-04-27T08:39:12Z</time>
      </trkpt>
      <trkpt lat="46.69589" lon="-1.93577">
        <ele>4</ele>
        <time>2018-04-27T08:40:12Z</time>
      </trkpt>
      <trkpt lat="46.69589" lon="-1.93576">
        <ele>4</ele>
        <time>2018-04-27T08:41:12Z</time>
      </trkpt>
      <trkpt lat="46.6959" lon="-1.93576">
        <ele>4</ele>
        <time>2018-04-27T08:42:12Z</time>
      </trkpt>
      <trkpt lat="46.6959" lon="-1.93575">
        <ele>4</ele>
        <time>2018-04-27T08:43:12Z</time>
      </trkpt>
      <trkpt lat="46.69591" lon="-1.93575">
        <ele>4</ele>
        <time>2018-04-27T08:44:12Z</time>
      </trkpt>
      <trkpt lat="46.69592" lon="-1.93574">
        <ele>4</ele>
        <time>2018-04-27T08:45:12Z</time>
      </trkpt>
      <trkpt lat="46.69593" lon="-1.93574">
        <ele>4</ele>
        <time>2018-04-27T08:46:12Z</time>
      </trkpt>
      <trkpt lat="46.69594" lon="-1.93574">
        <ele>4</ele>
        <time>2018-04-27T08:47:12Z</time>
      </trkpt>
      <trkpt lat="46.69595" lon="-1.93574">
        <ele>4</ele>
        <time>2018-04-27T08:48:12Z</time>
      </trkpt>
      <trkpt lat="46.69596" lon="-1.93574">
        <ele>4</ele>
        <time>2018-04-27T08:49:12Z</time>
      </trkpt>
      <trkpt lat="46.69597" lon="-1.93574">
        <ele>4</ele>
        <time>2018-04-27T08:50:12Z</time>
      </trkpt>
      <trkpt lat="46.69597" lon="-1.93575">
        <ele>4</ele>
        <time>2018-04-27T08:51:12Z</time>
      </trkpt>
      <trkpt lat="46.69598" lon="-1.93575">
        <ele>4</ele>
        <time>2018-04-27T08:52:12Z</time>
      </trkpt>
      <trkpt lat="46.69599" lon="-1.93575">
        <ele>4</ele>
        <time>2018-04-27T08:53:12Z</time>
      </trkpt>
      <trkpt lat="46.69599" lon="-1.93576">
        <ele>4</ele>
        <time>2018-04-27T08:54:12Z</time>
      </trkpt>
      <trkpt lat="46.696" lon="-1.93576">
        <ele>4</ele>
        <time>2018-04-27T08:55:12Z</time>
      </trkpt>
      <trkpt lat="46.696" lon="-1.93577">
        <ele>4</ele>
        <time>2018-04-27T08:56:12Z</time>
      </trkpt>
      <trkpt lat="46.69601" lon="-1.93577">
        <ele>4</ele>
        <time>2018-04-27T08:57:12Z</time>
      </trkpt>
      <trkpt lat="46.69601" lon="-1.93578">
        <ele>4</ele>
        <time>2018-04-27T08:58:12Z</time>
      </trkpt>
      <trkpt lat="46.69602" lon="-1.93578">
        <ele>4</ele>
        <time>2018-04-27T08:59:12Z</time>
      </trkpt>
      <trkpt lat="46.69602" lon="-1.93579">
        <ele>4</ele>
        <time>2018-04-27T09:00:12Z</time>
      </trkpt>
      <trkpt lat="46.69603" lon="-1.93579">
        <ele>4</ele>
        <time>2018-04-27T09:01:12Z</time>
      </trkpt>
      <trkpt lat="46.69603" lon="-1.9358">
        <ele>4</ele>
        <time>2018-04-27T09:02:12Z</time>
      </trkpt>
      <trkpt lat="46.69603" lon="-1.93581">
        <ele>4</ele>
        <time>2018-04-27T09:03:12Z</time>
      </trkpt>
      <trkpt lat="46.69604" lon="-1.93581">
        <ele>4</ele>
        <time>2018-04-27T09:04:12Z</time>
      </trkpt>
      <trkpt lat="46.69604" lon="-1.93582">
        <ele>4</ele>
        <time>2018-04-27T09:05:12Z</time>
      </trkpt>
      <trkpt lat="46.69604" lon="-1.93583">
        <ele>4</ele>
        <time>2018-04-27T09:06:12Z</time>
      </trkpt>
      <trkpt lat="46.69604" lon="-1.93584">
        <ele>4</ele>
        <time>2018-04-27T09:07:12Z</time>
      </trkpt>
      <trkpt lat="46.69605" lon="-1.93585">
        <ele>4</ele>
        <time>2018-04-27T09:08:12Z</time>
      </trkpt>
      <trkpt lat="46.69605" lon="-1.93586">
        <ele>4</ele>
        <time>2018-04-27T09:09:12Z</time>
      </trkpt>
      <trkpt lat="46.69605" lon="-1.93587">
        <ele>4</ele>
        <time>2018-04-27T09:10:12Z</time>
      </trkpt>
      <trkpt lat="46.69605" lon="-1.93588">
        <ele>4</ele>
        <time>2018-04-27T09:11:12Z</time>
      </trkpt>
      <trkpt lat="46.69605" lon="-1.93589">
        <ele>4</ele>
        <time>2018-04-27T09:12:12Z</time>
      </trkpt>
      <trkpt lat="46.69604" lon="-1.93589">
        <ele>4</ele>
        <time>2018-04-27T09:13:12Z</time>
      </trkpt>
      <trkpt lat="46.69604" lon="-1.9359">
        <ele>4</ele>
        <time>2018-04-27T09:14:12Z</time>
      </trkpt>
      <trkpt lat="46.69604" lon="-1.93591">
        <ele>4</ele>
        <time>2018-04-27T09:15:12Z</time>
      </trkpt>
      <trkpt lat="46.69604" lon="-1.93592">
        <ele>4</ele>
        <time>2018-04-27T09:16:12Z</time>
      </trkpt>
      <trkpt lat="46.69604" lon="-1.93593">
        <ele>4</ele>
        <time>2018-04-27T09:17:12Z</time>
      </trkpt>
      <trkpt lat="46.69604" lon="-1.93594">
        <ele>4</ele>
        <time>2018-04-27T09:18:12Z</time>
      </trkpt>
      <trkpt lat="46.69604" lon="-1.93595">
        <ele>4</ele>
        <time>2018-04-27T09:19:12Z</time>
      </trkpt>
      <trkpt lat="46.69603" lon="-1.93595">
        <ele>4</ele>
        <time>2018-04-27T09:20:12Z</time>
      </trkpt>
      <trkpt lat="46.69603" lon="-1.93596">
        <ele>4</ele>
        <time>2018-04-27T09:21:12Z</time>
      </trkpt>
      <trkpt lat="46.69603" lon="-1.93597">
        <ele>4</ele>
        <time>2018-04-27T09:22:12Z</time>
      </trkpt>
      <trkpt lat="46.69602" lon="-1.93598">
        <ele>4</ele>
        <time>2018-04-27T09:23:12Z</time>
      </trkpt>
      <trkpt lat="46.69602" lon="-1.93599">
        <ele>4</ele>
        <time>2018-04-27T09:24:12Z</time>
      </trkpt>
      <trkpt lat="46.69601" lon="-1.93599">
        <ele>4</ele>
        <time>2018-04-27T09:25:12Z</time>
      </trkpt>
      <trkpt lat="46.69601" lon="-1.936">
        <ele>4</ele>
        <time>2018-04-27T09:26:12Z</time>
      </trkpt>
      <trkpt lat="46.696" lon="-1.936">
        <ele>4</ele>
        <time>2018-04-27T09:27:12Z</time>
      </trkpt>
      <trkpt lat="46.696" lon="-1.93601">
        <ele>4</ele>
        <time>2018-04-27T09:28:12Z</time>
      </trkpt>
      <trkpt lat="46.69599" lon="-1.93601">
        <ele>4</ele>
        <time>2018-04-27T09:29:12Z</time>
      </trkpt>
      <trkpt lat="46.69599" lon="-1.93602">
        <ele>4</ele>
        <time>2018-04-27T09:30:12Z</time>
      </trkpt>
      <trkpt lat="46.69598" lon="-1.93602">
        <ele>4</ele>
        <time>2018-04-27T09:31:12Z</time>
      </trkpt>
      <trkpt lat="46.69597" lon="-1.93602">
        <ele>4</ele>
        <time>2018-04-27T09:32:12Z</time>
      </trkpt>
      <trkpt lat="46.69596" lon="-1.93602">
        <ele>4</ele>
        <time>2018-04-27T09:33:12Z</time>
      </trkpt>
      <trkpt lat="46.69596" lon="-1.93603">
        <ele>4</ele>
        <time>2018-04-27T09:34:12Z</time>
      </trkpt>
      <trkpt lat="46.69595" lon="-1.93603">
        <ele>4</ele>
        <time>2018-04-27T09:35:12Z</time>
      </trkpt>
      <trkpt lat="46.69594" lon="-1.93602">
        <ele>4</ele>
        <time>2018-04-27T09:36:12Z</time>
      </trkpt>
      <trkpt lat="46.69593" lon="-1.93602">
        <ele>4</ele>
        <time>2018-04-27T09:37:12Z</time>
      </trkpt>
      <trkpt lat="46.69592" lon="-1.93602">
        <ele>4</ele>
        <time>2018-04-27T09:38:12Z</time>
      </trkpt>
      <trkpt lat="46.69592" lon="-1.93601">
        <ele>4</ele>
        <time>2018-04-27T09:39:12Z</time>
      </trkpt>
      <trkpt lat="46.69591" lon="-1.93601">
        <ele>4</ele>
        <time>2018-04-27T09:40:12Z</time>
      </trkpt>
      <trkpt lat="46.6959" lon="-1.936">
        <ele>4</ele>
        <time>2018-04-27T09:41:12Z</time>
      </trkpt>
      <trkpt lat="46.69589" lon="-1.936">
        <ele>4</ele>
        <time>2018-04-27T09:42:12Z</time>
      </trkpt>
      <trkpt lat="46.69589" lon="-1.93599">
        <ele>4</ele>
        <time>2018-04-27T09:43:12Z</time>
      </trkpt>
      <trkpt lat="46.69588" lon="-1.93598">
        <ele>4</ele>
        <time>2018-04-27T09:44:12Z</time>
      </trkpt>
      <trkpt lat="46.69588" lon="-1.93597">
        <ele>4</ele>
        <time>2018-04-27T09:45:12Z</time>
      </trkpt>
      <trkpt lat="46.69587" lon="-1.93597">
        <ele>4</ele>
        <time>2018-04-27T09:46:12Z</time>
      </trkpt>
      <trkpt lat="46.69587" lon="-1.93596">
        <ele>4</ele>
        <time>2018-04-27T09:47:12Z</time>
      </trkpt>
      <trkpt lat="46.69587" lon="-1.93595">
        <ele>4</ele>
        <time>2018-04-27T09:48:12Z</time>
      </trkpt>
      <trkpt lat="46.69586" lon="-1.93595">
        <ele>4</ele>
        <time>2018-04-27T09:49:12Z</time>
      </trkpt>
      <trkpt lat="46.69581" lon="-1.93596">
        <ele>4</ele>
        <time>2018-04-27T09:50:12Z</time>
      </trkpt>
      <trkpt lat="46.69575" lon="-1.93596">
        <ele>4</ele>
        <time>2018-04-27T09:51:12Z</time>
      </trkpt>
      <trkpt lat="46.69564" lon="-1.93594">
        <ele>4</ele>
        <time>2018-04-27T09:52:12Z</time>
      </trkpt>
      <trkpt lat="46.69561" lon="-1.93593">
        <ele>4</ele>
        <time>2018-04-27T09:53:12Z</time>
      </trkpt>
      <trkpt lat="46.69552" lon="-1.93588">
        <ele>4</ele>
        <time>2018-04-27T09:54:12Z</time>
      </trkpt>
      <trkpt lat="46.69542" lon="-1.93584">
        <ele>4</ele>
        <time>2018-04-27T09:55:12Z</time>
      </trkpt>
      <trkpt lat="46.6953" lon="-1.93579">
        <ele>3</ele>
        <time>2018-04-27T09:56:12Z</time>
      </trkpt>
      <trkpt lat="46.69519" lon="-1.93575">
        <ele>3</ele>
        <time>2018-04-27T09:57:12Z</time>
      </trkpt>
      <trkpt lat="46.69514" lon="-1.93574">
        <ele>3</ele>
        <time>2018-04-27T09:58:12Z</time>
      </trkpt>
      <trkpt lat="46.6951" lon="-1.93574">
        <ele>3</ele>
        <time>2018-04-27T09:59:12Z</time>
      </trkpt>
      <trkpt lat="46.69507" lon="-1.93574">
        <ele>3</ele>
        <time>2018-04-27T10:00:12Z</time>
      </trkpt>
      <trkpt lat="46.69498" lon="-1.93578">
        <ele>3</ele>
        <time>2018-04-27T10:01:12Z</time>
      </trkpt>
      <trkpt lat="46.69488" lon="-1.93581">
        <ele>3</ele>
        <time>2018-04-27T10:02:12Z</time>
      </trkpt>
      <trkpt lat="46.69478" lon="-1.93583">
        <ele>2</ele>
        <time>2018-04-27T10:03:12Z</time>
      </trkpt>
      <trkpt lat="46.69455" lon="-1.9359">
        <ele>2</ele>
        <time>2018-04-27T10:04:12Z</time>
      </trkpt>
      <trkpt lat="46.6944" lon="-1.93596">
        <ele>2</ele>
        <time>2018-04-27T10:05:12Z</time>
      </trkpt>
      <trkpt lat="46.69433" lon="-1.93601">
        <ele>2</ele>
        <time>2018-04-27T10:06:12Z</time>
      </trkpt>
      <trkpt lat="46.69428" lon="-1.93608">
        <ele>2</ele>
        <time>2018-04-27T10:07:12Z</time>
      </trkpt>
      <trkpt lat="46.69427" lon="-1.9361">
        <ele>2</ele>
        <time>2018-04-27T10:08:12Z</time>
      </trkpt>
      <trkpt lat="46.69427" lon="-1.93617">
        <ele>2</ele>
        <time>2018-04-27T10:09:12Z</time>
      </trkpt>
      <trkpt lat="46.69426" lon="-1.93624">
        <ele>2</ele>
        <time>2018-04-27T10:10:12Z</time>
      </trkpt>
      <trkpt lat="46.69426" lon="-1.93633">
        <ele>2</ele>
        <time>2018-04-27T10:11:12Z</time>
      </trkpt>
      <trkpt lat="46.69425" lon="-1.9364">
        <ele>2</ele>
        <time>2018-04-27T10:12:12Z</time>
      </trkpt>
      <trkpt lat="46.69426" lon="-1.93647">
        <ele>3</ele>
        <time>2018-04-27T10:13:12Z</time>
      </trkpt>
      <trkpt lat="46.69428" lon="-1.9366">
        <ele>3</ele>
        <time>2018-04-27T10:14:12Z</time>
      </trkpt>
      <trkpt lat="46.69436" lon="-1.93692">
        <ele>3</ele>
        <time>2018-04-27T10:15:12Z</time>
      </trkpt>
      <trkpt lat="46.69442" lon="-1.93715">
        <ele>3</ele>
        <time>2018-04-27T10:16:12Z</time>
      </trkpt>
      <trkpt lat="46.69446" lon="-1.93727">
        <ele>3</ele>
        <time>2018-04-27T10:17:12Z</time>
      </trkpt>
      <trkpt lat="46.69447" lon="-1.93732">
        <ele>3</ele>
        <time>2018-04-27T10:18:12Z</time>
      </trkpt>
      <trkpt lat="46.69449" lon="-1.93738">
        <ele>3</ele>
        <time>2018-04-27T10:19:12Z</time>
      </trkpt>
      <trkpt lat="46.69455" lon="-1.93753">
        <ele>3</ele>
        <time>2018-04-27T10:20:12Z</time>
      </trkpt>
      <trkpt lat="46.69455" lon="-1.93754">
        <ele>3</ele>
        <time>2018-04-27T10:21:12Z</time>
      </trkpt>
      <trkpt lat="46.69463" lon="-1.93773">
        <ele>3</ele>
        <time>2018-04-27T10:22:12Z</time>
      </trkpt>
      <trkpt lat="46.69466" lon="-1.93779">
        <ele>3</ele>
        <time>2018-04-27T10:23:12Z</time>
      </trkpt>
      <trkpt lat="46.69472" lon="-1.93792">
        <ele>3</ele>
        <time>2018-04-27T10:24:12Z</time>
      </trkpt>
      <trkpt lat="46.69493" lon="-1.93837">
        <ele>3</ele>
        <time>2018-04-27T10:25:12Z</time>
      </trkpt>
      <trkpt lat="46.69495" lon="-1.93843">
        <ele>3</ele>
        <time>2018-04-27T10:26:12Z</time>
      </trkpt>
      <trkpt lat="46.69505" lon="-1.93865">
        <ele>4</ele>
        <time>2018-04-27T10:27:12Z</time>
      </trkpt>
      <trkpt lat="46.69507" lon="-1.93869">
        <ele>4</ele>
        <time>2018-04-27T10:28:12Z</time>
      </trkpt>
      <trkpt lat="46.6951" lon="-1.93875">
        <ele>4</ele>
        <time>2018-04-27T10:29:12Z</time>
      </trkpt>
      <trkpt lat="46.69511" lon="-1.93878">
        <ele>4</ele>
        <time>2018-04-27T10:30:12Z</time>
      </trkpt>
      <trkpt lat="46.69522" lon="-1.93898">
        <ele>4</ele>
        <time>2018-04-27T10:31:12Z</time>
      </trkpt>
      <trkpt lat="46.69525" lon="-1.93905">
        <ele>4</ele>
        <time>2018-04-27T10:32:12Z</time>
      </trkpt>
      <trkpt lat="46.69529" lon="-1.93909">
        <ele>4</ele>
        <time>2018-04-27T10:33:12Z</time>
      </trkpt>
      <trkpt lat="46.69536" lon="-1.93928">
        <ele>4</ele>
        <time>2018-04-27T10:34:12Z</time>
      </trkpt>
      <trkpt lat="46.69547" lon="-1.93956">
        <ele>4</ele>
        <time>2018-04-27T10:35:12Z</time>
      </trkpt>
      <trkpt lat="46.69549" lon="-1.93962">
        <ele>4</ele>
        <time>2018-04-27T10:36:12Z</time>
      </trkpt>
      <trkpt lat="46.69554" lon="-1.93974">
        <ele>4</ele>
        <time>2018-04-27T10:37:12Z</time>
      </trkpt>
      <trkpt lat="46.69568" lon="-1.94001">
        <ele>4</ele>
        <time>2018-04-27T10:38:12Z</time>
      </trkpt>
      <trkpt lat="46.69581" lon="-1.94025">
        <ele>4</ele>
        <time>2018-04-27T10:39:12Z</time>
      </trkpt>
      <trkpt lat="46.69583" lon="-1.9403">
        <ele>4</ele>
        <time>2018-04-27T10:40:12Z</time>
      </trkpt>
      <trkpt lat="46.69587" lon="-1.94036">
        <ele>4</ele>
        <time>2018-04-27T10:41:12Z</time>
      </trkpt>
      <trkpt lat="46.6959" lon="-1.94041">
        <ele>3</ele>
        <time>2018-04-27T10:42:12Z</time>
      </trkpt>
      <trkpt lat="46.69593" lon="-1.94042">
        <ele>3</ele>
        <time>2018-04-27T10:43:12Z</time>
      </trkpt>
      <trkpt lat="46.69595" lon="-1.94042">
        <ele>3</ele>
        <time>2018-04-27T10:44:12Z</time>
      </trkpt>
      <trkpt lat="46.69598" lon="-1.94042">
        <ele>3</ele>
        <time>2018-04-27T10:45:12Z</time>
      </trkpt>
      <trkpt lat="46.69602" lon="-1.94042">
        <ele>3</ele>
        <time>2018-04-27T10:46:12Z</time>
      </trkpt>
      <trkpt lat="46.69606" lon="-1.94037">
        <ele>3</ele>
        <time>2018-04-27T10:47:12Z</time>
      </trkpt>
      <trkpt lat="46.69612" lon="-1.94035">
        <ele>3</ele>
        <time>2018-04-27T10:48:12Z</time>
      </trkpt>
      <trkpt lat="46.6962" lon="-1.9403">
        <ele>3</ele>
        <time>2018-04-27T10:49:12Z</time>
      </trkpt>
      <trkpt lat="46.69623" lon="-1.94029">
        <ele>3</ele>
        <time>2018-04-27T10:50:12Z</time>
      </trkpt>
      <trkpt lat="46.69627" lon="-1.94029">
        <ele>3</ele>
        <time>2018-04-27T10:51:12Z</time>
      </trkpt>
      <trkpt lat="46.69629" lon="-1.9403">
        <ele>3</ele>
        <time>2018-04-27T10:52:12Z</time>
      </trkpt>
      <trkpt lat="46.69632" lon="-1.94033">
        <ele>3</ele>
        <time>2018-04-27T10:53:12Z</time>
      </trkpt>
      <trkpt lat="46.69633" lon="-1.94034">
        <ele>3</ele>
        <time>2018-04-27T10:54:12Z</time>
      </trkpt>
      <trkpt lat="46.69634" lon="-1.94038">
        <ele>3</ele>
        <time>2018-04-27T10:55:12Z</time>
      </trkpt>
      <trkpt lat="46.69641" lon="-1.94064">
        <ele>3</ele>
        <time>2018-04-27T10:56:12Z</time>
      </trkpt>
      <trkpt lat="46.69647" lon="-1.94085">
        <ele>2</ele>
        <time>2018-04-27T10:57:12Z</time>
      </trkpt>
      <trkpt lat="46.6965" lon="-1.941">
        <ele>3</ele>
        <time>2018-04-27T10:58:12Z</time>
      </trkpt>
      <trkpt lat="46.69653" lon="-1.9411">
        <ele>3</ele>
        <time>2018-04-27T10:59:12Z</time>
      </trkpt>
      <trkpt lat="46.69658" lon="-1.94132">
        <ele>4</ele>
        <time>2018-04-27T11:00:12Z</time>
      </trkpt>
      <trkpt lat="46.6966" lon="-1.94143">
        <ele>4</ele>
        <time>2018-04-27T11:01:12Z</time>
      </trkpt>
      <trkpt lat="46.69675" lon="-1.94202">
        <ele>5</ele>
        <time>2018-04-27T11:02:12Z</time>
      </trkpt>
      <trkpt lat="46.69688" lon="-1.94251">
        <ele>4</ele>
        <time>2018-04-27T11:03:12Z</time>
      </trkpt>
      <trkpt lat="46.69696" lon="-1.94286">
        <ele>4</ele>
        <time>2018-04-27T11:04:12Z</time>
      </trkpt>
      <trkpt lat="46.697" lon="-1.94303">
        <ele>4</ele>
        <time>2018-04-27T11:05:12Z</time>
      </trkpt>
      <trkpt lat="46.69703" lon="-1.94314">
        <ele>4</ele>
        <time>2018-04-27T11:06:12Z</time>
      </trkpt>
      <trkpt lat="46.69709" lon="-1.94333">
        <ele>4</ele>
        <time>2018-04-27T11:07:12Z</time>
      </trkpt>
      <trkpt lat="46.69718" lon="-1.9436">
        <ele>4</ele>
        <time>2018-04-27T11:08:12Z</time>
      </trkpt>
      <trkpt lat="46.69727" lon="-1.94384">
        <ele>4</ele>
        <time>2018-04-27T11:09:12Z</time>
      </trkpt>
      <trkpt lat="46.69732" lon="-1.944">
        <ele>4</ele>
        <time>2018-04-27T11:10:12Z</time>
      </trkpt>
      <trkpt lat="46.69735" lon="-1.94411">
        <ele>3</ele>
        <time>2018-04-27T11:11:12Z</time>
      </trkpt>
      <trkpt lat="46.69745" lon="-1.9444">
        <ele>2</ele>
        <time>2018-04-27T11:12:12Z</time>
      </trkpt>
      <trkpt lat="46.69748" lon="-1.94448">
        <ele>2</ele>
        <time>2018-04-27T11:13:12Z</time>
      </trkpt>
      <trkpt lat="46.69753" lon="-1.94463">
        <ele>4</ele>
        <time>2018-04-27T11:14:12Z</time>
      </trkpt>
      <trkpt lat="46.69758" lon="-1.94477">
        <ele>4</ele>
        <time>2018-04-27T11:15:12Z</time>
      </trkpt>
      <trkpt lat="46.69765" lon="-1.94496">
        <ele>4</ele>
        <time>2018-04-27T11:16:12Z</time>
      </trkpt>
      <trkpt lat="46.6978" lon="-1.94548">
        <ele>3</ele>
        <time>2018-04-27T11:17:12Z</time>
      </trkpt>
      <trkpt lat="46.69799" lon="-1.94634">
        <ele>4</ele>
        <time>2018-04-27T11:18:12Z</time>
      </trkpt>
      <trkpt lat="46.69805" lon="-1.94657">
        <ele>4</ele>
        <time>2018-04-27T11:19:12Z</time>
      </trkpt>
      <trkpt lat="46.69809" lon="-1.94676">
        <ele>4</ele>
        <time>2018-04-27T11:20:12Z</time>
      </trkpt>
      <trkpt lat="46.69814" lon="-1.94695">
        <ele>4</ele>
        <time>2018-04-27T11:21:12Z</time>
      </trkpt>
      <trkpt lat="46.69819" lon="-1.94712">
        <ele>4</ele>
        <time>2018-04-27T11:22:12Z</time>
      </trkpt>
      <trkpt lat="46.69825" lon="-1.94732">
        <ele>5</ele>
        <time>2018-04-27T11:23:12Z</time>
      </trkpt>
      <trkpt lat="46.69826" lon="-1.94736">
        <ele>5</ele>
        <time>2018-04-27T11:24:12Z</time>
      </trkpt>
      <trkpt lat="46.69828" lon="-1.94745">
        <ele>5</ele>
        <time>2018-04-27T11:25:12Z</time>
      </trkpt>
      <trkpt lat="46.69828" lon="-1.94745">
        <ele>5</ele>
        <time>2018-04-27T11:26:12Z</time>
      </trkpt>
      <trkpt lat="46.69836" lon="-1.94769">
        <ele>5</ele>
        <time>2018-04-27T11:27:12Z</time>
      </trkpt>
      <trkpt lat="46.69848" lon="-1.94802">
        <ele>5</ele>
        <time>2018-04-27T11:28:12Z</time>
      </trkpt>
      <trkpt lat="46.6986" lon="-1.94828">
        <ele>5</ele>
        <time>2018-04-27T11:29:12Z</time>
      </trkpt>
      <trkpt lat="46.69867" lon="-1.94841">
        <ele>5</ele>
        <time>2018-04-27T11:30:12Z</time>
      </trkpt>
      <trkpt lat="46.69874" lon="-1.94856">
        <ele>6</ele>
        <time>2018-04-27T11:31:12Z</time>
      </trkpt>
      <trkpt lat="46.69896" lon="-1.94891">
        <ele>6</ele>
        <time>2018-04-27T11:32:12Z</time>
      </trkpt>
      <trkpt lat="46.69911" lon="-1.94912">
        <ele>7</ele>
        <time>2018-04-27T11:33:12Z</time>
      </trkpt>
      <trkpt lat="46.69918" lon="-1.94924">
        <ele>7</ele>
        <time>2018-04-27T11:34:12Z</time>
      </trkpt>
      <trkpt lat="46.69934" lon="-1.94944">
        <ele>8</ele>
        <time>2018-04-27T11:35:12Z</time>
      </trkpt>
      <trkpt lat="46.69949" lon="-1.94964">
        <ele>8</ele>
        <time>2018-04-27T11:36:12Z</time>
      </trkpt>
      <trkpt lat="46.69963" lon="-1.9498">
        <ele>8</ele>
        <time>2018-04-27T11:37:12Z</time>
      </trkpt>
      <trkpt lat="46.69981" lon="-1.94999">
        <ele>7</ele>
        <time>2018-04-27T11:38:12Z</time>
      </trkpt>
      <trkpt lat="46.69997" lon="-1.95014">
        <ele>7</ele>
        <time>2018-04-27T11:39:12Z</time>
      </trkpt>
      <trkpt lat="46.70007" lon="-1.95023">
        <ele>7</ele>
        <time>2018-04-27T11:40:12Z</time>
      </trkpt>
      <trkpt lat="46.70013" lon="-1.95027">
        <ele>7</ele>
        <time>2018-04-27T11:41:12Z</time>
      </trkpt>
      <trkpt lat="46.70019" lon="-1.9503">
        <ele>7</ele>
        <time>2018-04-27T11:42:12Z</time>
      </trkpt>
      <trkpt lat="46.70034" lon="-1.95036">
        <ele>7</ele>
        <time>2018-04-27T11:43:12Z</time>
      </trkpt>
      <trkpt lat="46.7005" lon="-1.95039">
        <ele>6</ele>
        <time>2018-04-27T11:44:12Z</time>
      </trkpt>
      <trkpt lat="46.70069" lon="-1.95044">
        <ele>6</ele>
        <time>2018-04-27T11:45:12Z</time>
      </trkpt>
      <trkpt lat="46.70103" lon="-1.9505">
        <ele>5</ele>
        <time>2018-04-27T11:46:12Z</time>
      </trkpt>
      <trkpt lat="46.70125" lon="-1.95054">
        <ele>5</ele>
        <time>2018-04-27T11:47:12Z</time>
      </trkpt>
      <trkpt lat="46.70148" lon="-1.95058">
        <ele>5</ele>
        <time>2018-04-27T11:48:12Z</time>
      </trkpt>
      <trkpt lat="46.70148" lon="-1.95058">
        <ele>5</ele>
        <time>2018-04-27T11:49:12Z</time>
      </trkpt>
      <trkpt lat="46.70148" lon="-1.95057">
        <ele>5</ele>
        <time>2018-04-27T11:50:12Z</time>
      </trkpt>
      <trkpt lat="46.70148" lon="-1.95056">
        <ele>5</ele>
        <time>2018-04-27T11:51:12Z</time>
      </trkpt>
      <trkpt lat="46.70148" lon="-1.95055">
        <ele>5</ele>
        <time>2018-04-27T11:52:12Z</time>
      </trkpt>
      <trkpt lat="46.70149" lon="-1.95055">
        <ele>5</ele>
        <time>2018-04-27T11:53:12Z</time>
      </trkpt>
      <trkpt lat="46.70149" lon="-1.95054">
        <ele>5</ele>
        <time>2018-04-27T11:54:12Z</time>
      </trkpt>
      <trkpt lat="46.70149" lon="-1.95053">
        <ele>5</ele>
        <time>2018-04-27T11:55:12Z</time>
      </trkpt>
      <trkpt lat="46.7015" lon="-1.95053">
        <ele>5</ele>
        <time>2018-04-27T11:56:12Z</time>
      </trkpt>
      <trkpt lat="46.7015" lon="-1.95052">
        <ele>5</ele>
        <time>2018-04-27T11:57:12Z</time>
      </trkpt>
      <trkpt lat="46.7015" lon="-1.95051">
        <ele>5</ele>
        <time>2018-04-27T11:58:12Z</time>
      </trkpt>
      <trkpt lat="46.70151" lon="-1.95051">
        <ele>4</ele>
        <time>2018-04-27T11:59:12Z</time>
      </trkpt>
      <trkpt lat="46.70151" lon="-1.9505">
        <ele>4</ele>
        <time>2018-04-27T12:00:12Z</time>
      </trkpt>
      <trkpt lat="46.70152" lon="-1.9505">
        <ele>4</ele>
        <time>2018-04-27T12:01:12Z</time>
      </trkpt>
      <trkpt lat="46.70153" lon="-1.9505">
        <ele>4</ele>
        <time>2018-04-27T12:02:12Z</time>
      </trkpt>
      <trkpt lat="46.70153" lon="-1.95049">
        <ele>4</ele>
        <time>2018-04-27T12:03:12Z</time>
      </trkpt>
      <trkpt lat="46.70154" lon="-1.95049">
        <ele>4</ele>
        <time>2018-04-27T12:04:12Z</time>
      </trkpt>
      <trkpt lat="46.70155" lon="-1.95049">
        <ele>4</ele>
        <time>2018-04-27T12:05:12Z</time>
      </trkpt>
      <trkpt lat="46.70156" lon="-1.95049">
        <ele>4</ele>
        <time>2018-04-27T12:06:12Z</time>
      </trkpt>
      <trkpt lat="46.70157" lon="-1.95049">
        <ele>4</ele>
        <time>2018-04-27T12:07:12Z</time>
      </trkpt>
      <trkpt lat="46.70157" lon="-1.9505">
        <ele>4</ele>
        <time>2018-04-27T12:08:12Z</time>
      </trkpt>
      <trkpt lat="46.70158" lon="-1.9505">
        <ele>4</ele>
        <time>2018-04-27T12:09:12Z</time>
      </trkpt>
      <trkpt lat="46.70159" lon="-1.95051">
        <ele>4</ele>
        <time>2018-04-27T12:10:12Z</time>
      </trkpt>
      <trkpt lat="46.7016" lon="-1.95052">
        <ele>4</ele>
        <time>2018-04-27T12:11:12Z</time>
      </trkpt>
      <trkpt lat="46.7016" lon="-1.95053">
        <ele>4</ele>
        <time>2018-04-27T12:12:12Z</time>
      </trkpt>
      <trkpt lat="46.70161" lon="-1.95053">
        <ele>4</ele>
        <time>2018-04-27T12:13:12Z</time>
      </trkpt>
      <trkpt lat="46.70161" lon="-1.95054">
        <ele>4</ele>
        <time>2018-04-27T12:14:12Z</time>
      </trkpt>
      <trkpt lat="46.70161" lon="-1.95055">
        <ele>4</ele>
        <time>2018-04-27T12:15:12Z</time>
      </trkpt>
      <trkpt lat="46.70161" lon="-1.95056">
        <ele>4</ele>
        <time>2018-04-27T12:16:12Z</time>
      </trkpt>
      <trkpt lat="46.70162" lon="-1.95056">
        <ele>4</ele>
        <time>2018-04-27T12:17:12Z</time>
      </trkpt>
      <trkpt lat="46.70162" lon="-1.95057">
        <ele>4</ele>
        <time>2018-04-27T12:18:12Z</time>
      </trkpt>
      <trkpt lat="46.70162" lon="-1.95058">
        <ele>4</ele>
        <time>2018-04-27T12:19:12Z</time>
      </trkpt>
      <trkpt lat="46.70162" lon="-1.95059">
        <ele>4</ele>
        <time>2018-04-27T12:20:12Z</time>
      </trkpt>
      <trkpt lat="46.70162" lon="-1.9506">
        <ele>5</ele>
        <time>2018-04-27T12:21:12Z</time>
      </trkpt>
      <trkpt lat="46.70162" lon="-1.95061">
        <ele>5</ele>
        <time>2018-04-27T12:22:12Z</time>
      </trkpt>
      <trkpt lat="46.70162" lon="-1.95062">
        <ele>5</ele>
        <time>2018-04-27T12:23:12Z</time>
      </trkpt>
      <trkpt lat="46.70161" lon="-1.95063">
        <ele>5</ele>
        <time>2018-04-27T12:24:12Z</time>
      </trkpt>
      <trkpt lat="46.70161" lon="-1.95064">
        <ele>5</ele>
        <time>2018-04-27T12:25:12Z</time>
      </trkpt>
      <trkpt lat="46.70161" lon="-1.95065">
        <ele>5</ele>
        <time>2018-04-27T12:26:12Z</time>
      </trkpt>
      <trkpt lat="46.7016" lon="-1.95066">
        <ele>5</ele>
        <time>2018-04-27T12:27:12Z</time>
      </trkpt>
      <trkpt lat="46.7016" lon="-1.95067">
        <ele>5</ele>
        <time>2018-04-27T12:28:12Z</time>
      </trkpt>
      <trkpt lat="46.70159" lon="-1.95067">
        <ele>5</ele>
        <time>2018-04-27T12:29:12Z</time>
      </trkpt>
      <trkpt lat="46.70159" lon="-1.95068">
        <ele>5</ele>
        <time>2018-04-27T12:30:12Z</time>
      </trkpt>
      <trkpt lat="46.70158" lon="-1.95068">
        <ele>5</ele>
        <time>2018-04-27T12:31:12Z</time>
      </trkpt>
      <trkpt lat="46.70158" lon="-1.95069">
        <ele>5</ele>
        <time>2018-04-27T12:32:12Z</time>
      </trkpt>
      <trkpt lat="46.70157" lon="-1.95069">
        <ele>5</ele>
        <time>2018-04-27T12:33:12Z</time>
      </trkpt>
      <trkpt lat="46.70156" lon="-1.95069">
        <ele>5</ele>
        <time>2018-04-27T12:34:12Z</time>
      </trkpt>
      <trkpt lat="46.70156" lon="-1.95089">
        <ele>5</ele>
        <time>2018-04-27T12:35:12Z</time>
      </trkpt>
      <trkpt lat="46.70157" lon="-1.95107">
        <ele>5</ele>
        <time>2018-04-27T12:36:12Z</time>
      </trkpt>
      <trkpt lat="46.70158" lon="-1.95126">
        <ele>6</ele>
        <time>2018-04-27T12:37:12Z</time>
      </trkpt>
      <trkpt lat="46.7016" lon="-1.95145">
        <ele>6</ele>
        <time>2018-04-27T12:38:12Z</time>
      </trkpt>
      <trkpt lat="46.70162" lon="-1.95161">
        <ele>6</ele>
        <time>2018-04-27T12:39:12Z</time>
      </trkpt>
      <trkpt lat="46.70166" lon="-1.95179">
        <ele>6</ele>
        <time>2018-04-27T12:40:12Z</time>
      </trkpt>
      <trkpt lat="46.70167" lon="-1.95198">
        <ele>6</ele>
        <time>2018-04-27T12:41:12Z</time>
      </trkpt>
      <trkpt lat="46.70168" lon="-1.95219">
        <ele>5</ele>
        <time>2018-04-27T12:42:12Z</time>
      </trkpt>
      <trkpt lat="46.70167" lon="-1.95226">
        <ele>5</ele>
        <time>2018-04-27T12:43:12Z</time>
      </trkpt>
      <trkpt lat="46.70167" lon="-1.95232">
        <ele>5</ele>
        <time>2018-04-27T12:44:12Z</time>
      </trkpt>
      <trkpt lat="46.70163" lon="-1.95279">
        <ele>6</ele>
        <time>2018-04-27T12:45:12Z</time>
      </trkpt>
      <trkpt lat="46.70147" lon="-1.95382">
        <ele>8</ele>
        <time>2018-04-27T12:46:12Z</time>
      </trkpt>
      <trkpt lat="46.70142" lon="-1.95447">
        <ele>9</ele>
        <time>2018-04-27T12:47:12Z</time>
      </trkpt>
      <trkpt lat="46.70143" lon="-1.95473">
        <ele>9</ele>
        <time>2018-04-27T12:48:12Z</time>
      </trkpt>
      <trkpt lat="46.70153" lon="-1.9555">
        <ele>10</ele>
        <time>2018-04-27T12:49:12Z</time>
      </trkpt>
      <trkpt lat="46.70163" lon="-1.9561">
        <ele>11</ele>
        <time>2018-04-27T12:50:12Z</time>
      </trkpt>
      <trkpt lat="46.70164" lon="-1.95618">
        <ele>11</ele>
        <time>2018-04-27T12:51:12Z</time>
      </trkpt>
      <trkpt lat="46.70165" lon="-1.95628">
        <ele>11</ele>
        <time>2018-04-27T12:52:12Z</time>
      </trkpt>
      <trkpt lat="46.70166" lon="-1.95633">
        <ele>11</ele>
        <time>2018-04-27T12:53:12Z</time>
      </trkpt>
      <trkpt lat="46.70166" lon="-1.95633">
        <ele>11</ele>
        <time>2018-04-27T12:54:12Z</time>
      </trkpt>
      <trkpt lat="46.70167" lon="-1.95633">
        <ele>11</ele>
        <time>2018-04-27T12:55:12Z</time>
      </trkpt>
      <trkpt lat="46.70168" lon="-1.95634">
        <ele>11</ele>
        <time>2018-04-27T12:56:12Z</time>
      </trkpt>
      <trkpt lat="46.70169" lon="-1.95634">
        <ele>11</ele>
        <time>2018-04-27T12:57:12Z</time>
      </trkpt>
      <trkpt lat="46.70169" lon="-1.95635">
        <ele>11</ele>
        <time>2018-04-27T12:58:12Z</time>
      </trkpt>
      <trkpt lat="46.7017" lon="-1.95636">
        <ele>11</ele>
        <time>2018-04-27T12:59:12Z</time>
      </trkpt>
      <trkpt lat="46.7017" lon="-1.95637">
        <ele>11</ele>
        <time>2018-04-27T13:00:12Z</time>
      </trkpt>
      <trkpt lat="46.7017" lon="-1.95638">
        <ele>11</ele>
        <time>2018-04-27T13:01:12Z</time>
      </trkpt>
      <trkpt lat="46.70171" lon="-1.95638">
        <ele>11</ele>
        <time>2018-04-27T13:02:12Z</time>
      </trkpt>
      <trkpt lat="46.70171" lon="-1.95639">
        <ele>11</ele>
        <time>2018-04-27T13:03:12Z</time>
      </trkpt>
      <trkpt lat="46.70171" lon="-1.9564">
        <ele>11</ele>
        <time>2018-04-27T13:04:12Z</time>
      </trkpt>
      <trkpt lat="46.70171" lon="-1.95641">
        <ele>11</ele>
        <time>2018-04-27T13:05:12Z</time>
      </trkpt>
      <trkpt lat="46.70171" lon="-1.95642">
        <ele>11</ele>
        <time>2018-04-27T13:06:12Z</time>
      </trkpt>
      <trkpt lat="46.70171" lon="-1.95643">
        <ele>11</ele>
        <time>2018-04-27T13:07:12Z</time>
      </trkpt>
      <trkpt lat="46.70171" lon="-1.95644">
        <ele>11</ele>
        <time>2018-04-27T13:08:12Z</time>
      </trkpt>
      <trkpt lat="46.70171" lon="-1.95645">
        <ele>11</ele>
        <time>2018-04-27T13:09:12Z</time>
      </trkpt>
      <trkpt lat="46.70171" lon="-1.95646">
        <ele>11</ele>
        <time>2018-04-27T13:10:12Z</time>
      </trkpt>
      <trkpt lat="46.70171" lon="-1.95647">
        <ele>12</ele>
        <time>2018-04-27T13:11:12Z</time>
      </trkpt>
      <trkpt lat="46.70171" lon="-1.95648">
        <ele>12</ele>
        <time>2018-04-27T13:12:12Z</time>
      </trkpt>
      <trkpt lat="46.7017" lon="-1.95648">
        <ele>12</ele>
        <time>2018-04-27T13:13:12Z</time>
      </trkpt>
      <trkpt lat="46.7017" lon="-1.95649">
        <ele>12</ele>
        <time>2018-04-27T13:14:12Z</time>
      </trkpt>
      <trkpt lat="46.70171" lon="-1.95652">
        <ele>12</ele>
        <time>2018-04-27T13:15:12Z</time>
      </trkpt>
      <trkpt lat="46.70173" lon="-1.95667">
        <ele>12</ele>
        <time>2018-04-27T13:16:12Z</time>
      </trkpt>
      <trkpt lat="46.70175" lon="-1.95682">
        <ele>12</ele>
        <time>2018-04-27T13:17:12Z</time>
      </trkpt>
      <trkpt lat="46.70176" lon="-1.95686">
        <ele>12</ele>
        <time>2018-04-27T13:18:12Z</time>
      </trkpt>
      <trkpt lat="46.70181" lon="-1.95706">
        <ele>12</ele>
        <time>2018-04-27T13:19:12Z</time>
      </trkpt>
      <trkpt lat="46.70187" lon="-1.95726">
        <ele>12</ele>
        <time>2018-04-27T13:20:12Z</time>
      </trkpt>
      <trkpt lat="46.70197" lon="-1.95753">
        <ele>13</ele>
        <time>2018-04-27T13:21:12Z</time>
      </trkpt>
      <trkpt lat="46.70208" lon="-1.95777">
        <ele>12</ele>
        <time>2018-04-27T13:22:12Z</time>
      </trkpt>
      <trkpt lat="46.70217" lon="-1.95794">
        <ele>12</ele>
        <time>2018-04-27T13:23:12Z</time>
      </trkpt>
      <trkpt lat="46.70228" lon="-1.95813">
        <ele>12</ele>
        <time>2018-04-27T13:24:12Z</time>
      </trkpt>
      <trkpt lat="46.70241" lon="-1.95834">
        <ele>12</ele>
        <time>2018-04-27T13:25:12Z</time>
      </trkpt>
      <trkpt lat="46.70256" lon="-1.95852">
        <ele>12</ele>
        <time>2018-04-27T13:26:12Z</time>
      </trkpt>
      <trkpt lat="46.70274" lon="-1.95872">
        <ele>13</ele>
        <time>2018-04-27T13:27:12Z</time>
      </trkpt>
      <trkpt lat="46.70296" lon="-1.95894">
        <ele>13</ele>
        <time>2018-04-27T13:28:12Z</time>
      </trkpt>
      <trkpt lat="46.70302" lon="-1.95899">
        <ele>13</ele>
        <time>2018-04-27T13:29:12Z</time>
      </trkpt>
      <trkpt lat="46.70313" lon="-1.9591">
        <ele>14</ele>
        <time>2018-04-27T13:30:12Z</time>
      </trkpt>
      <trkpt lat="46.70333" lon="-1.95927">
        <ele>14</ele>
        <time>2018-04-27T13:31:12Z</time>
      </trkpt>
      <trkpt lat="46.70345" lon="-1.95938">
        <ele>14</ele>
        <time>2018-04-27T13:32:12Z</time>
      </trkpt>
      <trkpt lat="46.70348" lon="-1.95935">
        <ele>14</ele>
        <time>2018-04-27T13:33:12Z</time>
      </trkpt>
      <trkpt lat="46.7035" lon="-1.95934">
        <ele>14</ele>
        <time>2018-04-27T13:34:12Z</time>
      </trkpt>
      <trkpt lat="46.70352" lon="-1.95934">
        <ele>14</ele>
        <time>2018-04-27T13:35:12Z</time>
      </trkpt>
      <trkpt lat="46.70355" lon="-1.95935">
        <ele>14</ele>
        <time>2018-04-27T13:36:12Z</time>
      </trkpt>
      <trkpt lat="46.70358" lon="-1.95938">
        <ele>15</ele>
        <time>2018-04-27T13:37:12Z</time>
      </trkpt>
      <trkpt lat="46.7036" lon="-1.95943">
        <ele>15</ele>
        <time>2018-04-27T13:38:12Z</time>
      </trkpt>
      <trkpt lat="46.7036" lon="-1.95948">
        <ele>15</ele>
        <time>2018-04-27T13:39:12Z</time>
      </trkpt>
      <trkpt lat="46.70369" lon="-1.95955">
        <ele>15</ele>
        <time>2018-04-27T13:40:12Z</time>
      </trkpt>
      <trkpt lat="46.70393" lon="-1.95972">
        <ele>15</ele>
        <time>2018-04-27T13:41:12Z</time>
      </trkpt>
      <trkpt lat="46.70419" lon="-1.95986">
        <ele>16</ele>
        <time>2018-04-27T13:42:12Z</time>
      </trkpt>
      <trkpt lat="46.70447" lon="-1.96003">
        <ele>16</ele>
        <time>2018-04-27T13:43:12Z</time>
      </trkpt>
      <trkpt lat="46.70475" lon="-1.96016">
        <ele>15</ele>
        <time>2018-04-27T13:44:12Z</time>
      </trkpt>
      <trkpt lat="46.70506" lon="-1.96029">
        <ele>15</ele>
        <time>2018-04-27T13:45:12Z</time>
      </trkpt>
      <trkpt lat="46.70533" lon="-1.96039">
        <ele>16</ele>
        <time>2018-04-27T13:46:12Z</time>
      </trkpt>
      <trkpt lat="46.70555" lon="-1.96046">
        <ele>16</ele>
        <time>2018-04-27T13:47:12Z</time>
      </trkpt>
      <trkpt lat="46.70579" lon="-1.96052">
        <ele>16</ele>
        <time>2018-04-27T13:48:12Z</time>
      </trkpt>
      <trkpt lat="46.70615" lon="-1.96059">
        <ele>16</ele>
        <time>2018-04-27T13:49:12Z</time>
      </trkpt>
      <trkpt lat="46.7063" lon="-1.96062">
        <ele>16</ele>
        <time>2018-04-27T13:50:12Z</time>
      </trkpt>
      <trkpt lat="46.70647" lon="-1.96064">
        <ele>16</ele>
        <time>2018-04-27T13:51:12Z</time>
      </trkpt>
      <trkpt lat="46.70684" lon="-1.96067">
        <ele>16</ele>
        <time>2018-04-27T13:52:12Z</time>
      </trkpt>
      <trkpt lat="46.70717" lon="-1.96071">
        <ele>16</ele>
        <time>2018-04-27T13:53:12Z</time>
      </trkpt>
      <trkpt lat="46.70722" lon="-1.96071">
        <ele>16</ele>
        <time>2018-04-27T13:54:12Z</time>
      </trkpt>
      <trkpt lat="46.70763" lon="-1.96074">
        <ele>16</ele>
        <time>2018-04-27T13:55:12Z</time>
      </trkpt>
      <trkpt lat="46.7081" lon="-1.96079">
        <ele>15</ele>
        <time>2018-04-27T13:56:12Z</time>
      </trkpt>
      <trkpt lat="46.70848" lon="-1.96082">
        <ele>15</ele>
        <time>2018-04-27T13:57:12Z</time>
      </trkpt>
      <trkpt lat="46.70896" lon="-1.96087">
        <ele>16</ele>
        <time>2018-04-27T13:58:12Z</time>
      </trkpt>
      <trkpt lat="46.7092" lon="-1.9609">
        <ele>16</ele>
        <time>2018-04-27T13:59:12Z</time>
      </trkpt>
      <trkpt lat="46.70938" lon="-1.96092">
        <ele>16</ele>
        <time>2018-04-27T14:00:12Z</time>
      </trkpt>
      <trkpt lat="46.70954" lon="-1.96093">
        <ele>16</ele>
        <time>2018-04-27T14:01:12Z</time>
      </trkpt>
      <trkpt lat="46.70967" lon="-1.96095">
        <ele>16</ele>
        <time>2018-04-27T14:02:12Z</time>
      </trkpt>
      <trkpt lat="46.70967" lon="-1.96095">
        <ele>16</ele>
        <time>2018-04-27T14:03:12Z</time>
      </trkpt>
      <trkpt lat="46.70968" lon="-1.9609">
        <ele>16</ele>
        <time>2018-04-27T14:04:12Z</time>
      </trkpt>
      <trkpt lat="46.7097" lon="-1.96085">
        <ele>17</ele>
        <time>2018-04-27T14:05:12Z</time>
      </trkpt>
      <trkpt lat="46.70972" lon="-1.96082">
        <ele>17</ele>
        <time>2018-04-27T14:06:12Z</time>
      </trkpt>
      <trkpt lat="46.70975" lon="-1.9608">
        <ele>17</ele>
        <time>2018-04-27T14:07:12Z</time>
      </trkpt>
      <trkpt lat="46.7098" lon="-1.9608">
        <ele>17</ele>
        <time>2018-04-27T14:08:12Z</time>
      </trkpt>
      <trkpt lat="46.70984" lon="-1.96081">
        <ele>17</ele>
        <time>2018-04-27T14:09:12Z</time>
      </trkpt>
      <trkpt lat="46.70987" lon="-1.96084">
        <ele>17</ele>
        <time>2018-04-27T14:10:12Z</time>
      </trkpt>
      <trkpt lat="46.70989" lon="-1.96088">
        <ele>17</ele>
        <time>2018-04-27T14:11:12Z</time>
      </trkpt>
      <trkpt lat="46.70991" lon="-1.96094">
        <ele>16</ele>
        <time>2018-04-27T14:12:12Z</time>
      </trkpt>
      <trkpt lat="46.70991" lon="-1.96098">
        <ele>16</ele>
        <time>2018-04-27T14:13:12Z</time>
      </trkpt>
      <trkpt lat="46.7099" lon="-1.96103">
        <ele>16</ele>
        <time>2018-04-27T14:14:12Z</time>
      </trkpt>
      <trkpt lat="46.70987" lon="-1.96109">
        <ele>16</ele>
        <time>2018-04-27T14:15:12Z</time>
      </trkpt>
      <trkpt lat="46.70984" lon="-1.96112">
        <ele>16</ele>
        <time>2018-04-27T14:16:12Z</time>
      </trkpt>
      <trkpt lat="46.70982" lon="-1.96114">
        <ele>15</ele>
        <time>2018-04-27T14:17:12Z</time>
      </trkpt>
      <trkpt lat="46.70977" lon="-1.96114">
        <ele>15</ele>
        <time>2018-04-27T14:18:12Z</time>
      </trkpt>
      <trkpt lat="46.70976" lon="-1.96124">
        <ele>15</ele>
        <time>2018-04-27T14:19:12Z</time>
      </trkpt>
      <trkpt lat="46.70976" lon="-1.96132">
        <ele>15</ele>
        <time>2018-04-27T14:20:12Z</time>
      </trkpt>
      <trkpt lat="46.70977" lon="-1.96155">
        <ele>14</ele>
        <time>2018-04-27T14:21:12Z</time>
      </trkpt>
      <trkpt lat="46.70978" lon="-1.96188">
        <ele>13</ele>
        <time>2018-04-27T14:22:12Z</time>
      </trkpt>
      <trkpt lat="46.70978" lon="-1.96214">
        <ele>13</ele>
        <time>2018-04-27T14:23:12Z</time>
      </trkpt>
      <trkpt lat="46.70978" lon="-1.96247">
        <ele>13</ele>
        <time>2018-04-27T14:24:12Z</time>
      </trkpt>
      <trkpt lat="46.70979" lon="-1.96277">
        <ele>13</ele>
        <time>2018-04-27T14:25:12Z</time>
      </trkpt>
      <trkpt lat="46.70979" lon="-1.96306">
        <ele>13</ele>
        <time>2018-04-27T14:26:12Z</time>
      </trkpt>
      <trkpt lat="46.70978" lon="-1.9633">
        <ele>13</ele>
        <time>2018-04-27T14:27:12Z</time>
      </trkpt>
      <trkpt lat="46.70976" lon="-1.96356">
        <ele>13</ele>
        <time>2018-04-27T14:28:12Z</time>
      </trkpt>
      <trkpt lat="46.70975" lon="-1.96369">
        <ele>13</ele>
        <time>2018-04-27T14:29:12Z</time>
      </trkpt>
      <trkpt lat="46.70972" lon="-1.96386">
        <ele>13</ele>
        <time>2018-04-27T14:30:12Z</time>
      </trkpt>
      <trkpt lat="46.70969" lon="-1.96404">
        <ele>14</ele>
        <time>2018-04-27T14:31:12Z</time>
      </trkpt>
      <trkpt lat="46.70966" lon="-1.96422">
        <ele>14</ele>
        <time>2018-04-27T14:32:12Z</time>
      </trkpt>
      <trkpt lat="46.70963" lon="-1.96436">
        <ele>14</ele>
        <time>2018-04-27T14:33:12Z</time>
      </trkpt>
      <trkpt lat="46.70959" lon="-1.96453">
        <ele>14</ele>
        <time>2018-04-27T14:34:12Z</time>
      </trkpt>
      <trkpt lat="46.70955" lon="-1.9647">
        <ele>14</ele>
        <time>2018-04-27T14:35:12Z</time>
      </trkpt>
      <trkpt lat="46.7095" lon="-1.96493">
        <ele>14</ele>
        <time>2018-04-27T14:36:12Z</time>
      </trkpt>
      <trkpt lat="46.70946" lon="-1.96512">
        <ele>14</ele>
        <time>2018-04-27T14:37:12Z</time>
      </trkpt>
      <trkpt lat="46.70942" lon="-1.96531">
        <ele>13</ele>
        <time>2018-04-27T14:38:12Z</time>
      </trkpt>
      <trkpt lat="46.7094" lon="-1.96544">
        <ele>13</ele>
        <time>2018-04-27T14:39:12Z</time>
      </trkpt>
      <trkpt lat="46.70938" lon="-1.96557">
        <ele>13</ele>
        <time>2018-04-27T14:40:12Z</time>
      </trkpt>
      <trkpt lat="46.70938" lon="-1.96567">
        <ele>13</ele>
        <time>2018-04-27T14:41:12Z</time>
      </trkpt>
      <trkpt lat="46.70938" lon="-1.96578">
        <ele>13</ele>
        <time>2018-04-27T14:42:12Z</time>
      </trkpt>
      <trkpt lat="46.70939" lon="-1.96593">
        <ele>13</ele>
        <time>2018-04-27T14:43:12Z</time>
      </trkpt>
      <trkpt lat="46.70941" lon="-1.96605">
        <ele>13</ele>
        <time>2018-04-27T14:44:12Z</time>
      </trkpt>
      <trkpt lat="46.70943" lon="-1.96619">
        <ele>13</ele>
        <time>2018-04-27T14:45:12Z</time>
      </trkpt>
      <trkpt lat="46.70947" lon="-1.9663">
        <ele>13</ele>
        <time>2018-04-27T14:46:12Z</time>
      </trkpt>
      <trkpt lat="46.7095" lon="-1.9664">
        <ele>13</ele>
        <time>2018-04-27T14:47:12Z</time>
      </trkpt>
      <trkpt lat="46.70955" lon="-1.96651">
        <ele>13</ele>
        <time>2018-04-27T14:48:12Z</time>
      </trkpt>
      <trkpt lat="46.70963" lon="-1.96669">
        <ele>13</ele>
        <time>2018-04-27T14:49:12Z</time>
      </trkpt>
      <trkpt lat="46.70969" lon="-1.96685">
        <ele>13</ele>
        <time>2018-04-27T14:50:12Z</time>
      </trkpt>
      <trkpt lat="46.70973" lon="-1.96697">
        <ele>13</ele>
        <time>2018-04-27T14:51:12Z</time>
      </trkpt>
      <trkpt lat="46.70976" lon="-1.96705">
        <ele>13</ele>
        <time>2018-04-27T14:52:12Z</time>
      </trkpt>
      <trkpt lat="46.70981" lon="-1.96714">
        <ele>13</ele>
        <time>2018-04-27T14:53:12Z</time>
      </trkpt>
      <trkpt lat="46.70982" lon="-1.96719">
        <ele>13</ele>
        <time>2018-04-27T14:54:12Z</time>
      </trkpt>
      <trkpt lat="46.70988" lon="-1.96726">
        <ele>13</ele>
        <time>2018-04-27T14:55:12Z</time>
      </trkpt>
      <trkpt lat="46.70991" lon="-1.96733">
        <ele>13</ele>
        <time>2018-04-27T14:56:12Z</time>
      </trkpt>
      <trkpt lat="46.70992" lon="-1.96736">
        <ele>13</ele>
        <time>2018-04-27T14:57:12Z</time>
      </trkpt>
      <trkpt lat="46.70995" lon="-1.96741">
        <ele>13</ele>
        <time>2018-04-27T14:58:12Z</time>
      </trkpt>
      <trkpt lat="46.70998" lon="-1.96744">
        <ele>13</ele>
        <time>2018-04-27T14:59:12Z</time>
      </trkpt>
      <trkpt lat="46.71001" lon="-1.96747">
        <ele>13</ele>
        <time>2018-04-27T15:00:12Z</time>
      </trkpt>
      <trkpt lat="46.71001" lon="-1.96747">
        <ele>13</ele>
        <time>2018-04-27T15:01:12Z</time>
      </trkpt>
      <trkpt lat="46.71005" lon="-1.96746">
        <ele>13</ele>
        <time>2018-04-27T15:02:12Z</time>
      </trkpt>
      <trkpt lat="46.71009" lon="-1.96746">
        <ele>13</ele>
        <time>2018-04-27T15:03:12Z</time>
      </trkpt>
      <trkpt lat="46.71013" lon="-1.96746">
        <ele>13</ele>
        <time>2018-04-27T15:04:12Z</time>
      </trkpt>
      <trkpt lat="46.71016" lon="-1.96749">
        <ele>13</ele>
        <time>2018-04-27T15:05:12Z</time>
      </trkpt>
      <trkpt lat="46.71023" lon="-1.96757">
        <ele>13</ele>
        <time>2018-04-27T15:06:12Z</time>
      </trkpt>
      <trkpt lat="46.71029" lon="-1.96761">
        <ele>13</ele>
        <time>2018-04-27T15:07:12Z</time>
      </trkpt>
      <trkpt lat="46.71034" lon="-1.96764">
        <ele>13</ele>
        <time>2018-04-27T15:08:12Z</time>
      </trkpt>
      <trkpt lat="46.71039" lon="-1.96766">
        <ele>13</ele>
        <time>2018-04-27T15:09:12Z</time>
      </trkpt>
      <trkpt lat="46.71065" lon="-1.96766">
        <ele>14</ele>
        <time>2018-04-27T15:10:12Z</time>
      </trkpt>
      <trkpt lat="46.71081" lon="-1.96765">
        <ele>14</ele>
        <time>2018-04-27T15:11:12Z</time>
      </trkpt>
      <trkpt lat="46.71128" lon="-1.96765">
        <ele>14</ele>
        <time>2018-04-27T15:12:12Z</time>
      </trkpt>
      <trkpt lat="46.71179" lon="-1.96765">
        <ele>15</ele>
        <time>2018-04-27T15:13:12Z</time>
      </trkpt>
      <trkpt lat="46.71215" lon="-1.96763">
        <ele>15</ele>
        <time>2018-04-27T15:14:12Z</time>
      </trkpt>
      <trkpt lat="46.71239" lon="-1.96763">
        <ele>15</ele>
        <time>2018-04-27T15:15:12Z</time>
      </trkpt>
      <trkpt lat="46.71248" lon="-1.9676">
        <ele>15</ele>
        <time>2018-04-27T15:16:12Z</time>
      </trkpt>
      <trkpt lat="46.71248" lon="-1.9676">
        <ele>15</ele>
        <time>2018-04-27T15:17:12Z</time>
      </trkpt>
      <trkpt lat="46.71268" lon="-1.96753">
        <ele>15</ele>
        <time>2018-04-27T15:18:12Z</time>
      </trkpt>
      <trkpt lat="46.7128" lon="-1.96751">
        <ele>16</ele>
        <time>2018-04-27T15:19:12Z</time>
      </trkpt>
      <trkpt lat="46.71292" lon="-1.9675">
        <ele>16</ele>
        <time>2018-04-27T15:20:12Z</time>
      </trkpt>
      <trkpt lat="46.713" lon="-1.9675">
        <ele>16</ele>
        <time>2018-04-27T15:21:12Z</time>
      </trkpt>
      <trkpt lat="46.7131" lon="-1.96749">
        <ele>16</ele>
        <time>2018-04-27T15:22:12Z</time>
      </trkpt>
      <trkpt lat="46.7132" lon="-1.9675">
        <ele>17</ele>
        <time>2018-04-27T15:23:12Z</time>
      </trkpt>
      <trkpt lat="46.71332" lon="-1.96753">
        <ele>17</ele>
        <time>2018-04-27T15:24:12Z</time>
      </trkpt>
      <trkpt lat="46.71348" lon="-1.96755">
        <ele>16</ele>
        <time>2018-04-27T15:25:12Z</time>
      </trkpt>
      <trkpt lat="46.71362" lon="-1.96758">
        <ele>16</ele>
        <time>2018-04-27T15:26:12Z</time>
      </trkpt>
      <trkpt lat="46.7137" lon="-1.96762">
        <ele>15</ele>
        <time>2018-04-27T15:27:12Z</time>
      </trkpt>
      <trkpt lat="46.71382" lon="-1.96767">
        <ele>15</ele>
        <time>2018-04-27T15:28:12Z</time>
      </trkpt>
      <trkpt lat="46.71395" lon="-1.96774">
        <ele>14</ele>
        <time>2018-04-27T15:29:12Z</time>
      </trkpt>
      <trkpt lat="46.71403" lon="-1.96777">
        <ele>14</ele>
        <time>2018-04-27T15:30:12Z</time>
      </trkpt>
      <trkpt lat="46.71403" lon="-1.96777">
        <ele>14</ele>
        <time>2018-04-27T15:31:12Z</time>
      </trkpt>
      <trkpt lat="46.71424" lon="-1.96783">
        <ele>13</ele>
        <time>2018-04-27T15:32:12Z</time>
      </trkpt>
      <trkpt lat="46.71442" lon="-1.96789">
        <ele>13</ele>
        <time>2018-04-27T15:33:12Z</time>
      </trkpt>
      <trkpt lat="46.71474" lon="-1.96801">
        <ele>13</ele>
        <time>2018-04-27T15:34:12Z</time>
      </trkpt>
      <trkpt lat="46.71496" lon="-1.96806">
        <ele>13</ele>
        <time>2018-04-27T15:35:12Z</time>
      </trkpt>
      <trkpt lat="46.71528" lon="-1.96807">
        <ele>14</ele>
        <time>2018-04-27T15:36:12Z</time>
      </trkpt>
      <trkpt lat="46.71543" lon="-1.96807">
        <ele>14</ele>
        <time>2018-04-27T15:37:12Z</time>
      </trkpt>
      <trkpt lat="46.71558" lon="-1.96809">
        <ele>14</ele>
        <time>2018-04-27T15:38:12Z</time>
      </trkpt>
      <trkpt lat="46.71571" lon="-1.9681">
        <ele>14</ele>
        <time>2018-04-27T15:39:12Z</time>
      </trkpt>
      <trkpt lat="46.71581" lon="-1.96809">
        <ele>14</ele>
        <time>2018-04-27T15:40:12Z</time>
      </trkpt>
      <trkpt lat="46.71587" lon="-1.96807">
        <ele>14</ele>
        <time>2018-04-27T15:41:12Z</time>
      </trkpt>
      <trkpt lat="46.71593" lon="-1.96805">
        <ele>14</ele>
        <time>2018-04-27T15:42:12Z</time>
      </trkpt>
      <trkpt lat="46.71598" lon="-1.96802">
        <ele>14</ele>
        <time>2018-04-27T15:43:12Z</time>
      </trkpt>
      <trkpt lat="46.71615" lon="-1.96791">
        <ele>14</ele>
        <time>2018-04-27T15:44:12Z</time>
      </trkpt>
      <trkpt lat="46.71634" lon="-1.9678">
        <ele>14</ele>
        <time>2018-04-27T15:45:12Z</time>
      </trkpt>
      <trkpt lat="46.71643" lon="-1.96776">
        <ele>14</ele>
        <time>2018-04-27T15:46:12Z</time>
      </trkpt>
      <trkpt lat="46.7165" lon="-1.96775">
        <ele>14</ele>
        <time>2018-04-27T15:47:12Z</time>
      </trkpt>
      <trkpt lat="46.71657" lon="-1.96774">
        <ele>14</ele>
        <time>2018-04-27T15:48:12Z</time>
      </trkpt>
      <trkpt lat="46.71664" lon="-1.96774">
        <ele>14</ele>
        <time>2018-04-27T15:49:12Z</time>
      </trkpt>
      <trkpt lat="46.71672" lon="-1.96774">
        <ele>14</ele>
        <time>2018-04-27T15:50:12Z</time>
      </trkpt>
      <trkpt lat="46.7168" lon="-1.96777">
        <ele>14</ele>
        <time>2018-04-27T15:51:12Z</time>
      </trkpt>
      <trkpt lat="46.71689" lon="-1.96781">
        <ele>14</ele>
        <time>2018-04-27T15:52:12Z</time>
      </trkpt>
      <trkpt lat="46.71699" lon="-1.96786">
        <ele>13</ele>
        <time>2018-04-27T15:53:12Z</time>
      </trkpt>
      <trkpt lat="46.71712" lon="-1.96794">
        <ele>13</ele>
        <time>2018-04-27T15:54:12Z</time>
      </trkpt>
      <trkpt lat="46.71726" lon="-1.96803">
        <ele>13</ele>
        <time>2018-04-27T15:55:12Z</time>
      </trkpt>
      <trkpt lat="46.71738" lon="-1.96811">
        <ele>13</ele>
        <time>2018-04-27T15:56:12Z</time>
      </trkpt>
      <trkpt lat="46.71747" lon="-1.96817">
        <ele>13</ele>
        <time>2018-04-27T15:57:12Z</time>
      </trkpt>
      <trkpt lat="46.71755" lon="-1.9682">
        <ele>13</ele>
        <time>2018-04-27T15:58:12Z</time>
      </trkpt>
      <trkpt lat="46.71767" lon="-1.96825">
        <ele>13</ele>
        <time>2018-04-27T15:59:12Z</time>
      </trkpt>
      <trkpt lat="46.71781" lon="-1.9683">
        <ele>13</ele>
        <time>2018-04-27T16:00:12Z</time>
      </trkpt>
      <trkpt lat="46.71796" lon="-1.96835">
        <ele>14</ele>
        <time>2018-04-27T16:01:12Z</time>
      </trkpt>
      <trkpt lat="46.71808" lon="-1.96839">
        <ele>14</ele>
        <time>2018-04-27T16:02:12Z</time>
      </trkpt>
      <trkpt lat="46.71812" lon="-1.96843">
        <ele>14</ele>
        <time>2018-04-27T16:03:12Z</time>
      </trkpt>
      <trkpt lat="46.71812" lon="-1.96843">
        <ele>14</ele>
        <time>2018-04-27T16:04:12Z</time>
      </trkpt>
      <trkpt lat="46.71829" lon="-1.96851">
        <ele>14</ele>
        <time>2018-04-27T16:05:12Z</time>
      </trkpt>
      <trkpt lat="46.71835" lon="-1.96855">
        <ele>14</ele>
        <time>2018-04-27T16:06:12Z</time>
      </trkpt>
      <trkpt lat="46.71855" lon="-1.96862">
        <ele>15</ele>
        <time>2018-04-27T16:07:12Z</time>
      </trkpt>
      <trkpt lat="46.71856" lon="-1.96862">
        <ele>15</ele>
        <time>2018-04-27T16:08:12Z</time>
      </trkpt>
      <trkpt lat="46.7186" lon="-1.96864">
        <ele>15</ele>
        <time>2018-04-27T16:09:12Z</time>
      </trkpt>
      <trkpt lat="46.71865" lon="-1.96867">
        <ele>15</ele>
        <time>2018-04-27T16:10:12Z</time>
      </trkpt>
      <trkpt lat="46.71872" lon="-1.96873">
        <ele>15</ele>
        <time>2018-04-27T16:11:12Z</time>
      </trkpt>
      <trkpt lat="46.71883" lon="-1.96894">
        <ele>15</ele>
        <time>2018-04-27T16:12:12Z</time>
      </trkpt>
      <trkpt lat="46.7189" lon="-1.96905">
        <ele>15</ele>
        <time>2018-04-27T16:13:12Z</time>
      </trkpt>
      <trkpt lat="46.71919" lon="-1.96958">
        <ele>15</ele>
        <time>2018-04-27T16:14:12Z</time>
      </trkpt>
      <trkpt lat="46.7193" lon="-1.96978">
        <ele>15</ele>
        <time>2018-04-27T16:15:12Z</time>
      </trkpt>
      <trkpt lat="46.71944" lon="-1.97005">
        <ele>14</ele>
        <time>2018-04-27T16:16:12Z</time>
      </trkpt>
      <trkpt lat="46.71969" lon="-1.97055">
        <ele>13</ele>
        <time>2018-04-27T16:17:12Z</time>
      </trkpt>
      <trkpt lat="46.7199" lon="-1.97098">
        <ele>12</ele>
        <time>2018-04-27T16:18:12Z</time>
      </trkpt>
      <trkpt lat="46.71999" lon="-1.97111">
        <ele>11</ele>
        <time>2018-04-27T16:19:12Z</time>
      </trkpt>
      <trkpt lat="46.72012" lon="-1.97137">
        <ele>11</ele>
        <time>2018-04-27T16:20:12Z</time>
      </trkpt>
      <trkpt lat="46.72045" lon="-1.972">
        <ele>10</ele>
        <time>2018-04-27T16:21:12Z</time>
      </trkpt>
      <trkpt lat="46.72062" lon="-1.97231">
        <ele>10</ele>
        <time>2018-04-27T16:22:12Z</time>
      </trkpt>
      <trkpt lat="46.72092" lon="-1.97285">
        <ele>9</ele>
        <time>2018-04-27T16:23:12Z</time>
      </trkpt>
      <trkpt lat="46.72114" lon="-1.97324">
        <ele>9</ele>
        <time>2018-04-27T16:24:12Z</time>
      </trkpt>
      <trkpt lat="46.72132" lon="-1.97353">
        <ele>10</ele>
        <time>2018-04-27T16:25:12Z</time>
      </trkpt>
      <trkpt lat="46.72144" lon="-1.97376">
        <ele>10</ele>
        <time>2018-04-27T16:26:12Z</time>
      </trkpt>
      <trkpt lat="46.72182" lon="-1.97442">
        <ele>10</ele>
        <time>2018-04-27T16:27:12Z</time>
      </trkpt>
      <trkpt lat="46.72229" lon="-1.97523">
        <ele>11</ele>
        <time>2018-04-27T16:28:12Z</time>
      </trkpt>
      <trkpt lat="46.72252" lon="-1.97565">
        <ele>12</ele>
        <time>2018-04-27T16:29:12Z</time>
      </trkpt>
      <trkpt lat="46.72268" lon="-1.97595">
        <ele>12</ele>
        <time>2018-04-27T16:30:12Z</time>
      </trkpt>
      <trkpt lat="46.72278" lon="-1.97612">
        <ele>12</ele>
        <time>2018-04-27T16:31:12Z</time>
      </trkpt>
      <trkpt lat="46.72306" lon="-1.97664">
        <ele>11</ele>
        <time>2018-04-27T16:32:12Z</time>
      </trkpt>
      <trkpt lat="46.72345" lon="-1.97737">
        <ele>9</ele>
        <time>2018-04-27T16:33:12Z</time>
      </trkpt>
      <trkpt lat="46.72381" lon="-1.97799">
        <ele>8</ele>
        <time>2018-04-27T16:34:12Z</time>
      </trkpt>
      <trkpt lat="46.72387" lon="-1.97802">
        <ele>7</ele>
        <time>2018-04-27T16:35:12Z</time>
      </trkpt>
      <trkpt lat="46.72403" lon="-1.97824">
        <ele>7</ele>
        <time>2018-04-27T16:36:12Z</time>
      </trkpt>
      <trkpt lat="46.72404" lon="-1.97824">
        <ele>7</ele>
        <time>2018-04-27T16:37:12Z</time>
      </trkpt>
      <trkpt lat="46.72405" lon="-1.97824">
        <ele>7</ele>
        <time>2018-04-27T16:38:12Z</time>
      </trkpt>
      <trkpt lat="46.72406" lon="-1.97824">
        <ele>6</ele>
        <time>2018-04-27T16:39:12Z</time>
      </trkpt>
      <trkpt lat="46.72407" lon="-1.97824">
        <ele>6</ele>
        <time>2018-04-27T16:40:12Z</time>
      </trkpt>
      <trkpt lat="46.72407" lon="-1.97825">
        <ele>6</ele>
        <time>2018-04-27T16:41:12Z</time>
      </trkpt>
      <trkpt lat="46.72408" lon="-1.97825">
        <ele>6</ele>
        <time>2018-04-27T16:42:12Z</time>
      </trkpt>
      <trkpt lat="46.72408" lon="-1.97826">
        <ele>6</ele>
        <time>2018-04-27T16:43:12Z</time>
      </trkpt>
      <trkpt lat="46.72409" lon="-1.97826">
        <ele>6</ele>
        <time>2018-04-27T16:44:12Z</time>
      </trkpt>
      <trkpt lat="46.72409" lon="-1.97827">
        <ele>6</ele>
        <time>2018-04-27T16:45:12Z</time>
      </trkpt>
      <trkpt lat="46.7241" lon="-1.97827">
        <ele>6</ele>
        <time>2018-04-27T16:46:12Z</time>
      </trkpt>
      <trkpt lat="46.7241" lon="-1.97828">
        <ele>6</ele>
        <time>2018-04-27T16:47:12Z</time>
      </trkpt>
      <trkpt lat="46.72411" lon="-1.97829">
        <ele>6</ele>
        <time>2018-04-27T16:48:12Z</time>
      </trkpt>
      <trkpt lat="46.72411" lon="-1.9783">
        <ele>6</ele>
        <time>2018-04-27T16:49:12Z</time>
      </trkpt>
      <trkpt lat="46.72412" lon="-1.97831">
        <ele>6</ele>
        <time>2018-04-27T16:50:12Z</time>
      </trkpt>
      <trkpt lat="46.72412" lon="-1.97832">
        <ele>6</ele>
        <time>2018-04-27T16:51:12Z</time>
      </trkpt>
      <trkpt lat="46.72412" lon="-1.97833">
        <ele>6</ele>
        <time>2018-04-27T16:52:12Z</time>
      </trkpt>
      <trkpt lat="46.72412" lon="-1.97834">
        <ele>6</ele>
        <time>2018-04-27T16:53:12Z</time>
      </trkpt>
      <trkpt lat="46.72412" lon="-1.97835">
        <ele>6</ele>
        <time>2018-04-27T16:54:12Z</time>
      </trkpt>
      <trkpt lat="46.72412" lon="-1.97836">
        <ele>6</ele>
        <time>2018-04-27T16:55:12Z</time>
      </trkpt>
      <trkpt lat="46.72412" lon="-1.97837">
        <ele>6</ele>
        <time>2018-04-27T16:56:12Z</time>
      </trkpt>
      <trkpt lat="46.72412" lon="-1.97838">
        <ele>6</ele>
        <time>2018-04-27T16:57:12Z</time>
      </trkpt>
      <trkpt lat="46.72412" lon="-1.97839">
        <ele>6</ele>
        <time>2018-04-27T16:58:12Z</time>
      </trkpt>
      <trkpt lat="46.72412" lon="-1.9784">
        <ele>6</ele>
        <time>2018-04-27T16:59:12Z</time>
      </trkpt>
      <trkpt lat="46.72425" lon="-1.97862">
        <ele>7</ele>
        <time>2018-04-27T17:00:12Z</time>
      </trkpt>
      <trkpt lat="46.72429" lon="-1.97876">
        <ele>7</ele>
        <time>2018-04-27T17:01:12Z</time>
      </trkpt>
      <trkpt lat="46.72432" lon="-1.97882">
        <ele>8</ele>
        <time>2018-04-27T17:02:12Z</time>
      </trkpt>
      <trkpt lat="46.72448" lon="-1.97908">
        <ele>8</ele>
        <time>2018-04-27T17:03:12Z</time>
      </trkpt>
      <trkpt lat="46.7247" lon="-1.97935">
        <ele>8</ele>
        <time>2018-04-27T17:04:12Z</time>
      </trkpt>
      <trkpt lat="46.7248" lon="-1.97945">
        <ele>8</ele>
        <time>2018-04-27T17:05:12Z</time>
      </trkpt>
      <trkpt lat="46.7249" lon="-1.97955">
        <ele>8</ele>
        <time>2018-04-27T17:06:12Z</time>
      </trkpt>
      <trkpt lat="46.72513" lon="-1.97975">
        <ele>8</ele>
        <time>2018-04-27T17:07:12Z</time>
      </trkpt>
      <trkpt lat="46.7254" lon="-1.97993">
        <ele>8</ele>
        <time>2018-04-27T17:08:12Z</time>
      </trkpt>
      <trkpt lat="46.72577" lon="-1.98018">
        <ele>8</ele>
        <time>2018-04-27T17:09:12Z</time>
      </trkpt>
      <trkpt lat="46.72619" lon="-1.98047">
        <ele>9</ele>
        <time>2018-04-27T17:10:12Z</time>
      </trkpt>
      <trkpt lat="46.72667" lon="-1.98081">
        <ele>10</ele>
        <time>2018-04-27T17:11:12Z</time>
      </trkpt>
      <trkpt lat="46.72704" lon="-1.98105">
        <ele>11</ele>
        <time>2018-04-27T17:12:12Z</time>
      </trkpt>
      <trkpt lat="46.72722" lon="-1.98115">
        <ele>11</ele>
        <time>2018-04-27T17:13:12Z</time>
      </trkpt>
      <trkpt lat="46.72738" lon="-1.98124">
        <ele>11</ele>
        <time>2018-04-27T17:14:12Z</time>
      </trkpt>
      <trkpt lat="46.72753" lon="-1.98131">
        <ele>11</ele>
        <time>2018-04-27T17:15:12Z</time>
      </trkpt>
      <trkpt lat="46.72761" lon="-1.98134">
        <ele>11</ele>
        <time>2018-04-27T17:16:12Z</time>
      </trkpt>
      <trkpt lat="46.72778" lon="-1.98142">
        <ele>10</ele>
        <time>2018-04-27T17:17:12Z</time>
      </trkpt>
      <trkpt lat="46.72793" lon="-1.98149">
        <ele>10</ele>
        <time>2018-04-27T17:18:12Z</time>
      </trkpt>
      <trkpt lat="46.72817" lon="-1.98158">
        <ele>9</ele>
        <time>2018-04-27T17:19:12Z</time>
      </trkpt>
      <trkpt lat="46.72862" lon="-1.98176">
        <ele>9</ele>
        <time>2018-04-27T17:20:12Z</time>
      </trkpt>
      <trkpt lat="46.72964" lon="-1.98218">
        <ele>11</ele>
        <time>2018-04-27T17:21:12Z</time>
      </trkpt>
      <trkpt lat="46.73021" lon="-1.98242">
        <ele>10</ele>
        <time>2018-04-27T17:22:12Z</time>
      </trkpt>
      <trkpt lat="46.73054" lon="-1.98256">
        <ele>11</ele>
        <time>2018-04-27T17:23:12Z</time>
      </trkpt>
      <trkpt lat="46.7307" lon="-1.98262">
        <ele>11</ele>
        <time>2018-04-27T17:24:12Z</time>
      </trkpt>
      <trkpt lat="46.73092" lon="-1.98272">
        <ele>11</ele>
        <time>2018-04-27T17:25:12Z</time>
      </trkpt>
      <trkpt lat="46.73108" lon="-1.98278">
        <ele>11</ele>
        <time>2018-04-27T17:26:12Z</time>
      </trkpt>
      <trkpt lat="46.73123" lon="-1.98284">
        <ele>11</ele>
        <time>2018-04-27T17:27:12Z</time>
      </trkpt>
      <trkpt lat="46.73138" lon="-1.98291">
        <ele>12</ele>
        <time>2018-04-27T17:28:12Z</time>
      </trkpt>
      <trkpt lat="46.73152" lon="-1.98299">
        <ele>12</ele>
        <time>2018-04-27T17:29:12Z</time>
      </trkpt>
      <trkpt lat="46.73162" lon="-1.98305">
        <ele>12</ele>
        <time>2018-04-27T17:30:12Z</time>
      </trkpt>
      <trkpt lat="46.73174" lon="-1.98312">
        <ele>12</ele>
        <time>2018-04-27T17:31:12Z</time>
      </trkpt>
      <trkpt lat="46.7319" lon="-1.98325">
        <ele>12</ele>
        <time>2018-04-27T17:32:12Z</time>
      </trkpt>
      <trkpt lat="46.73213" lon="-1.98346">
        <ele>11</ele>
        <time>2018-04-27T17:33:12Z</time>
      </trkpt>
      <trkpt lat="46.73238" lon="-1.9837">
        <ele>11</ele>
        <time>2018-04-27T17:34:12Z</time>
      </trkpt>
      <trkpt lat="46.73263" lon="-1.98394">
        <ele>10</ele>
        <time>2018-04-27T17:35:12Z</time>
      </trkpt>
      <trkpt lat="46.73291" lon="-1.9842">
        <ele>10</ele>
        <time>2018-04-27T17:36:12Z</time>
      </trkpt>
      <trkpt lat="46.73318" lon="-1.98447">
        <ele>10</ele>
        <time>2018-04-27T17:37:12Z</time>
      </trkpt>
      <trkpt lat="46.73336" lon="-1.98466">
        <ele>10</ele>
        <time>2018-04-27T17:38:12Z</time>
      </trkpt>
      <trkpt lat="46.73347" lon="-1.98478">
        <ele>10</ele>
        <time>2018-04-27T17:39:12Z</time>
      </trkpt>
      <trkpt lat="46.73356" lon="-1.9849">
        <ele>9</ele>
        <time>2018-04-27T17:40:12Z</time>
      </trkpt>
      <trkpt lat="46.73362" lon="-1.98501">
        <ele>9</ele>
        <time>2018-04-27T17:41:12Z</time>
      </trkpt>
      <trkpt lat="46.73369" lon="-1.98518">
        <ele>9</ele>
        <time>2018-04-27T17:42:12Z</time>
      </trkpt>
      <trkpt lat="46.73375" lon="-1.98535">
        <ele>9</ele>
        <time>2018-04-27T17:43:12Z</time>
      </trkpt>
      <trkpt lat="46.7338" lon="-1.98549">
        <ele>9</ele>
        <time>2018-04-27T17:44:12Z</time>
      </trkpt>
      <trkpt lat="46.73383" lon="-1.98564">
        <ele>9</ele>
        <time>2018-04-27T17:45:12Z</time>
      </trkpt>
      <trkpt lat="46.73386" lon="-1.98577">
        <ele>9</ele>
        <time>2018-04-27T17:46:12Z</time>
      </trkpt>
      <trkpt lat="46.73387" lon="-1.98593">
        <ele>9</ele>
        <time>2018-04-27T17:47:12Z</time>
      </trkpt>
      <trkpt lat="46.73388" lon="-1.9861">
        <ele>9</ele>
        <time>2018-04-27T17:48:12Z</time>
      </trkpt>
      <trkpt lat="46.73389" lon="-1.98623">
        <ele>9</ele>
        <time>2018-04-27T17:49:12Z</time>
      </trkpt>
      <trkpt lat="46.73389" lon="-1.98633">
        <ele>9</ele>
        <time>2018-04-27T17:50:12Z</time>
      </trkpt>
      <trkpt lat="46.73389" lon="-1.98637">
        <ele>9</ele>
        <time>2018-04-27T17:51:12Z</time>
      </trkpt>
      <trkpt lat="46.73392" lon="-1.98653">
        <ele>9</ele>
        <time>2018-04-27T17:52:12Z</time>
      </trkpt>
      <trkpt lat="46.73393" lon="-1.9866">
        <ele>9</ele>
        <time>2018-04-27T17:53:12Z</time>
      </trkpt>
      <trkpt lat="46.73394" lon="-1.98667">
        <ele>9</ele>
        <time>2018-04-27T17:54:12Z</time>
      </trkpt>
      <trkpt lat="46.73397" lon="-1.98679">
        <ele>9</ele>
        <time>2018-04-27T17:55:12Z</time>
      </trkpt>
      <trkpt lat="46.73401" lon="-1.98693">
        <ele>9</ele>
        <time>2018-04-27T17:56:12Z</time>
      </trkpt>
      <trkpt lat="46.73404" lon="-1.98702">
        <ele>9</ele>
        <time>2018-04-27T17:57:12Z</time>
      </trkpt>
      <trkpt lat="46.73407" lon="-1.98708">
        <ele>9</ele>
        <time>2018-04-27T17:58:12Z</time>
      </trkpt>
      <trkpt lat="46.73414" lon="-1.9872">
        <ele>9</ele>
        <time>2018-04-27T17:59:12Z</time>
      </trkpt>
      <trkpt lat="46.73425" lon="-1.98734">
        <ele>9</ele>
        <time>2018-04-27T18:00:12Z</time>
      </trkpt>
      <trkpt lat="46.73441" lon="-1.98751">
        <ele>8</ele>
        <time>2018-04-27T18:01:12Z</time>
      </trkpt>
      <trkpt lat="46.73447" lon="-1.98757">
        <ele>8</ele>
        <time>2018-04-27T18:02:12Z</time>
      </trkpt>
      <trkpt lat="46.73474" lon="-1.98783">
        <ele>9</ele>
        <time>2018-04-27T18:03:12Z</time>
      </trkpt>
      <trkpt lat="46.73504" lon="-1.98811">
        <ele>8</ele>
        <time>2018-04-27T18:04:12Z</time>
      </trkpt>
      <trkpt lat="46.73528" lon="-1.98834">
        <ele>8</ele>
        <time>2018-04-27T18:05:12Z</time>
      </trkpt>
      <trkpt lat="46.73544" lon="-1.98848">
        <ele>7</ele>
        <time>2018-04-27T18:06:12Z</time>
      </trkpt>
      <trkpt lat="46.73569" lon="-1.98872">
        <ele>7</ele>
        <time>2018-04-27T18:07:12Z</time>
      </trkpt>
      <trkpt lat="46.73597" lon="-1.98901">
        <ele>7</ele>
        <time>2018-04-27T18:08:12Z</time>
      </trkpt>
      <trkpt lat="46.7363" lon="-1.98933">
        <ele>7</ele>
        <time>2018-04-27T18:09:12Z</time>
      </trkpt>
      <trkpt lat="46.7365" lon="-1.98953">
        <ele>8</ele>
        <time>2018-04-27T18:10:12Z</time>
      </trkpt>
      <trkpt lat="46.73663" lon="-1.98965">
        <ele>8</ele>
        <time>2018-04-27T18:11:12Z</time>
      </trkpt>
      <trkpt lat="46.73664" lon="-1.98966">
        <ele>8</ele>
        <time>2018-04-27T18:12:12Z</time>
      </trkpt>
      <trkpt lat="46.73706" lon="-1.99004">
        <ele>9</ele>
        <time>2018-04-27T18:13:12Z</time>
      </trkpt>
      <trkpt lat="46.73719" lon="-1.99017">
        <ele>8</ele>
        <time>2018-04-27T18:14:12Z</time>
      </trkpt>
      <trkpt lat="46.73748" lon="-1.99044">
        <ele>8</ele>
        <time>2018-04-27T18:15:12Z</time>
      </trkpt>
      <trkpt lat="46.73778" lon="-1.99073">
        <ele>8</ele>
        <time>2018-04-27T18:16:12Z</time>
      </trkpt>
      <trkpt lat="46.73818" lon="-1.99114">
        <ele>8</ele>
        <time>2018-04-27T18:17:12Z</time>
      </trkpt>
      <trkpt lat="46.73849" lon="-1.99145">
        <ele>8</ele>
        <time>2018-04-27T18:18:12Z</time>
      </trkpt>
      <trkpt lat="46.73877" lon="-1.99173">
        <ele>7</ele>
        <time>2018-04-27T18:19:12Z</time>
      </trkpt>
      <trkpt lat="46.73916" lon="-1.99212">
        <ele>8</ele>
        <time>2018-04-27T18:20:12Z</time>
      </trkpt>
      <trkpt lat="46.73934" lon="-1.99226">
        <ele>8</ele>
        <time>2018-04-27T18:21:12Z</time>
      </trkpt>
      <trkpt lat="46.73956" lon="-1.9924">
        <ele>9</ele>
        <time>2018-04-27T18:22:12Z</time>
      </trkpt>
      <trkpt lat="46.7397" lon="-1.99247">
        <ele>9</ele>
        <time>2018-04-27T18:23:12Z</time>
      </trkpt>
      <trkpt lat="46.73992" lon="-1.99255">
        <ele>9</ele>
        <time>2018-04-27T18:24:12Z</time>
      </trkpt>
      <trkpt lat="46.74013" lon="-1.99261">
        <ele>8</ele>
        <time>2018-04-27T18:25:12Z</time>
      </trkpt>
      <trkpt lat="46.74037" lon="-1.99265">
        <ele>7</ele>
        <time>2018-04-27T18:26:12Z</time>
      </trkpt>
      <trkpt lat="46.74042" lon="-1.99266">
        <ele>7</ele>
        <time>2018-04-27T18:27:12Z</time>
      </trkpt>
      <trkpt lat="46.74086" lon="-1.9927">
        <ele>5</ele>
        <time>2018-04-27T18:28:12Z</time>
      </trkpt>
      <trkpt lat="46.74115" lon="-1.99274">
        <ele>5</ele>
        <time>2018-04-27T18:29:12Z</time>
      </trkpt>
      <trkpt lat="46.74161" lon="-1.99278">
        <ele>4</ele>
        <time>2018-04-27T18:30:12Z</time>
      </trkpt>
      <trkpt lat="46.74166" lon="-1.99279">
        <ele>4</ele>
        <time>2018-04-27T18:31:12Z</time>
      </trkpt>
      <trkpt lat="46.7417" lon="-1.99281">
        <ele>4</ele>
        <time>2018-04-27T18:32:12Z</time>
      </trkpt>
      <trkpt lat="46.74177" lon="-1.99282">
        <ele>4</ele>
        <time>2018-04-27T18:33:12Z</time>
      </trkpt>
      <trkpt lat="46.74184" lon="-1.99283">
        <ele>4</ele>
        <time>2018-04-27T18:34:12Z</time>
      </trkpt>
      <trkpt lat="46.74184" lon="-1.99283">
        <ele>4</ele>
        <time>2018-04-27T18:35:12Z</time>
      </trkpt>
      <trkpt lat="46.74187" lon="-1.99281">
        <ele>4</ele>
        <time>2018-04-27T18:36:12Z</time>
      </trkpt>
      <trkpt lat="46.74189" lon="-1.99281">
        <ele>4</ele>
        <time>2018-04-27T18:37:12Z</time>
      </trkpt>
      <trkpt lat="46.74192" lon="-1.9928">
        <ele>4</ele>
        <time>2018-04-27T18:38:12Z</time>
      </trkpt>
      <trkpt lat="46.74194" lon="-1.9928">
        <ele>4</ele>
        <time>2018-04-27T18:39:12Z</time>
      </trkpt>
      <trkpt lat="46.74197" lon="-1.99281">
        <ele>4</ele>
        <time>2018-04-27T18:40:12Z</time>
      </trkpt>
      <trkpt lat="46.74199" lon="-1.99283">
        <ele>4</ele>
        <time>2018-04-27T18:41:12Z</time>
      </trkpt>
      <trkpt lat="46.74202" lon="-1.99285">
        <ele>4</ele>
        <time>2018-04-27T18:42:12Z</time>
      </trkpt>
      <trkpt lat="46.74204" lon="-1.99287">
        <ele>4</ele>
        <time>2018-04-27T18:43:12Z</time>
      </trkpt>
      <trkpt lat="46.74205" lon="-1.9929">
        <ele>4</ele>
        <time>2018-04-27T18:44:12Z</time>
      </trkpt>
      <trkpt lat="46.74207" lon="-1.99294">
        <ele>5</ele>
        <time>2018-04-27T18:45:12Z</time>
      </trkpt>
      <trkpt lat="46.74207" lon="-1.99297">
        <ele>5</ele>
        <time>2018-04-27T18:46:12Z</time>
      </trkpt>
      <trkpt lat="46.74208" lon="-1.993">
        <ele>5</ele>
        <time>2018-04-27T18:47:12Z</time>
      </trkpt>
      <trkpt lat="46.74208" lon="-1.99304">
        <ele>5</ele>
        <time>2018-04-27T18:48:12Z</time>
      </trkpt>
      <trkpt lat="46.74207" lon="-1.99308">
        <ele>5</ele>
        <time>2018-04-27T18:49:12Z</time>
      </trkpt>
      <trkpt lat="46.74208" lon="-1.99315">
        <ele>5</ele>
        <time>2018-04-27T18:50:12Z</time>
      </trkpt>
      <trkpt lat="46.74209" lon="-1.99326">
        <ele>5</ele>
        <time>2018-04-27T18:51:12Z</time>
      </trkpt>
      <trkpt lat="46.74212" lon="-1.99342">
        <ele>5</ele>
        <time>2018-04-27T18:52:12Z</time>
      </trkpt>
      <trkpt lat="46.74215" lon="-1.99356">
        <ele>5</ele>
        <time>2018-04-27T18:53:12Z</time>
      </trkpt>
      <trkpt lat="46.74215" lon="-1.99361">
        <ele>5</ele>
        <time>2018-04-27T18:54:12Z</time>
      </trkpt>
      <trkpt lat="46.74216" lon="-1.99379">
        <ele>5</ele>
        <time>2018-04-27T18:55:12Z</time>
      </trkpt>
      <trkpt lat="46.74216" lon="-1.99393">
        <ele>5</ele>
        <time>2018-04-27T18:56:12Z</time>
      </trkpt>
      <trkpt lat="46.74216" lon="-1.99406">
        <ele>4</ele>
        <time>2018-04-27T18:57:12Z</time>
      </trkpt>
      <trkpt lat="46.74211" lon="-1.99436">
        <ele>5</ele>
        <time>2018-04-27T18:58:12Z</time>
      </trkpt>
      <trkpt lat="46.74206" lon="-1.99468">
        <ele>5</ele>
        <time>2018-04-27T18:59:12Z</time>
      </trkpt>
      <trkpt lat="46.74204" lon="-1.99474">
        <ele>5</ele>
        <time>2018-04-27T19:00:12Z</time>
      </trkpt>
      <trkpt lat="46.742" lon="-1.99493">
        <ele>5</ele>
        <time>2018-04-27T19:01:12Z</time>
      </trkpt>
      <trkpt lat="46.74192" lon="-1.99525">
        <ele>6</ele>
        <time>2018-04-27T19:02:12Z</time>
      </trkpt>
      <trkpt lat="46.74182" lon="-1.99559">
        <ele>6</ele>
        <time>2018-04-27T19:03:12Z</time>
      </trkpt>
      <trkpt lat="46.74174" lon="-1.9959">
        <ele>7</ele>
        <time>2018-04-27T19:04:12Z</time>
      </trkpt>
      <trkpt lat="46.74165" lon="-1.99622">
        <ele>6</ele>
        <time>2018-04-27T19:05:12Z</time>
      </trkpt>
      <trkpt lat="46.74162" lon="-1.99638">
        <ele>6</ele>
        <time>2018-04-27T19:06:12Z</time>
      </trkpt>
      <trkpt lat="46.74158" lon="-1.99666">
        <ele>5</ele>
        <time>2018-04-27T19:07:12Z</time>
      </trkpt>
      <trkpt lat="46.74157" lon="-1.99675">
        <ele>5</ele>
        <time>2018-04-27T19:08:12Z</time>
      </trkpt>
      <trkpt lat="46.74155" lon="-1.99686">
        <ele>5</ele>
        <time>2018-04-27T19:09:12Z</time>
      </trkpt>
      <trkpt lat="46.74154" lon="-1.99732">
        <ele>5</ele>
        <time>2018-04-27T19:10:12Z</time>
      </trkpt>
      <trkpt lat="46.74148" lon="-1.99843">
        <ele>7</ele>
        <time>2018-04-27T19:11:12Z</time>
      </trkpt>
      <trkpt lat="46.74143" lon="-1.99924">
        <ele>7</ele>
        <time>2018-04-27T19:12:12Z</time>
      </trkpt>
      <trkpt lat="46.74142" lon="-1.99944">
        <ele>6</ele>
        <time>2018-04-27T19:13:12Z</time>
      </trkpt>
      <trkpt lat="46.74134" lon="-2.0004">
        <ele>6</ele>
        <time>2018-04-27T19:14:12Z</time>
      </trkpt>
      <trkpt lat="46.74127" lon="-2.001">
        <ele>6</ele>
        <time>2018-04-27T19:15:12Z</time>
      </trkpt>
      <trkpt lat="46.74123" lon="-2.00124">
        <ele>6</ele>
        <time>2018-04-27T19:16:12Z</time>
      </trkpt>
      <trkpt lat="46.74119" lon="-2.00146">
        <ele>5</ele>
        <time>2018-04-27T19:17:12Z</time>
      </trkpt>
      <trkpt lat="46.74115" lon="-2.00164">
        <ele>5</ele>
        <time>2018-04-27T19:18:12Z</time>
      </trkpt>
      <trkpt lat="46.7411" lon="-2.00185">
        <ele>5</ele>
        <time>2018-04-27T19:19:12Z</time>
      </trkpt>
      <trkpt lat="46.74088" lon="-2.00267">
        <ele>4</ele>
        <time>2018-04-27T19:20:12Z</time>
      </trkpt>
      <trkpt lat="46.74085" lon="-2.00279">
        <ele>3</ele>
        <time>2018-04-27T19:21:12Z</time>
      </trkpt>
      <trkpt lat="46.74079" lon="-2.00302">
        <ele>3</ele>
        <time>2018-04-27T19:22:12Z</time>
      </trkpt>
      <trkpt lat="46.74075" lon="-2.00318">
        <ele>3</ele>
        <time>2018-04-27T19:23:12Z</time>
      </trkpt>
      <trkpt lat="46.7407" lon="-2.00339">
        <ele>2</ele>
        <time>2018-04-27T19:24:12Z</time>
      </trkpt>
      <trkpt lat="46.74067" lon="-2.00353">
        <ele>3</ele>
        <time>2018-04-27T19:25:12Z</time>
      </trkpt>
      <trkpt lat="46.74065" lon="-2.00368">
        <ele>3</ele>
        <time>2018-04-27T19:26:12Z</time>
      </trkpt>
      <trkpt lat="46.74065" lon="-2.00382">
        <ele>3</ele>
        <time>2018-04-27T19:27:12Z</time>
      </trkpt>
      <trkpt lat="46.74066" lon="-2.00393">
        <ele>3</ele>
        <time>2018-04-27T19:28:12Z</time>
      </trkpt>
      <trkpt lat="46.74067" lon="-2.00404">
        <ele>3</ele>
        <time>2018-04-27T19:29:12Z</time>
      </trkpt>
      <trkpt lat="46.74073" lon="-2.00423">
        <ele>3</ele>
        <time>2018-04-27T19:30:12Z</time>
      </trkpt>
      <trkpt lat="46.74078" lon="-2.00436">
        <ele>3</ele>
        <time>2018-04-27T19:31:12Z</time>
      </trkpt>
      <trkpt lat="46.74085" lon="-2.00458">
        <ele>3</ele>
        <time>2018-04-27T19:32:12Z</time>
      </trkpt>
      <trkpt lat="46.74096" lon="-2.00481">
        <ele>3</ele>
        <time>2018-04-27T19:33:12Z</time>
      </trkpt>
      <trkpt lat="46.74099" lon="-2.00488">
        <ele>3</ele>
        <time>2018-04-27T19:34:12Z</time>
      </trkpt>
      <trkpt lat="46.74103" lon="-2.00497">
        <ele>3</ele>
        <time>2018-04-27T19:35:12Z</time>
      </trkpt>
      <trkpt lat="46.74108" lon="-2.00504">
        <ele>3</ele>
        <time>2018-04-27T19:36:12Z</time>
      </trkpt>
      <trkpt lat="46.74114" lon="-2.00514">
        <ele>3</ele>
        <time>2018-04-27T19:37:12Z</time>
      </trkpt>
      <trkpt lat="46.74117" lon="-2.00519">
        <ele>3</ele>
        <time>2018-04-27T19:38:12Z</time>
      </trkpt>
      <trkpt lat="46.74124" lon="-2.00529">
        <ele>3</ele>
        <time>2018-04-27T19:39:12Z</time>
      </trkpt>
      <trkpt lat="46.74131" lon="-2.0054">
        <ele>3</ele>
        <time>2018-04-27T19:40:12Z</time>
      </trkpt>
      <trkpt lat="46.74143" lon="-2.00558">
        <ele>3</ele>
        <time>2018-04-27T19:41:12Z</time>
      </trkpt>
      <trkpt lat="46.74148" lon="-2.00565">
        <ele>3</ele>
        <time>2018-04-27T19:42:12Z</time>
      </trkpt>
      <trkpt lat="46.74191" lon="-2.00625">
        <ele>3</ele>
        <time>2018-04-27T19:43:12Z</time>
      </trkpt>
      <trkpt lat="46.74235" lon="-2.00689">
        <ele>3</ele>
        <time>2018-04-27T19:44:12Z</time>
      </trkpt>
      <trkpt lat="46.7425" lon="-2.00711">
        <ele>2</ele>
        <time>2018-04-27T19:45:12Z</time>
      </trkpt>
      <trkpt lat="46.7426" lon="-2.00726">
        <ele>2</ele>
        <time>2018-04-27T19:46:12Z</time>
      </trkpt>
      <trkpt lat="46.74275" lon="-2.00753">
        <ele>2</ele>
        <time>2018-04-27T19:47:12Z</time>
      </trkpt>
      <trkpt lat="46.74283" lon="-2.00765">
        <ele>2</ele>
        <time>2018-04-27T19:48:12Z</time>
      </trkpt>
      <trkpt lat="46.74301" lon="-2.00793">
        <ele>2</ele>
        <time>2018-04-27T19:49:12Z</time>
      </trkpt>
      <trkpt lat="46.74308" lon="-2.00805">
        <ele>2</ele>
        <time>2018-04-27T19:50:12Z</time>
      </trkpt>
      <trkpt lat="46.74312" lon="-2.00812">
        <ele>2</ele>
        <time>2018-04-27T19:51:12Z</time>
      </trkpt>
      <trkpt lat="46.74322" lon="-2.0083">
        <ele>3</ele>
        <time>2018-04-27T19:52:12Z</time>
      </trkpt>
      <trkpt lat="46.7433" lon="-2.00843">
        <ele>3</ele>
        <time>2018-04-27T19:53:12Z</time>
      </trkpt>
      <trkpt lat="46.74337" lon="-2.00853">
        <ele>3</ele>
        <time>2018-04-27T19:54:12Z</time>
      </trkpt>
      <trkpt lat="46.74345" lon="-2.00864">
        <ele>3</ele>
        <time>2018-04-27T19:55:12Z</time>
      </trkpt>
      <trkpt lat="46.74361" lon="-2.0088">
        <ele>3</ele>
        <time>2018-04-27T19:56:12Z</time>
      </trkpt>
      <trkpt lat="46.7439" lon="-2.00906">
        <ele>3</ele>
        <time>2018-04-27T19:57:12Z</time>
      </trkpt>
      <trkpt lat="46.74444" lon="-2.00952">
        <ele>4</ele>
        <time>2018-04-27T19:58:12Z</time>
      </trkpt>
      <trkpt lat="46.74463" lon="-2.00969">
        <ele>4</ele>
        <time>2018-04-27T19:59:12Z</time>
      </trkpt>
      <trkpt lat="46.74482" lon="-2.00986">
        <ele>4</ele>
        <time>2018-04-27T20:00:12Z</time>
      </trkpt>
      <trkpt lat="46.74512" lon="-2.01014">
        <ele>5</ele>
        <time>2018-04-27T20:01:12Z</time>
      </trkpt>
      <trkpt lat="46.74532" lon="-2.0103">
        <ele>5</ele>
        <time>2018-04-27T20:02:12Z</time>
      </trkpt>
      <trkpt lat="46.74538" lon="-2.01036">
        <ele>4</ele>
        <time>2018-04-27T20:03:12Z</time>
      </trkpt>
      <trkpt lat="46.74557" lon="-2.01058">
        <ele>4</ele>
        <time>2018-04-27T20:04:12Z</time>
      </trkpt>
      <trkpt lat="46.74564" lon="-2.01068">
        <ele>4</ele>
        <time>2018-04-27T20:05:12Z</time>
      </trkpt>
      <trkpt lat="46.74582" lon="-2.01089">
        <ele>4</ele>
        <time>2018-04-27T20:06:12Z</time>
      </trkpt>
      <trkpt lat="46.74613" lon="-2.01126">
        <ele>7</ele>
        <time>2018-04-27T20:07:12Z</time>
      </trkpt>
      <trkpt lat="46.74638" lon="-2.01154">
        <ele>8</ele>
        <time>2018-04-27T20:08:12Z</time>
      </trkpt>
      <trkpt lat="46.74646" lon="-2.01164">
        <ele>8</ele>
        <time>2018-04-27T20:09:12Z</time>
      </trkpt>
      <trkpt lat="46.74664" lon="-2.01183">
        <ele>8</ele>
        <time>2018-04-27T20:10:12Z</time>
      </trkpt>
      <trkpt lat="46.74682" lon="-2.01198">
        <ele>8</ele>
        <time>2018-04-27T20:11:12Z</time>
      </trkpt>
      <trkpt lat="46.74693" lon="-2.01205">
        <ele>8</ele>
        <time>2018-04-27T20:12:12Z</time>
      </trkpt>
      <trkpt lat="46.74723" lon="-2.01225">
        <ele>7</ele>
        <time>2018-04-27T20:13:12Z</time>
      </trkpt>
      <trkpt lat="46.74747" lon="-2.0124">
        <ele>7</ele>
        <time>2018-04-27T20:14:12Z</time>
      </trkpt>
      <trkpt lat="46.74784" lon="-2.01263">
        <ele>6</ele>
        <time>2018-04-27T20:15:12Z</time>
      </trkpt>
      <trkpt lat="46.74821" lon="-2.01285">
        <ele>6</ele>
        <time>2018-04-27T20:16:12Z</time>
      </trkpt>
      <trkpt lat="46.74863" lon="-2.01308">
        <ele>7</ele>
        <time>2018-04-27T20:17:12Z</time>
      </trkpt>
      <trkpt lat="46.74895" lon="-2.01325">
        <ele>7</ele>
        <time>2018-04-27T20:18:12Z</time>
      </trkpt>
      <trkpt lat="46.74927" lon="-2.01343">
        <ele>7</ele>
        <time>2018-04-27T20:19:12Z</time>
      </trkpt>
      <trkpt lat="46.74944" lon="-2.01355">
        <ele>6</ele>
        <time>2018-04-27T20:20:12Z</time>
      </trkpt>
      <trkpt lat="46.7495" lon="-2.01362">
        <ele>6</ele>
        <time>2018-04-27T20:21:12Z</time>
      </trkpt>
      <trkpt lat="46.74952" lon="-2.01363">
        <ele>6</ele>
        <time>2018-04-27T20:22:12Z</time>
      </trkpt>
      <trkpt lat="46.74958" lon="-2.01372">
        <ele>5</ele>
        <time>2018-04-27T20:23:12Z</time>
      </trkpt>
      <trkpt lat="46.74969" lon="-2.01389">
        <ele>5</ele>
        <time>2018-04-27T20:24:12Z</time>
      </trkpt>
      <trkpt lat="46.74972" lon="-2.01394">
        <ele>5</ele>
        <time>2018-04-27T20:25:12Z</time>
      </trkpt>
      <trkpt lat="46.74993" lon="-2.01431">
        <ele>4</ele>
        <time>2018-04-27T20:26:12Z</time>
      </trkpt>
      <trkpt lat="46.75018" lon="-2.01472">
        <ele>4</ele>
        <time>2018-04-27T20:27:12Z</time>
      </trkpt>
      <trkpt lat="46.75035" lon="-2.01499">
        <ele>4</ele>
        <time>2018-04-27T20:28:12Z</time>
      </trkpt>
      <trkpt lat="46.75037" lon="-2.01501">
        <ele>4</ele>
        <time>2018-04-27T20:29:12Z</time>
      </trkpt>
      <trkpt lat="46.75057" lon="-2.01531">
        <ele>4</ele>
        <time>2018-04-27T20:30:12Z</time>
      </trkpt>
      <trkpt lat="46.75084" lon="-2.01564">
        <ele>4</ele>
        <time>2018-04-27T20:31:12Z</time>
      </trkpt>
      <trkpt lat="46.75096" lon="-2.01579">
        <ele>4</ele>
        <time>2018-04-27T20:32:12Z</time>
      </trkpt>
      <trkpt lat="46.75104" lon="-2.01586">
        <ele>4</ele>
        <time>2018-04-27T20:33:12Z</time>
      </trkpt>
      <trkpt lat="46.75112" lon="-2.0159">
        <ele>3</ele>
        <time>2018-04-27T20:34:12Z</time>
      </trkpt>
      <trkpt lat="46.75112" lon="-2.0159">
        <ele>3</ele>
        <time>2018-04-27T20:35:12Z</time>
      </trkpt>
      <trkpt lat="46.75114" lon="-2.01589">
        <ele>3</ele>
        <time>2018-04-27T20:36:12Z</time>
      </trkpt>
      <trkpt lat="46.75115" lon="-2.01589">
        <ele>3</ele>
        <time>2018-04-27T20:37:12Z</time>
      </trkpt>
      <trkpt lat="46.75118" lon="-2.01588">
        <ele>3</ele>
        <time>2018-04-27T20:38:12Z</time>
      </trkpt>
      <trkpt lat="46.75122" lon="-2.01589">
        <ele>3</ele>
        <time>2018-04-27T20:39:12Z</time>
      </trkpt>
      <trkpt lat="46.75128" lon="-2.01581">
        <ele>3</ele>
        <time>2018-04-27T20:40:12Z</time>
      </trkpt>
      <trkpt lat="46.75139" lon="-2.01573">
        <ele>3</ele>
        <time>2018-04-27T20:41:12Z</time>
      </trkpt>
      <trkpt lat="46.75154" lon="-2.01559">
        <ele>2</ele>
        <time>2018-04-27T20:42:12Z</time>
      </trkpt>
      <trkpt lat="46.7517" lon="-2.01546">
        <ele>2</ele>
        <time>2018-04-27T20:43:12Z</time>
      </trkpt>
      <trkpt lat="46.75172" lon="-2.01545">
        <ele>1</ele>
        <time>2018-04-27T20:44:12Z</time>
      </trkpt>
      <trkpt lat="46.75177" lon="-2.01541">
        <ele>1</ele>
        <time>2018-04-27T20:45:12Z</time>
      </trkpt>
      <trkpt lat="46.75202" lon="-2.01523">
        <ele>1</ele>
        <time>2018-04-27T20:46:12Z</time>
      </trkpt>
      <trkpt lat="46.75212" lon="-2.01517">
        <ele>1</ele>
        <time>2018-04-27T20:47:12Z</time>
      </trkpt>
      <trkpt lat="46.75216" lon="-2.01515">
        <ele>1</ele>
        <time>2018-04-27T20:48:12Z</time>
      </trkpt>
      <trkpt lat="46.75233" lon="-2.01505">
        <ele>2.3</ele>
        <time>2018-04-27T20:49:12Z</time>
      </trkpt>
      <trkpt lat="46.75249" lon="-2.01496">
        <ele>2.8</ele>
        <time>2018-04-27T20:50:12Z</time>
      </trkpt>
      <trkpt lat="46.75272" lon="-2.01484">
        <ele>1</ele>
        <time>2018-04-27T20:51:12Z</time>
      </trkpt>
      <trkpt lat="46.75278" lon="-2.01481">
        <ele>1</ele>
        <time>2018-04-27T20:52:12Z</time>
      </trkpt>
      <trkpt lat="46.75284" lon="-2.01478">
        <ele>1</ele>
        <time>2018-04-27T20:53:12Z</time>
      </trkpt>
      <trkpt lat="46.75322" lon="-2.01458">
        <ele>1</ele>
        <time>2018-04-27T20:54:12Z</time>
      </trkpt>
      <trkpt lat="46.75361" lon="-2.01435">
        <ele>1</ele>
        <time>2018-04-27T20:55:12Z</time>
      </trkpt>
      <trkpt lat="46.75377" lon="-2.01426">
        <ele>2</ele>
        <time>2018-04-27T20:56:12Z</time>
      </trkpt>
      <trkpt lat="46.75377" lon="-2.01426">
        <ele>2</ele>
        <time>2018-04-27T20:57:12Z</time>
      </trkpt>
      <trkpt lat="46.75386" lon="-2.01415">
        <ele>2</ele>
        <time>2018-04-27T20:58:12Z</time>
      </trkpt>
      <trkpt lat="46.75392" lon="-2.01424">
        <ele>2</ele>
        <time>2018-04-27T20:59:12Z</time>
      </trkpt>
      <trkpt lat="46.75394" lon="-2.01427">
        <ele>2</ele>
        <time>2018-04-27T21:00:12Z</time>
      </trkpt>
      <trkpt lat="46.75397" lon="-2.0143">
        <ele>2</ele>
        <time>2018-04-27T21:01:12Z</time>
      </trkpt>
      <trkpt lat="46.75406" lon="-2.01445">
        <ele>2</ele>
        <time>2018-04-27T21:02:12Z</time>
      </trkpt>
      <trkpt lat="46.75419" lon="-2.01458">
        <ele>2</ele>
        <time>2018-04-27T21:03:12Z</time>
      </trkpt>
      <trkpt lat="46.75433" lon="-2.01478">
        <ele>2</ele>
        <time>2018-04-27T21:04:12Z</time>
      </trkpt>
      <trkpt lat="46.75447" lon="-2.0151">
        <ele>3</ele>
        <time>2018-04-27T21:05:12Z</time>
      </trkpt>
      <trkpt lat="46.75466" lon="-2.01556">
        <ele>3</ele>
        <time>2018-04-27T21:06:12Z</time>
      </trkpt>
      <trkpt lat="46.75471" lon="-2.01566">
        <ele>4</ele>
        <time>2018-04-27T21:07:12Z</time>
      </trkpt>
      <trkpt lat="46.75486" lon="-2.0159">
        <ele>3</ele>
        <time>2018-04-27T21:08:12Z</time>
      </trkpt>
      <trkpt lat="46.75521" lon="-2.01636">
        <ele>3</ele>
        <time>2018-04-27T21:09:12Z</time>
      </trkpt>
      <trkpt lat="46.75534" lon="-2.01654">
        <ele>2</ele>
        <time>2018-04-27T21:10:12Z</time>
      </trkpt>
      <trkpt lat="46.75553" lon="-2.0168">
        <ele>2</ele>
        <time>2018-04-27T21:11:12Z</time>
      </trkpt>
      <trkpt lat="46.75568" lon="-2.01695">
        <ele>2</ele>
        <time>2018-04-27T21:12:12Z</time>
      </trkpt>
      <trkpt lat="46.75583" lon="-2.01704">
        <ele>2</ele>
        <time>2018-04-27T21:13:12Z</time>
      </trkpt>
      <trkpt lat="46.75602" lon="-2.01712">
        <ele>3</ele>
        <time>2018-04-27T21:14:12Z</time>
      </trkpt>
      <trkpt lat="46.75616" lon="-2.01715">
        <ele>3</ele>
        <time>2018-04-27T21:15:12Z</time>
      </trkpt>
      <trkpt lat="46.75639" lon="-2.01719">
        <ele>4</ele>
        <time>2018-04-27T21:16:12Z</time>
      </trkpt>
      <trkpt lat="46.75681" lon="-2.01726">
        <ele>5</ele>
        <time>2018-04-27T21:17:12Z</time>
      </trkpt>
      <trkpt lat="46.7573" lon="-2.0174">
        <ele>5</ele>
        <time>2018-04-27T21:18:12Z</time>
      </trkpt>
      <trkpt lat="46.75769" lon="-2.01744">
        <ele>5</ele>
        <time>2018-04-27T21:19:12Z</time>
      </trkpt>
      <trkpt lat="46.7581" lon="-2.01748">
        <ele>5</ele>
        <time>2018-04-27T21:20:12Z</time>
      </trkpt>
      <trkpt lat="46.75836" lon="-2.01751">
        <ele>5</ele>
        <time>2018-04-27T21:21:12Z</time>
      </trkpt>
      <trkpt lat="46.7586" lon="-2.0176">
        <ele>4</ele>
        <time>2018-04-27T21:22:12Z</time>
      </trkpt>
      <trkpt lat="46.7589" lon="-2.01775">
        <ele>4</ele>
        <time>2018-04-27T21:23:12Z</time>
      </trkpt>
      <trkpt lat="46.75896" lon="-2.01778">
        <ele>4</ele>
        <time>2018-04-27T21:24:12Z</time>
      </trkpt>
      <trkpt lat="46.75946" lon="-2.01807">
        <ele>4</ele>
        <time>2018-04-27T21:25:12Z</time>
      </trkpt>
      <trkpt lat="46.75971" lon="-2.01819">
        <ele>4</ele>
        <time>2018-04-27T21:26:12Z</time>
      </trkpt>
      <trkpt lat="46.75992" lon="-2.01828">
        <ele>4</ele>
        <time>2018-04-27T21:27:12Z</time>
      </trkpt>
      <trkpt lat="46.76049" lon="-2.01848">
        <ele>5</ele>
        <time>2018-04-27T21:28:12Z</time>
      </trkpt>
      <trkpt lat="46.76089" lon="-2.01867">
        <ele>5</ele>
        <time>2018-04-27T21:29:12Z</time>
      </trkpt>
      <trkpt lat="46.76135" lon="-2.01891">
        <ele>5</ele>
        <time>2018-04-27T21:30:12Z</time>
      </trkpt>
      <trkpt lat="46.76161" lon="-2.01905">
        <ele>5</ele>
        <time>2018-04-27T21:31:12Z</time>
      </trkpt>
      <trkpt lat="46.76229" lon="-2.01951">
        <ele>5</ele>
        <time>2018-04-27T21:32:12Z</time>
      </trkpt>
      <trkpt lat="46.76283" lon="-2.01983">
        <ele>6</ele>
        <time>2018-04-27T21:33:12Z</time>
      </trkpt>
      <trkpt lat="46.76317" lon="-2.02004">
        <ele>6</ele>
        <time>2018-04-27T21:34:12Z</time>
      </trkpt>
      <trkpt lat="46.76321" lon="-2.02005">
        <ele>6</ele>
        <time>2018-04-27T21:35:12Z</time>
      </trkpt>
      <trkpt lat="46.76354" lon="-2.02021">
        <ele>6</ele>
        <time>2018-04-27T21:36:12Z</time>
      </trkpt>
      <trkpt lat="46.76377" lon="-2.02031">
        <ele>5</ele>
        <time>2018-04-27T21:37:12Z</time>
      </trkpt>
      <trkpt lat="46.764" lon="-2.02048">
        <ele>5</ele>
        <time>2018-04-27T21:38:12Z</time>
      </trkpt>
      <trkpt lat="46.76432" lon="-2.02075">
        <ele>4</ele>
        <time>2018-04-27T21:39:12Z</time>
      </trkpt>
      <trkpt lat="46.76456" lon="-2.02097">
        <ele>4</ele>
        <time>2018-04-27T21:40:12Z</time>
      </trkpt>
      <trkpt lat="46.76477" lon="-2.02116">
        <ele>3</ele>
        <time>2018-04-27T21:41:12Z</time>
      </trkpt>
      <trkpt lat="46.76502" lon="-2.02143">
        <ele>3</ele>
        <time>2018-04-27T21:42:12Z</time>
      </trkpt>
      <trkpt lat="46.76522" lon="-2.0217">
        <ele>3</ele>
        <time>2018-04-27T21:43:12Z</time>
      </trkpt>
      <trkpt lat="46.76531" lon="-2.02185">
        <ele>3</ele>
        <time>2018-04-27T21:44:12Z</time>
      </trkpt>
      <trkpt lat="46.76531" lon="-2.02185">
        <ele>3</ele>
        <time>2018-04-27T21:45:12Z</time>
      </trkpt>
      <trkpt lat="46.76551" lon="-2.02218">
        <ele>3</ele>
        <time>2018-04-27T21:46:12Z</time>
      </trkpt>
      <trkpt lat="46.76582" lon="-2.02274">
        <ele>2</ele>
        <time>2018-04-27T21:47:12Z</time>
      </trkpt>
      <trkpt lat="46.7661" lon="-2.02321">
        <ele>3</ele>
        <time>2018-04-27T21:48:12Z</time>
      </trkpt>
      <trkpt lat="46.76631" lon="-2.02361">
        <ele>3</ele>
        <time>2018-04-27T21:49:12Z</time>
      </trkpt>
      <trkpt lat="46.76654" lon="-2.02405">
        <ele>3</ele>
        <time>2018-04-27T21:50:12Z</time>
      </trkpt>
      <trkpt lat="46.7668" lon="-2.02451">
        <ele>3</ele>
        <time>2018-04-27T21:51:12Z</time>
      </trkpt>
      <trkpt lat="46.76702" lon="-2.02484">
        <ele>3</ele>
        <time>2018-04-27T21:52:12Z</time>
      </trkpt>
      <trkpt lat="46.76714" lon="-2.02502">
        <ele>4</ele>
        <time>2018-04-27T21:53:12Z</time>
      </trkpt>
      <trkpt lat="46.76722" lon="-2.02514">
        <ele>3</ele>
        <time>2018-04-27T21:54:12Z</time>
      </trkpt>
      <trkpt lat="46.76739" lon="-2.02536">
        <ele>3</ele>
        <time>2018-04-27T21:55:12Z</time>
      </trkpt>
      <trkpt lat="46.76771" lon="-2.02568">
        <ele>3</ele>
        <time>2018-04-27T21:56:12Z</time>
      </trkpt>
      <trkpt lat="46.76795" lon="-2.02587">
        <ele>3</ele>
        <time>2018-04-27T21:57:12Z</time>
      </trkpt>
      <trkpt lat="46.76824" lon="-2.02609">
        <ele>3</ele>
        <time>2018-04-27T21:58:12Z</time>
      </trkpt>
      <trkpt lat="46.76849" lon="-2.02626">
        <ele>3</ele>
        <time>2018-04-27T21:59:12Z</time>
      </trkpt>
      <trkpt lat="46.76879" lon="-2.02657">
        <ele>3</ele>
        <time>2018-04-27T22:00:12Z</time>
      </trkpt>
      <trkpt lat="46.76903" lon="-2.02685">
        <ele>3</ele>
        <time>2018-04-27T22:01:12Z</time>
      </trkpt>
      <trkpt lat="46.76948" lon="-2.02739">
        <ele>4</ele>
        <time>2018-04-27T22:02:12Z</time>
      </trkpt>
      <trkpt lat="46.7695" lon="-2.02741">
        <ele>4</ele>
        <time>2018-04-27T22:03:12Z</time>
      </trkpt>
      <trkpt lat="46.76975" lon="-2.02767">
        <ele>3</ele>
        <time>2018-04-27T22:04:12Z</time>
      </trkpt>
      <trkpt lat="46.76993" lon="-2.02783">
        <ele>3</ele>
        <time>2018-04-27T22:05:12Z</time>
      </trkpt>
      <trkpt lat="46.77013" lon="-2.02797">
        <ele>3</ele>
        <time>2018-04-27T22:06:12Z</time>
      </trkpt>
      <trkpt lat="46.77017" lon="-2.02799">
        <ele>3</ele>
        <time>2018-04-27T22:07:12Z</time>
      </trkpt>
      <trkpt lat="46.77031" lon="-2.02807">
        <ele>3</ele>
        <time>2018-04-27T22:08:12Z</time>
      </trkpt>
      <trkpt lat="46.77046" lon="-2.02814">
        <ele>2</ele>
        <time>2018-04-27T22:09:12Z</time>
      </trkpt>
      <trkpt lat="46.77056" lon="-2.0282">
        <ele>2</ele>
        <time>2018-04-27T22:10:12Z</time>
      </trkpt>
      <trkpt lat="46.77078" lon="-2.02836">
        <ele>2</ele>
        <time>2018-04-27T22:11:12Z</time>
      </trkpt>
      <trkpt lat="46.77093" lon="-2.02849">
        <ele>3</ele>
        <time>2018-04-27T22:12:12Z</time>
      </trkpt>
      <trkpt lat="46.77107" lon="-2.02864">
        <ele>3</ele>
        <time>2018-04-27T22:13:12Z</time>
      </trkpt>
      <trkpt lat="46.77134" lon="-2.02895">
        <ele>5</ele>
        <time>2018-04-27T22:14:12Z</time>
      </trkpt>
      <trkpt lat="46.77193" lon="-2.02967">
        <ele>7</ele>
        <time>2018-04-27T22:15:12Z</time>
      </trkpt>
      <trkpt lat="46.77259" lon="-2.03044">
        <ele>5</ele>
        <time>2018-04-27T22:16:12Z</time>
      </trkpt>
      <trkpt lat="46.7729" lon="-2.03083">
        <ele>4</ele>
        <time>2018-04-27T22:17:12Z</time>
      </trkpt>
      <trkpt lat="46.77323" lon="-2.03125">
        <ele>4</ele>
        <time>2018-04-27T22:18:12Z</time>
      </trkpt>
      <trkpt lat="46.77325" lon="-2.03127">
        <ele>4</ele>
        <time>2018-04-27T22:19:12Z</time>
      </trkpt>
      <trkpt lat="46.7736" lon="-2.0317">
        <ele>4</ele>
        <time>2018-04-27T22:20:12Z</time>
      </trkpt>
      <trkpt lat="46.77404" lon="-2.03221">
        <ele>5</ele>
        <time>2018-04-27T22:21:12Z</time>
      </trkpt>
      <trkpt lat="46.77439" lon="-2.0326">
        <ele>6</ele>
        <time>2018-04-27T22:22:12Z</time>
      </trkpt>
      <trkpt lat="46.77456" lon="-2.0328">
        <ele>6</ele>
        <time>2018-04-27T22:23:12Z</time>
      </trkpt>
      <trkpt lat="46.77474" lon="-2.03304">
        <ele>6</ele>
        <time>2018-04-27T22:24:12Z</time>
      </trkpt>
      <trkpt lat="46.77508" lon="-2.03356">
        <ele>5</ele>
        <time>2018-04-27T22:25:12Z</time>
      </trkpt>
      <trkpt lat="46.77547" lon="-2.03405">
        <ele>5</ele>
        <time>2018-04-27T22:26:12Z</time>
      </trkpt>
      <trkpt lat="46.77577" lon="-2.03444">
        <ele>4</ele>
        <time>2018-04-27T22:27:12Z</time>
      </trkpt>
      <trkpt lat="46.7762" lon="-2.03502">
        <ele>5</ele>
        <time>2018-04-27T22:28:12Z</time>
      </trkpt>
      <trkpt lat="46.77651" lon="-2.03543">
        <ele>6</ele>
        <time>2018-04-27T22:29:12Z</time>
      </trkpt>
      <trkpt lat="46.77667" lon="-2.03561">
        <ele>6</ele>
        <time>2018-04-27T22:30:12Z</time>
      </trkpt>
      <trkpt lat="46.77692" lon="-2.03586">
        <ele>6</ele>
        <time>2018-04-27T22:31:12Z</time>
      </trkpt>
      <trkpt lat="46.77723" lon="-2.03614">
        <ele>6</ele>
        <time>2018-04-27T22:32:12Z</time>
      </trkpt>
      <trkpt lat="46.77741" lon="-2.03633">
        <ele>5</ele>
        <time>2018-04-27T22:33:12Z</time>
      </trkpt>
      <trkpt lat="46.77771" lon="-2.0366">
        <ele>4</ele>
        <time>2018-04-27T22:34:12Z</time>
      </trkpt>
      <trkpt lat="46.77791" lon="-2.03679">
        <ele>4</ele>
        <time>2018-04-27T22:35:12Z</time>
      </trkpt>
      <trkpt lat="46.77806" lon="-2.03689">
        <ele>4</ele>
        <time>2018-04-27T22:36:12Z</time>
      </trkpt>
      <trkpt lat="46.77822" lon="-2.03699">
        <ele>4</ele>
        <time>2018-04-27T22:37:12Z</time>
      </trkpt>
      <trkpt lat="46.77841" lon="-2.03709">
        <ele>4</ele>
        <time>2018-04-27T22:38:12Z</time>
      </trkpt>
      <trkpt lat="46.77865" lon="-2.0372">
        <ele>5</ele>
        <time>2018-04-27T22:39:12Z</time>
      </trkpt>
      <trkpt lat="46.77882" lon="-2.03728">
        <ele>5</ele>
        <time>2018-04-27T22:40:12Z</time>
      </trkpt>
      <trkpt lat="46.779" lon="-2.03735">
        <ele>6</ele>
        <time>2018-04-27T22:41:12Z</time>
      </trkpt>
      <trkpt lat="46.77914" lon="-2.0374">
        <ele>6</ele>
        <time>2018-04-27T22:42:12Z</time>
      </trkpt>
      <trkpt lat="46.77936" lon="-2.03748">
        <ele>6</ele>
        <time>2018-04-27T22:43:12Z</time>
      </trkpt>
      <trkpt lat="46.77953" lon="-2.03753">
        <ele>6</ele>
        <time>2018-04-27T22:44:12Z</time>
      </trkpt>
      <trkpt lat="46.77967" lon="-2.0376">
        <ele>6</ele>
        <time>2018-04-27T22:45:12Z</time>
      </trkpt>
      <trkpt lat="46.77979" lon="-2.03767">
        <ele>6</ele>
        <time>2018-04-27T22:46:12Z</time>
      </trkpt>
      <trkpt lat="46.77993" lon="-2.03776">
        <ele>6</ele>
        <time>2018-04-27T22:47:12Z</time>
      </trkpt>
      <trkpt lat="46.78017" lon="-2.03794">
        <ele>6</ele>
        <time>2018-04-27T22:48:12Z</time>
      </trkpt>
      <trkpt lat="46.78084" lon="-2.03822">
        <ele>5</ele>
        <time>2018-04-27T22:49:12Z</time>
      </trkpt>
      <trkpt lat="46.78095" lon="-2.03828">
        <ele>5</ele>
        <time>2018-04-27T22:50:12Z</time>
      </trkpt>
      <trkpt lat="46.78102" lon="-2.03834">
        <ele>5</ele>
        <time>2018-04-27T22:51:12Z</time>
      </trkpt>
      <trkpt lat="46.78107" lon="-2.03839">
        <ele>6</ele>
        <time>2018-04-27T22:52:12Z</time>
      </trkpt>
      <trkpt lat="46.78107" lon="-2.03839">
        <ele>6</ele>
        <time>2018-04-27T22:53:12Z</time>
      </trkpt>
      <trkpt lat="46.78108" lon="-2.03839">
        <ele>6</ele>
        <time>2018-04-27T22:54:12Z</time>
      </trkpt>
      <trkpt lat="46.78108" lon="-2.03838">
        <ele>6</ele>
        <time>2018-04-27T22:55:12Z</time>
      </trkpt>
      <trkpt lat="46.78109" lon="-2.03838">
        <ele>6</ele>
        <time>2018-04-27T22:56:12Z</time>
      </trkpt>
      <trkpt lat="46.7811" lon="-2.03838">
        <ele>6</ele>
        <time>2018-04-27T22:57:12Z</time>
      </trkpt>
      <trkpt lat="46.78111" lon="-2.03838">
        <ele>6</ele>
        <time>2018-04-27T22:58:12Z</time>
      </trkpt>
      <trkpt lat="46.78112" lon="-2.03838">
        <ele>6</ele>
        <time>2018-04-27T22:59:12Z</time>
      </trkpt>
      <trkpt lat="46.78113" lon="-2.03838">
        <ele>6</ele>
        <time>2018-04-27T23:00:12Z</time>
      </trkpt>
      <trkpt lat="46.78113" lon="-2.03839">
        <ele>6</ele>
        <time>2018-04-27T23:01:12Z</time>
      </trkpt>
      <trkpt lat="46.78114" lon="-2.03839">
        <ele>6</ele>
        <time>2018-04-27T23:02:12Z</time>
      </trkpt>
      <trkpt lat="46.78114" lon="-2.0384">
        <ele>6</ele>
        <time>2018-04-27T23:03:12Z</time>
      </trkpt>
      <trkpt lat="46.78115" lon="-2.0384">
        <ele>6</ele>
        <time>2018-04-27T23:04:12Z</time>
      </trkpt>
      <trkpt lat="46.78115" lon="-2.03841">
        <ele>6</ele>
        <time>2018-04-27T23:05:12Z</time>
      </trkpt>
      <trkpt lat="46.78116" lon="-2.03842">
        <ele>6</ele>
        <time>2018-04-27T23:06:12Z</time>
      </trkpt>
      <trkpt lat="46.78116" lon="-2.03843">
        <ele>6</ele>
        <time>2018-04-27T23:07:12Z</time>
      </trkpt>
      <trkpt lat="46.78116" lon="-2.03844">
        <ele>6</ele>
        <time>2018-04-27T23:08:12Z</time>
      </trkpt>
      <trkpt lat="46.78116" lon="-2.03845">
        <ele>6</ele>
        <time>2018-04-27T23:09:12Z</time>
      </trkpt>
      <trkpt lat="46.78117" lon="-2.03845">
        <ele>6</ele>
        <time>2018-04-27T23:10:12Z</time>
      </trkpt>
      <trkpt lat="46.78117" lon="-2.03846">
        <ele>6</ele>
        <time>2018-04-27T23:11:12Z</time>
      </trkpt>
      <trkpt lat="46.78117" lon="-2.03847">
        <ele>6</ele>
        <time>2018-04-27T23:12:12Z</time>
      </trkpt>
      <trkpt lat="46.78117" lon="-2.03848">
        <ele>6</ele>
        <time>2018-04-27T23:13:12Z</time>
      </trkpt>
      <trkpt lat="46.78116" lon="-2.03848">
        <ele>6</ele>
        <time>2018-04-27T23:14:12Z</time>
      </trkpt>
      <trkpt lat="46.78116" lon="-2.03849">
        <ele>6</ele>
        <time>2018-04-27T23:15:12Z</time>
      </trkpt>
      <trkpt lat="46.78116" lon="-2.0385">
        <ele>6</ele>
        <time>2018-04-27T23:16:12Z</time>
      </trkpt>
      <trkpt lat="46.78142" lon="-2.03838">
        <ele>6</ele>
        <time>2018-04-27T23:17:12Z</time>
      </trkpt>
      <trkpt lat="46.78154" lon="-2.03832">
        <ele>7</ele>
        <time>2018-04-27T23:18:12Z</time>
      </trkpt>
      <trkpt lat="46.78198" lon="-2.038">
        <ele>9</ele>
        <time>2018-04-27T23:19:12Z</time>
      </trkpt>
      <trkpt lat="46.78202" lon="-2.03796">
        <ele>9</ele>
        <time>2018-04-27T23:20:12Z</time>
      </trkpt>
      <trkpt lat="46.7821" lon="-2.03791">
        <ele>9</ele>
        <time>2018-04-27T23:21:12Z</time>
      </trkpt>
      <trkpt lat="46.78224" lon="-2.03783">
        <ele>9</ele>
        <time>2018-04-27T23:22:12Z</time>
      </trkpt>
      <trkpt lat="46.78225" lon="-2.03782">
        <ele>9</ele>
        <time>2018-04-27T23:23:12Z</time>
      </trkpt>
      <trkpt lat="46.78225" lon="-2.03781">
        <ele>9</ele>
        <time>2018-04-27T23:24:12Z</time>
      </trkpt>
      <trkpt lat="46.78226" lon="-2.03781">
        <ele>9</ele>
        <time>2018-04-27T23:25:12Z</time>
      </trkpt>
      <trkpt lat="46.78227" lon="-2.03781">
        <ele>10</ele>
        <time>2018-04-27T23:26:12Z</time>
      </trkpt>
      <trkpt lat="46.78227" lon="-2.0378">
        <ele>10</ele>
        <time>2018-04-27T23:27:12Z</time>
      </trkpt>
      <trkpt lat="46.78228" lon="-2.0378">
        <ele>10</ele>
        <time>2018-04-27T23:28:12Z</time>
      </trkpt>
      <trkpt lat="46.78229" lon="-2.0378">
        <ele>10</ele>
        <time>2018-04-27T23:29:12Z</time>
      </trkpt>
      <trkpt lat="46.7823" lon="-2.03781">
        <ele>10</ele>
        <time>2018-04-27T23:30:12Z</time>
      </trkpt>
      <trkpt lat="46.78252" lon="-2.03756">
        <ele>10</ele>
        <time>2018-04-27T23:31:12Z</time>
      </trkpt>
      <trkpt lat="46.78257" lon="-2.03751">
        <ele>10</ele>
        <time>2018-04-27T23:32:12Z</time>
      </trkpt>
      <trkpt lat="46.78262" lon="-2.03749">
        <ele>10</ele>
        <time>2018-04-27T23:33:12Z</time>
      </trkpt>
      <trkpt lat="46.78294" lon="-2.03718">
        <ele>10</ele>
        <time>2018-04-27T23:34:12Z</time>
      </trkpt>
      <trkpt lat="46.78383" lon="-2.03637">
        <ele>8</ele>
        <time>2018-04-27T23:35:12Z</time>
      </trkpt>
      <trkpt lat="46.78391" lon="-2.03631">
        <ele>8</ele>
        <time>2018-04-27T23:36:12Z</time>
      </trkpt>
      <trkpt lat="46.78398" lon="-2.03627">
        <ele>7</ele>
        <time>2018-04-27T23:37:12Z</time>
      </trkpt>
      <trkpt lat="46.78398" lon="-2.03627">
        <ele>7</ele>
        <time>2018-04-27T23:38:12Z</time>
      </trkpt>
      <trkpt lat="46.78398" lon="-2.03624">
        <ele>7</ele>
        <time>2018-04-27T23:39:12Z</time>
      </trkpt>
      <trkpt lat="46.78398" lon="-2.03622">
        <ele>7</ele>
        <time>2018-04-27T23:40:12Z</time>
      </trkpt>
      <trkpt lat="46.78399" lon="-2.0362">
        <ele>7</ele>
        <time>2018-04-27T23:41:12Z</time>
      </trkpt>
      <trkpt lat="46.784" lon="-2.03619">
        <ele>7</ele>
        <time>2018-04-27T23:42:12Z</time>
      </trkpt>
      <trkpt lat="46.78402" lon="-2.03618">
        <ele>7</ele>
        <time>2018-04-27T23:43:12Z</time>
      </trkpt>
      <trkpt lat="46.78404" lon="-2.03619">
        <ele>7</ele>
        <time>2018-04-27T23:44:12Z</time>
      </trkpt>
      <trkpt lat="46.78405" lon="-2.03619">
        <ele>7</ele>
        <time>2018-04-27T23:45:12Z</time>
      </trkpt>
      <trkpt lat="46.78406" lon="-2.03621">
        <ele>7</ele>
        <time>2018-04-27T23:46:12Z</time>
      </trkpt>
      <trkpt lat="46.78407" lon="-2.03624">
        <ele>7</ele>
        <time>2018-04-27T23:47:12Z</time>
      </trkpt>
      <trkpt lat="46.78407" lon="-2.03626">
        <ele>7</ele>
        <time>2018-04-27T23:48:12Z</time>
      </trkpt>
      <trkpt lat="46.78406" lon="-2.03628">
        <ele>7</ele>
        <time>2018-04-27T23:49:12Z</time>
      </trkpt>
      <trkpt lat="46.78405" lon="-2.0363">
        <ele>7</ele>
        <time>2018-04-27T23:50:12Z</time>
      </trkpt>
      <trkpt lat="46.78404" lon="-2.03631">
        <ele>7</ele>
        <time>2018-04-27T23:51:12Z</time>
      </trkpt>
      <trkpt lat="46.78415" lon="-2.03658">
        <ele>7</ele>
        <time>2018-04-27T23:52:12Z</time>
      </trkpt>
      <trkpt lat="46.78426" lon="-2.03684">
        <ele>7</ele>
        <time>2018-04-27T23:53:12Z</time>
      </trkpt>
      <trkpt lat="46.78445" lon="-2.03728">
        <ele>7</ele>
        <time>2018-04-27T23:54:12Z</time>
      </trkpt>
      <trkpt lat="46.78451" lon="-2.03743">
        <ele>7</ele>
        <time>2018-04-27T23:55:12Z</time>
      </trkpt>
      <trkpt lat="46.78451" lon="-2.03743">
        <ele>7</ele>
        <time>2018-04-27T23:56:12Z</time>
      </trkpt>
      <trkpt lat="46.78455" lon="-2.03755">
        <ele>7</ele>
        <time>2018-04-27T23:57:12Z</time>
      </trkpt>
      <trkpt lat="46.78464" lon="-2.03776">
        <ele>6</ele>
        <time>2018-04-27T23:58:12Z</time>
      </trkpt>
      <trkpt lat="46.78471" lon="-2.03797">
        <ele>6</ele>
        <time>2018-04-27T23:59:12Z</time>
      </trkpt>
      <trkpt lat="46.78486" lon="-2.03841">
        <ele>6</ele>
        <time>2018-04-28T00:00:12Z</time>
      </trkpt>
      <trkpt lat="46.78496" lon="-2.03872">
        <ele>6</ele>
        <time>2018-04-28T00:01:12Z</time>
      </trkpt>
      <trkpt lat="46.78499" lon="-2.03879">
        <ele>6</ele>
        <time>2018-04-28T00:02:12Z</time>
      </trkpt>
      <trkpt lat="46.78513" lon="-2.03921">
        <ele>6</ele>
        <time>2018-04-28T00:03:12Z</time>
      </trkpt>
      <trkpt lat="46.7853" lon="-2.03963">
        <ele>7</ele>
        <time>2018-04-28T00:04:12Z</time>
      </trkpt>
      <trkpt lat="46.7854" lon="-2.0399">
        <ele>6</ele>
        <time>2018-04-28T00:05:12Z</time>
      </trkpt>
      <trkpt lat="46.78544" lon="-2.04006">
        <ele>6</ele>
        <time>2018-04-28T00:06:12Z</time>
      </trkpt>
      <trkpt lat="46.78545" lon="-2.04009">
        <ele>6</ele>
        <time>2018-04-28T00:07:12Z</time>
      </trkpt>
      <trkpt lat="46.78555" lon="-2.04046">
        <ele>6</ele>
        <time>2018-04-28T00:08:12Z</time>
      </trkpt>
      <trkpt lat="46.78564" lon="-2.04079">
        <ele>6</ele>
        <time>2018-04-28T00:09:12Z</time>
      </trkpt>
      <trkpt lat="46.78571" lon="-2.04104">
        <ele>5</ele>
        <time>2018-04-28T00:10:12Z</time>
      </trkpt>
      <trkpt lat="46.78576" lon="-2.04123">
        <ele>5</ele>
        <time>2018-04-28T00:11:12Z</time>
      </trkpt>
      <trkpt lat="46.78579" lon="-2.04129">
        <ele>5</ele>
        <time>2018-04-28T00:12:12Z</time>
      </trkpt>
      <trkpt lat="46.78583" lon="-2.0414">
        <ele>4</ele>
        <time>2018-04-28T00:13:12Z</time>
      </trkpt>
      <trkpt lat="46.7859" lon="-2.04156">
        <ele>4</ele>
        <time>2018-04-28T00:14:12Z</time>
      </trkpt>
      <trkpt lat="46.78599" lon="-2.04178">
        <ele>4</ele>
        <time>2018-04-28T00:15:12Z</time>
      </trkpt>
      <trkpt lat="46.78609" lon="-2.04205">
        <ele>5</ele>
        <time>2018-04-28T00:16:12Z</time>
      </trkpt>
      <trkpt lat="46.78622" lon="-2.04236">
        <ele>5</ele>
        <time>2018-04-28T00:17:12Z</time>
      </trkpt>
      <trkpt lat="46.78625" lon="-2.04245">
        <ele>5</ele>
        <time>2018-04-28T00:18:12Z</time>
      </trkpt>
      <trkpt lat="46.78632" lon="-2.04264">
        <ele>5</ele>
        <time>2018-04-28T00:19:12Z</time>
      </trkpt>
      <trkpt lat="46.78643" lon="-2.04296">
        <ele>5</ele>
        <time>2018-04-28T00:20:12Z</time>
      </trkpt>
      <trkpt lat="46.78659" lon="-2.04344">
        <ele>5</ele>
        <time>2018-04-28T00:21:12Z</time>
      </trkpt>
      <trkpt lat="46.78665" lon="-2.04361">
        <ele>6</ele>
        <time>2018-04-28T00:22:12Z</time>
      </trkpt>
      <trkpt lat="46.78684" lon="-2.04412">
        <ele>7</ele>
        <time>2018-04-28T00:23:12Z</time>
      </trkpt>
      <trkpt lat="46.78708" lon="-2.04474">
        <ele>6</ele>
        <time>2018-04-28T00:24:12Z</time>
      </trkpt>
      <trkpt lat="46.7873" lon="-2.04527">
        <ele>6</ele>
        <time>2018-04-28T00:25:12Z</time>
      </trkpt>
      <trkpt lat="46.7875" lon="-2.04577">
        <ele>6</ele>
        <time>2018-04-28T00:26:12Z</time>
      </trkpt>
      <trkpt lat="46.7877" lon="-2.04627">
        <ele>7</ele>
        <time>2018-04-28T00:27:12Z</time>
      </trkpt>
      <trkpt lat="46.78785" lon="-2.04662">
        <ele>7</ele>
        <time>2018-04-28T00:28:12Z</time>
      </trkpt>
      <trkpt lat="46.78798" lon="-2.04696">
        <ele>7</ele>
        <time>2018-04-28T00:29:12Z</time>
      </trkpt>
      <trkpt lat="46.78813" lon="-2.04743">
        <ele>6</ele>
        <time>2018-04-28T00:30:12Z</time>
      </trkpt>
      <trkpt lat="46.78824" lon="-2.04778">
        <ele>5</ele>
        <time>2018-04-28T00:31:12Z</time>
      </trkpt>
      <trkpt lat="46.78844" lon="-2.04846">
        <ele>5</ele>
        <time>2018-04-28T00:32:12Z</time>
      </trkpt>
      <trkpt lat="46.78854" lon="-2.04876">
        <ele>5</ele>
        <time>2018-04-28T00:33:12Z</time>
      </trkpt>
      <trkpt lat="46.78863" lon="-2.04907">
        <ele>5</ele>
        <time>2018-04-28T00:34:12Z</time>
      </trkpt>
      <trkpt lat="46.78869" lon="-2.04925">
        <ele>5</ele>
        <time>2018-04-28T00:35:12Z</time>
      </trkpt>
      <trkpt lat="46.78898" lon="-2.05001">
        <ele>4</ele>
        <time>2018-04-28T00:36:12Z</time>
      </trkpt>
      <trkpt lat="46.78914" lon="-2.05036">
        <ele>3</ele>
        <time>2018-04-28T00:37:12Z</time>
      </trkpt>
      <trkpt lat="46.7892" lon="-2.0505">
        <ele>3</ele>
        <time>2018-04-28T00:38:12Z</time>
      </trkpt>
      <trkpt lat="46.78923" lon="-2.05057">
        <ele>3</ele>
        <time>2018-04-28T00:39:12Z</time>
      </trkpt>
      <trkpt lat="46.78926" lon="-2.05063">
        <ele>3</ele>
        <time>2018-04-28T00:40:12Z</time>
      </trkpt>
      <trkpt lat="46.78942" lon="-2.051">
        <ele>3</ele>
        <time>2018-04-28T00:41:12Z</time>
      </trkpt>
      <trkpt lat="46.78958" lon="-2.05141">
        <ele>4</ele>
        <time>2018-04-28T00:42:12Z</time>
      </trkpt>
      <trkpt lat="46.78973" lon="-2.05181">
        <ele>4</ele>
        <time>2018-04-28T00:43:12Z</time>
      </trkpt>
      <trkpt lat="46.78987" lon="-2.05224">
        <ele>4</ele>
        <time>2018-04-28T00:44:12Z</time>
      </trkpt>
      <trkpt lat="46.79" lon="-2.05265">
        <ele>4</ele>
        <time>2018-04-28T00:45:12Z</time>
      </trkpt>
      <trkpt lat="46.79003" lon="-2.05274">
        <ele>4</ele>
        <time>2018-04-28T00:46:12Z</time>
      </trkpt>
      <trkpt lat="46.79016" lon="-2.05314">
        <ele>4</ele>
        <time>2018-04-28T00:47:12Z</time>
      </trkpt>
      <trkpt lat="46.79019" lon="-2.05325">
        <ele>4</ele>
        <time>2018-04-28T00:48:12Z</time>
      </trkpt>
      <trkpt lat="46.79034" lon="-2.05372">
        <ele>4</ele>
        <time>2018-04-28T00:49:12Z</time>
      </trkpt>
      <trkpt lat="46.79047" lon="-2.05411">
        <ele>3</ele>
        <time>2018-04-28T00:50:12Z</time>
      </trkpt>
      <trkpt lat="46.79055" lon="-2.05436">
        <ele>3</ele>
        <time>2018-04-28T00:51:12Z</time>
      </trkpt>
      <trkpt lat="46.79058" lon="-2.05443">
        <ele>3</ele>
        <time>2018-04-28T00:52:12Z</time>
      </trkpt>
      <trkpt lat="46.79065" lon="-2.05462">
        <ele>3</ele>
        <time>2018-04-28T00:53:12Z</time>
      </trkpt>
      <trkpt lat="46.79076" lon="-2.05485">
        <ele>3</ele>
        <time>2018-04-28T00:54:12Z</time>
      </trkpt>
      <trkpt lat="46.79084" lon="-2.05501">
        <ele>3</ele>
        <time>2018-04-28T00:55:12Z</time>
      </trkpt>
      <trkpt lat="46.79085" lon="-2.05503">
        <ele>3</ele>
        <time>2018-04-28T00:56:12Z</time>
      </trkpt>
      <trkpt lat="46.79091" lon="-2.05514">
        <ele>3</ele>
        <time>2018-04-28T00:57:12Z</time>
      </trkpt>
      <trkpt lat="46.79094" lon="-2.05518">
        <ele>3</ele>
        <time>2018-04-28T00:58:12Z</time>
      </trkpt>
      <trkpt lat="46.79096" lon="-2.05522">
        <ele>3</ele>
        <time>2018-04-28T00:59:12Z</time>
      </trkpt>
      <trkpt lat="46.79102" lon="-2.0553">
        <ele>3</ele>
        <time>2018-04-28T01:00:12Z</time>
      </trkpt>
      <trkpt lat="46.79102" lon="-2.0553">
        <ele>3</ele>
        <time>2018-04-28T01:01:12Z</time>
      </trkpt>
      <trkpt lat="46.79104" lon="-2.05528">
        <ele>3</ele>
        <time>2018-04-28T01:02:12Z</time>
      </trkpt>
      <trkpt lat="46.79106" lon="-2.05527">
        <ele>3</ele>
        <time>2018-04-28T01:03:12Z</time>
      </trkpt>
      <trkpt lat="46.79109" lon="-2.05527">
        <ele>3</ele>
        <time>2018-04-28T01:04:12Z</time>
      </trkpt>
      <trkpt lat="46.79111" lon="-2.05527">
        <ele>3</ele>
        <time>2018-04-28T01:05:12Z</time>
      </trkpt>
      <trkpt lat="46.79113" lon="-2.05529">
        <ele>3</ele>
        <time>2018-04-28T01:06:12Z</time>
      </trkpt>
      <trkpt lat="46.79115" lon="-2.05531">
        <ele>3</ele>
        <time>2018-04-28T01:07:12Z</time>
      </trkpt>
      <trkpt lat="46.79115" lon="-2.05534">
        <ele>3</ele>
        <time>2018-04-28T01:08:12Z</time>
      </trkpt>
      <trkpt lat="46.79115" lon="-2.05536">
        <ele>3</ele>
        <time>2018-04-28T01:09:12Z</time>
      </trkpt>
      <trkpt lat="46.79115" lon="-2.05539">
        <ele>3</ele>
        <time>2018-04-28T01:10:12Z</time>
      </trkpt>
      <trkpt lat="46.79115" lon="-2.05541">
        <ele>3</ele>
        <time>2018-04-28T01:11:12Z</time>
      </trkpt>
      <trkpt lat="46.79114" lon="-2.05543">
        <ele>3</ele>
        <time>2018-04-28T01:12:12Z</time>
      </trkpt>
      <trkpt lat="46.79112" lon="-2.05545">
        <ele>3</ele>
        <time>2018-04-28T01:13:12Z</time>
      </trkpt>
      <trkpt lat="46.7911" lon="-2.05547">
        <ele>3</ele>
        <time>2018-04-28T01:14:12Z</time>
      </trkpt>
      <trkpt lat="46.79108" lon="-2.0556">
        <ele>3</ele>
        <time>2018-04-28T01:15:12Z</time>
      </trkpt>
      <trkpt lat="46.79108" lon="-2.05564">
        <ele>3</ele>
        <time>2018-04-28T01:16:12Z</time>
      </trkpt>
      <trkpt lat="46.79108" lon="-2.05567">
        <ele>3</ele>
        <time>2018-04-28T01:17:12Z</time>
      </trkpt>
      <trkpt lat="46.79107" lon="-2.05574">
        <ele>3</ele>
        <time>2018-04-28T01:18:12Z</time>
      </trkpt>
      <trkpt lat="46.79107" lon="-2.05584">
        <ele>3</ele>
        <time>2018-04-28T01:19:12Z</time>
      </trkpt>
      <trkpt lat="46.79107" lon="-2.05584">
        <ele>3</ele>
        <time>2018-04-28T01:20:12Z</time>
      </trkpt>
      <trkpt lat="46.7911" lon="-2.05587">
        <ele>3</ele>
        <time>2018-04-28T01:21:12Z</time>
      </trkpt>
      <trkpt lat="46.79111" lon="-2.05589">
        <ele>3</ele>
        <time>2018-04-28T01:22:12Z</time>
      </trkpt>
      <trkpt lat="46.79112" lon="-2.05592">
        <ele>3</ele>
        <time>2018-04-28T01:23:12Z</time>
      </trkpt>
      <trkpt lat="46.79113" lon="-2.05595">
        <ele>3</ele>
        <time>2018-04-28T01:24:12Z</time>
      </trkpt>
      <trkpt lat="46.79113" lon="-2.056">
        <ele>3</ele>
        <time>2018-04-28T01:25:12Z</time>
      </trkpt>
      <trkpt lat="46.79112" lon="-2.05605">
        <ele>3</ele>
        <time>2018-04-28T01:26:12Z</time>
      </trkpt>
      <trkpt lat="46.79111" lon="-2.05608">
        <ele>3</ele>
        <time>2018-04-28T01:27:12Z</time>
      </trkpt>
      <trkpt lat="46.79109" lon="-2.0561">
        <ele>3</ele>
        <time>2018-04-28T01:28:12Z</time>
      </trkpt>
      <trkpt lat="46.79107" lon="-2.05612">
        <ele>3</ele>
        <time>2018-04-28T01:29:12Z</time>
      </trkpt>
      <trkpt lat="46.79105" lon="-2.05613">
        <ele>3</ele>
        <time>2018-04-28T01:30:12Z</time>
      </trkpt>
      <trkpt lat="46.79103" lon="-2.05613">
        <ele>3</ele>
        <time>2018-04-28T01:31:12Z</time>
      </trkpt>
      <trkpt lat="46.79102" lon="-2.05612">
        <ele>3</ele>
        <time>2018-04-28T01:32:12Z</time>
      </trkpt>
      <trkpt lat="46.79101" lon="-2.05612">
        <ele>3</ele>
        <time>2018-04-28T01:33:12Z</time>
      </trkpt>
      <trkpt lat="46.79096" lon="-2.05609">
        <ele>3</ele>
        <time>2018-04-28T01:34:12Z</time>
      </trkpt>
      <trkpt lat="46.79092" lon="-2.05616">
        <ele>3</ele>
        <time>2018-04-28T01:35:12Z</time>
      </trkpt>
      <trkpt lat="46.79088" lon="-2.05623">
        <ele>3</ele>
        <time>2018-04-28T01:36:12Z</time>
      </trkpt>
      <trkpt lat="46.79085" lon="-2.05631">
        <ele>3</ele>
        <time>2018-04-28T01:37:12Z</time>
      </trkpt>
      <trkpt lat="46.79083" lon="-2.05638">
        <ele>3</ele>
        <time>2018-04-28T01:38:12Z</time>
      </trkpt>
      <trkpt lat="46.79075" lon="-2.05662">
        <ele>4</ele>
        <time>2018-04-28T01:39:12Z</time>
      </trkpt>
      <trkpt lat="46.7907" lon="-2.05676">
        <ele>5</ele>
        <time>2018-04-28T01:40:12Z</time>
      </trkpt>
      <trkpt lat="46.79046" lon="-2.05772">
        <ele>10</ele>
        <time>2018-04-28T01:41:12Z</time>
      </trkpt>
      <trkpt lat="46.79042" lon="-2.05785">
        <ele>10</ele>
        <time>2018-04-28T01:42:12Z</time>
      </trkpt>
      <trkpt lat="46.7904" lon="-2.05796">
        <ele>10</ele>
        <time>2018-04-28T01:43:12Z</time>
      </trkpt>
      <trkpt lat="46.79039" lon="-2.05803">
        <ele>10</ele>
        <time>2018-04-28T01:44:12Z</time>
      </trkpt>
      <trkpt lat="46.79039" lon="-2.05807">
        <ele>10</ele>
        <time>2018-04-28T01:45:12Z</time>
      </trkpt>
      <trkpt lat="46.79038" lon="-2.05832">
        <ele>9</ele>
        <time>2018-04-28T01:46:12Z</time>
      </trkpt>
      <trkpt lat="46.79037" lon="-2.05857">
        <ele>9</ele>
        <time>2018-04-28T01:47:12Z</time>
      </trkpt>
      <trkpt lat="46.79037" lon="-2.05869">
        <ele>9</ele>
        <time>2018-04-28T01:48:12Z</time>
      </trkpt>
      <trkpt lat="46.79037" lon="-2.05895">
        <ele>8</ele>
        <time>2018-04-28T01:49:12Z</time>
      </trkpt>
      <trkpt lat="46.79038" lon="-2.0592">
        <ele>8</ele>
        <time>2018-04-28T01:50:12Z</time>
      </trkpt>
      <trkpt lat="46.79038" lon="-2.05941">
        <ele>9</ele>
        <time>2018-04-28T01:51:12Z</time>
      </trkpt>
      <trkpt lat="46.79038" lon="-2.05964">
        <ele>9</ele>
        <time>2018-04-28T01:52:12Z</time>
      </trkpt>
      <trkpt lat="46.79039" lon="-2.06061">
        <ele>9</ele>
        <time>2018-04-28T01:53:12Z</time>
      </trkpt>
      <trkpt lat="46.79039" lon="-2.06073">
        <ele>9</ele>
        <time>2018-04-28T01:54:12Z</time>
      </trkpt>
      <trkpt lat="46.79039" lon="-2.06078">
        <ele>9</ele>
        <time>2018-04-28T01:55:12Z</time>
      </trkpt>
      <trkpt lat="46.79041" lon="-2.06088">
        <ele>9</ele>
        <time>2018-04-28T01:56:12Z</time>
      </trkpt>
      <trkpt lat="46.79041" lon="-2.06094">
        <ele>9</ele>
        <time>2018-04-28T01:57:12Z</time>
      </trkpt>
      <trkpt lat="46.79041" lon="-2.06112">
        <ele>10</ele>
        <time>2018-04-28T01:58:12Z</time>
      </trkpt>
      <trkpt lat="46.7904" lon="-2.06138">
        <ele>10</ele>
        <time>2018-04-28T01:59:12Z</time>
      </trkpt>
      <trkpt lat="46.7904" lon="-2.06148">
        <ele>10</ele>
        <time>2018-04-28T02:00:12Z</time>
      </trkpt>
      <trkpt lat="46.79039" lon="-2.06168">
        <ele>11</ele>
        <time>2018-04-28T02:01:12Z</time>
      </trkpt>
      <trkpt lat="46.79038" lon="-2.06182">
        <ele>11</ele>
        <time>2018-04-28T02:02:12Z</time>
      </trkpt>
      <trkpt lat="46.79037" lon="-2.06191">
        <ele>11</ele>
        <time>2018-04-28T02:03:12Z</time>
      </trkpt>
      <trkpt lat="46.79038" lon="-2.06196">
        <ele>11</ele>
        <time>2018-04-28T02:04:12Z</time>
      </trkpt>
      <trkpt lat="46.79038" lon="-2.06199">
        <ele>11</ele>
        <time>2018-04-28T02:05:12Z</time>
      </trkpt>
      <trkpt lat="46.79038" lon="-2.06202">
        <ele>11</ele>
        <time>2018-04-28T02:06:12Z</time>
      </trkpt>
      <trkpt lat="46.79041" lon="-2.06216">
        <ele>11</ele>
        <time>2018-04-28T02:07:12Z</time>
      </trkpt>
      <trkpt lat="46.79041" lon="-2.06216">
        <ele>11</ele>
        <time>2018-04-28T02:08:12Z</time>
      </trkpt>
      <trkpt lat="46.79044" lon="-2.06218">
        <ele>10</ele>
        <time>2018-04-28T02:09:12Z</time>
      </trkpt>
      <trkpt lat="46.79046" lon="-2.0622">
        <ele>10</ele>
        <time>2018-04-28T02:10:12Z</time>
      </trkpt>
      <trkpt lat="46.79049" lon="-2.06224">
        <ele>10</ele>
        <time>2018-04-28T02:11:12Z</time>
      </trkpt>
      <trkpt lat="46.79052" lon="-2.06229">
        <ele>10</ele>
        <time>2018-04-28T02:12:12Z</time>
      </trkpt>
      <trkpt lat="46.79053" lon="-2.06232">
        <ele>10</ele>
        <time>2018-04-28T02:13:12Z</time>
      </trkpt>
      <trkpt lat="46.79054" lon="-2.06235">
        <ele>10</ele>
        <time>2018-04-28T02:14:12Z</time>
      </trkpt>
      <trkpt lat="46.79054" lon="-2.06238">
        <ele>10</ele>
        <time>2018-04-28T02:15:12Z</time>
      </trkpt>
      <trkpt lat="46.79055" lon="-2.06241">
        <ele>10</ele>
        <time>2018-04-28T02:16:12Z</time>
      </trkpt>
      <trkpt lat="46.79055" lon="-2.06244">
        <ele>10</ele>
        <time>2018-04-28T02:17:12Z</time>
      </trkpt>
      <trkpt lat="46.79055" lon="-2.06247">
        <ele>10</ele>
        <time>2018-04-28T02:18:12Z</time>
      </trkpt>
      <trkpt lat="46.79055" lon="-2.0625">
        <ele>10</ele>
        <time>2018-04-28T02:19:12Z</time>
      </trkpt>
      <trkpt lat="46.79055" lon="-2.06254">
        <ele>10</ele>
        <time>2018-04-28T02:20:12Z</time>
      </trkpt>
      <trkpt lat="46.79055" lon="-2.06255">
        <ele>10</ele>
        <time>2018-04-28T02:21:12Z</time>
      </trkpt>
      <trkpt lat="46.79054" lon="-2.06256">
        <ele>10</ele>
        <time>2018-04-28T02:22:12Z</time>
      </trkpt>
      <trkpt lat="46.79054" lon="-2.06257">
        <ele>10</ele>
        <time>2018-04-28T02:23:12Z</time>
      </trkpt>
      <trkpt lat="46.79054" lon="-2.06258">
        <ele>11</ele>
        <time>2018-04-28T02:24:12Z</time>
      </trkpt>
      <trkpt lat="46.79054" lon="-2.06259">
        <ele>11</ele>
        <time>2018-04-28T02:25:12Z</time>
      </trkpt>
      <trkpt lat="46.79054" lon="-2.0626">
        <ele>11</ele>
        <time>2018-04-28T02:26:12Z</time>
      </trkpt>
      <trkpt lat="46.79053" lon="-2.06261">
        <ele>11</ele>
        <time>2018-04-28T02:27:12Z</time>
      </trkpt>
      <trkpt lat="46.79053" lon="-2.06262">
        <ele>11</ele>
        <time>2018-04-28T02:28:12Z</time>
      </trkpt>
      <trkpt lat="46.79053" lon="-2.06263">
        <ele>11</ele>
        <time>2018-04-28T02:29:12Z</time>
      </trkpt>
      <trkpt lat="46.79052" lon="-2.06263">
        <ele>11</ele>
        <time>2018-04-28T02:30:12Z</time>
      </trkpt>
      <trkpt lat="46.79052" lon="-2.06264">
        <ele>11</ele>
        <time>2018-04-28T02:31:12Z</time>
      </trkpt>
      <trkpt lat="46.79051" lon="-2.06265">
        <ele>11</ele>
        <time>2018-04-28T02:32:12Z</time>
      </trkpt>
      <trkpt lat="46.79051" lon="-2.06266">
        <ele>11</ele>
        <time>2018-04-28T02:33:12Z</time>
      </trkpt>
      <trkpt lat="46.7905" lon="-2.06267">
        <ele>11</ele>
        <time>2018-04-28T02:34:12Z</time>
      </trkpt>
      <trkpt lat="46.79049" lon="-2.06268">
        <ele>11</ele>
        <time>2018-04-28T02:35:12Z</time>
      </trkpt>
      <trkpt lat="46.79048" lon="-2.06269">
        <ele>11</ele>
        <time>2018-04-28T02:36:12Z</time>
      </trkpt>
      <trkpt lat="46.79048" lon="-2.0627">
        <ele>11</ele>
        <time>2018-04-28T02:37:12Z</time>
      </trkpt>
      <trkpt lat="46.79047" lon="-2.06271">
        <ele>11</ele>
        <time>2018-04-28T02:38:12Z</time>
      </trkpt>
      <trkpt lat="46.79046" lon="-2.06272">
        <ele>11</ele>
        <time>2018-04-28T02:39:12Z</time>
      </trkpt>
      <trkpt lat="46.79045" lon="-2.06272">
        <ele>11</ele>
        <time>2018-04-28T02:40:12Z</time>
      </trkpt>
      <trkpt lat="46.79044" lon="-2.06291">
        <ele>11</ele>
        <time>2018-04-28T02:41:12Z</time>
      </trkpt>
      <trkpt lat="46.79044" lon="-2.06299">
        <ele>12</ele>
        <time>2018-04-28T02:42:12Z</time>
      </trkpt>
      <trkpt lat="46.79045" lon="-2.06307">
        <ele>12</ele>
        <time>2018-04-28T02:43:12Z</time>
      </trkpt>
      <trkpt lat="46.79046" lon="-2.06315">
        <ele>12</ele>
        <time>2018-04-28T02:44:12Z</time>
      </trkpt>
      <trkpt lat="46.79047" lon="-2.0632">
        <ele>12</ele>
        <time>2018-04-28T02:45:12Z</time>
      </trkpt>
      <trkpt lat="46.79048" lon="-2.06324">
        <ele>12</ele>
        <time>2018-04-28T02:46:12Z</time>
      </trkpt>
      <trkpt lat="46.79051" lon="-2.0634">
        <ele>12</ele>
        <time>2018-04-28T02:47:12Z</time>
      </trkpt>
      <trkpt lat="46.79058" lon="-2.06362">
        <ele>13</ele>
        <time>2018-04-28T02:48:12Z</time>
      </trkpt>
      <trkpt lat="46.7907" lon="-2.064">
        <ele>13</ele>
        <time>2018-04-28T02:49:12Z</time>
      </trkpt>
      <trkpt lat="46.79075" lon="-2.06415">
        <ele>13</ele>
        <time>2018-04-28T02:50:12Z</time>
      </trkpt>
      <trkpt lat="46.79076" lon="-2.06416">
        <ele>13</ele>
        <time>2018-04-28T02:51:12Z</time>
      </trkpt>
      <trkpt lat="46.79082" lon="-2.06432">
        <ele>13</ele>
        <time>2018-04-28T02:52:12Z</time>
      </trkpt>
      <trkpt lat="46.7909" lon="-2.06455">
        <ele>13</ele>
        <time>2018-04-28T02:53:12Z</time>
      </trkpt>
      <trkpt lat="46.79093" lon="-2.06455">
        <ele>13</ele>
        <time>2018-04-28T02:54:12Z</time>
      </trkpt>
      <trkpt lat="46.79095" lon="-2.06455">
        <ele>13</ele>
        <time>2018-04-28T02:55:12Z</time>
      </trkpt>
      <trkpt lat="46.79097" lon="-2.06456">
        <ele>13</ele>
        <time>2018-04-28T02:56:12Z</time>
      </trkpt>
      <trkpt lat="46.79099" lon="-2.06457">
        <ele>12</ele>
        <time>2018-04-28T02:57:12Z</time>
      </trkpt>
      <trkpt lat="46.79101" lon="-2.0646">
        <ele>12</ele>
        <time>2018-04-28T02:58:12Z</time>
      </trkpt>
      <trkpt lat="46.79102" lon="-2.06463">
        <ele>12</ele>
        <time>2018-04-28T02:59:12Z</time>
      </trkpt>
      <trkpt lat="46.79103" lon="-2.06466">
        <ele>12</ele>
        <time>2018-04-28T03:00:12Z</time>
      </trkpt>
      <trkpt lat="46.79103" lon="-2.06468">
        <ele>12</ele>
        <time>2018-04-28T03:01:12Z</time>
      </trkpt>
      <trkpt lat="46.79103" lon="-2.06471">
        <ele>13</ele>
        <time>2018-04-28T03:02:12Z</time>
      </trkpt>
      <trkpt lat="46.79103" lon="-2.06474">
        <ele>13</ele>
        <time>2018-04-28T03:03:12Z</time>
      </trkpt>
      <trkpt lat="46.79103" lon="-2.06476">
        <ele>13</ele>
        <time>2018-04-28T03:04:12Z</time>
      </trkpt>
      <trkpt lat="46.79102" lon="-2.0648">
        <ele>13</ele>
        <time>2018-04-28T03:05:12Z</time>
      </trkpt>
      <trkpt lat="46.79106" lon="-2.06495">
        <ele>13</ele>
        <time>2018-04-28T03:06:12Z</time>
      </trkpt>
      <trkpt lat="46.79109" lon="-2.06505">
        <ele>13</ele>
        <time>2018-04-28T03:07:12Z</time>
      </trkpt>
      <trkpt lat="46.79136" lon="-2.06583">
        <ele>12</ele>
        <time>2018-04-28T03:08:12Z</time>
      </trkpt>
      <trkpt lat="46.79144" lon="-2.06602">
        <ele>12</ele>
        <time>2018-04-28T03:09:12Z</time>
      </trkpt>
      <trkpt lat="46.79148" lon="-2.06615">
        <ele>12</ele>
        <time>2018-04-28T03:10:12Z</time>
      </trkpt>
      <trkpt lat="46.79151" lon="-2.06623">
        <ele>12</ele>
        <time>2018-04-28T03:11:12Z</time>
      </trkpt>
      <trkpt lat="46.79154" lon="-2.06632">
        <ele>12</ele>
        <time>2018-04-28T03:12:12Z</time>
      </trkpt>
      <trkpt lat="46.79156" lon="-2.06639">
        <ele>12</ele>
        <time>2018-04-28T03:13:12Z</time>
      </trkpt>
      <trkpt lat="46.79157" lon="-2.06644">
        <ele>12</ele>
        <time>2018-04-28T03:14:12Z</time>
      </trkpt>
      <trkpt lat="46.79161" lon="-2.06657">
        <ele>11</ele>
        <time>2018-04-28T03:15:12Z</time>
      </trkpt>
      <trkpt lat="46.79161" lon="-2.06657">
        <ele>11</ele>
        <time>2018-04-28T03:16:12Z</time>
      </trkpt>
      <trkpt lat="46.79163" lon="-2.06659">
        <ele>11</ele>
        <time>2018-04-28T03:17:12Z</time>
      </trkpt>
      <trkpt lat="46.79165" lon="-2.06661">
        <ele>11</ele>
        <time>2018-04-28T03:18:12Z</time>
      </trkpt>
      <trkpt lat="46.79166" lon="-2.06663">
        <ele>11</ele>
        <time>2018-04-28T03:19:12Z</time>
      </trkpt>
      <trkpt lat="46.79167" lon="-2.06666">
        <ele>11</ele>
        <time>2018-04-28T03:20:12Z</time>
      </trkpt>
      <trkpt lat="46.79168" lon="-2.0667">
        <ele>11</ele>
        <time>2018-04-28T03:21:12Z</time>
      </trkpt>
      <trkpt lat="46.79168" lon="-2.06675">
        <ele>11</ele>
        <time>2018-04-28T03:22:12Z</time>
      </trkpt>
      <trkpt lat="46.79168" lon="-2.06681">
        <ele>11</ele>
        <time>2018-04-28T03:23:12Z</time>
      </trkpt>
      <trkpt lat="46.79167" lon="-2.06683">
        <ele>11</ele>
        <time>2018-04-28T03:24:12Z</time>
      </trkpt>
      <trkpt lat="46.79166" lon="-2.06686">
        <ele>12</ele>
        <time>2018-04-28T03:25:12Z</time>
      </trkpt>
      <trkpt lat="46.79163" lon="-2.06689">
        <ele>12</ele>
        <time>2018-04-28T03:26:12Z</time>
      </trkpt>
      <trkpt lat="46.79162" lon="-2.06691">
        <ele>12</ele>
        <time>2018-04-28T03:27:12Z</time>
      </trkpt>
      <trkpt lat="46.7916" lon="-2.06692">
        <ele>12</ele>
        <time>2018-04-28T03:28:12Z</time>
      </trkpt>
      <trkpt lat="46.79158" lon="-2.06692">
        <ele>12</ele>
        <time>2018-04-28T03:29:12Z</time>
      </trkpt>
      <trkpt lat="46.79158" lon="-2.06695">
        <ele>12</ele>
        <time>2018-04-28T03:30:12Z</time>
      </trkpt>
      <trkpt lat="46.79158" lon="-2.06697">
        <ele>12</ele>
        <time>2018-04-28T03:31:12Z</time>
      </trkpt>
      <trkpt lat="46.79158" lon="-2.06699">
        <ele>12</ele>
        <time>2018-04-28T03:32:12Z</time>
      </trkpt>
      <trkpt lat="46.7915" lon="-2.06711">
        <ele>13</ele>
        <time>2018-04-28T03:33:12Z</time>
      </trkpt>
      <trkpt lat="46.79148" lon="-2.06716">
        <ele>13</ele>
        <time>2018-04-28T03:34:12Z</time>
      </trkpt>
      <trkpt lat="46.79145" lon="-2.06724">
        <ele>14</ele>
        <time>2018-04-28T03:35:12Z</time>
      </trkpt>
      <trkpt lat="46.79142" lon="-2.06734">
        <ele>14</ele>
        <time>2018-04-28T03:36:12Z</time>
      </trkpt>
      <trkpt lat="46.79132" lon="-2.06794">
        <ele>16</ele>
        <time>2018-04-28T03:37:12Z</time>
      </trkpt>
      <trkpt lat="46.79107" lon="-2.06949">
        <ele>13</ele>
        <time>2018-04-28T03:38:12Z</time>
      </trkpt>
      <trkpt lat="46.79105" lon="-2.06962">
        <ele>12</ele>
        <time>2018-04-28T03:39:12Z</time>
      </trkpt>
      <trkpt lat="46.79097" lon="-2.0701">
        <ele>11</ele>
        <time>2018-04-28T03:40:12Z</time>
      </trkpt>
      <trkpt lat="46.79092" lon="-2.0703">
        <ele>11</ele>
        <time>2018-04-28T03:41:12Z</time>
      </trkpt>
      <trkpt lat="46.79087" lon="-2.07049">
        <ele>11</ele>
        <time>2018-04-28T03:42:12Z</time>
      </trkpt>
      <trkpt lat="46.79082" lon="-2.07064">
        <ele>11</ele>
        <time>2018-04-28T03:43:12Z</time>
      </trkpt>
      <trkpt lat="46.79076" lon="-2.07079">
        <ele>11</ele>
        <time>2018-04-28T03:44:12Z</time>
      </trkpt>
      <trkpt lat="46.79063" lon="-2.07103">
        <ele>11</ele>
        <time>2018-04-28T03:45:12Z</time>
      </trkpt>
      <trkpt lat="46.79048" lon="-2.0713">
        <ele>11</ele>
        <time>2018-04-28T03:46:12Z</time>
      </trkpt>
      <trkpt lat="46.7904" lon="-2.07143">
        <ele>11</ele>
        <time>2018-04-28T03:47:12Z</time>
      </trkpt>
      <trkpt lat="46.7903" lon="-2.07158">
        <ele>11</ele>
        <time>2018-04-28T03:48:12Z</time>
      </trkpt>
      <trkpt lat="46.7902" lon="-2.07174">
        <ele>10</ele>
        <time>2018-04-28T03:49:12Z</time>
      </trkpt>
      <trkpt lat="46.79013" lon="-2.07188">
        <ele>10</ele>
        <time>2018-04-28T03:50:12Z</time>
      </trkpt>
      <trkpt lat="46.79004" lon="-2.07209">
        <ele>10</ele>
        <time>2018-04-28T03:51:12Z</time>
      </trkpt>
      <trkpt lat="46.78998" lon="-2.07228">
        <ele>10</ele>
        <time>2018-04-28T03:52:12Z</time>
      </trkpt>
      <trkpt lat="46.78995" lon="-2.07242">
        <ele>10</ele>
        <time>2018-04-28T03:53:12Z</time>
      </trkpt>
      <trkpt lat="46.78992" lon="-2.07255">
        <ele>10</ele>
        <time>2018-04-28T03:54:12Z</time>
      </trkpt>
      <trkpt lat="46.78991" lon="-2.07263">
        <ele>9</ele>
        <time>2018-04-28T03:55:12Z</time>
      </trkpt>
      <trkpt lat="46.7899" lon="-2.0728">
        <ele>9</ele>
        <time>2018-04-28T03:56:12Z</time>
      </trkpt>
      <trkpt lat="46.78991" lon="-2.07353">
        <ele>8</ele>
        <time>2018-04-28T03:57:12Z</time>
      </trkpt>
      <trkpt lat="46.78991" lon="-2.07354">
        <ele>8</ele>
        <time>2018-04-28T03:58:12Z</time>
      </trkpt>
      <trkpt lat="46.78993" lon="-2.07494">
        <ele>7</ele>
        <time>2018-04-28T03:59:12Z</time>
      </trkpt>
      <trkpt lat="46.79003" lon="-2.07865">
        <ele>5</ele>
        <time>2018-04-28T04:00:12Z</time>
      </trkpt>
      <trkpt lat="46.79005" lon="-2.07898">
        <ele>4</ele>
        <time>2018-04-28T04:01:12Z</time>
      </trkpt>
      <trkpt lat="46.79007" lon="-2.07916">
        <ele>4</ele>
        <time>2018-04-28T04:02:12Z</time>
      </trkpt>
      <trkpt lat="46.79011" lon="-2.07932">
        <ele>4</ele>
        <time>2018-04-28T04:03:12Z</time>
      </trkpt>
      <trkpt lat="46.79016" lon="-2.07958">
        <ele>4</ele>
        <time>2018-04-28T04:04:12Z</time>
      </trkpt>
      <trkpt lat="46.79016" lon="-2.07958">
        <ele>4</ele>
        <time>2018-04-28T04:05:12Z</time>
      </trkpt>
      <trkpt lat="46.79018" lon="-2.07962">
        <ele>5</ele>
        <time>2018-04-28T04:06:12Z</time>
      </trkpt>
      <trkpt lat="46.79021" lon="-2.07971">
        <ele>5</ele>
        <time>2018-04-28T04:07:12Z</time>
      </trkpt>
      <trkpt lat="46.79023" lon="-2.07977">
        <ele>5</ele>
        <time>2018-04-28T04:08:12Z</time>
      </trkpt>
      <trkpt lat="46.79029" lon="-2.07985">
        <ele>5</ele>
        <time>2018-04-28T04:09:12Z</time>
      </trkpt>
      <trkpt lat="46.79048" lon="-2.08014">
        <ele>5</ele>
        <time>2018-04-28T04:10:12Z</time>
      </trkpt>
      <trkpt lat="46.79061" lon="-2.08031">
        <ele>5</ele>
        <time>2018-04-28T04:11:12Z</time>
      </trkpt>
      <trkpt lat="46.79164" lon="-2.08132">
        <ele>5</ele>
        <time>2018-04-28T04:12:12Z</time>
      </trkpt>
      <trkpt lat="46.79164" lon="-2.08132">
        <ele>5</ele>
        <time>2018-04-28T04:13:12Z</time>
      </trkpt>
      <trkpt lat="46.79181" lon="-2.08098">
        <ele>5</ele>
        <time>2018-04-28T04:14:12Z</time>
      </trkpt>
      <trkpt lat="46.79191" lon="-2.08085">
        <ele>5</ele>
        <time>2018-04-28T04:15:12Z</time>
      </trkpt>
      <trkpt lat="46.79206" lon="-2.08071">
        <ele>5</ele>
        <time>2018-04-28T04:16:12Z</time>
      </trkpt>
      <trkpt lat="46.79235" lon="-2.08047">
        <ele>6</ele>
        <time>2018-04-28T04:17:12Z</time>
      </trkpt>
      <trkpt lat="46.79243" lon="-2.08041">
        <ele>6</ele>
        <time>2018-04-28T04:18:12Z</time>
      </trkpt>
      <trkpt lat="46.79246" lon="-2.08039">
        <ele>6</ele>
        <time>2018-04-28T04:19:12Z</time>
      </trkpt>
      <trkpt lat="46.79254" lon="-2.08031">
        <ele>6</ele>
        <time>2018-04-28T04:20:12Z</time>
      </trkpt>
      <trkpt lat="46.79279" lon="-2.08001">
        <ele>6</ele>
        <time>2018-04-28T04:21:12Z</time>
      </trkpt>
      <trkpt lat="46.79332" lon="-2.07927">
        <ele>8</ele>
        <time>2018-04-28T04:22:12Z</time>
      </trkpt>
      <trkpt lat="46.79364" lon="-2.07886">
        <ele>8</ele>
        <time>2018-04-28T04:23:12Z</time>
      </trkpt>
      <trkpt lat="46.79386" lon="-2.0786">
        <ele>8</ele>
        <time>2018-04-28T04:24:12Z</time>
      </trkpt>
      <trkpt lat="46.79392" lon="-2.07853">
        <ele>8</ele>
        <time>2018-04-28T04:25:12Z</time>
      </trkpt>
      <trkpt lat="46.79418" lon="-2.07821">
        <ele>8</ele>
        <time>2018-04-28T04:26:12Z</time>
      </trkpt>
      <trkpt lat="46.79451" lon="-2.07781">
        <ele>11</ele>
        <time>2018-04-28T04:27:12Z</time>
      </trkpt>
      <trkpt lat="46.79471" lon="-2.0776">
        <ele>12</ele>
        <time>2018-04-28T04:28:12Z</time>
      </trkpt>
      <trkpt lat="46.79489" lon="-2.07748">
        <ele>13</ele>
        <time>2018-04-28T04:29:12Z</time>
      </trkpt>
      <trkpt lat="46.7951" lon="-2.07737">
        <ele>15</ele>
        <time>2018-04-28T04:30:12Z</time>
      </trkpt>
      <trkpt lat="46.79553" lon="-2.07723">
        <ele>17</ele>
        <time>2018-04-28T04:31:12Z</time>
      </trkpt>
      <trkpt lat="46.79618" lon="-2.07705">
        <ele>18</ele>
        <time>2018-04-28T04:32:12Z</time>
      </trkpt>
      <trkpt lat="46.7964" lon="-2.07696">
        <ele>18</ele>
        <time>2018-04-28T04:33:12Z</time>
      </trkpt>
      <trkpt lat="46.79665" lon="-2.07681">
        <ele>17</ele>
        <time>2018-04-28T04:34:12Z</time>
      </trkpt>
      <trkpt lat="46.79704" lon="-2.07654">
        <ele>16</ele>
        <time>2018-04-28T04:35:12Z</time>
      </trkpt>
      <trkpt lat="46.79717" lon="-2.07649">
        <ele>16</ele>
        <time>2018-04-28T04:36:12Z</time>
      </trkpt>
      <trkpt lat="46.79726" lon="-2.07646">
        <ele>16</ele>
        <time>2018-04-28T04:37:12Z</time>
      </trkpt>
      <trkpt lat="46.79735" lon="-2.07645">
        <ele>15</ele>
        <time>2018-04-28T04:38:12Z</time>
      </trkpt>
      <trkpt lat="46.79749" lon="-2.07646">
        <ele>15</ele>
        <time>2018-04-28T04:39:12Z</time>
      </trkpt>
      <trkpt lat="46.79761" lon="-2.07648">
        <ele>15</ele>
        <time>2018-04-28T04:40:12Z</time>
      </trkpt>
      <trkpt lat="46.7977" lon="-2.0765">
        <ele>14</ele>
        <time>2018-04-28T04:41:12Z</time>
      </trkpt>
      <trkpt lat="46.79778" lon="-2.07654">
        <ele>14</ele>
        <time>2018-04-28T04:42:12Z</time>
      </trkpt>
      <trkpt lat="46.79813" lon="-2.07674">
        <ele>12</ele>
        <time>2018-04-28T04:43:12Z</time>
      </trkpt>
      <trkpt lat="46.79819" lon="-2.07676">
        <ele>11</ele>
        <time>2018-04-28T04:44:12Z</time>
      </trkpt>
      <trkpt lat="46.79823" lon="-2.07677">
        <ele>11</ele>
        <time>2018-04-28T04:45:12Z</time>
      </trkpt>
      <trkpt lat="46.7983" lon="-2.07677">
        <ele>11</ele>
        <time>2018-04-28T04:46:12Z</time>
      </trkpt>
      <trkpt lat="46.7983" lon="-2.07677">
        <ele>11</ele>
        <time>2018-04-28T04:47:12Z</time>
      </trkpt>
      <trkpt lat="46.79845" lon="-2.07722">
        <ele>12</ele>
        <time>2018-04-28T04:48:12Z</time>
      </trkpt>
      <trkpt lat="46.79845" lon="-2.07722">
        <ele>12</ele>
        <time>2018-04-28T04:49:12Z</time>
      </trkpt>
      <trkpt lat="46.79865" lon="-2.07701">
        <ele>10</ele>
        <time>2018-04-28T04:50:12Z</time>
      </trkpt>
      <trkpt lat="46.79885" lon="-2.07682">
        <ele>8</ele>
        <time>2018-04-28T04:51:12Z</time>
      </trkpt>
      <trkpt lat="46.79901" lon="-2.07669">
        <ele>7</ele>
        <time>2018-04-28T04:52:12Z</time>
      </trkpt>
      <trkpt lat="46.79914" lon="-2.07661">
        <ele>6</ele>
        <time>2018-04-28T04:53:12Z</time>
      </trkpt>
      <trkpt lat="46.79953" lon="-2.0764">
        <ele>4</ele>
        <time>2018-04-28T04:54:12Z</time>
      </trkpt>
      <trkpt lat="46.79966" lon="-2.07635">
        <ele>3</ele>
        <time>2018-04-28T04:55:12Z</time>
      </trkpt>
      <trkpt lat="46.79966" lon="-2.07635">
        <ele>3</ele>
        <time>2018-04-28T04:56:12Z</time>
      </trkpt>
      <trkpt lat="46.80056" lon="-2.07589">
        <ele>1</ele>
        <time>2018-04-28T04:57:12Z</time>
      </trkpt>
      <trkpt lat="46.80062" lon="-2.07587">
        <ele>1</ele>
        <time>2018-04-28T04:58:12Z</time>
      </trkpt>
      <trkpt lat="46.80069" lon="-2.07584">
        <ele>1</ele>
        <time>2018-04-28T04:59:12Z</time>
      </trkpt>
      <trkpt lat="46.8012" lon="-2.07568">
        <ele>1</ele>
        <time>2018-04-28T05:00:12Z</time>
      </trkpt>
      <trkpt lat="46.8012" lon="-2.07568">
        <ele>1</ele>
        <time>2018-04-28T05:01:12Z</time>
      </trkpt>
      <trkpt lat="46.80125" lon="-2.076">
        <ele>1.5</ele>
        <time>2018-04-28T05:02:12Z</time>
      </trkpt>
      <trkpt lat="46.80132" lon="-2.07657">
        <ele>1.7</ele>
        <time>2018-04-28T05:03:12Z</time>
      </trkpt>
      <trkpt lat="46.80138" lon="-2.07719">
        <ele>1</ele>
        <time>2018-04-28T05:04:12Z</time>
      </trkpt>
      <trkpt lat="46.80142" lon="-2.07752">
        <ele>1</ele>
        <time>2018-04-28T05:05:12Z</time>
      </trkpt>
      <trkpt lat="46.80146" lon="-2.07771">
        <ele>1</ele>
        <time>2018-04-28T05:06:12Z</time>
      </trkpt>
      <trkpt lat="46.80155" lon="-2.07807">
        <ele>1.4</ele>
        <time>2018-04-28T05:07:12Z</time>
      </trkpt>
      <trkpt lat="46.80166" lon="-2.07841">
        <ele>2</ele>
        <time>2018-04-28T05:08:12Z</time>
      </trkpt>
      <trkpt lat="46.80182" lon="-2.07883">
        <ele>1</ele>
        <time>2018-04-28T05:09:12Z</time>
      </trkpt>
      <trkpt lat="46.80197" lon="-2.07922">
        <ele>1</ele>
        <time>2018-04-28T05:10:12Z</time>
      </trkpt>
      <trkpt lat="46.80206" lon="-2.07944">
        <ele>1</ele>
        <time>2018-04-28T05:11:12Z</time>
      </trkpt>
      <trkpt lat="46.80214" lon="-2.07957">
        <ele>1</ele>
        <time>2018-04-28T05:12:12Z</time>
      </trkpt>
      <trkpt lat="46.8022" lon="-2.07968">
        <ele>1</ele>
        <time>2018-04-28T05:13:12Z</time>
      </trkpt>
      <trkpt lat="46.80224" lon="-2.07975">
        <ele>1</ele>
        <time>2018-04-28T05:14:12Z</time>
      </trkpt>
      <trkpt lat="46.80231" lon="-2.07988">
        <ele>1</ele>
        <time>2018-04-28T05:15:12Z</time>
      </trkpt>
      <trkpt lat="46.80239" lon="-2.08005">
        <ele>2</ele>
        <time>2018-04-28T05:16:12Z</time>
      </trkpt>
      <trkpt lat="46.80243" lon="-2.08016">
        <ele>2</ele>
        <time>2018-04-28T05:17:12Z</time>
      </trkpt>
      <trkpt lat="46.80245" lon="-2.08027">
        <ele>2</ele>
        <time>2018-04-28T05:18:12Z</time>
      </trkpt>
      <trkpt lat="46.80247" lon="-2.08034">
        <ele>2</ele>
        <time>2018-04-28T05:19:12Z</time>
      </trkpt>
      <trkpt lat="46.80248" lon="-2.08044">
        <ele>2</ele>
        <time>2018-04-28T05:20:12Z</time>
      </trkpt>
      <trkpt lat="46.80249" lon="-2.08061">
        <ele>2</ele>
        <time>2018-04-28T05:21:12Z</time>
      </trkpt>
      <trkpt lat="46.8025" lon="-2.08104">
        <ele>2</ele>
        <time>2018-04-28T05:22:12Z</time>
      </trkpt>
      <trkpt lat="46.80252" lon="-2.08115">
        <ele>1.9</ele>
        <time>2018-04-28T05:23:12Z</time>
      </trkpt>
      <trkpt lat="46.80254" lon="-2.08125">
        <ele>1.5</ele>
        <time>2018-04-28T05:24:12Z</time>
      </trkpt>
      <trkpt lat="46.80256" lon="-2.08131">
        <ele>1</ele>
        <time>2018-04-28T05:25:12Z</time>
      </trkpt>
      <trkpt lat="46.8026" lon="-2.0814">
        <ele>1</ele>
        <time>2018-04-28T05:26:12Z</time>
      </trkpt>
      <trkpt lat="46.80274" lon="-2.08164">
        <ele>1</ele>
        <time>2018-04-28T05:27:12Z</time>
      </trkpt>
      <trkpt lat="46.8029" lon="-2.0819">
        <ele>1</ele>
        <time>2018-04-28T05:28:12Z</time>
      </trkpt>
      <trkpt lat="46.80296" lon="-2.08205">
        <ele>1</ele>
        <time>2018-04-28T05:29:12Z</time>
      </trkpt>
      <trkpt lat="46.80303" lon="-2.08225">
        <ele>2</ele>
        <time>2018-04-28T05:30:12Z</time>
      </trkpt>
      <trkpt lat="46.80306" lon="-2.08241">
        <ele>2</ele>
        <time>2018-04-28T05:31:12Z</time>
      </trkpt>
      <trkpt lat="46.80308" lon="-2.08256">
        <ele>2</ele>
        <time>2018-04-28T05:32:12Z</time>
      </trkpt>
      <trkpt lat="46.8031" lon="-2.08272">
        <ele>2</ele>
        <time>2018-04-28T05:33:12Z</time>
      </trkpt>
      <trkpt lat="46.80313" lon="-2.08306">
        <ele>2</ele>
        <time>2018-04-28T05:34:12Z</time>
      </trkpt>
      <trkpt lat="46.80316" lon="-2.08332">
        <ele>2</ele>
        <time>2018-04-28T05:35:12Z</time>
      </trkpt>
      <trkpt lat="46.80319" lon="-2.08352">
        <ele>2</ele>
        <time>2018-04-28T05:36:12Z</time>
      </trkpt>
      <trkpt lat="46.80324" lon="-2.08373">
        <ele>2</ele>
        <time>2018-04-28T05:37:12Z</time>
      </trkpt>
      <trkpt lat="46.80338" lon="-2.08432">
        <ele>2</ele>
        <time>2018-04-28T05:38:12Z</time>
      </trkpt>
      <trkpt lat="46.8034" lon="-2.08447">
        <ele>2</ele>
        <time>2018-04-28T05:39:12Z</time>
      </trkpt>
      <trkpt lat="46.80342" lon="-2.08457">
        <ele>2</ele>
        <time>2018-04-28T05:40:12Z</time>
      </trkpt>
      <trkpt lat="46.80342" lon="-2.08469">
        <ele>2</ele>
        <time>2018-04-28T05:41:12Z</time>
      </trkpt>
      <trkpt lat="46.80342" lon="-2.08485">
        <ele>2</ele>
        <time>2018-04-28T05:42:12Z</time>
      </trkpt>
      <trkpt lat="46.80342" lon="-2.08501">
        <ele>2</ele>
        <time>2018-04-28T05:43:12Z</time>
      </trkpt>
      <trkpt lat="46.80341" lon="-2.0851">
        <ele>2</ele>
        <time>2018-04-28T05:44:12Z</time>
      </trkpt>
      <trkpt lat="46.80344" lon="-2.08557">
        <ele>2</ele>
        <time>2018-04-28T05:45:12Z</time>
      </trkpt>
      <trkpt lat="46.80348" lon="-2.08583">
        <ele>2</ele>
        <time>2018-04-28T05:46:12Z</time>
      </trkpt>
      <trkpt lat="46.80352" lon="-2.08607">
        <ele>2</ele>
        <time>2018-04-28T05:47:12Z</time>
      </trkpt>
      <trkpt lat="46.80369" lon="-2.08698">
        <ele>2</ele>
        <time>2018-04-28T05:48:12Z</time>
      </trkpt>
      <trkpt lat="46.80371" lon="-2.08712">
        <ele>2</ele>
        <time>2018-04-28T05:49:12Z</time>
      </trkpt>
      <trkpt lat="46.80371" lon="-2.08722">
        <ele>2</ele>
        <time>2018-04-28T05:50:12Z</time>
      </trkpt>
      <trkpt lat="46.80371" lon="-2.08734">
        <ele>2</ele>
        <time>2018-04-28T05:51:12Z</time>
      </trkpt>
      <trkpt lat="46.80371" lon="-2.08747">
        <ele>2</ele>
        <time>2018-04-28T05:52:12Z</time>
      </trkpt>
      <trkpt lat="46.80369" lon="-2.08758">
        <ele>2</ele>
        <time>2018-04-28T05:53:12Z</time>
      </trkpt>
      <trkpt lat="46.80362" lon="-2.08791">
        <ele>2</ele>
        <time>2018-04-28T05:54:12Z</time>
      </trkpt>
      <trkpt lat="46.80361" lon="-2.08815">
        <ele>2</ele>
        <time>2018-04-28T05:55:12Z</time>
      </trkpt>
      <trkpt lat="46.80361" lon="-2.08826">
        <ele>2</ele>
        <time>2018-04-28T05:56:12Z</time>
      </trkpt>
      <trkpt lat="46.80363" lon="-2.08836">
        <ele>2</ele>
        <time>2018-04-28T05:57:12Z</time>
      </trkpt>
      <trkpt lat="46.80365" lon="-2.08849">
        <ele>2</ele>
        <time>2018-04-28T05:58:12Z</time>
      </trkpt>
      <trkpt lat="46.80368" lon="-2.08858">
        <ele>3</ele>
        <time>2018-04-28T05:59:12Z</time>
      </trkpt>
      <trkpt lat="46.80373" lon="-2.08871">
        <ele>3</ele>
        <time>2018-04-28T06:00:12Z</time>
      </trkpt>
      <trkpt lat="46.80379" lon="-2.08884">
        <ele>3</ele>
        <time>2018-04-28T06:01:12Z</time>
      </trkpt>
      <trkpt lat="46.80383" lon="-2.08894">
        <ele>3</ele>
        <time>2018-04-28T06:02:12Z</time>
      </trkpt>
      <trkpt lat="46.80386" lon="-2.08906">
        <ele>3</ele>
        <time>2018-04-28T06:03:12Z</time>
      </trkpt>
      <trkpt lat="46.80387" lon="-2.08918">
        <ele>3</ele>
        <time>2018-04-28T06:04:12Z</time>
      </trkpt>
      <trkpt lat="46.80389" lon="-2.08934">
        <ele>3</ele>
        <time>2018-04-28T06:05:12Z</time>
      </trkpt>
      <trkpt lat="46.80391" lon="-2.08958">
        <ele>3</ele>
        <time>2018-04-28T06:06:12Z</time>
      </trkpt>
      <trkpt lat="46.80393" lon="-2.08976">
        <ele>2</ele>
        <time>2018-04-28T06:07:12Z</time>
      </trkpt>
      <trkpt lat="46.80396" lon="-2.08988">
        <ele>2</ele>
        <time>2018-04-28T06:08:12Z</time>
      </trkpt>
      <trkpt lat="46.80408" lon="-2.09028">
        <ele>2</ele>
        <time>2018-04-28T06:09:12Z</time>
      </trkpt>
      <trkpt lat="46.80423" lon="-2.09072">
        <ele>2</ele>
        <time>2018-04-28T06:10:12Z</time>
      </trkpt>
      <trkpt lat="46.80448" lon="-2.09144">
        <ele>2</ele>
        <time>2018-04-28T06:11:12Z</time>
      </trkpt>
      <trkpt lat="46.80475" lon="-2.09205">
        <ele>2</ele>
        <time>2018-04-28T06:12:12Z</time>
      </trkpt>
      <trkpt lat="46.80519" lon="-2.09297">
        <ele>2</ele>
        <time>2018-04-28T06:13:12Z</time>
      </trkpt>
      <trkpt lat="46.80554" lon="-2.09372">
        <ele>2</ele>
        <time>2018-04-28T06:14:12Z</time>
      </trkpt>
      <trkpt lat="46.80588" lon="-2.09438">
        <ele>2</ele>
        <time>2018-04-28T06:15:12Z</time>
      </trkpt>
      <trkpt lat="46.80588" lon="-2.09438">
        <ele>2</ele>
        <time>2018-04-28T06:16:12Z</time>
      </trkpt>
      <trkpt lat="46.80595" lon="-2.09435">
        <ele>2</ele>
        <time>2018-04-28T06:17:12Z</time>
      </trkpt>
      <trkpt lat="46.80595" lon="-2.09435">
        <ele>2</ele>
        <time>2018-04-28T06:18:12Z</time>
      </trkpt>
      <trkpt lat="46.806" lon="-2.09444">
        <ele>2</ele>
        <time>2018-04-28T06:19:12Z</time>
      </trkpt>
      <trkpt lat="46.80621" lon="-2.09479">
        <ele>2</ele>
        <time>2018-04-28T06:20:12Z</time>
      </trkpt>
      <trkpt lat="46.80634" lon="-2.09501">
        <ele>2</ele>
        <time>2018-04-28T06:21:12Z</time>
      </trkpt>
      <trkpt lat="46.8066" lon="-2.09528">
        <ele>2</ele>
        <time>2018-04-28T06:22:12Z</time>
      </trkpt>
      <trkpt lat="46.80682" lon="-2.09549">
        <ele>1</ele>
        <time>2018-04-28T06:23:12Z</time>
      </trkpt>
      <trkpt lat="46.80693" lon="-2.09565">
        <ele>1</ele>
        <time>2018-04-28T06:24:12Z</time>
      </trkpt>
      <trkpt lat="46.80695" lon="-2.09568">
        <ele>1</ele>
        <time>2018-04-28T06:25:12Z</time>
      </trkpt>
      <trkpt lat="46.80716" lon="-2.09614">
        <ele>1</ele>
        <time>2018-04-28T06:26:12Z</time>
      </trkpt>
      <trkpt lat="46.80743" lon="-2.09668">
        <ele>1</ele>
        <time>2018-04-28T06:27:12Z</time>
      </trkpt>
      <trkpt lat="46.80778" lon="-2.0974">
        <ele>2</ele>
        <time>2018-04-28T06:28:12Z</time>
      </trkpt>
      <trkpt lat="46.80818" lon="-2.0982">
        <ele>1</ele>
        <time>2018-04-28T06:29:12Z</time>
      </trkpt>
      <trkpt lat="46.80849" lon="-2.09877">
        <ele>1.8</ele>
        <time>2018-04-28T06:30:12Z</time>
      </trkpt>
      <trkpt lat="46.80862" lon="-2.09906">
        <ele>2</ele>
        <time>2018-04-28T06:31:12Z</time>
      </trkpt>
      <trkpt lat="46.80885" lon="-2.09965">
        <ele>1</ele>
        <time>2018-04-28T06:32:12Z</time>
      </trkpt>
      <trkpt lat="46.80896" lon="-2.09992">
        <ele>2</ele>
        <time>2018-04-28T06:33:12Z</time>
      </trkpt>
      <trkpt lat="46.80925" lon="-2.10049">
        <ele>1</ele>
        <time>2018-04-28T06:34:12Z</time>
      </trkpt>
      <trkpt lat="46.80947" lon="-2.10089">
        <ele>1</ele>
        <time>2018-04-28T06:35:12Z</time>
      </trkpt>
      <trkpt lat="46.80973" lon="-2.10139">
        <ele>1</ele>
        <time>2018-04-28T06:36:12Z</time>
      </trkpt>
      <trkpt lat="46.80988" lon="-2.10167">
        <ele>1</ele>
        <time>2018-04-28T06:37:12Z</time>
      </trkpt>
      <trkpt lat="46.80999" lon="-2.10184">
        <ele>1</ele>
        <time>2018-04-28T06:38:12Z</time>
      </trkpt>
      <trkpt lat="46.81015" lon="-2.10203">
        <ele>1</ele>
        <time>2018-04-28T06:39:12Z</time>
      </trkpt>
      <trkpt lat="46.81034" lon="-2.10222">
        <ele>1</ele>
        <time>2018-04-28T06:40:12Z</time>
      </trkpt>
      <trkpt lat="46.81048" lon="-2.10241">
        <ele>1</ele>
        <time>2018-04-28T06:41:12Z</time>
      </trkpt>
      <trkpt lat="46.81056" lon="-2.10261">
        <ele>1</ele>
        <time>2018-04-28T06:42:12Z</time>
      </trkpt>
      <trkpt lat="46.81064" lon="-2.10284">
        <ele>1</ele>
        <time>2018-04-28T06:43:12Z</time>
      </trkpt>
      <trkpt lat="46.81071" lon="-2.10311">
        <ele>2</ele>
        <time>2018-04-28T06:44:12Z</time>
      </trkpt>
      <trkpt lat="46.81082" lon="-2.10346">
        <ele>2</ele>
        <time>2018-04-28T06:45:12Z</time>
      </trkpt>
      <trkpt lat="46.81095" lon="-2.10383">
        <ele>2</ele>
        <time>2018-04-28T06:46:12Z</time>
      </trkpt>
      <trkpt lat="46.81114" lon="-2.10421">
        <ele>2</ele>
        <time>2018-04-28T06:47:12Z</time>
      </trkpt>
      <trkpt lat="46.81142" lon="-2.10473">
        <ele>1</ele>
        <time>2018-04-28T06:48:12Z</time>
      </trkpt>
      <trkpt lat="46.81159" lon="-2.10507">
        <ele>1</ele>
        <time>2018-04-28T06:49:12Z</time>
      </trkpt>
      <trkpt lat="46.81171" lon="-2.10527">
        <ele>1</ele>
        <time>2018-04-28T06:50:12Z</time>
      </trkpt>
      <trkpt lat="46.81189" lon="-2.10551">
        <ele>2</ele>
        <time>2018-04-28T06:51:12Z</time>
      </trkpt>
      <trkpt lat="46.81226" lon="-2.10589">
        <ele>2</ele>
        <time>2018-04-28T06:52:12Z</time>
      </trkpt>
      <trkpt lat="46.81247" lon="-2.10609">
        <ele>1</ele>
        <time>2018-04-28T06:53:12Z</time>
      </trkpt>
      <trkpt lat="46.8127" lon="-2.10627">
        <ele>1</ele>
        <time>2018-04-28T06:54:12Z</time>
      </trkpt>
      <trkpt lat="46.81293" lon="-2.10644">
        <ele>1</ele>
        <time>2018-04-28T06:55:12Z</time>
      </trkpt>
      <trkpt lat="46.81321" lon="-2.10667">
        <ele>2</ele>
        <time>2018-04-28T06:56:12Z</time>
      </trkpt>
      <trkpt lat="46.81341" lon="-2.10681">
        <ele>2</ele>
        <time>2018-04-28T06:57:12Z</time>
      </trkpt>
      <trkpt lat="46.81344" lon="-2.10684">
        <ele>2</ele>
        <time>2018-04-28T06:58:12Z</time>
      </trkpt>
      <trkpt lat="46.81358" lon="-2.10694">
        <ele>2</ele>
        <time>2018-04-28T06:59:12Z</time>
      </trkpt>
      <trkpt lat="46.81369" lon="-2.10702">
        <ele>2</ele>
        <time>2018-04-28T07:00:12Z</time>
      </trkpt>
      <trkpt lat="46.81388" lon="-2.10717">
        <ele>1</ele>
        <time>2018-04-28T07:01:12Z</time>
      </trkpt>
      <trkpt lat="46.81404" lon="-2.1073">
        <ele>1</ele>
        <time>2018-04-28T07:02:12Z</time>
      </trkpt>
      <trkpt lat="46.81422" lon="-2.10745">
        <ele>1</ele>
        <time>2018-04-28T07:03:12Z</time>
      </trkpt>
      <trkpt lat="46.81425" lon="-2.10747">
        <ele>1</ele>
        <time>2018-04-28T07:04:12Z</time>
      </trkpt>
      <trkpt lat="46.81437" lon="-2.10757">
        <ele>1</ele>
        <time>2018-04-28T07:05:12Z</time>
      </trkpt>
      <trkpt lat="46.81452" lon="-2.10773">
        <ele>1.7</ele>
        <time>2018-04-28T07:06:12Z</time>
      </trkpt>
      <trkpt lat="46.81463" lon="-2.10788">
        <ele>1.5</ele>
        <time>2018-04-28T07:07:12Z</time>
      </trkpt>
      <trkpt lat="46.81473" lon="-2.10802">
        <ele>1.9</ele>
        <time>2018-04-28T07:08:12Z</time>
      </trkpt>
      <trkpt lat="46.81482" lon="-2.10816">
        <ele>2</ele>
        <time>2018-04-28T07:09:12Z</time>
      </trkpt>
      <trkpt lat="46.81495" lon="-2.10831">
        <ele>2</ele>
        <time>2018-04-28T07:10:12Z</time>
      </trkpt>
      <trkpt lat="46.81509" lon="-2.10843">
        <ele>2</ele>
        <time>2018-04-28T07:11:12Z</time>
      </trkpt>
      <trkpt lat="46.81526" lon="-2.10852">
        <ele>2</ele>
        <time>2018-04-28T07:12:12Z</time>
      </trkpt>
      <trkpt lat="46.8154" lon="-2.10858">
        <ele>2</ele>
        <time>2018-04-28T07:13:12Z</time>
      </trkpt>
      <trkpt lat="46.81556" lon="-2.10867">
        <ele>1.8</ele>
        <time>2018-04-28T07:14:12Z</time>
      </trkpt>
      <trkpt lat="46.8157" lon="-2.10878">
        <ele>1.5</ele>
        <time>2018-04-28T07:15:12Z</time>
      </trkpt>
      <trkpt lat="46.81581" lon="-2.10893">
        <ele>1.9</ele>
        <time>2018-04-28T07:16:12Z</time>
      </trkpt>
      <trkpt lat="46.81591" lon="-2.10913">
        <ele>2</ele>
        <time>2018-04-28T07:17:12Z</time>
      </trkpt>
      <trkpt lat="46.81601" lon="-2.10939">
        <ele>2</ele>
        <time>2018-04-28T07:18:12Z</time>
      </trkpt>
      <trkpt lat="46.81612" lon="-2.10962">
        <ele>1</ele>
        <time>2018-04-28T07:19:12Z</time>
      </trkpt>
      <trkpt lat="46.81623" lon="-2.10984">
        <ele>1</ele>
        <time>2018-04-28T07:20:12Z</time>
      </trkpt>
      <trkpt lat="46.8163" lon="-2.10997">
        <ele>1</ele>
        <time>2018-04-28T07:21:12Z</time>
      </trkpt>
      <trkpt lat="46.81643" lon="-2.11017">
        <ele>1</ele>
        <time>2018-04-28T07:22:12Z</time>
      </trkpt>
      <trkpt lat="46.81652" lon="-2.11032">
        <ele>1</ele>
        <time>2018-04-28T07:23:12Z</time>
      </trkpt>
      <trkpt lat="46.81664" lon="-2.11054">
        <ele>1.9</ele>
        <time>2018-04-28T07:24:12Z</time>
      </trkpt>
      <trkpt lat="46.81676" lon="-2.11076">
        <ele>1.4</ele>
        <time>2018-04-28T07:25:12Z</time>
      </trkpt>
      <trkpt lat="46.81686" lon="-2.11093">
        <ele>1.8</ele>
        <time>2018-04-28T07:26:12Z</time>
      </trkpt>
      <trkpt lat="46.81703" lon="-2.11109">
        <ele>1</ele>
        <time>2018-04-28T07:27:12Z</time>
      </trkpt>
      <trkpt lat="46.81712" lon="-2.11121">
        <ele>1</ele>
        <time>2018-04-28T07:28:12Z</time>
      </trkpt>
      <trkpt lat="46.81724" lon="-2.11139">
        <ele>1</ele>
        <time>2018-04-28T07:29:12Z</time>
      </trkpt>
      <trkpt lat="46.81731" lon="-2.1115">
        <ele>1</ele>
        <time>2018-04-28T07:30:12Z</time>
      </trkpt>
      <trkpt lat="46.81735" lon="-2.1116">
        <ele>2</ele>
        <time>2018-04-28T07:31:12Z</time>
      </trkpt>
      <trkpt lat="46.81737" lon="-2.11166">
        <ele>2</ele>
        <time>2018-04-28T07:32:12Z</time>
      </trkpt>
      <trkpt lat="46.81738" lon="-2.11173">
        <ele>2</ele>
        <time>2018-04-28T07:33:12Z</time>
      </trkpt>
      <trkpt lat="46.8174" lon="-2.1118">
        <ele>2</ele>
        <time>2018-04-28T07:34:12Z</time>
      </trkpt>
      <trkpt lat="46.81741" lon="-2.11189">
        <ele>2</ele>
        <time>2018-04-28T07:35:12Z</time>
      </trkpt>
      <trkpt lat="46.81743" lon="-2.11209">
        <ele>1</ele>
        <time>2018-04-28T07:36:12Z</time>
      </trkpt>
      <trkpt lat="46.81743" lon="-2.11209">
        <ele>1</ele>
        <time>2018-04-28T07:37:12Z</time>
      </trkpt>
      <trkpt lat="46.8175" lon="-2.11214">
        <ele>1</ele>
        <time>2018-04-28T07:38:12Z</time>
      </trkpt>
      <trkpt lat="46.81761" lon="-2.11222">
        <ele>1</ele>
        <time>2018-04-28T07:39:12Z</time>
      </trkpt>
      <trkpt lat="46.81775" lon="-2.11235">
        <ele>1</ele>
        <time>2018-04-28T07:40:12Z</time>
      </trkpt>
      <trkpt lat="46.81783" lon="-2.11249">
        <ele>1</ele>
        <time>2018-04-28T07:41:12Z</time>
      </trkpt>
      <trkpt lat="46.81787" lon="-2.11254">
        <ele>1</ele>
        <time>2018-04-28T07:42:12Z</time>
      </trkpt>
      <trkpt lat="46.81791" lon="-2.11268">
        <ele>1</ele>
        <time>2018-04-28T07:43:12Z</time>
      </trkpt>
      <trkpt lat="46.81791" lon="-2.11268">
        <ele>1</ele>
        <time>2018-04-28T07:44:12Z</time>
      </trkpt>
      <trkpt lat="46.81793" lon="-2.11277">
        <ele>1</ele>
        <time>2018-04-28T07:45:12Z</time>
      </trkpt>
      <trkpt lat="46.81795" lon="-2.11287">
        <ele>1</ele>
        <time>2018-04-28T07:46:12Z</time>
      </trkpt>
      <trkpt lat="46.81798" lon="-2.11325">
        <ele>1.2</ele>
        <time>2018-04-28T07:47:12Z</time>
      </trkpt>
      <trkpt lat="46.81803" lon="-2.11394">
        <ele>1.9</ele>
        <time>2018-04-28T07:48:12Z</time>
      </trkpt>
      <trkpt lat="46.81807" lon="-2.1143">
        <ele>1</ele>
        <time>2018-04-28T07:49:12Z</time>
      </trkpt>
      <trkpt lat="46.8181" lon="-2.11448">
        <ele>1</ele>
        <time>2018-04-28T07:50:12Z</time>
      </trkpt>
      <trkpt lat="46.81815" lon="-2.11461">
        <ele>1</ele>
        <time>2018-04-28T07:51:12Z</time>
      </trkpt>
      <trkpt lat="46.81821" lon="-2.11472">
        <ele>1</ele>
        <time>2018-04-28T07:52:12Z</time>
      </trkpt>
      <trkpt lat="46.81822" lon="-2.11474">
        <ele>1</ele>
        <time>2018-04-28T07:53:12Z</time>
      </trkpt>
      <trkpt lat="46.81829" lon="-2.11481">
        <ele>1</ele>
        <time>2018-04-28T07:54:12Z</time>
      </trkpt>
      <trkpt lat="46.81834" lon="-2.11484">
        <ele>1</ele>
        <time>2018-04-28T07:55:12Z</time>
      </trkpt>
      <trkpt lat="46.8185" lon="-2.1149">
        <ele>1</ele>
        <time>2018-04-28T07:56:12Z</time>
      </trkpt>
      <trkpt lat="46.81893" lon="-2.11498">
        <ele>1</ele>
        <time>2018-04-28T07:57:12Z</time>
      </trkpt>
      <trkpt lat="46.81932" lon="-2.11506">
        <ele>1</ele>
        <time>2018-04-28T07:58:12Z</time>
      </trkpt>
      <trkpt lat="46.81944" lon="-2.11509">
        <ele>2</ele>
        <time>2018-04-28T07:59:12Z</time>
      </trkpt>
      <trkpt lat="46.81959" lon="-2.11512">
        <ele>2</ele>
        <time>2018-04-28T08:00:12Z</time>
      </trkpt>
      <trkpt lat="46.81976" lon="-2.1152">
        <ele>2</ele>
        <time>2018-04-28T08:01:12Z</time>
      </trkpt>
      <trkpt lat="46.8199" lon="-2.11534">
        <ele>2</ele>
        <time>2018-04-28T08:02:12Z</time>
      </trkpt>
      <trkpt lat="46.82004" lon="-2.11552">
        <ele>2</ele>
        <time>2018-04-28T08:03:12Z</time>
      </trkpt>
      <trkpt lat="46.82027" lon="-2.11593">
        <ele>1</ele>
        <time>2018-04-28T08:04:12Z</time>
      </trkpt>
      <trkpt lat="46.82064" lon="-2.11662">
        <ele>1.7</ele>
        <time>2018-04-28T08:05:12Z</time>
      </trkpt>
      <trkpt lat="46.82091" lon="-2.11712">
        <ele>1.3</ele>
        <time>2018-04-28T08:06:12Z</time>
      </trkpt>
      <trkpt lat="46.82102" lon="-2.11729">
        <ele>1.2</ele>
        <time>2018-04-28T08:07:12Z</time>
      </trkpt>
      <trkpt lat="46.82113" lon="-2.11741">
        <ele>1.6</ele>
        <time>2018-04-28T08:08:12Z</time>
      </trkpt>
      <trkpt lat="46.82136" lon="-2.11763">
        <ele>1.5</ele>
        <time>2018-04-28T08:09:12Z</time>
      </trkpt>
      <trkpt lat="46.82147" lon="-2.11775">
        <ele>1.9</ele>
        <time>2018-04-28T08:10:12Z</time>
      </trkpt>
      <trkpt lat="46.82156" lon="-2.11792">
        <ele>2</ele>
        <time>2018-04-28T08:11:12Z</time>
      </trkpt>
      <trkpt lat="46.82173" lon="-2.11817">
        <ele>1</ele>
        <time>2018-04-28T08:12:12Z</time>
      </trkpt>
      <trkpt lat="46.82191" lon="-2.11843">
        <ele>1</ele>
        <time>2018-04-28T08:13:12Z</time>
      </trkpt>
      <trkpt lat="46.82206" lon="-2.11854">
        <ele>1</ele>
        <time>2018-04-28T08:14:12Z</time>
      </trkpt>
      <trkpt lat="46.82221" lon="-2.11863">
        <ele>1</ele>
        <time>2018-04-28T08:15:12Z</time>
      </trkpt>
      <trkpt lat="46.82231" lon="-2.11871">
        <ele>1</ele>
        <time>2018-04-28T08:16:12Z</time>
      </trkpt>
      <trkpt lat="46.8224" lon="-2.11881">
        <ele>1</ele>
        <time>2018-04-28T08:17:12Z</time>
      </trkpt>
      <trkpt lat="46.82248" lon="-2.11899">
        <ele>1.3</ele>
        <time>2018-04-28T08:18:12Z</time>
      </trkpt>
      <trkpt lat="46.82255" lon="-2.11927">
        <ele>2</ele>
        <time>2018-04-28T08:19:12Z</time>
      </trkpt>
      <trkpt lat="46.82263" lon="-2.11954">
        <ele>2</ele>
        <time>2018-04-28T08:20:12Z</time>
      </trkpt>
      <trkpt lat="46.82271" lon="-2.11968">
        <ele>2</ele>
        <time>2018-04-28T08:21:12Z</time>
      </trkpt>
      <trkpt lat="46.82283" lon="-2.11983">
        <ele>2</ele>
        <time>2018-04-28T08:22:12Z</time>
      </trkpt>
      <trkpt lat="46.82292" lon="-2.11996">
        <ele>2</ele>
        <time>2018-04-28T08:23:12Z</time>
      </trkpt>
      <trkpt lat="46.82303" lon="-2.12025">
        <ele>1.1</ele>
        <time>2018-04-28T08:24:12Z</time>
      </trkpt>
      <trkpt lat="46.82303" lon="-2.12025">
        <ele>1.1</ele>
        <time>2018-04-28T08:25:12Z</time>
      </trkpt>
      <trkpt lat="46.82303" lon="-2.12026">
        <ele>1.1</ele>
        <time>2018-04-28T08:26:12Z</time>
      </trkpt>
      <trkpt lat="46.82315" lon="-2.12069">
        <ele>2</ele>
        <time>2018-04-28T08:27:12Z</time>
      </trkpt>
      <trkpt lat="46.82327" lon="-2.12096">
        <ele>2</ele>
        <time>2018-04-28T08:28:12Z</time>
      </trkpt>
      <trkpt lat="46.82336" lon="-2.12111">
        <ele>1.9</ele>
        <time>2018-04-28T08:29:12Z</time>
      </trkpt>
      <trkpt lat="46.82346" lon="-2.12121">
        <ele>1.5</ele>
        <time>2018-04-28T08:30:12Z</time>
      </trkpt>
      <trkpt lat="46.82356" lon="-2.1213">
        <ele>1.6</ele>
        <time>2018-04-28T08:31:12Z</time>
      </trkpt>
      <trkpt lat="46.82369" lon="-2.12141">
        <ele>1.7</ele>
        <time>2018-04-28T08:32:12Z</time>
      </trkpt>
      <trkpt lat="46.82378" lon="-2.12157">
        <ele>1.4</ele>
        <time>2018-04-28T08:33:12Z</time>
      </trkpt>
      <trkpt lat="46.82386" lon="-2.1219">
        <ele>1.9</ele>
        <time>2018-04-28T08:34:12Z</time>
      </trkpt>
      <trkpt lat="46.824" lon="-2.12246">
        <ele>1.6</ele>
        <time>2018-04-28T08:35:12Z</time>
      </trkpt>
      <trkpt lat="46.82416" lon="-2.12316">
        <ele>2</ele>
        <time>2018-04-28T08:36:12Z</time>
      </trkpt>
      <trkpt lat="46.82422" lon="-2.12354">
        <ele>1.8</ele>
        <time>2018-04-28T08:37:12Z</time>
      </trkpt>
      <trkpt lat="46.82435" lon="-2.12466">
        <ele>1.1</ele>
        <time>2018-04-28T08:38:12Z</time>
      </trkpt>
      <trkpt lat="46.82445" lon="-2.12541">
        <ele>2</ele>
        <time>2018-04-28T08:39:12Z</time>
      </trkpt>
      <trkpt lat="46.82453" lon="-2.12589">
        <ele>1</ele>
        <time>2018-04-28T08:40:12Z</time>
      </trkpt>
      <trkpt lat="46.82471" lon="-2.12674">
        <ele>1</ele>
        <time>2018-04-28T08:41:12Z</time>
      </trkpt>
      <trkpt lat="46.82483" lon="-2.12722">
        <ele>2</ele>
        <time>2018-04-28T08:42:12Z</time>
      </trkpt>
      <trkpt lat="46.82488" lon="-2.12756">
        <ele>3</ele>
        <time>2018-04-28T08:43:12Z</time>
      </trkpt>
      <trkpt lat="46.8249" lon="-2.12801">
        <ele>2</ele>
        <time>2018-04-28T08:44:12Z</time>
      </trkpt>
      <trkpt lat="46.82492" lon="-2.12824">
        <ele>2</ele>
        <time>2018-04-28T08:45:12Z</time>
      </trkpt>
      <trkpt lat="46.82493" lon="-2.12866">
        <ele>2</ele>
        <time>2018-04-28T08:46:12Z</time>
      </trkpt>
      <trkpt lat="46.82492" lon="-2.1288">
        <ele>2</ele>
        <time>2018-04-28T08:47:12Z</time>
      </trkpt>
      <trkpt lat="46.82488" lon="-2.12916">
        <ele>2</ele>
        <time>2018-04-28T08:48:12Z</time>
      </trkpt>
      <trkpt lat="46.82484" lon="-2.12947">
        <ele>3</ele>
        <time>2018-04-28T08:49:12Z</time>
      </trkpt>
      <trkpt lat="46.82482" lon="-2.12957">
        <ele>3</ele>
        <time>2018-04-28T08:50:12Z</time>
      </trkpt>
      <trkpt lat="46.82478" lon="-2.12988">
        <ele>3</ele>
        <time>2018-04-28T08:51:12Z</time>
      </trkpt>
      <trkpt lat="46.82476" lon="-2.13012">
        <ele>3</ele>
        <time>2018-04-28T08:52:12Z</time>
      </trkpt>
      <trkpt lat="46.82475" lon="-2.13031">
        <ele>4</ele>
        <time>2018-04-28T08:53:12Z</time>
      </trkpt>
      <trkpt lat="46.82474" lon="-2.13064">
        <ele>4</ele>
        <time>2018-04-28T08:54:12Z</time>
      </trkpt>
      <trkpt lat="46.82474" lon="-2.1309">
        <ele>4</ele>
        <time>2018-04-28T08:55:12Z</time>
      </trkpt>
      <trkpt lat="46.82475" lon="-2.13102">
        <ele>4</ele>
        <time>2018-04-28T08:56:12Z</time>
      </trkpt>
      <trkpt lat="46.82475" lon="-2.13111">
        <ele>4</ele>
        <time>2018-04-28T08:57:12Z</time>
      </trkpt>
      <trkpt lat="46.82479" lon="-2.1316">
        <ele>4</ele>
        <time>2018-04-28T08:58:12Z</time>
      </trkpt>
      <trkpt lat="46.82479" lon="-2.1316">
        <ele>4</ele>
        <time>2018-04-28T08:59:12Z</time>
      </trkpt>
      <trkpt lat="46.8248" lon="-2.1316">
        <ele>4</ele>
        <time>2018-04-28T09:00:12Z</time>
      </trkpt>
      <trkpt lat="46.82481" lon="-2.1316">
        <ele>4</ele>
        <time>2018-04-28T09:01:12Z</time>
      </trkpt>
      <trkpt lat="46.82482" lon="-2.1316">
        <ele>4</ele>
        <time>2018-04-28T09:02:12Z</time>
      </trkpt>
      <trkpt lat="46.82482" lon="-2.13161">
        <ele>4</ele>
        <time>2018-04-28T09:03:12Z</time>
      </trkpt>
      <trkpt lat="46.82483" lon="-2.13161">
        <ele>4</ele>
        <time>2018-04-28T09:04:12Z</time>
      </trkpt>
      <trkpt lat="46.82484" lon="-2.13162">
        <ele>4</ele>
        <time>2018-04-28T09:05:12Z</time>
      </trkpt>
      <trkpt lat="46.82485" lon="-2.13163">
        <ele>4</ele>
        <time>2018-04-28T09:06:12Z</time>
      </trkpt>
      <trkpt lat="46.82485" lon="-2.13164">
        <ele>4</ele>
        <time>2018-04-28T09:07:12Z</time>
      </trkpt>
      <trkpt lat="46.82486" lon="-2.13164">
        <ele>4</ele>
        <time>2018-04-28T09:08:12Z</time>
      </trkpt>
      <trkpt lat="46.82486" lon="-2.13165">
        <ele>4</ele>
        <time>2018-04-28T09:09:12Z</time>
      </trkpt>
      <trkpt lat="46.82486" lon="-2.13166">
        <ele>4</ele>
        <time>2018-04-28T09:10:12Z</time>
      </trkpt>
      <trkpt lat="46.82487" lon="-2.13166">
        <ele>4</ele>
        <time>2018-04-28T09:11:12Z</time>
      </trkpt>
      <trkpt lat="46.82487" lon="-2.13167">
        <ele>4</ele>
        <time>2018-04-28T09:12:12Z</time>
      </trkpt>
      <trkpt lat="46.82487" lon="-2.13168">
        <ele>4</ele>
        <time>2018-04-28T09:13:12Z</time>
      </trkpt>
      <trkpt lat="46.82487" lon="-2.13169">
        <ele>4</ele>
        <time>2018-04-28T09:14:12Z</time>
      </trkpt>
      <trkpt lat="46.82487" lon="-2.1317">
        <ele>4</ele>
        <time>2018-04-28T09:15:12Z</time>
      </trkpt>
      <trkpt lat="46.82487" lon="-2.13171">
        <ele>4</ele>
        <time>2018-04-28T09:16:12Z</time>
      </trkpt>
      <trkpt lat="46.82487" lon="-2.13172">
        <ele>4</ele>
        <time>2018-04-28T09:17:12Z</time>
      </trkpt>
      <trkpt lat="46.82487" lon="-2.13173">
        <ele>4</ele>
        <time>2018-04-28T09:18:12Z</time>
      </trkpt>
      <trkpt lat="46.82487" lon="-2.13174">
        <ele>4</ele>
        <time>2018-04-28T09:19:12Z</time>
      </trkpt>
      <trkpt lat="46.82487" lon="-2.13175">
        <ele>4</ele>
        <time>2018-04-28T09:20:12Z</time>
      </trkpt>
      <trkpt lat="46.82487" lon="-2.13176">
        <ele>4</ele>
        <time>2018-04-28T09:21:12Z</time>
      </trkpt>
      <trkpt lat="46.82487" lon="-2.13177">
        <ele>4</ele>
        <time>2018-04-28T09:22:12Z</time>
      </trkpt>
      <trkpt lat="46.82486" lon="-2.13177">
        <ele>4</ele>
        <time>2018-04-28T09:23:12Z</time>
      </trkpt>
      <trkpt lat="46.82486" lon="-2.13178">
        <ele>4</ele>
        <time>2018-04-28T09:24:12Z</time>
      </trkpt>
      <trkpt lat="46.82486" lon="-2.13179">
        <ele>4</ele>
        <time>2018-04-28T09:25:12Z</time>
      </trkpt>
      <trkpt lat="46.82485" lon="-2.13179">
        <ele>4</ele>
        <time>2018-04-28T09:26:12Z</time>
      </trkpt>
      <trkpt lat="46.82485" lon="-2.1318">
        <ele>4</ele>
        <time>2018-04-28T09:27:12Z</time>
      </trkpt>
      <trkpt lat="46.82485" lon="-2.13181">
        <ele>4</ele>
        <time>2018-04-28T09:28:12Z</time>
      </trkpt>
      <trkpt lat="46.82484" lon="-2.13181">
        <ele>4</ele>
        <time>2018-04-28T09:29:12Z</time>
      </trkpt>
      <trkpt lat="46.82484" lon="-2.13182">
        <ele>4</ele>
        <time>2018-04-28T09:30:12Z</time>
      </trkpt>
      <trkpt lat="46.82483" lon="-2.13182">
        <ele>4</ele>
        <time>2018-04-28T09:31:12Z</time>
      </trkpt>
      <trkpt lat="46.82483" lon="-2.13183">
        <ele>4</ele>
        <time>2018-04-28T09:32:12Z</time>
      </trkpt>
      <trkpt lat="46.82482" lon="-2.13183">
        <ele>4</ele>
        <time>2018-04-28T09:33:12Z</time>
      </trkpt>
      <trkpt lat="46.82481" lon="-2.13183">
        <ele>4</ele>
        <time>2018-04-28T09:34:12Z</time>
      </trkpt>
      <trkpt lat="46.8248" lon="-2.13184">
        <ele>4</ele>
        <time>2018-04-28T09:35:12Z</time>
      </trkpt>
      <trkpt lat="46.82479" lon="-2.13184">
        <ele>4</ele>
        <time>2018-04-28T09:36:12Z</time>
      </trkpt>
      <trkpt lat="46.82478" lon="-2.13184">
        <ele>4</ele>
        <time>2018-04-28T09:37:12Z</time>
      </trkpt>
      <trkpt lat="46.82478" lon="-2.13183">
        <ele>4</ele>
        <time>2018-04-28T09:38:12Z</time>
      </trkpt>
      <trkpt lat="46.82477" lon="-2.13183">
        <ele>4</ele>
        <time>2018-04-28T09:39:12Z</time>
      </trkpt>
      <trkpt lat="46.82476" lon="-2.13183">
        <ele>4</ele>
        <time>2018-04-28T09:40:12Z</time>
      </trkpt>
      <trkpt lat="46.82476" lon="-2.13182">
        <ele>4</ele>
        <time>2018-04-28T09:41:12Z</time>
      </trkpt>
      <trkpt lat="46.82475" lon="-2.13182">
        <ele>4</ele>
        <time>2018-04-28T09:42:12Z</time>
      </trkpt>
      <trkpt lat="46.82474" lon="-2.13181">
        <ele>4</ele>
        <time>2018-04-28T09:43:12Z</time>
      </trkpt>
      <trkpt lat="46.82474" lon="-2.1318">
        <ele>4</ele>
        <time>2018-04-28T09:44:12Z</time>
      </trkpt>
      <trkpt lat="46.82473" lon="-2.1318">
        <ele>4</ele>
        <time>2018-04-28T09:45:12Z</time>
      </trkpt>
      <trkpt lat="46.82473" lon="-2.13179">
        <ele>4</ele>
        <time>2018-04-28T09:46:12Z</time>
      </trkpt>
      <trkpt lat="46.82463" lon="-2.13182">
        <ele>4</ele>
        <time>2018-04-28T09:47:12Z</time>
      </trkpt>
      <trkpt lat="46.82452" lon="-2.13184">
        <ele>4</ele>
        <time>2018-04-28T09:48:12Z</time>
      </trkpt>
      <trkpt lat="46.82444" lon="-2.13184">
        <ele>4</ele>
        <time>2018-04-28T09:49:12Z</time>
      </trkpt>
      <trkpt lat="46.82434" lon="-2.13184">
        <ele>4</ele>
        <time>2018-04-28T09:50:12Z</time>
      </trkpt>
      <trkpt lat="46.82422" lon="-2.13183">
        <ele>4</ele>
        <time>2018-04-28T09:51:12Z</time>
      </trkpt>
      <trkpt lat="46.82412" lon="-2.13181">
        <ele>4</ele>
        <time>2018-04-28T09:52:12Z</time>
      </trkpt>
      <trkpt lat="46.82403" lon="-2.1318">
        <ele>5</ele>
        <time>2018-04-28T09:53:12Z</time>
      </trkpt>
      <trkpt lat="46.82394" lon="-2.13177">
        <ele>5</ele>
        <time>2018-04-28T09:54:12Z</time>
      </trkpt>
      <trkpt lat="46.82376" lon="-2.13172">
        <ele>5</ele>
        <time>2018-04-28T09:55:12Z</time>
      </trkpt>
      <trkpt lat="46.82361" lon="-2.13167">
        <ele>5</ele>
        <time>2018-04-28T09:56:12Z</time>
      </trkpt>
      <trkpt lat="46.82349" lon="-2.13164">
        <ele>6</ele>
        <time>2018-04-28T09:57:12Z</time>
      </trkpt>
      <trkpt lat="46.82322" lon="-2.13154">
        <ele>6</ele>
        <time>2018-04-28T09:58:12Z</time>
      </trkpt>
      <trkpt lat="46.82292" lon="-2.13143">
        <ele>5</ele>
        <time>2018-04-28T09:59:12Z</time>
      </trkpt>
      <trkpt lat="46.82269" lon="-2.13136">
        <ele>5</ele>
        <time>2018-04-28T10:00:12Z</time>
      </trkpt>
      <trkpt lat="46.82259" lon="-2.13132">
        <ele>5</ele>
        <time>2018-04-28T10:01:12Z</time>
      </trkpt>
      <trkpt lat="46.82236" lon="-2.13124">
        <ele>4</ele>
        <time>2018-04-28T10:02:12Z</time>
      </trkpt>
      <trkpt lat="46.82219" lon="-2.13118">
        <ele>4</ele>
        <time>2018-04-28T10:03:12Z</time>
      </trkpt>
      <trkpt lat="46.82195" lon="-2.1311">
        <ele>4</ele>
        <time>2018-04-28T10:04:12Z</time>
      </trkpt>
      <trkpt lat="46.82176" lon="-2.13103">
        <ele>4</ele>
        <time>2018-04-28T10:05:12Z</time>
      </trkpt>
      <trkpt lat="46.82153" lon="-2.13095">
        <ele>4</ele>
        <time>2018-04-28T10:06:12Z</time>
      </trkpt>
      <trkpt lat="46.82141" lon="-2.13094">
        <ele>4</ele>
        <time>2018-04-28T10:07:12Z</time>
      </trkpt>
      <trkpt lat="46.82127" lon="-2.13089">
        <ele>5</ele>
        <time>2018-04-28T10:08:12Z</time>
      </trkpt>
      <trkpt lat="46.8212" lon="-2.13085">
        <ele>5</ele>
        <time>2018-04-28T10:09:12Z</time>
      </trkpt>
      <trkpt lat="46.82114" lon="-2.13083">
        <ele>5</ele>
        <time>2018-04-28T10:10:12Z</time>
      </trkpt>
      <trkpt lat="46.82105" lon="-2.13078">
        <ele>5</ele>
        <time>2018-04-28T10:11:12Z</time>
      </trkpt>
      <trkpt lat="46.82101" lon="-2.13075">
        <ele>5</ele>
        <time>2018-04-28T10:12:12Z</time>
      </trkpt>
      <trkpt lat="46.82098" lon="-2.13072">
        <ele>5</ele>
        <time>2018-04-28T10:13:12Z</time>
      </trkpt>
      <trkpt lat="46.8209" lon="-2.13065">
        <ele>4</ele>
        <time>2018-04-28T10:14:12Z</time>
      </trkpt>
      <trkpt lat="46.82072" lon="-2.13046">
        <ele>4</ele>
        <time>2018-04-28T10:15:12Z</time>
      </trkpt>
      <trkpt lat="46.82072" lon="-2.13046">
        <ele>4</ele>
        <time>2018-04-28T10:16:12Z</time>
      </trkpt>
      <trkpt lat="46.82066" lon="-2.13053">
        <ele>4</ele>
        <time>2018-04-28T10:17:12Z</time>
      </trkpt>
      <trkpt lat="46.82063" lon="-2.13056">
        <ele>5</ele>
        <time>2018-04-28T10:18:12Z</time>
      </trkpt>
      <trkpt lat="46.82059" lon="-2.13059">
        <ele>5</ele>
        <time>2018-04-28T10:19:12Z</time>
      </trkpt>
      <trkpt lat="46.82053" lon="-2.13063">
        <ele>5</ele>
        <time>2018-04-28T10:20:12Z</time>
      </trkpt>
      <trkpt lat="46.82048" lon="-2.13066">
        <ele>5</ele>
        <time>2018-04-28T10:21:12Z</time>
      </trkpt>
      <trkpt lat="46.82039" lon="-2.13068">
        <ele>5</ele>
        <time>2018-04-28T10:22:12Z</time>
      </trkpt>
      <trkpt lat="46.82019" lon="-2.13073">
        <ele>5</ele>
        <time>2018-04-28T10:23:12Z</time>
      </trkpt>
      <trkpt lat="46.82009" lon="-2.13076">
        <ele>6</ele>
        <time>2018-04-28T10:24:12Z</time>
      </trkpt>
      <trkpt lat="46.81987" lon="-2.13083">
        <ele>6</ele>
        <time>2018-04-28T10:25:12Z</time>
      </trkpt>
      <trkpt lat="46.81975" lon="-2.13085">
        <ele>6</ele>
        <time>2018-04-28T10:26:12Z</time>
      </trkpt>
      <trkpt lat="46.81964" lon="-2.13086">
        <ele>6</ele>
        <time>2018-04-28T10:27:12Z</time>
      </trkpt>
      <trkpt lat="46.81953" lon="-2.13086">
        <ele>6</ele>
        <time>2018-04-28T10:28:12Z</time>
      </trkpt>
      <trkpt lat="46.81945" lon="-2.13083">
        <ele>5</ele>
        <time>2018-04-28T10:29:12Z</time>
      </trkpt>
      <trkpt lat="46.81933" lon="-2.13078">
        <ele>5</ele>
        <time>2018-04-28T10:30:12Z</time>
      </trkpt>
      <trkpt lat="46.81933" lon="-2.13078">
        <ele>5</ele>
        <time>2018-04-28T10:31:12Z</time>
      </trkpt>
      <trkpt lat="46.81925" lon="-2.13074">
        <ele>5</ele>
        <time>2018-04-28T10:32:12Z</time>
      </trkpt>
      <trkpt lat="46.81914" lon="-2.13068">
        <ele>5</ele>
        <time>2018-04-28T10:33:12Z</time>
      </trkpt>
      <trkpt lat="46.81895" lon="-2.13058">
        <ele>5</ele>
        <time>2018-04-28T10:34:12Z</time>
      </trkpt>
      <trkpt lat="46.8187" lon="-2.13043">
        <ele>5</ele>
        <time>2018-04-28T10:35:12Z</time>
      </trkpt>
      <trkpt lat="46.8186" lon="-2.13037">
        <ele>4</ele>
        <time>2018-04-28T10:36:12Z</time>
      </trkpt>
      <trkpt lat="46.8185" lon="-2.1303">
        <ele>4</ele>
        <time>2018-04-28T10:37:12Z</time>
      </trkpt>
      <trkpt lat="46.81841" lon="-2.13023">
        <ele>4</ele>
        <time>2018-04-28T10:38:12Z</time>
      </trkpt>
      <trkpt lat="46.81831" lon="-2.13013">
        <ele>4</ele>
        <time>2018-04-28T10:39:12Z</time>
      </trkpt>
      <trkpt lat="46.81825" lon="-2.13008">
        <ele>4</ele>
        <time>2018-04-28T10:40:12Z</time>
      </trkpt>
      <trkpt lat="46.81819" lon="-2.13001">
        <ele>4</ele>
        <time>2018-04-28T10:41:12Z</time>
      </trkpt>
      <trkpt lat="46.81813" lon="-2.12994">
        <ele>4</ele>
        <time>2018-04-28T10:42:12Z</time>
      </trkpt>
      <trkpt lat="46.81801" lon="-2.1298">
        <ele>5</ele>
        <time>2018-04-28T10:43:12Z</time>
      </trkpt>
      <trkpt lat="46.81777" lon="-2.12948">
        <ele>6</ele>
        <time>2018-04-28T10:44:12Z</time>
      </trkpt>
      <trkpt lat="46.81745" lon="-2.129">
        <ele>7</ele>
        <time>2018-04-28T10:45:12Z</time>
      </trkpt>
      <trkpt lat="46.81723" lon="-2.1287">
        <ele>7</ele>
        <time>2018-04-28T10:46:12Z</time>
      </trkpt>
      <trkpt lat="46.81712" lon="-2.12854">
        <ele>7</ele>
        <time>2018-04-28T10:47:12Z</time>
      </trkpt>
      <trkpt lat="46.81706" lon="-2.12845">
        <ele>8</ele>
        <time>2018-04-28T10:48:12Z</time>
      </trkpt>
      <trkpt lat="46.81703" lon="-2.12839">
        <ele>8</ele>
        <time>2018-04-28T10:49:12Z</time>
      </trkpt>
      <trkpt lat="46.817" lon="-2.12834">
        <ele>8</ele>
        <time>2018-04-28T10:50:12Z</time>
      </trkpt>
      <trkpt lat="46.81688" lon="-2.12801">
        <ele>7</ele>
        <time>2018-04-28T10:51:12Z</time>
      </trkpt>
      <trkpt lat="46.81677" lon="-2.12768">
        <ele>6</ele>
        <time>2018-04-28T10:52:12Z</time>
      </trkpt>
      <trkpt lat="46.81657" lon="-2.12705">
        <ele>6</ele>
        <time>2018-04-28T10:53:12Z</time>
      </trkpt>
      <trkpt lat="46.81651" lon="-2.12687">
        <ele>6</ele>
        <time>2018-04-28T10:54:12Z</time>
      </trkpt>
      <trkpt lat="46.81642" lon="-2.12662">
        <ele>6</ele>
        <time>2018-04-28T10:55:12Z</time>
      </trkpt>
      <trkpt lat="46.81632" lon="-2.12641">
        <ele>6</ele>
        <time>2018-04-28T10:56:12Z</time>
      </trkpt>
      <trkpt lat="46.81622" lon="-2.12618">
        <ele>6</ele>
        <time>2018-04-28T10:57:12Z</time>
      </trkpt>
      <trkpt lat="46.81613" lon="-2.12603">
        <ele>6</ele>
        <time>2018-04-28T10:58:12Z</time>
      </trkpt>
      <trkpt lat="46.81599" lon="-2.12583">
        <ele>6</ele>
        <time>2018-04-28T10:59:12Z</time>
      </trkpt>
      <trkpt lat="46.81588" lon="-2.12568">
        <ele>6</ele>
        <time>2018-04-28T11:00:12Z</time>
      </trkpt>
      <trkpt lat="46.81551" lon="-2.12517">
        <ele>6</ele>
        <time>2018-04-28T11:01:12Z</time>
      </trkpt>
      <trkpt lat="46.81539" lon="-2.125">
        <ele>6</ele>
        <time>2018-04-28T11:02:12Z</time>
      </trkpt>
      <trkpt lat="46.81516" lon="-2.12468">
        <ele>6</ele>
        <time>2018-04-28T11:03:12Z</time>
      </trkpt>
      <trkpt lat="46.81488" lon="-2.12431">
        <ele>5</ele>
        <time>2018-04-28T11:04:12Z</time>
      </trkpt>
      <trkpt lat="46.81474" lon="-2.1241">
        <ele>5</ele>
        <time>2018-04-28T11:05:12Z</time>
      </trkpt>
      <trkpt lat="46.81465" lon="-2.12395">
        <ele>5</ele>
        <time>2018-04-28T11:06:12Z</time>
      </trkpt>
      <trkpt lat="46.81443" lon="-2.12359">
        <ele>5</ele>
        <time>2018-04-28T11:07:12Z</time>
      </trkpt>
      <trkpt lat="46.81429" lon="-2.12333">
        <ele>4</ele>
        <time>2018-04-28T11:08:12Z</time>
      </trkpt>
      <trkpt lat="46.81418" lon="-2.12315">
        <ele>5</ele>
        <time>2018-04-28T11:09:12Z</time>
      </trkpt>
      <trkpt lat="46.8141" lon="-2.12296">
        <ele>4</ele>
        <time>2018-04-28T11:10:12Z</time>
      </trkpt>
      <trkpt lat="46.81406" lon="-2.12285">
        <ele>4</ele>
        <time>2018-04-28T11:11:12Z</time>
      </trkpt>
      <trkpt lat="46.81402" lon="-2.12275">
        <ele>4</ele>
        <time>2018-04-28T11:12:12Z</time>
      </trkpt>
      <trkpt lat="46.81397" lon="-2.1226">
        <ele>4</ele>
        <time>2018-04-28T11:13:12Z</time>
      </trkpt>
      <trkpt lat="46.81376" lon="-2.12206">
        <ele>3</ele>
        <time>2018-04-28T11:14:12Z</time>
      </trkpt>
      <trkpt lat="46.81371" lon="-2.12197">
        <ele>3</ele>
        <time>2018-04-28T11:15:12Z</time>
      </trkpt>
      <trkpt lat="46.81369" lon="-2.12194">
        <ele>3</ele>
        <time>2018-04-28T11:16:12Z</time>
      </trkpt>
      <trkpt lat="46.81362" lon="-2.1219">
        <ele>4</ele>
        <time>2018-04-28T11:17:12Z</time>
      </trkpt>
      <trkpt lat="46.81352" lon="-2.12182">
        <ele>4</ele>
        <time>2018-04-28T11:18:12Z</time>
      </trkpt>
      <trkpt lat="46.81347" lon="-2.12176">
        <ele>4</ele>
        <time>2018-04-28T11:19:12Z</time>
      </trkpt>
      <trkpt lat="46.81336" lon="-2.12156">
        <ele>4</ele>
        <time>2018-04-28T11:20:12Z</time>
      </trkpt>
      <trkpt lat="46.81326" lon="-2.12133">
        <ele>5</ele>
        <time>2018-04-28T11:21:12Z</time>
      </trkpt>
      <trkpt lat="46.81314" lon="-2.12106">
        <ele>5</ele>
        <time>2018-04-28T11:22:12Z</time>
      </trkpt>
      <trkpt lat="46.81298" lon="-2.12076">
        <ele>7</ele>
        <time>2018-04-28T11:23:12Z</time>
      </trkpt>
      <trkpt lat="46.81279" lon="-2.12035">
        <ele>7</ele>
        <time>2018-04-28T11:24:12Z</time>
      </trkpt>
      <trkpt lat="46.8126" lon="-2.12001">
        <ele>6</ele>
        <time>2018-04-28T11:25:12Z</time>
      </trkpt>
      <trkpt lat="46.8124" lon="-2.1197">
        <ele>6</ele>
        <time>2018-04-28T11:26:12Z</time>
      </trkpt>
      <trkpt lat="46.81217" lon="-2.11934">
        <ele>7</ele>
        <time>2018-04-28T11:27:12Z</time>
      </trkpt>
      <trkpt lat="46.81191" lon="-2.11901">
        <ele>8</ele>
        <time>2018-04-28T11:28:12Z</time>
      </trkpt>
      <trkpt lat="46.81169" lon="-2.1187">
        <ele>8</ele>
        <time>2018-04-28T11:29:12Z</time>
      </trkpt>
      <trkpt lat="46.81157" lon="-2.11856">
        <ele>7</ele>
        <time>2018-04-28T11:30:12Z</time>
      </trkpt>
      <trkpt lat="46.81143" lon="-2.11828">
        <ele>7</ele>
        <time>2018-04-28T11:31:12Z</time>
      </trkpt>
      <trkpt lat="46.81125" lon="-2.11791">
        <ele>6</ele>
        <time>2018-04-28T11:32:12Z</time>
      </trkpt>
      <trkpt lat="46.8111" lon="-2.11755">
        <ele>6</ele>
        <time>2018-04-28T11:33:12Z</time>
      </trkpt>
      <trkpt lat="46.81103" lon="-2.11737">
        <ele>5</ele>
        <time>2018-04-28T11:34:12Z</time>
      </trkpt>
      <trkpt lat="46.81087" lon="-2.11713">
        <ele>5</ele>
        <time>2018-04-28T11:35:12Z</time>
      </trkpt>
      <trkpt lat="46.81073" lon="-2.1169">
        <ele>4</ele>
        <time>2018-04-28T11:36:12Z</time>
      </trkpt>
      <trkpt lat="46.8106" lon="-2.11671">
        <ele>4</ele>
        <time>2018-04-28T11:37:12Z</time>
      </trkpt>
      <trkpt lat="46.81045" lon="-2.11653">
        <ele>5</ele>
        <time>2018-04-28T11:38:12Z</time>
      </trkpt>
      <trkpt lat="46.81044" lon="-2.11652">
        <ele>5</ele>
        <time>2018-04-28T11:39:12Z</time>
      </trkpt>
      <trkpt lat="46.8103" lon="-2.11637">
        <ele>5</ele>
        <time>2018-04-28T11:40:12Z</time>
      </trkpt>
      <trkpt lat="46.81017" lon="-2.11621">
        <ele>6</ele>
        <time>2018-04-28T11:41:12Z</time>
      </trkpt>
      <trkpt lat="46.81008" lon="-2.11608">
        <ele>6</ele>
        <time>2018-04-28T11:42:12Z</time>
      </trkpt>
      <trkpt lat="46.81002" lon="-2.11599">
        <ele>6</ele>
        <time>2018-04-28T11:43:12Z</time>
      </trkpt>
      <trkpt lat="46.80995" lon="-2.11586">
        <ele>6</ele>
        <time>2018-04-28T11:44:12Z</time>
      </trkpt>
      <trkpt lat="46.80987" lon="-2.11564">
        <ele>6</ele>
        <time>2018-04-28T11:45:12Z</time>
      </trkpt>
      <trkpt lat="46.80976" lon="-2.11532">
        <ele>6</ele>
        <time>2018-04-28T11:46:12Z</time>
      </trkpt>
      <trkpt lat="46.80962" lon="-2.11493">
        <ele>6</ele>
        <time>2018-04-28T11:47:12Z</time>
      </trkpt>
      <trkpt lat="46.80954" lon="-2.11475">
        <ele>6</ele>
        <time>2018-04-28T11:48:12Z</time>
      </trkpt>
      <trkpt lat="46.80954" lon="-2.11473">
        <ele>6</ele>
        <time>2018-04-28T11:49:12Z</time>
      </trkpt>
      <trkpt lat="46.8094" lon="-2.11434">
        <ele>7</ele>
        <time>2018-04-28T11:50:12Z</time>
      </trkpt>
      <trkpt lat="46.80933" lon="-2.11418">
        <ele>7</ele>
        <time>2018-04-28T11:51:12Z</time>
      </trkpt>
      <trkpt lat="46.80923" lon="-2.11389">
        <ele>7</ele>
        <time>2018-04-28T11:52:12Z</time>
      </trkpt>
      <trkpt lat="46.80909" lon="-2.11345">
        <ele>7</ele>
        <time>2018-04-28T11:53:12Z</time>
      </trkpt>
      <trkpt lat="46.80903" lon="-2.11324">
        <ele>7</ele>
        <time>2018-04-28T11:54:12Z</time>
      </trkpt>
      <trkpt lat="46.80895" lon="-2.11294">
        <ele>6</ele>
        <time>2018-04-28T11:55:12Z</time>
      </trkpt>
      <trkpt lat="46.80888" lon="-2.11265">
        <ele>6</ele>
        <time>2018-04-28T11:56:12Z</time>
      </trkpt>
      <trkpt lat="46.80878" lon="-2.11234">
        <ele>6</ele>
        <time>2018-04-28T11:57:12Z</time>
      </trkpt>
      <trkpt lat="46.8087" lon="-2.11209">
        <ele>7</ele>
        <time>2018-04-28T11:58:12Z</time>
      </trkpt>
      <trkpt lat="46.8086" lon="-2.11186">
        <ele>8</ele>
        <time>2018-04-28T11:59:12Z</time>
      </trkpt>
      <trkpt lat="46.80858" lon="-2.11179">
        <ele>8</ele>
        <time>2018-04-28T12:00:12Z</time>
      </trkpt>
      <trkpt lat="46.80856" lon="-2.11172">
        <ele>8</ele>
        <time>2018-04-28T12:01:12Z</time>
      </trkpt>
      <trkpt lat="46.80846" lon="-2.11136">
        <ele>8</ele>
        <time>2018-04-28T12:02:12Z</time>
      </trkpt>
      <trkpt lat="46.8083" lon="-2.11071">
        <ele>8</ele>
        <time>2018-04-28T12:03:12Z</time>
      </trkpt>
      <trkpt lat="46.8082" lon="-2.11035">
        <ele>8</ele>
        <time>2018-04-28T12:04:12Z</time>
      </trkpt>
      <trkpt lat="46.80815" lon="-2.11017">
        <ele>9</ele>
        <time>2018-04-28T12:05:12Z</time>
      </trkpt>
      <trkpt lat="46.80805" lon="-2.10989">
        <ele>10</ele>
        <time>2018-04-28T12:06:12Z</time>
      </trkpt>
      <trkpt lat="46.80796" lon="-2.10968">
        <ele>10</ele>
        <time>2018-04-28T12:07:12Z</time>
      </trkpt>
      <trkpt lat="46.80782" lon="-2.10935">
        <ele>12</ele>
        <time>2018-04-28T12:08:12Z</time>
      </trkpt>
      <trkpt lat="46.80768" lon="-2.10906">
        <ele>12</ele>
        <time>2018-04-28T12:09:12Z</time>
      </trkpt>
      <trkpt lat="46.80753" lon="-2.10874">
        <ele>12</ele>
        <time>2018-04-28T12:10:12Z</time>
      </trkpt>
      <trkpt lat="46.80731" lon="-2.10825">
        <ele>11</ele>
        <time>2018-04-28T12:11:12Z</time>
      </trkpt>
      <trkpt lat="46.80719" lon="-2.108">
        <ele>11</ele>
        <time>2018-04-28T12:12:12Z</time>
      </trkpt>
      <trkpt lat="46.80703" lon="-2.10767">
        <ele>11</ele>
        <time>2018-04-28T12:13:12Z</time>
      </trkpt>
      <trkpt lat="46.80687" lon="-2.10733">
        <ele>12</ele>
        <time>2018-04-28T12:14:12Z</time>
      </trkpt>
      <trkpt lat="46.80677" lon="-2.10709">
        <ele>12</ele>
        <time>2018-04-28T12:15:12Z</time>
      </trkpt>
      <trkpt lat="46.80669" lon="-2.10684">
        <ele>12</ele>
        <time>2018-04-28T12:16:12Z</time>
      </trkpt>
      <trkpt lat="46.80665" lon="-2.10664">
        <ele>11</ele>
        <time>2018-04-28T12:17:12Z</time>
      </trkpt>
      <trkpt lat="46.80657" lon="-2.10629">
        <ele>11</ele>
        <time>2018-04-28T12:18:12Z</time>
      </trkpt>
      <trkpt lat="46.80653" lon="-2.10611">
        <ele>10</ele>
        <time>2018-04-28T12:19:12Z</time>
      </trkpt>
      <trkpt lat="46.80648" lon="-2.10589">
        <ele>10</ele>
        <time>2018-04-28T12:20:12Z</time>
      </trkpt>
      <trkpt lat="46.80642" lon="-2.10564">
        <ele>10</ele>
        <time>2018-04-28T12:21:12Z</time>
      </trkpt>
      <trkpt lat="46.80634" lon="-2.10525">
        <ele>10</ele>
        <time>2018-04-28T12:22:12Z</time>
      </trkpt>
      <trkpt lat="46.8063" lon="-2.10503">
        <ele>10</ele>
        <time>2018-04-28T12:23:12Z</time>
      </trkpt>
      <trkpt lat="46.80627" lon="-2.10488">
        <ele>11</ele>
        <time>2018-04-28T12:24:12Z</time>
      </trkpt>
      <trkpt lat="46.80619" lon="-2.10449">
        <ele>11</ele>
        <time>2018-04-28T12:25:12Z</time>
      </trkpt>
      <trkpt lat="46.80612" lon="-2.10418">
        <ele>12</ele>
        <time>2018-04-28T12:26:12Z</time>
      </trkpt>
      <trkpt lat="46.80611" lon="-2.10417">
        <ele>12</ele>
        <time>2018-04-28T12:27:12Z</time>
      </trkpt>
      <trkpt lat="46.80605" lon="-2.10389">
        <ele>12</ele>
        <time>2018-04-28T12:28:12Z</time>
      </trkpt>
      <trkpt lat="46.806" lon="-2.10365">
        <ele>12</ele>
        <time>2018-04-28T12:29:12Z</time>
      </trkpt>
      <trkpt lat="46.80584" lon="-2.10306">
        <ele>12</ele>
        <time>2018-04-28T12:30:12Z</time>
      </trkpt>
      <trkpt lat="46.80564" lon="-2.10241">
        <ele>11</ele>
        <time>2018-04-28T12:31:12Z</time>
      </trkpt>
      <trkpt lat="46.80542" lon="-2.10174">
        <ele>8</ele>
        <time>2018-04-28T12:32:12Z</time>
      </trkpt>
      <trkpt lat="46.80529" lon="-2.10124">
        <ele>8</ele>
        <time>2018-04-28T12:33:12Z</time>
      </trkpt>
      <trkpt lat="46.80527" lon="-2.10113">
        <ele>8</ele>
        <time>2018-04-28T12:34:12Z</time>
      </trkpt>
      <trkpt lat="46.80527" lon="-2.10113">
        <ele>8</ele>
        <time>2018-04-28T12:35:12Z</time>
      </trkpt>
      <trkpt lat="46.80518" lon="-2.10051">
        <ele>8</ele>
        <time>2018-04-28T12:36:12Z</time>
      </trkpt>
      <trkpt lat="46.80506" lon="-2.09977">
        <ele>10</ele>
        <time>2018-04-28T12:37:12Z</time>
      </trkpt>
      <trkpt lat="46.80479" lon="-2.09829">
        <ele>9</ele>
        <time>2018-04-28T12:38:12Z</time>
      </trkpt>
      <trkpt lat="46.80471" lon="-2.09777">
        <ele>8</ele>
        <time>2018-04-28T12:39:12Z</time>
      </trkpt>
      <trkpt lat="46.80458" lon="-2.09715">
        <ele>6</ele>
        <time>2018-04-28T12:40:12Z</time>
      </trkpt>
      <trkpt lat="46.80449" lon="-2.09675">
        <ele>5</ele>
        <time>2018-04-28T12:41:12Z</time>
      </trkpt>
      <trkpt lat="46.80439" lon="-2.09639">
        <ele>5</ele>
        <time>2018-04-28T12:42:12Z</time>
      </trkpt>
      <trkpt lat="46.80423" lon="-2.09586">
        <ele>3</ele>
        <time>2018-04-28T12:43:12Z</time>
      </trkpt>
      <trkpt lat="46.80412" lon="-2.09549">
        <ele>3</ele>
        <time>2018-04-28T12:44:12Z</time>
      </trkpt>
      <trkpt lat="46.80401" lon="-2.09514">
        <ele>4</ele>
        <time>2018-04-28T12:45:12Z</time>
      </trkpt>
      <trkpt lat="46.80395" lon="-2.09496">
        <ele>4</ele>
        <time>2018-04-28T12:46:12Z</time>
      </trkpt>
      <trkpt lat="46.80387" lon="-2.0947">
        <ele>5</ele>
        <time>2018-04-28T12:47:12Z</time>
      </trkpt>
      <trkpt lat="46.80381" lon="-2.09451">
        <ele>5</ele>
        <time>2018-04-28T12:48:12Z</time>
      </trkpt>
      <trkpt lat="46.8037" lon="-2.09422">
        <ele>5</ele>
        <time>2018-04-28T12:49:12Z</time>
      </trkpt>
      <trkpt lat="46.80357" lon="-2.09392">
        <ele>5</ele>
        <time>2018-04-28T12:50:12Z</time>
      </trkpt>
      <trkpt lat="46.80353" lon="-2.09385">
        <ele>5</ele>
        <time>2018-04-28T12:51:12Z</time>
      </trkpt>
      <trkpt lat="46.80342" lon="-2.09364">
        <ele>5</ele>
        <time>2018-04-28T12:52:12Z</time>
      </trkpt>
      <trkpt lat="46.80331" lon="-2.09345">
        <ele>5</ele>
        <time>2018-04-28T12:53:12Z</time>
      </trkpt>
      <trkpt lat="46.80312" lon="-2.09315">
        <ele>8</ele>
        <time>2018-04-28T12:54:12Z</time>
      </trkpt>
      <trkpt lat="46.80293" lon="-2.09274">
        <ele>10</ele>
        <time>2018-04-28T12:55:12Z</time>
      </trkpt>
      <trkpt lat="46.80285" lon="-2.09255">
        <ele>11</ele>
        <time>2018-04-28T12:56:12Z</time>
      </trkpt>
      <trkpt lat="46.80282" lon="-2.09245">
        <ele>11</ele>
        <time>2018-04-28T12:57:12Z</time>
      </trkpt>
      <trkpt lat="46.80282" lon="-2.09245">
        <ele>11</ele>
        <time>2018-04-28T12:58:12Z</time>
      </trkpt>
      <trkpt lat="46.80281" lon="-2.09242">
        <ele>11</ele>
        <time>2018-04-28T12:59:12Z</time>
      </trkpt>
      <trkpt lat="46.80277" lon="-2.09225">
        <ele>11</ele>
        <time>2018-04-28T13:00:12Z</time>
      </trkpt>
      <trkpt lat="46.8027" lon="-2.09191">
        <ele>10</ele>
        <time>2018-04-28T13:01:12Z</time>
      </trkpt>
      <trkpt lat="46.8026" lon="-2.09142">
        <ele>9</ele>
        <time>2018-04-28T13:02:12Z</time>
      </trkpt>
      <trkpt lat="46.80258" lon="-2.09122">
        <ele>8</ele>
        <time>2018-04-28T13:03:12Z</time>
      </trkpt>
      <trkpt lat="46.80254" lon="-2.09079">
        <ele>7</ele>
        <time>2018-04-28T13:04:12Z</time>
      </trkpt>
      <trkpt lat="46.80253" lon="-2.09066">
        <ele>7</ele>
        <time>2018-04-28T13:05:12Z</time>
      </trkpt>
      <trkpt lat="46.8025" lon="-2.09038">
        <ele>6</ele>
        <time>2018-04-28T13:06:12Z</time>
      </trkpt>
      <trkpt lat="46.80247" lon="-2.09013">
        <ele>7</ele>
        <time>2018-04-28T13:07:12Z</time>
      </trkpt>
      <trkpt lat="46.80242" lon="-2.08982">
        <ele>7</ele>
        <time>2018-04-28T13:08:12Z</time>
      </trkpt>
      <trkpt lat="46.80237" lon="-2.08954">
        <ele>6</ele>
        <time>2018-04-28T13:09:12Z</time>
      </trkpt>
      <trkpt lat="46.80217" lon="-2.08868">
        <ele>5</ele>
        <time>2018-04-28T13:10:12Z</time>
      </trkpt>
      <trkpt lat="46.80198" lon="-2.08809">
        <ele>5</ele>
        <time>2018-04-28T13:11:12Z</time>
      </trkpt>
      <trkpt lat="46.80193" lon="-2.08789">
        <ele>5</ele>
        <time>2018-04-28T13:12:12Z</time>
      </trkpt>
      <trkpt lat="46.80146" lon="-2.08668">
        <ele>5</ele>
        <time>2018-04-28T13:13:12Z</time>
      </trkpt>
      <trkpt lat="46.8014" lon="-2.08654">
        <ele>5</ele>
        <time>2018-04-28T13:14:12Z</time>
      </trkpt>
      <trkpt lat="46.80135" lon="-2.08635">
        <ele>6</ele>
        <time>2018-04-28T13:15:12Z</time>
      </trkpt>
      <trkpt lat="46.80131" lon="-2.08618">
        <ele>6</ele>
        <time>2018-04-28T13:16:12Z</time>
      </trkpt>
      <trkpt lat="46.80126" lon="-2.08591">
        <ele>6</ele>
        <time>2018-04-28T13:17:12Z</time>
      </trkpt>
      <trkpt lat="46.80125" lon="-2.08582">
        <ele>6</ele>
        <time>2018-04-28T13:18:12Z</time>
      </trkpt>
      <trkpt lat="46.80124" lon="-2.08572">
        <ele>6</ele>
        <time>2018-04-28T13:19:12Z</time>
      </trkpt>
      <trkpt lat="46.80122" lon="-2.08556">
        <ele>6</ele>
        <time>2018-04-28T13:20:12Z</time>
      </trkpt>
      <trkpt lat="46.80119" lon="-2.08541">
        <ele>6</ele>
        <time>2018-04-28T13:21:12Z</time>
      </trkpt>
      <trkpt lat="46.80113" lon="-2.08524">
        <ele>6</ele>
        <time>2018-04-28T13:22:12Z</time>
      </trkpt>
      <trkpt lat="46.80107" lon="-2.08507">
        <ele>6</ele>
        <time>2018-04-28T13:23:12Z</time>
      </trkpt>
      <trkpt lat="46.80094" lon="-2.08479">
        <ele>6</ele>
        <time>2018-04-28T13:24:12Z</time>
      </trkpt>
      <trkpt lat="46.80062" lon="-2.08414">
        <ele>8</ele>
        <time>2018-04-28T13:25:12Z</time>
      </trkpt>
      <trkpt lat="46.8005" lon="-2.0839">
        <ele>9</ele>
        <time>2018-04-28T13:26:12Z</time>
      </trkpt>
      <trkpt lat="46.80035" lon="-2.08362">
        <ele>9</ele>
        <time>2018-04-28T13:27:12Z</time>
      </trkpt>
      <trkpt lat="46.80018" lon="-2.08334">
        <ele>9</ele>
        <time>2018-04-28T13:28:12Z</time>
      </trkpt>
      <trkpt lat="46.80002" lon="-2.0831">
        <ele>9</ele>
        <time>2018-04-28T13:29:12Z</time>
      </trkpt>
      <trkpt lat="46.79982" lon="-2.08281">
        <ele>10</ele>
        <time>2018-04-28T13:30:12Z</time>
      </trkpt>
      <trkpt lat="46.79963" lon="-2.0825">
        <ele>11</ele>
        <time>2018-04-28T13:31:12Z</time>
      </trkpt>
      <trkpt lat="46.79959" lon="-2.08241">
        <ele>11</ele>
        <time>2018-04-28T13:32:12Z</time>
      </trkpt>
      <trkpt lat="46.7995" lon="-2.08218">
        <ele>11</ele>
        <time>2018-04-28T13:33:12Z</time>
      </trkpt>
      <trkpt lat="46.79943" lon="-2.08192">
        <ele>11</ele>
        <time>2018-04-28T13:34:12Z</time>
      </trkpt>
      <trkpt lat="46.7994" lon="-2.08177">
        <ele>10</ele>
        <time>2018-04-28T13:35:12Z</time>
      </trkpt>
      <trkpt lat="46.79938" lon="-2.08164">
        <ele>10</ele>
        <time>2018-04-28T13:36:12Z</time>
      </trkpt>
      <trkpt lat="46.79935" lon="-2.08132">
        <ele>9</ele>
        <time>2018-04-28T13:37:12Z</time>
      </trkpt>
      <trkpt lat="46.79931" lon="-2.08048">
        <ele>8</ele>
        <time>2018-04-28T13:38:12Z</time>
      </trkpt>
      <trkpt lat="46.79929" lon="-2.08027">
        <ele>8</ele>
        <time>2018-04-28T13:39:12Z</time>
      </trkpt>
      <trkpt lat="46.79914" lon="-2.0797">
        <ele>8</ele>
        <time>2018-04-28T13:40:12Z</time>
      </trkpt>
      <trkpt lat="46.79845" lon="-2.07722">
        <ele>12</ele>
        <time>2018-04-28T13:41:12Z</time>
      </trkpt>
      <trkpt lat="46.7983" lon="-2.07677">
        <ele>11</ele>
        <time>2018-04-28T13:42:12Z</time>
      </trkpt>
      <trkpt lat="46.7983" lon="-2.07677">
        <ele>11</ele>
        <time>2018-04-28T13:43:12Z</time>
      </trkpt>
      <trkpt lat="46.79823" lon="-2.07677">
        <ele>11</ele>
        <time>2018-04-28T13:44:12Z</time>
      </trkpt>
      <trkpt lat="46.79819" lon="-2.07676">
        <ele>11</ele>
        <time>2018-04-28T13:45:12Z</time>
      </trkpt>
      <trkpt lat="46.79813" lon="-2.07674">
        <ele>12</ele>
        <time>2018-04-28T13:46:12Z</time>
      </trkpt>
      <trkpt lat="46.79778" lon="-2.07654">
        <ele>14</ele>
        <time>2018-04-28T13:47:12Z</time>
      </trkpt>
      <trkpt lat="46.7977" lon="-2.0765">
        <ele>14</ele>
        <time>2018-04-28T13:48:12Z</time>
      </trkpt>
      <trkpt lat="46.79761" lon="-2.07648">
        <ele>15</ele>
        <time>2018-04-28T13:49:12Z</time>
      </trkpt>
      <trkpt lat="46.79749" lon="-2.07646">
        <ele>15</ele>
        <time>2018-04-28T13:50:12Z</time>
      </trkpt>
      <trkpt lat="46.79735" lon="-2.07645">
        <ele>15</ele>
        <time>2018-04-28T13:51:12Z</time>
      </trkpt>
      <trkpt lat="46.79726" lon="-2.07646">
        <ele>16</ele>
        <time>2018-04-28T13:52:12Z</time>
      </trkpt>
      <trkpt lat="46.79717" lon="-2.07649">
        <ele>16</ele>
        <time>2018-04-28T13:53:12Z</time>
      </trkpt>
      <trkpt lat="46.79704" lon="-2.07654">
        <ele>16</ele>
        <time>2018-04-28T13:54:12Z</time>
      </trkpt>
      <trkpt lat="46.79665" lon="-2.07681">
        <ele>17</ele>
        <time>2018-04-28T13:55:12Z</time>
      </trkpt>
      <trkpt lat="46.7964" lon="-2.07696">
        <ele>18</ele>
        <time>2018-04-28T13:56:12Z</time>
      </trkpt>
      <trkpt lat="46.79618" lon="-2.07705">
        <ele>18</ele>
        <time>2018-04-28T13:57:12Z</time>
      </trkpt>
      <trkpt lat="46.79553" lon="-2.07723">
        <ele>17</ele>
        <time>2018-04-28T13:58:12Z</time>
      </trkpt>
      <trkpt lat="46.7951" lon="-2.07737">
        <ele>15</ele>
        <time>2018-04-28T13:59:12Z</time>
      </trkpt>
      <trkpt lat="46.79489" lon="-2.07748">
        <ele>13</ele>
        <time>2018-04-28T14:00:12Z</time>
      </trkpt>
      <trkpt lat="46.79471" lon="-2.0776">
        <ele>12</ele>
        <time>2018-04-28T14:01:12Z</time>
      </trkpt>
      <trkpt lat="46.79451" lon="-2.07781">
        <ele>11</ele>
        <time>2018-04-28T14:02:12Z</time>
      </trkpt>
      <trkpt lat="46.79418" lon="-2.07821">
        <ele>8</ele>
        <time>2018-04-28T14:03:12Z</time>
      </trkpt>
      <trkpt lat="46.79392" lon="-2.07853">
        <ele>8</ele>
        <time>2018-04-28T14:04:12Z</time>
      </trkpt>
      <trkpt lat="46.79386" lon="-2.0786">
        <ele>8</ele>
        <time>2018-04-28T14:05:12Z</time>
      </trkpt>
      <trkpt lat="46.79364" lon="-2.07886">
        <ele>8</ele>
        <time>2018-04-28T14:06:12Z</time>
      </trkpt>
      <trkpt lat="46.79332" lon="-2.07927">
        <ele>8</ele>
        <time>2018-04-28T14:07:12Z</time>
      </trkpt>
      <trkpt lat="46.79279" lon="-2.08001">
        <ele>6</ele>
        <time>2018-04-28T14:08:12Z</time>
      </trkpt>
      <trkpt lat="46.79254" lon="-2.08031">
        <ele>6</ele>
        <time>2018-04-28T14:09:12Z</time>
      </trkpt>
      <trkpt lat="46.79246" lon="-2.08039">
        <ele>6</ele>
        <time>2018-04-28T14:10:12Z</time>
      </trkpt>
      <trkpt lat="46.79243" lon="-2.08041">
        <ele>6</ele>
        <time>2018-04-28T14:11:12Z</time>
      </trkpt>
      <trkpt lat="46.79235" lon="-2.08047">
        <ele>6</ele>
        <time>2018-04-28T14:12:12Z</time>
      </trkpt>
      <trkpt lat="46.79206" lon="-2.08071">
        <ele>5</ele>
        <time>2018-04-28T14:13:12Z</time>
      </trkpt>
      <trkpt lat="46.79191" lon="-2.08085">
        <ele>5</ele>
        <time>2018-04-28T14:14:12Z</time>
      </trkpt>
      <trkpt lat="46.79181" lon="-2.08098">
        <ele>5</ele>
        <time>2018-04-28T14:15:12Z</time>
      </trkpt>
      <trkpt lat="46.79164" lon="-2.08132">
        <ele>5</ele>
        <time>2018-04-28T14:16:12Z</time>
      </trkpt>
      <trkpt lat="46.79164" lon="-2.08132">
        <ele>5</ele>
        <time>2018-04-28T14:17:12Z</time>
      </trkpt>
      <trkpt lat="46.79151" lon="-2.08159">
        <ele>4</ele>
        <time>2018-04-28T14:18:12Z</time>
      </trkpt>
      <trkpt lat="46.79082" lon="-2.08097">
        <ele>3</ele>
        <time>2018-04-28T14:19:12Z</time>
      </trkpt>
      <trkpt lat="46.79059" lon="-2.08076">
        <ele>3</ele>
        <time>2018-04-28T14:20:12Z</time>
      </trkpt>
      <trkpt lat="46.79043" lon="-2.08065">
        <ele>4</ele>
        <time>2018-04-28T14:21:12Z</time>
      </trkpt>
      <trkpt lat="46.79027" lon="-2.08054">
        <ele>4</ele>
        <time>2018-04-28T14:22:12Z</time>
      </trkpt>
      <trkpt lat="46.7901" lon="-2.08045">
        <ele>4</ele>
        <time>2018-04-28T14:23:12Z</time>
      </trkpt>
      <trkpt lat="46.7899" lon="-2.08037">
        <ele>4</ele>
        <time>2018-04-28T14:24:12Z</time>
      </trkpt>
      <trkpt lat="46.7899" lon="-2.08037">
        <ele>4</ele>
        <time>2018-04-28T14:25:12Z</time>
      </trkpt>
      <trkpt lat="46.78988" lon="-2.08036">
        <ele>4</ele>
        <time>2018-04-28T14:26:12Z</time>
      </trkpt>
      <trkpt lat="46.78982" lon="-2.08033">
        <ele>4</ele>
        <time>2018-04-28T14:27:12Z</time>
      </trkpt>
      <trkpt lat="46.78979" lon="-2.08031">
        <ele>4</ele>
        <time>2018-04-28T14:28:12Z</time>
      </trkpt>
      <trkpt lat="46.7896" lon="-2.08029">
        <ele>4</ele>
        <time>2018-04-28T14:29:12Z</time>
      </trkpt>
      <trkpt lat="46.78943" lon="-2.08027">
        <ele>5</ele>
        <time>2018-04-28T14:30:12Z</time>
      </trkpt>
      <trkpt lat="46.78929" lon="-2.08027">
        <ele>5</ele>
        <time>2018-04-28T14:31:12Z</time>
      </trkpt>
      <trkpt lat="46.78914" lon="-2.08029">
        <ele>5</ele>
        <time>2018-04-28T14:32:12Z</time>
      </trkpt>
      <trkpt lat="46.78896" lon="-2.08033">
        <ele>5</ele>
        <time>2018-04-28T14:33:12Z</time>
      </trkpt>
      <trkpt lat="46.78847" lon="-2.0804">
        <ele>5</ele>
        <time>2018-04-28T14:34:12Z</time>
      </trkpt>
      <trkpt lat="46.78811" lon="-2.08046">
        <ele>6</ele>
        <time>2018-04-28T14:35:12Z</time>
      </trkpt>
      <trkpt lat="46.78792" lon="-2.08048">
        <ele>7</ele>
        <time>2018-04-28T14:36:12Z</time>
      </trkpt>
      <trkpt lat="46.78773" lon="-2.08046">
        <ele>8</ele>
        <time>2018-04-28T14:37:12Z</time>
      </trkpt>
      <trkpt lat="46.78756" lon="-2.08042">
        <ele>9</ele>
        <time>2018-04-28T14:38:12Z</time>
      </trkpt>
      <trkpt lat="46.78739" lon="-2.08035">
        <ele>9</ele>
        <time>2018-04-28T14:39:12Z</time>
      </trkpt>
      <trkpt lat="46.78735" lon="-2.08032">
        <ele>9</ele>
        <time>2018-04-28T14:40:12Z</time>
      </trkpt>
      <trkpt lat="46.78717" lon="-2.0802">
        <ele>8</ele>
        <time>2018-04-28T14:41:12Z</time>
      </trkpt>
      <trkpt lat="46.78708" lon="-2.08011">
        <ele>8</ele>
        <time>2018-04-28T14:42:12Z</time>
      </trkpt>
      <trkpt lat="46.78706" lon="-2.08009">
        <ele>8</ele>
        <time>2018-04-28T14:43:12Z</time>
      </trkpt>
      <trkpt lat="46.78693" lon="-2.07993">
        <ele>8</ele>
        <time>2018-04-28T14:44:12Z</time>
      </trkpt>
      <trkpt lat="46.78681" lon="-2.07974">
        <ele>8</ele>
        <time>2018-04-28T14:45:12Z</time>
      </trkpt>
      <trkpt lat="46.78671" lon="-2.07954">
        <ele>7</ele>
        <time>2018-04-28T14:46:12Z</time>
      </trkpt>
      <trkpt lat="46.78652" lon="-2.07904">
        <ele>6</ele>
        <time>2018-04-28T14:47:12Z</time>
      </trkpt>
      <trkpt lat="46.78652" lon="-2.07904">
        <ele>6</ele>
        <time>2018-04-28T14:48:12Z</time>
      </trkpt>
      <trkpt lat="46.78651" lon="-2.07904">
        <ele>6</ele>
        <time>2018-04-28T14:49:12Z</time>
      </trkpt>
      <trkpt lat="46.7865" lon="-2.07904">
        <ele>6</ele>
        <time>2018-04-28T14:50:12Z</time>
      </trkpt>
      <trkpt lat="46.78649" lon="-2.07904">
        <ele>6</ele>
        <time>2018-04-28T14:51:12Z</time>
      </trkpt>
      <trkpt lat="46.78648" lon="-2.07904">
        <ele>6</ele>
        <time>2018-04-28T14:52:12Z</time>
      </trkpt>
      <trkpt lat="46.78648" lon="-2.07903">
        <ele>6</ele>
        <time>2018-04-28T14:53:12Z</time>
      </trkpt>
      <trkpt lat="46.78647" lon="-2.07903">
        <ele>6</ele>
        <time>2018-04-28T14:54:12Z</time>
      </trkpt>
      <trkpt lat="46.78647" lon="-2.07902">
        <ele>6</ele>
        <time>2018-04-28T14:55:12Z</time>
      </trkpt>
      <trkpt lat="46.78646" lon="-2.07902">
        <ele>5</ele>
        <time>2018-04-28T14:56:12Z</time>
      </trkpt>
      <trkpt lat="46.78646" lon="-2.07901">
        <ele>5</ele>
        <time>2018-04-28T14:57:12Z</time>
      </trkpt>
      <trkpt lat="46.78646" lon="-2.079">
        <ele>5</ele>
        <time>2018-04-28T14:58:12Z</time>
      </trkpt>
      <trkpt lat="46.78645" lon="-2.079">
        <ele>5</ele>
        <time>2018-04-28T14:59:12Z</time>
      </trkpt>
      <trkpt lat="46.78645" lon="-2.07899">
        <ele>5</ele>
        <time>2018-04-28T15:00:12Z</time>
      </trkpt>
      <trkpt lat="46.78645" lon="-2.07898">
        <ele>5</ele>
        <time>2018-04-28T15:01:12Z</time>
      </trkpt>
      <trkpt lat="46.78644" lon="-2.07897">
        <ele>5</ele>
        <time>2018-04-28T15:02:12Z</time>
      </trkpt>
      <trkpt lat="46.78644" lon="-2.07896">
        <ele>5</ele>
        <time>2018-04-28T15:03:12Z</time>
      </trkpt>
      <trkpt lat="46.78644" lon="-2.07895">
        <ele>5</ele>
        <time>2018-04-28T15:04:12Z</time>
      </trkpt>
      <trkpt lat="46.78644" lon="-2.07894">
        <ele>5</ele>
        <time>2018-04-28T15:05:12Z</time>
      </trkpt>
      <trkpt lat="46.78644" lon="-2.07893">
        <ele>5</ele>
        <time>2018-04-28T15:06:12Z</time>
      </trkpt>
      <trkpt lat="46.78644" lon="-2.07892">
        <ele>5</ele>
        <time>2018-04-28T15:07:12Z</time>
      </trkpt>
      <trkpt lat="46.78645" lon="-2.07891">
        <ele>5</ele>
        <time>2018-04-28T15:08:12Z</time>
      </trkpt>
      <trkpt lat="46.78645" lon="-2.0789">
        <ele>5</ele>
        <time>2018-04-28T15:09:12Z</time>
      </trkpt>
      <trkpt lat="46.78645" lon="-2.07889">
        <ele>5</ele>
        <time>2018-04-28T15:10:12Z</time>
      </trkpt>
      <trkpt lat="46.78646" lon="-2.07889">
        <ele>5</ele>
        <time>2018-04-28T15:11:12Z</time>
      </trkpt>
      <trkpt lat="46.78646" lon="-2.07888">
        <ele>5</ele>
        <time>2018-04-28T15:12:12Z</time>
      </trkpt>
      <trkpt lat="46.78646" lon="-2.07887">
        <ele>5</ele>
        <time>2018-04-28T15:13:12Z</time>
      </trkpt>
      <trkpt lat="46.78647" lon="-2.07887">
        <ele>5</ele>
        <time>2018-04-28T15:14:12Z</time>
      </trkpt>
      <trkpt lat="46.78647" lon="-2.07886">
        <ele>5</ele>
        <time>2018-04-28T15:15:12Z</time>
      </trkpt>
      <trkpt lat="46.78648" lon="-2.07886">
        <ele>6</ele>
        <time>2018-04-28T15:16:12Z</time>
      </trkpt>
      <trkpt lat="46.78648" lon="-2.07885">
        <ele>6</ele>
        <time>2018-04-28T15:17:12Z</time>
      </trkpt>
      <trkpt lat="46.78649" lon="-2.07885">
        <ele>6</ele>
        <time>2018-04-28T15:18:12Z</time>
      </trkpt>
      <trkpt lat="46.78648" lon="-2.07877">
        <ele>5</ele>
        <time>2018-04-28T15:19:12Z</time>
      </trkpt>
      <trkpt lat="46.78645" lon="-2.07867">
        <ele>5</ele>
        <time>2018-04-28T15:20:12Z</time>
      </trkpt>
      <trkpt lat="46.78643" lon="-2.07859">
        <ele>5</ele>
        <time>2018-04-28T15:21:12Z</time>
      </trkpt>
      <trkpt lat="46.7855" lon="-2.07645">
        <ele>8</ele>
        <time>2018-04-28T15:22:12Z</time>
      </trkpt>
      <trkpt lat="46.78547" lon="-2.0764">
        <ele>8</ele>
        <time>2018-04-28T15:23:12Z</time>
      </trkpt>
      <trkpt lat="46.78542" lon="-2.07632">
        <ele>7</ele>
        <time>2018-04-28T15:24:12Z</time>
      </trkpt>
      <trkpt lat="46.78542" lon="-2.07632">
        <ele>7</ele>
        <time>2018-04-28T15:25:12Z</time>
      </trkpt>
      <trkpt lat="46.7854" lon="-2.07634">
        <ele>7</ele>
        <time>2018-04-28T15:26:12Z</time>
      </trkpt>
      <trkpt lat="46.78539" lon="-2.07635">
        <ele>7</ele>
        <time>2018-04-28T15:27:12Z</time>
      </trkpt>
      <trkpt lat="46.78536" lon="-2.07635">
        <ele>7</ele>
        <time>2018-04-28T15:28:12Z</time>
      </trkpt>
      <trkpt lat="46.78533" lon="-2.07634">
        <ele>7</ele>
        <time>2018-04-28T15:29:12Z</time>
      </trkpt>
      <trkpt lat="46.78532" lon="-2.07632">
        <ele>7</ele>
        <time>2018-04-28T15:30:12Z</time>
      </trkpt>
      <trkpt lat="46.78531" lon="-2.07631">
        <ele>7</ele>
        <time>2018-04-28T15:31:12Z</time>
      </trkpt>
      <trkpt lat="46.7853" lon="-2.07627">
        <ele>7</ele>
        <time>2018-04-28T15:32:12Z</time>
      </trkpt>
      <trkpt lat="46.78529" lon="-2.07624">
        <ele>7</ele>
        <time>2018-04-28T15:33:12Z</time>
      </trkpt>
      <trkpt lat="46.7853" lon="-2.07621">
        <ele>7</ele>
        <time>2018-04-28T15:34:12Z</time>
      </trkpt>
      <trkpt lat="46.78526" lon="-2.07615">
        <ele>7</ele>
        <time>2018-04-28T15:35:12Z</time>
      </trkpt>
      <trkpt lat="46.78516" lon="-2.07594">
        <ele>8</ele>
        <time>2018-04-28T15:36:12Z</time>
      </trkpt>
      <trkpt lat="46.78514" lon="-2.07589">
        <ele>8</ele>
        <time>2018-04-28T15:37:12Z</time>
      </trkpt>
      <trkpt lat="46.78508" lon="-2.07572">
        <ele>8</ele>
        <time>2018-04-28T15:38:12Z</time>
      </trkpt>
      <trkpt lat="46.78507" lon="-2.07571">
        <ele>8</ele>
        <time>2018-04-28T15:39:12Z</time>
      </trkpt>
      <trkpt lat="46.78503" lon="-2.07565">
        <ele>8</ele>
        <time>2018-04-28T15:40:12Z</time>
      </trkpt>
      <trkpt lat="46.785" lon="-2.0756">
        <ele>8</ele>
        <time>2018-04-28T15:41:12Z</time>
      </trkpt>
      <trkpt lat="46.78486" lon="-2.07526">
        <ele>7</ele>
        <time>2018-04-28T15:42:12Z</time>
      </trkpt>
      <trkpt lat="46.78483" lon="-2.07518">
        <ele>7</ele>
        <time>2018-04-28T15:43:12Z</time>
      </trkpt>
      <trkpt lat="46.7848" lon="-2.07506">
        <ele>7</ele>
        <time>2018-04-28T15:44:12Z</time>
      </trkpt>
      <trkpt lat="46.78478" lon="-2.07495">
        <ele>7</ele>
        <time>2018-04-28T15:45:12Z</time>
      </trkpt>
      <trkpt lat="46.78478" lon="-2.07495">
        <ele>7</ele>
        <time>2018-04-28T15:46:12Z</time>
      </trkpt>
      <trkpt lat="46.78476" lon="-2.07492">
        <ele>7</ele>
        <time>2018-04-28T15:47:12Z</time>
      </trkpt>
      <trkpt lat="46.78474" lon="-2.07489">
        <ele>6</ele>
        <time>2018-04-28T15:48:12Z</time>
      </trkpt>
      <trkpt lat="46.78469" lon="-2.07477">
        <ele>6</ele>
        <time>2018-04-28T15:49:12Z</time>
      </trkpt>
      <trkpt lat="46.78461" lon="-2.07457">
        <ele>5</ele>
        <time>2018-04-28T15:50:12Z</time>
      </trkpt>
      <trkpt lat="46.78447" lon="-2.07424">
        <ele>5</ele>
        <time>2018-04-28T15:51:12Z</time>
      </trkpt>
      <trkpt lat="46.78446" lon="-2.0742">
        <ele>5</ele>
        <time>2018-04-28T15:52:12Z</time>
      </trkpt>
      <trkpt lat="46.78446" lon="-2.07416">
        <ele>5</ele>
        <time>2018-04-28T15:53:12Z</time>
      </trkpt>
      <trkpt lat="46.78446" lon="-2.07411">
        <ele>5</ele>
        <time>2018-04-28T15:54:12Z</time>
      </trkpt>
      <trkpt lat="46.78446" lon="-2.07411">
        <ele>5</ele>
        <time>2018-04-28T15:55:12Z</time>
      </trkpt>
      <trkpt lat="46.78443" lon="-2.0741">
        <ele>5</ele>
        <time>2018-04-28T15:56:12Z</time>
      </trkpt>
      <trkpt lat="46.78442" lon="-2.07409">
        <ele>5</ele>
        <time>2018-04-28T15:57:12Z</time>
      </trkpt>
      <trkpt lat="46.78441" lon="-2.07405">
        <ele>5</ele>
        <time>2018-04-28T15:58:12Z</time>
      </trkpt>
      <trkpt lat="46.7844" lon="-2.07403">
        <ele>5</ele>
        <time>2018-04-28T15:59:12Z</time>
      </trkpt>
      <trkpt lat="46.7844" lon="-2.07401">
        <ele>5</ele>
        <time>2018-04-28T16:00:12Z</time>
      </trkpt>
      <trkpt lat="46.7844" lon="-2.074">
        <ele>5</ele>
        <time>2018-04-28T16:01:12Z</time>
      </trkpt>
      <trkpt lat="46.78443" lon="-2.07395">
        <ele>5</ele>
        <time>2018-04-28T16:02:12Z</time>
      </trkpt>
      <trkpt lat="46.78446" lon="-2.07393">
        <ele>6</ele>
        <time>2018-04-28T16:03:12Z</time>
      </trkpt>
      <trkpt lat="46.78445" lon="-2.07389">
        <ele>6</ele>
        <time>2018-04-28T16:04:12Z</time>
      </trkpt>
      <trkpt lat="46.78443" lon="-2.07383">
        <ele>6</ele>
        <time>2018-04-28T16:05:12Z</time>
      </trkpt>
      <trkpt lat="46.78438" lon="-2.07372">
        <ele>6</ele>
        <time>2018-04-28T16:06:12Z</time>
      </trkpt>
      <trkpt lat="46.78429" lon="-2.07353">
        <ele>6</ele>
        <time>2018-04-28T16:07:12Z</time>
      </trkpt>
      <trkpt lat="46.78392" lon="-2.07277">
        <ele>7</ele>
        <time>2018-04-28T16:08:12Z</time>
      </trkpt>
      <trkpt lat="46.78355" lon="-2.07189">
        <ele>7</ele>
        <time>2018-04-28T16:09:12Z</time>
      </trkpt>
      <trkpt lat="46.78354" lon="-2.0719">
        <ele>7</ele>
        <time>2018-04-28T16:10:12Z</time>
      </trkpt>
      <trkpt lat="46.78351" lon="-2.0719">
        <ele>7</ele>
        <time>2018-04-28T16:11:12Z</time>
      </trkpt>
      <trkpt lat="46.78349" lon="-2.0719">
        <ele>7</ele>
        <time>2018-04-28T16:12:12Z</time>
      </trkpt>
      <trkpt lat="46.78347" lon="-2.07189">
        <ele>7</ele>
        <time>2018-04-28T16:13:12Z</time>
      </trkpt>
      <trkpt lat="46.78345" lon="-2.07188">
        <ele>7</ele>
        <time>2018-04-28T16:14:12Z</time>
      </trkpt>
      <trkpt lat="46.78344" lon="-2.07186">
        <ele>7</ele>
        <time>2018-04-28T16:15:12Z</time>
      </trkpt>
      <trkpt lat="46.78343" lon="-2.07182">
        <ele>7</ele>
        <time>2018-04-28T16:16:12Z</time>
      </trkpt>
      <trkpt lat="46.78342" lon="-2.07178">
        <ele>7</ele>
        <time>2018-04-28T16:17:12Z</time>
      </trkpt>
      <trkpt lat="46.78342" lon="-2.07175">
        <ele>7</ele>
        <time>2018-04-28T16:18:12Z</time>
      </trkpt>
      <trkpt lat="46.78343" lon="-2.07172">
        <ele>7</ele>
        <time>2018-04-28T16:19:12Z</time>
      </trkpt>
      <trkpt lat="46.78344" lon="-2.07169">
        <ele>7</ele>
        <time>2018-04-28T16:20:12Z</time>
      </trkpt>
      <trkpt lat="46.78346" lon="-2.07167">
        <ele>7</ele>
        <time>2018-04-28T16:21:12Z</time>
      </trkpt>
      <trkpt lat="46.78316" lon="-2.07111">
        <ele>6</ele>
        <time>2018-04-28T16:22:12Z</time>
      </trkpt>
      <trkpt lat="46.78294" lon="-2.07068">
        <ele>6</ele>
        <time>2018-04-28T16:23:12Z</time>
      </trkpt>
      <trkpt lat="46.78182" lon="-2.06864">
        <ele>6</ele>
        <time>2018-04-28T16:24:12Z</time>
      </trkpt>
      <trkpt lat="46.78178" lon="-2.06861">
        <ele>6</ele>
        <time>2018-04-28T16:25:12Z</time>
      </trkpt>
      <trkpt lat="46.78171" lon="-2.06848">
        <ele>6</ele>
        <time>2018-04-28T16:26:12Z</time>
      </trkpt>
      <trkpt lat="46.78166" lon="-2.06838">
        <ele>7</ele>
        <time>2018-04-28T16:27:12Z</time>
      </trkpt>
      <trkpt lat="46.78163" lon="-2.06831">
        <ele>7</ele>
        <time>2018-04-28T16:28:12Z</time>
      </trkpt>
      <trkpt lat="46.78162" lon="-2.06825">
        <ele>7</ele>
        <time>2018-04-28T16:29:12Z</time>
      </trkpt>
      <trkpt lat="46.78159" lon="-2.06816">
        <ele>7</ele>
        <time>2018-04-28T16:30:12Z</time>
      </trkpt>
      <trkpt lat="46.78159" lon="-2.06816">
        <ele>7</ele>
        <time>2018-04-28T16:31:12Z</time>
      </trkpt>
      <trkpt lat="46.78156" lon="-2.06815">
        <ele>6</ele>
        <time>2018-04-28T16:32:12Z</time>
      </trkpt>
      <trkpt lat="46.78153" lon="-2.06813">
        <ele>6</ele>
        <time>2018-04-28T16:33:12Z</time>
      </trkpt>
      <trkpt lat="46.78151" lon="-2.0681">
        <ele>6</ele>
        <time>2018-04-28T16:34:12Z</time>
      </trkpt>
      <trkpt lat="46.7815" lon="-2.06808">
        <ele>6</ele>
        <time>2018-04-28T16:35:12Z</time>
      </trkpt>
      <trkpt lat="46.7815" lon="-2.06806">
        <ele>6</ele>
        <time>2018-04-28T16:36:12Z</time>
      </trkpt>
      <trkpt lat="46.78149" lon="-2.06804">
        <ele>6</ele>
        <time>2018-04-28T16:37:12Z</time>
      </trkpt>
      <trkpt lat="46.78149" lon="-2.06798">
        <ele>6</ele>
        <time>2018-04-28T16:38:12Z</time>
      </trkpt>
      <trkpt lat="46.78145" lon="-2.06792">
        <ele>6</ele>
        <time>2018-04-28T16:39:12Z</time>
      </trkpt>
      <trkpt lat="46.78142" lon="-2.06787">
        <ele>6</ele>
        <time>2018-04-28T16:40:12Z</time>
      </trkpt>
      <trkpt lat="46.78139" lon="-2.06783">
        <ele>6</ele>
        <time>2018-04-28T16:41:12Z</time>
      </trkpt>
      <trkpt lat="46.78137" lon="-2.06777">
        <ele>6</ele>
        <time>2018-04-28T16:42:12Z</time>
      </trkpt>
      <trkpt lat="46.78131" lon="-2.0677">
        <ele>6</ele>
        <time>2018-04-28T16:43:12Z</time>
      </trkpt>
      <trkpt lat="46.78126" lon="-2.06763">
        <ele>6</ele>
        <time>2018-04-28T16:44:12Z</time>
      </trkpt>
      <trkpt lat="46.78121" lon="-2.06757">
        <ele>6</ele>
        <time>2018-04-28T16:45:12Z</time>
      </trkpt>
      <trkpt lat="46.78112" lon="-2.06743">
        <ele>7</ele>
        <time>2018-04-28T16:46:12Z</time>
      </trkpt>
      <trkpt lat="46.7811" lon="-2.0674">
        <ele>7</ele>
        <time>2018-04-28T16:47:12Z</time>
      </trkpt>
      <trkpt lat="46.78088" lon="-2.06704">
        <ele>11</ele>
        <time>2018-04-28T16:48:12Z</time>
      </trkpt>
      <trkpt lat="46.78074" lon="-2.06682">
        <ele>12</ele>
        <time>2018-04-28T16:49:12Z</time>
      </trkpt>
      <trkpt lat="46.78072" lon="-2.06678">
        <ele>12</ele>
        <time>2018-04-28T16:50:12Z</time>
      </trkpt>
      <trkpt lat="46.78069" lon="-2.0667">
        <ele>12</ele>
        <time>2018-04-28T16:51:12Z</time>
      </trkpt>
      <trkpt lat="46.78064" lon="-2.06651">
        <ele>12</ele>
        <time>2018-04-28T16:52:12Z</time>
      </trkpt>
      <trkpt lat="46.78061" lon="-2.0664">
        <ele>12</ele>
        <time>2018-04-28T16:53:12Z</time>
      </trkpt>
      <trkpt lat="46.78059" lon="-2.06635">
        <ele>11</ele>
        <time>2018-04-28T16:54:12Z</time>
      </trkpt>
      <trkpt lat="46.78028" lon="-2.06576">
        <ele>11</ele>
        <time>2018-04-28T16:55:12Z</time>
      </trkpt>
      <trkpt lat="46.78014" lon="-2.06553">
        <ele>12</ele>
        <time>2018-04-28T16:56:12Z</time>
      </trkpt>
      <trkpt lat="46.77986" lon="-2.06521">
        <ele>13</ele>
        <time>2018-04-28T16:57:12Z</time>
      </trkpt>
      <trkpt lat="46.77978" lon="-2.06513">
        <ele>12</ele>
        <time>2018-04-28T16:58:12Z</time>
      </trkpt>
      <trkpt lat="46.77971" lon="-2.06505">
        <ele>12</ele>
        <time>2018-04-28T16:59:12Z</time>
      </trkpt>
      <trkpt lat="46.77961" lon="-2.06489">
        <ele>12</ele>
        <time>2018-04-28T17:00:12Z</time>
      </trkpt>
      <trkpt lat="46.77957" lon="-2.0648">
        <ele>11</ele>
        <time>2018-04-28T17:01:12Z</time>
      </trkpt>
      <trkpt lat="46.77954" lon="-2.06467">
        <ele>11</ele>
        <time>2018-04-28T17:02:12Z</time>
      </trkpt>
      <trkpt lat="46.77952" lon="-2.0646">
        <ele>11</ele>
        <time>2018-04-28T17:03:12Z</time>
      </trkpt>
      <trkpt lat="46.77951" lon="-2.0645">
        <ele>11</ele>
        <time>2018-04-28T17:04:12Z</time>
      </trkpt>
      <trkpt lat="46.77951" lon="-2.06435">
        <ele>11</ele>
        <time>2018-04-28T17:05:12Z</time>
      </trkpt>
      <trkpt lat="46.77949" lon="-2.06414">
        <ele>11</ele>
        <time>2018-04-28T17:06:12Z</time>
      </trkpt>
      <trkpt lat="46.77948" lon="-2.06406">
        <ele>10</ele>
        <time>2018-04-28T17:07:12Z</time>
      </trkpt>
      <trkpt lat="46.77947" lon="-2.06401">
        <ele>10</ele>
        <time>2018-04-28T17:08:12Z</time>
      </trkpt>
      <trkpt lat="46.77943" lon="-2.06391">
        <ele>10</ele>
        <time>2018-04-28T17:09:12Z</time>
      </trkpt>
      <trkpt lat="46.77943" lon="-2.06391">
        <ele>10</ele>
        <time>2018-04-28T17:10:12Z</time>
      </trkpt>
      <trkpt lat="46.77942" lon="-2.06391">
        <ele>10</ele>
        <time>2018-04-28T17:11:12Z</time>
      </trkpt>
      <trkpt lat="46.77941" lon="-2.06392">
        <ele>10</ele>
        <time>2018-04-28T17:12:12Z</time>
      </trkpt>
      <trkpt lat="46.7794" lon="-2.06392">
        <ele>10</ele>
        <time>2018-04-28T17:13:12Z</time>
      </trkpt>
      <trkpt lat="46.77939" lon="-2.06392">
        <ele>10</ele>
        <time>2018-04-28T17:14:12Z</time>
      </trkpt>
      <trkpt lat="46.77938" lon="-2.06392">
        <ele>10</ele>
        <time>2018-04-28T17:15:12Z</time>
      </trkpt>
      <trkpt lat="46.77937" lon="-2.06392">
        <ele>10</ele>
        <time>2018-04-28T17:16:12Z</time>
      </trkpt>
      <trkpt lat="46.77936" lon="-2.06392">
        <ele>10</ele>
        <time>2018-04-28T17:17:12Z</time>
      </trkpt>
      <trkpt lat="46.77936" lon="-2.06391">
        <ele>10</ele>
        <time>2018-04-28T17:18:12Z</time>
      </trkpt>
      <trkpt lat="46.77935" lon="-2.06391">
        <ele>10</ele>
        <time>2018-04-28T17:19:12Z</time>
      </trkpt>
      <trkpt lat="46.77935" lon="-2.0639">
        <ele>10</ele>
        <time>2018-04-28T17:20:12Z</time>
      </trkpt>
      <trkpt lat="46.77934" lon="-2.0639">
        <ele>10</ele>
        <time>2018-04-28T17:21:12Z</time>
      </trkpt>
      <trkpt lat="46.77934" lon="-2.06389">
        <ele>10</ele>
        <time>2018-04-28T17:22:12Z</time>
      </trkpt>
      <trkpt lat="46.77933" lon="-2.06389">
        <ele>10</ele>
        <time>2018-04-28T17:23:12Z</time>
      </trkpt>
      <trkpt lat="46.77933" lon="-2.06388">
        <ele>10</ele>
        <time>2018-04-28T17:24:12Z</time>
      </trkpt>
      <trkpt lat="46.77932" lon="-2.06387">
        <ele>10</ele>
        <time>2018-04-28T17:25:12Z</time>
      </trkpt>
      <trkpt lat="46.77932" lon="-2.06386">
        <ele>10</ele>
        <time>2018-04-28T17:26:12Z</time>
      </trkpt>
      <trkpt lat="46.77932" lon="-2.06385">
        <ele>10</ele>
        <time>2018-04-28T17:27:12Z</time>
      </trkpt>
      <trkpt lat="46.77932" lon="-2.06384">
        <ele>10</ele>
        <time>2018-04-28T17:28:12Z</time>
      </trkpt>
      <trkpt lat="46.77932" lon="-2.06383">
        <ele>10</ele>
        <time>2018-04-28T17:29:12Z</time>
      </trkpt>
      <trkpt lat="46.77931" lon="-2.06382">
        <ele>10</ele>
        <time>2018-04-28T17:30:12Z</time>
      </trkpt>
      <trkpt lat="46.77931" lon="-2.06381">
        <ele>10</ele>
        <time>2018-04-28T17:31:12Z</time>
      </trkpt>
      <trkpt lat="46.77932" lon="-2.06381">
        <ele>10</ele>
        <time>2018-04-28T17:32:12Z</time>
      </trkpt>
      <trkpt lat="46.77932" lon="-2.0638">
        <ele>10</ele>
        <time>2018-04-28T17:33:12Z</time>
      </trkpt>
      <trkpt lat="46.77932" lon="-2.06379">
        <ele>10</ele>
        <time>2018-04-28T17:34:12Z</time>
      </trkpt>
      <trkpt lat="46.77932" lon="-2.06378">
        <ele>10</ele>
        <time>2018-04-28T17:35:12Z</time>
      </trkpt>
      <trkpt lat="46.77932" lon="-2.06377">
        <ele>10</ele>
        <time>2018-04-28T17:36:12Z</time>
      </trkpt>
      <trkpt lat="46.77933" lon="-2.06376">
        <ele>10</ele>
        <time>2018-04-28T17:37:12Z</time>
      </trkpt>
      <trkpt lat="46.77933" lon="-2.06375">
        <ele>10</ele>
        <time>2018-04-28T17:38:12Z</time>
      </trkpt>
      <trkpt lat="46.77926" lon="-2.06366">
        <ele>9</ele>
        <time>2018-04-28T17:39:12Z</time>
      </trkpt>
      <trkpt lat="46.7792" lon="-2.06361">
        <ele>9</ele>
        <time>2018-04-28T17:40:12Z</time>
      </trkpt>
      <trkpt lat="46.77912" lon="-2.06356">
        <ele>9</ele>
        <time>2018-04-28T17:41:12Z</time>
      </trkpt>
      <trkpt lat="46.77894" lon="-2.06349">
        <ele>8</ele>
        <time>2018-04-28T17:42:12Z</time>
      </trkpt>
      <trkpt lat="46.7789" lon="-2.06347">
        <ele>8</ele>
        <time>2018-04-28T17:43:12Z</time>
      </trkpt>
      <trkpt lat="46.77885" lon="-2.06342">
        <ele>8</ele>
        <time>2018-04-28T17:44:12Z</time>
      </trkpt>
      <trkpt lat="46.77879" lon="-2.06338">
        <ele>8</ele>
        <time>2018-04-28T17:45:12Z</time>
      </trkpt>
      <trkpt lat="46.77876" lon="-2.06335">
        <ele>8</ele>
        <time>2018-04-28T17:46:12Z</time>
      </trkpt>
      <trkpt lat="46.77872" lon="-2.06329">
        <ele>8</ele>
        <time>2018-04-28T17:47:12Z</time>
      </trkpt>
      <trkpt lat="46.7787" lon="-2.06326">
        <ele>8</ele>
        <time>2018-04-28T17:48:12Z</time>
      </trkpt>
      <trkpt lat="46.77823" lon="-2.06245">
        <ele>10</ele>
        <time>2018-04-28T17:49:12Z</time>
      </trkpt>
      <trkpt lat="46.77806" lon="-2.0623">
        <ele>9</ele>
        <time>2018-04-28T17:50:12Z</time>
      </trkpt>
      <trkpt lat="46.77797" lon="-2.06223">
        <ele>8</ele>
        <time>2018-04-28T17:51:12Z</time>
      </trkpt>
      <trkpt lat="46.77797" lon="-2.06223">
        <ele>8</ele>
        <time>2018-04-28T17:52:12Z</time>
      </trkpt>
      <trkpt lat="46.77796" lon="-2.06224">
        <ele>8</ele>
        <time>2018-04-28T17:53:12Z</time>
      </trkpt>
      <trkpt lat="46.77795" lon="-2.06224">
        <ele>8</ele>
        <time>2018-04-28T17:54:12Z</time>
      </trkpt>
      <trkpt lat="46.77794" lon="-2.06224">
        <ele>8</ele>
        <time>2018-04-28T17:55:12Z</time>
      </trkpt>
      <trkpt lat="46.77793" lon="-2.06224">
        <ele>8</ele>
        <time>2018-04-28T17:56:12Z</time>
      </trkpt>
      <trkpt lat="46.77792" lon="-2.06224">
        <ele>8</ele>
        <time>2018-04-28T17:57:12Z</time>
      </trkpt>
      <trkpt lat="46.77791" lon="-2.06224">
        <ele>8</ele>
        <time>2018-04-28T17:58:12Z</time>
      </trkpt>
      <trkpt lat="46.7779" lon="-2.06223">
        <ele>8</ele>
        <time>2018-04-28T17:59:12Z</time>
      </trkpt>
      <trkpt lat="46.77789" lon="-2.06223">
        <ele>8</ele>
        <time>2018-04-28T18:00:12Z</time>
      </trkpt>
      <trkpt lat="46.77789" lon="-2.06222">
        <ele>8</ele>
        <time>2018-04-28T18:01:12Z</time>
      </trkpt>
      <trkpt lat="46.77788" lon="-2.06222">
        <ele>8</ele>
        <time>2018-04-28T18:02:12Z</time>
      </trkpt>
      <trkpt lat="46.77788" lon="-2.06221">
        <ele>8</ele>
        <time>2018-04-28T18:03:12Z</time>
      </trkpt>
      <trkpt lat="46.77787" lon="-2.06221">
        <ele>8</ele>
        <time>2018-04-28T18:04:12Z</time>
      </trkpt>
      <trkpt lat="46.77787" lon="-2.0622">
        <ele>8</ele>
        <time>2018-04-28T18:05:12Z</time>
      </trkpt>
      <trkpt lat="46.77787" lon="-2.06219">
        <ele>8</ele>
        <time>2018-04-28T18:06:12Z</time>
      </trkpt>
      <trkpt lat="46.77786" lon="-2.06219">
        <ele>8</ele>
        <time>2018-04-28T18:07:12Z</time>
      </trkpt>
      <trkpt lat="46.77786" lon="-2.06218">
        <ele>8</ele>
        <time>2018-04-28T18:08:12Z</time>
      </trkpt>
      <trkpt lat="46.77786" lon="-2.06217">
        <ele>8</ele>
        <time>2018-04-28T18:09:12Z</time>
      </trkpt>
      <trkpt lat="46.77785" lon="-2.06216">
        <ele>8</ele>
        <time>2018-04-28T18:10:12Z</time>
      </trkpt>
      <trkpt lat="46.77785" lon="-2.06215">
        <ele>8</ele>
        <time>2018-04-28T18:11:12Z</time>
      </trkpt>
      <trkpt lat="46.77785" lon="-2.06214">
        <ele>8</ele>
        <time>2018-04-28T18:12:12Z</time>
      </trkpt>
      <trkpt lat="46.77785" lon="-2.06213">
        <ele>8</ele>
        <time>2018-04-28T18:13:12Z</time>
      </trkpt>
      <trkpt lat="46.77785" lon="-2.06212">
        <ele>8</ele>
        <time>2018-04-28T18:14:12Z</time>
      </trkpt>
      <trkpt lat="46.77785" lon="-2.06211">
        <ele>8</ele>
        <time>2018-04-28T18:15:12Z</time>
      </trkpt>
      <trkpt lat="46.77785" lon="-2.0621">
        <ele>8</ele>
        <time>2018-04-28T18:16:12Z</time>
      </trkpt>
      <trkpt lat="46.77785" lon="-2.06209">
        <ele>8</ele>
        <time>2018-04-28T18:17:12Z</time>
      </trkpt>
      <trkpt lat="46.77785" lon="-2.06208">
        <ele>8</ele>
        <time>2018-04-28T18:18:12Z</time>
      </trkpt>
      <trkpt lat="46.77785" lon="-2.06207">
        <ele>8</ele>
        <time>2018-04-28T18:19:12Z</time>
      </trkpt>
      <trkpt lat="46.77786" lon="-2.06207">
        <ele>8</ele>
        <time>2018-04-28T18:20:12Z</time>
      </trkpt>
      <trkpt lat="46.77786" lon="-2.06206">
        <ele>8</ele>
        <time>2018-04-28T18:21:12Z</time>
      </trkpt>
      <trkpt lat="46.77786" lon="-2.06205">
        <ele>8</ele>
        <time>2018-04-28T18:22:12Z</time>
      </trkpt>
      <trkpt lat="46.77787" lon="-2.06204">
        <ele>8</ele>
        <time>2018-04-28T18:23:12Z</time>
      </trkpt>
      <trkpt lat="46.77787" lon="-2.06203">
        <ele>8</ele>
        <time>2018-04-28T18:24:12Z</time>
      </trkpt>
      <trkpt lat="46.77785" lon="-2.06194">
        <ele>8</ele>
        <time>2018-04-28T18:25:12Z</time>
      </trkpt>
      <trkpt lat="46.77777" lon="-2.06176">
        <ele>9</ele>
        <time>2018-04-28T18:26:12Z</time>
      </trkpt>
      <trkpt lat="46.77776" lon="-2.06174">
        <ele>9</ele>
        <time>2018-04-28T18:27:12Z</time>
      </trkpt>
      <trkpt lat="46.77775" lon="-2.06166">
        <ele>9</ele>
        <time>2018-04-28T18:28:12Z</time>
      </trkpt>
      <trkpt lat="46.7775" lon="-2.06121">
        <ele>10</ele>
        <time>2018-04-28T18:29:12Z</time>
      </trkpt>
      <trkpt lat="46.77736" lon="-2.06094">
        <ele>9</ele>
        <time>2018-04-28T18:30:12Z</time>
      </trkpt>
      <trkpt lat="46.7773" lon="-2.0609">
        <ele>8</ele>
        <time>2018-04-28T18:31:12Z</time>
      </trkpt>
      <trkpt lat="46.77717" lon="-2.06072">
        <ele>7</ele>
        <time>2018-04-28T18:32:12Z</time>
      </trkpt>
      <trkpt lat="46.77717" lon="-2.06072">
        <ele>7</ele>
        <time>2018-04-28T18:33:12Z</time>
      </trkpt>
      <trkpt lat="46.77715" lon="-2.06074">
        <ele>7</ele>
        <time>2018-04-28T18:34:12Z</time>
      </trkpt>
      <trkpt lat="46.77714" lon="-2.06075">
        <ele>7</ele>
        <time>2018-04-28T18:35:12Z</time>
      </trkpt>
      <trkpt lat="46.77712" lon="-2.06075">
        <ele>7</ele>
        <time>2018-04-28T18:36:12Z</time>
      </trkpt>
      <trkpt lat="46.77711" lon="-2.06075">
        <ele>7</ele>
        <time>2018-04-28T18:37:12Z</time>
      </trkpt>
      <trkpt lat="46.77708" lon="-2.06075">
        <ele>6</ele>
        <time>2018-04-28T18:38:12Z</time>
      </trkpt>
      <trkpt lat="46.77706" lon="-2.06075">
        <ele>6</ele>
        <time>2018-04-28T18:39:12Z</time>
      </trkpt>
      <trkpt lat="46.77704" lon="-2.06074">
        <ele>6</ele>
        <time>2018-04-28T18:40:12Z</time>
      </trkpt>
      <trkpt lat="46.77703" lon="-2.06072">
        <ele>6</ele>
        <time>2018-04-28T18:41:12Z</time>
      </trkpt>
      <trkpt lat="46.77701" lon="-2.06069">
        <ele>6</ele>
        <time>2018-04-28T18:42:12Z</time>
      </trkpt>
      <trkpt lat="46.777" lon="-2.06065">
        <ele>6</ele>
        <time>2018-04-28T18:43:12Z</time>
      </trkpt>
      <trkpt lat="46.77699" lon="-2.06061">
        <ele>6</ele>
        <time>2018-04-28T18:44:12Z</time>
      </trkpt>
      <trkpt lat="46.77699" lon="-2.06056">
        <ele>6</ele>
        <time>2018-04-28T18:45:12Z</time>
      </trkpt>
      <trkpt lat="46.777" lon="-2.06055">
        <ele>6</ele>
        <time>2018-04-28T18:46:12Z</time>
      </trkpt>
      <trkpt lat="46.77701" lon="-2.06051">
        <ele>6</ele>
        <time>2018-04-28T18:47:12Z</time>
      </trkpt>
      <trkpt lat="46.77698" lon="-2.06041">
        <ele>6</ele>
        <time>2018-04-28T18:48:12Z</time>
      </trkpt>
      <trkpt lat="46.77697" lon="-2.06036">
        <ele>6</ele>
        <time>2018-04-28T18:49:12Z</time>
      </trkpt>
      <trkpt lat="46.77695" lon="-2.06032">
        <ele>6</ele>
        <time>2018-04-28T18:50:12Z</time>
      </trkpt>
      <trkpt lat="46.77667" lon="-2.05987">
        <ele>8</ele>
        <time>2018-04-28T18:51:12Z</time>
      </trkpt>
      <trkpt lat="46.77628" lon="-2.05927">
        <ele>6</ele>
        <time>2018-04-28T18:52:12Z</time>
      </trkpt>
      <trkpt lat="46.77611" lon="-2.05903">
        <ele>6</ele>
        <time>2018-04-28T18:53:12Z</time>
      </trkpt>
      <trkpt lat="46.77605" lon="-2.05899">
        <ele>6</ele>
        <time>2018-04-28T18:54:12Z</time>
      </trkpt>
      <trkpt lat="46.77597" lon="-2.05891">
        <ele>6</ele>
        <time>2018-04-28T18:55:12Z</time>
      </trkpt>
      <trkpt lat="46.7759" lon="-2.05884">
        <ele>6</ele>
        <time>2018-04-28T18:56:12Z</time>
      </trkpt>
      <trkpt lat="46.7759" lon="-2.05884">
        <ele>6</ele>
        <time>2018-04-28T18:57:12Z</time>
      </trkpt>
      <trkpt lat="46.7759" lon="-2.05885">
        <ele>6</ele>
        <time>2018-04-28T18:58:12Z</time>
      </trkpt>
      <trkpt lat="46.77588" lon="-2.05886">
        <ele>6</ele>
        <time>2018-04-28T18:59:12Z</time>
      </trkpt>
      <trkpt lat="46.77586" lon="-2.05887">
        <ele>6</ele>
        <time>2018-04-28T19:00:12Z</time>
      </trkpt>
      <trkpt lat="46.77585" lon="-2.05887">
        <ele>6</ele>
        <time>2018-04-28T19:01:12Z</time>
      </trkpt>
      <trkpt lat="46.77583" lon="-2.05886">
        <ele>6</ele>
        <time>2018-04-28T19:02:12Z</time>
      </trkpt>
      <trkpt lat="46.77581" lon="-2.05885">
        <ele>6</ele>
        <time>2018-04-28T19:03:12Z</time>
      </trkpt>
      <trkpt lat="46.77578" lon="-2.05883">
        <ele>6</ele>
        <time>2018-04-28T19:04:12Z</time>
      </trkpt>
      <trkpt lat="46.77576" lon="-2.0588">
        <ele>6</ele>
        <time>2018-04-28T19:05:12Z</time>
      </trkpt>
      <trkpt lat="46.77575" lon="-2.05877">
        <ele>6</ele>
        <time>2018-04-28T19:06:12Z</time>
      </trkpt>
      <trkpt lat="46.77574" lon="-2.05873">
        <ele>6</ele>
        <time>2018-04-28T19:07:12Z</time>
      </trkpt>
      <trkpt lat="46.77575" lon="-2.05871">
        <ele>6</ele>
        <time>2018-04-28T19:08:12Z</time>
      </trkpt>
      <trkpt lat="46.77575" lon="-2.05868">
        <ele>6</ele>
        <time>2018-04-28T19:09:12Z</time>
      </trkpt>
      <trkpt lat="46.77577" lon="-2.05866">
        <ele>6</ele>
        <time>2018-04-28T19:10:12Z</time>
      </trkpt>
      <trkpt lat="46.77578" lon="-2.05864">
        <ele>6</ele>
        <time>2018-04-28T19:11:12Z</time>
      </trkpt>
      <trkpt lat="46.77573" lon="-2.05851">
        <ele>6</ele>
        <time>2018-04-28T19:12:12Z</time>
      </trkpt>
      <trkpt lat="46.77571" lon="-2.05843">
        <ele>7</ele>
        <time>2018-04-28T19:13:12Z</time>
      </trkpt>
      <trkpt lat="46.77489" lon="-2.05715">
        <ele>10</ele>
        <time>2018-04-28T19:14:12Z</time>
      </trkpt>
      <trkpt lat="46.77482" lon="-2.05711">
        <ele>9</ele>
        <time>2018-04-28T19:15:12Z</time>
      </trkpt>
      <trkpt lat="46.77471" lon="-2.05705">
        <ele>8</ele>
        <time>2018-04-28T19:16:12Z</time>
      </trkpt>
      <trkpt lat="46.77471" lon="-2.05705">
        <ele>8</ele>
        <time>2018-04-28T19:17:12Z</time>
      </trkpt>
      <trkpt lat="46.77468" lon="-2.05707">
        <ele>8</ele>
        <time>2018-04-28T19:18:12Z</time>
      </trkpt>
      <trkpt lat="46.77464" lon="-2.05709">
        <ele>8</ele>
        <time>2018-04-28T19:19:12Z</time>
      </trkpt>
      <trkpt lat="46.7746" lon="-2.05709">
        <ele>8</ele>
        <time>2018-04-28T19:20:12Z</time>
      </trkpt>
      <trkpt lat="46.77457" lon="-2.05707">
        <ele>7</ele>
        <time>2018-04-28T19:21:12Z</time>
      </trkpt>
      <trkpt lat="46.77455" lon="-2.05704">
        <ele>7</ele>
        <time>2018-04-28T19:22:12Z</time>
      </trkpt>
      <trkpt lat="46.77453" lon="-2.05701">
        <ele>7</ele>
        <time>2018-04-28T19:23:12Z</time>
      </trkpt>
      <trkpt lat="46.77452" lon="-2.05697">
        <ele>7</ele>
        <time>2018-04-28T19:24:12Z</time>
      </trkpt>
      <trkpt lat="46.77451" lon="-2.05693">
        <ele>7</ele>
        <time>2018-04-28T19:25:12Z</time>
      </trkpt>
      <trkpt lat="46.77444" lon="-2.05688">
        <ele>7</ele>
        <time>2018-04-28T19:26:12Z</time>
      </trkpt>
      <trkpt lat="46.7744" lon="-2.05685">
        <ele>6</ele>
        <time>2018-04-28T19:27:12Z</time>
      </trkpt>
      <trkpt lat="46.77436" lon="-2.05682">
        <ele>6</ele>
        <time>2018-04-28T19:28:12Z</time>
      </trkpt>
      <trkpt lat="46.77433" lon="-2.05678">
        <ele>6</ele>
        <time>2018-04-28T19:29:12Z</time>
      </trkpt>
      <trkpt lat="46.77422" lon="-2.05664">
        <ele>6</ele>
        <time>2018-04-28T19:30:12Z</time>
      </trkpt>
      <trkpt lat="46.77414" lon="-2.05654">
        <ele>6</ele>
        <time>2018-04-28T19:31:12Z</time>
      </trkpt>
      <trkpt lat="46.77409" lon="-2.05643">
        <ele>7</ele>
        <time>2018-04-28T19:32:12Z</time>
      </trkpt>
      <trkpt lat="46.77402" lon="-2.05628">
        <ele>7</ele>
        <time>2018-04-28T19:33:12Z</time>
      </trkpt>
      <trkpt lat="46.77393" lon="-2.05613">
        <ele>8</ele>
        <time>2018-04-28T19:34:12Z</time>
      </trkpt>
      <trkpt lat="46.77383" lon="-2.05599">
        <ele>8</ele>
        <time>2018-04-28T19:35:12Z</time>
      </trkpt>
      <trkpt lat="46.77372" lon="-2.05588">
        <ele>8</ele>
        <time>2018-04-28T19:36:12Z</time>
      </trkpt>
      <trkpt lat="46.77366" lon="-2.05582">
        <ele>8</ele>
        <time>2018-04-28T19:37:12Z</time>
      </trkpt>
      <trkpt lat="46.77361" lon="-2.05578">
        <ele>8</ele>
        <time>2018-04-28T19:38:12Z</time>
      </trkpt>
      <trkpt lat="46.77354" lon="-2.05573">
        <ele>8</ele>
        <time>2018-04-28T19:39:12Z</time>
      </trkpt>
      <trkpt lat="46.77349" lon="-2.05565">
        <ele>8</ele>
        <time>2018-04-28T19:40:12Z</time>
      </trkpt>
      <trkpt lat="46.77321" lon="-2.05526">
        <ele>10</ele>
        <time>2018-04-28T19:41:12Z</time>
      </trkpt>
      <trkpt lat="46.77319" lon="-2.05524">
        <ele>9</ele>
        <time>2018-04-28T19:42:12Z</time>
      </trkpt>
      <trkpt lat="46.77318" lon="-2.05522">
        <ele>10</ele>
        <time>2018-04-28T19:43:12Z</time>
      </trkpt>
      <trkpt lat="46.77316" lon="-2.05518">
        <ele>10</ele>
        <time>2018-04-28T19:44:12Z</time>
      </trkpt>
      <trkpt lat="46.77312" lon="-2.0551">
        <ele>10</ele>
        <time>2018-04-28T19:45:12Z</time>
      </trkpt>
      <trkpt lat="46.77312" lon="-2.0551">
        <ele>10</ele>
        <time>2018-04-28T19:46:12Z</time>
      </trkpt>
      <trkpt lat="46.7731" lon="-2.05511">
        <ele>9</ele>
        <time>2018-04-28T19:47:12Z</time>
      </trkpt>
      <trkpt lat="46.77308" lon="-2.0551">
        <ele>9</ele>
        <time>2018-04-28T19:48:12Z</time>
      </trkpt>
      <trkpt lat="46.77306" lon="-2.05508">
        <ele>9</ele>
        <time>2018-04-28T19:49:12Z</time>
      </trkpt>
      <trkpt lat="46.77304" lon="-2.05505">
        <ele>9</ele>
        <time>2018-04-28T19:50:12Z</time>
      </trkpt>
      <trkpt lat="46.77303" lon="-2.05501">
        <ele>9</ele>
        <time>2018-04-28T19:51:12Z</time>
      </trkpt>
      <trkpt lat="46.77302" lon="-2.05498">
        <ele>9</ele>
        <time>2018-04-28T19:52:12Z</time>
      </trkpt>
      <trkpt lat="46.77299" lon="-2.05496">
        <ele>9</ele>
        <time>2018-04-28T19:53:12Z</time>
      </trkpt>
      <trkpt lat="46.77298" lon="-2.05494">
        <ele>9</ele>
        <time>2018-04-28T19:54:12Z</time>
      </trkpt>
      <trkpt lat="46.77257" lon="-2.05435">
        <ele>7</ele>
        <time>2018-04-28T19:55:12Z</time>
      </trkpt>
      <trkpt lat="46.77253" lon="-2.05427">
        <ele>7</ele>
        <time>2018-04-28T19:56:12Z</time>
      </trkpt>
      <trkpt lat="46.7725" lon="-2.05419">
        <ele>7</ele>
        <time>2018-04-28T19:57:12Z</time>
      </trkpt>
      <trkpt lat="46.7725" lon="-2.0542">
        <ele>7</ele>
        <time>2018-04-28T19:58:12Z</time>
      </trkpt>
      <trkpt lat="46.77249" lon="-2.0542">
        <ele>7</ele>
        <time>2018-04-28T19:59:12Z</time>
      </trkpt>
      <trkpt lat="46.77249" lon="-2.05419">
        <ele>7</ele>
        <time>2018-04-28T20:00:12Z</time>
      </trkpt>
      <trkpt lat="46.77248" lon="-2.05419">
        <ele>7</ele>
        <time>2018-04-28T20:01:12Z</time>
      </trkpt>
      <trkpt lat="46.77247" lon="-2.05419">
        <ele>7</ele>
        <time>2018-04-28T20:02:12Z</time>
      </trkpt>
      <trkpt lat="46.77246" lon="-2.05418">
        <ele>7</ele>
        <time>2018-04-28T20:03:12Z</time>
      </trkpt>
      <trkpt lat="46.77245" lon="-2.05418">
        <ele>7</ele>
        <time>2018-04-28T20:04:12Z</time>
      </trkpt>
      <trkpt lat="46.77245" lon="-2.05417">
        <ele>7</ele>
        <time>2018-04-28T20:05:12Z</time>
      </trkpt>
      <trkpt lat="46.77244" lon="-2.05417">
        <ele>7</ele>
        <time>2018-04-28T20:06:12Z</time>
      </trkpt>
      <trkpt lat="46.77244" lon="-2.05416">
        <ele>7</ele>
        <time>2018-04-28T20:07:12Z</time>
      </trkpt>
      <trkpt lat="46.77243" lon="-2.05415">
        <ele>7</ele>
        <time>2018-04-28T20:08:12Z</time>
      </trkpt>
      <trkpt lat="46.77243" lon="-2.05414">
        <ele>7</ele>
        <time>2018-04-28T20:09:12Z</time>
      </trkpt>
      <trkpt lat="46.77243" lon="-2.05413">
        <ele>7</ele>
        <time>2018-04-28T20:10:12Z</time>
      </trkpt>
      <trkpt lat="46.77242" lon="-2.05413">
        <ele>6</ele>
        <time>2018-04-28T20:11:12Z</time>
      </trkpt>
      <trkpt lat="46.77242" lon="-2.05412">
        <ele>6</ele>
        <time>2018-04-28T20:12:12Z</time>
      </trkpt>
      <trkpt lat="46.77242" lon="-2.05411">
        <ele>6</ele>
        <time>2018-04-28T20:13:12Z</time>
      </trkpt>
      <trkpt lat="46.77242" lon="-2.0541">
        <ele>6</ele>
        <time>2018-04-28T20:14:12Z</time>
      </trkpt>
      <trkpt lat="46.77235" lon="-2.05404">
        <ele>6</ele>
        <time>2018-04-28T20:15:12Z</time>
      </trkpt>
      <trkpt lat="46.77155" lon="-2.05296">
        <ele>6</ele>
        <time>2018-04-28T20:16:12Z</time>
      </trkpt>
      <trkpt lat="46.77152" lon="-2.0529">
        <ele>6</ele>
        <time>2018-04-28T20:17:12Z</time>
      </trkpt>
      <trkpt lat="46.77149" lon="-2.05284">
        <ele>6</ele>
        <time>2018-04-28T20:18:12Z</time>
      </trkpt>
      <trkpt lat="46.77149" lon="-2.05284">
        <ele>6</ele>
        <time>2018-04-28T20:19:12Z</time>
      </trkpt>
      <trkpt lat="46.77148" lon="-2.05285">
        <ele>6</ele>
        <time>2018-04-28T20:20:12Z</time>
      </trkpt>
      <trkpt lat="46.77147" lon="-2.05285">
        <ele>6</ele>
        <time>2018-04-28T20:21:12Z</time>
      </trkpt>
      <trkpt lat="46.77146" lon="-2.05285">
        <ele>6</ele>
        <time>2018-04-28T20:22:12Z</time>
      </trkpt>
      <trkpt lat="46.77145" lon="-2.05285">
        <ele>6</ele>
        <time>2018-04-28T20:23:12Z</time>
      </trkpt>
      <trkpt lat="46.77144" lon="-2.05285">
        <ele>6</ele>
        <time>2018-04-28T20:24:12Z</time>
      </trkpt>
      <trkpt lat="46.77143" lon="-2.05285">
        <ele>6</ele>
        <time>2018-04-28T20:25:12Z</time>
      </trkpt>
      <trkpt lat="46.77143" lon="-2.05284">
        <ele>6</ele>
        <time>2018-04-28T20:26:12Z</time>
      </trkpt>
      <trkpt lat="46.77142" lon="-2.05284">
        <ele>6</ele>
        <time>2018-04-28T20:27:12Z</time>
      </trkpt>
      <trkpt lat="46.77141" lon="-2.05283">
        <ele>6</ele>
        <time>2018-04-28T20:28:12Z</time>
      </trkpt>
      <trkpt lat="46.7714" lon="-2.05282">
        <ele>6</ele>
        <time>2018-04-28T20:29:12Z</time>
      </trkpt>
      <trkpt lat="46.7714" lon="-2.05281">
        <ele>6</ele>
        <time>2018-04-28T20:30:12Z</time>
      </trkpt>
      <trkpt lat="46.77139" lon="-2.05281">
        <ele>6</ele>
        <time>2018-04-28T20:31:12Z</time>
      </trkpt>
      <trkpt lat="46.77139" lon="-2.0528">
        <ele>6</ele>
        <time>2018-04-28T20:32:12Z</time>
      </trkpt>
      <trkpt lat="46.77138" lon="-2.0528">
        <ele>6</ele>
        <time>2018-04-28T20:33:12Z</time>
      </trkpt>
      <trkpt lat="46.77138" lon="-2.05279">
        <ele>6</ele>
        <time>2018-04-28T20:34:12Z</time>
      </trkpt>
      <trkpt lat="46.77138" lon="-2.05278">
        <ele>6</ele>
        <time>2018-04-28T20:35:12Z</time>
      </trkpt>
      <trkpt lat="46.77138" lon="-2.05277">
        <ele>6</ele>
        <time>2018-04-28T20:36:12Z</time>
      </trkpt>
      <trkpt lat="46.77137" lon="-2.05277">
        <ele>6</ele>
        <time>2018-04-28T20:37:12Z</time>
      </trkpt>
      <trkpt lat="46.77137" lon="-2.05276">
        <ele>6</ele>
        <time>2018-04-28T20:38:12Z</time>
      </trkpt>
      <trkpt lat="46.77137" lon="-2.05275">
        <ele>6</ele>
        <time>2018-04-28T20:39:12Z</time>
      </trkpt>
      <trkpt lat="46.77137" lon="-2.05274">
        <ele>6</ele>
        <time>2018-04-28T20:40:12Z</time>
      </trkpt>
      <trkpt lat="46.77137" lon="-2.05273">
        <ele>6</ele>
        <time>2018-04-28T20:41:12Z</time>
      </trkpt>
      <trkpt lat="46.77137" lon="-2.05272">
        <ele>6</ele>
        <time>2018-04-28T20:42:12Z</time>
      </trkpt>
      <trkpt lat="46.77137" lon="-2.05271">
        <ele>6</ele>
        <time>2018-04-28T20:43:12Z</time>
      </trkpt>
      <trkpt lat="46.77132" lon="-2.05271">
        <ele>6</ele>
        <time>2018-04-28T20:44:12Z</time>
      </trkpt>
      <trkpt lat="46.77126" lon="-2.05268">
        <ele>6</ele>
        <time>2018-04-28T20:45:12Z</time>
      </trkpt>
      <trkpt lat="46.77092" lon="-2.05214">
        <ele>7</ele>
        <time>2018-04-28T20:46:12Z</time>
      </trkpt>
      <trkpt lat="46.77086" lon="-2.05204">
        <ele>7</ele>
        <time>2018-04-28T20:47:12Z</time>
      </trkpt>
      <trkpt lat="46.77081" lon="-2.05195">
        <ele>7</ele>
        <time>2018-04-28T20:48:12Z</time>
      </trkpt>
      <trkpt lat="46.77081" lon="-2.05195">
        <ele>7</ele>
        <time>2018-04-28T20:49:12Z</time>
      </trkpt>
      <trkpt lat="46.77076" lon="-2.05174">
        <ele>8</ele>
        <time>2018-04-28T20:50:12Z</time>
      </trkpt>
      <trkpt lat="46.77076" lon="-2.05174">
        <ele>8</ele>
        <time>2018-04-28T20:51:12Z</time>
      </trkpt>
      <trkpt lat="46.77075" lon="-2.05173">
        <ele>8</ele>
        <time>2018-04-28T20:52:12Z</time>
      </trkpt>
      <trkpt lat="46.77074" lon="-2.05172">
        <ele>8</ele>
        <time>2018-04-28T20:53:12Z</time>
      </trkpt>
      <trkpt lat="46.77074" lon="-2.05171">
        <ele>8</ele>
        <time>2018-04-28T20:54:12Z</time>
      </trkpt>
      <trkpt lat="46.77073" lon="-2.05171">
        <ele>8</ele>
        <time>2018-04-28T20:55:12Z</time>
      </trkpt>
      <trkpt lat="46.77073" lon="-2.0517">
        <ele>8</ele>
        <time>2018-04-28T20:56:12Z</time>
      </trkpt>
      <trkpt lat="46.77073" lon="-2.05169">
        <ele>8</ele>
        <time>2018-04-28T20:57:12Z</time>
      </trkpt>
      <trkpt lat="46.77072" lon="-2.05169">
        <ele>8</ele>
        <time>2018-04-28T20:58:12Z</time>
      </trkpt>
      <trkpt lat="46.77072" lon="-2.05168">
        <ele>8</ele>
        <time>2018-04-28T20:59:12Z</time>
      </trkpt>
      <trkpt lat="46.77072" lon="-2.05167">
        <ele>8</ele>
        <time>2018-04-28T21:00:12Z</time>
      </trkpt>
      <trkpt lat="46.77071" lon="-2.05166">
        <ele>8</ele>
        <time>2018-04-28T21:01:12Z</time>
      </trkpt>
      <trkpt lat="46.77071" lon="-2.05165">
        <ele>8</ele>
        <time>2018-04-28T21:02:12Z</time>
      </trkpt>
      <trkpt lat="46.77071" lon="-2.05164">
        <ele>8</ele>
        <time>2018-04-28T21:03:12Z</time>
      </trkpt>
      <trkpt lat="46.77071" lon="-2.05163">
        <ele>8</ele>
        <time>2018-04-28T21:04:12Z</time>
      </trkpt>
      <trkpt lat="46.77071" lon="-2.05162">
        <ele>8</ele>
        <time>2018-04-28T21:05:12Z</time>
      </trkpt>
      <trkpt lat="46.77071" lon="-2.05161">
        <ele>8</ele>
        <time>2018-04-28T21:06:12Z</time>
      </trkpt>
      <trkpt lat="46.77071" lon="-2.0516">
        <ele>8</ele>
        <time>2018-04-28T21:07:12Z</time>
      </trkpt>
      <trkpt lat="46.77071" lon="-2.05159">
        <ele>8</ele>
        <time>2018-04-28T21:08:12Z</time>
      </trkpt>
      <trkpt lat="46.77071" lon="-2.05158">
        <ele>8</ele>
        <time>2018-04-28T21:09:12Z</time>
      </trkpt>
      <trkpt lat="46.77072" lon="-2.05157">
        <ele>8</ele>
        <time>2018-04-28T21:10:12Z</time>
      </trkpt>
      <trkpt lat="46.77072" lon="-2.05156">
        <ele>8</ele>
        <time>2018-04-28T21:11:12Z</time>
      </trkpt>
      <trkpt lat="46.77072" lon="-2.05155">
        <ele>8</ele>
        <time>2018-04-28T21:12:12Z</time>
      </trkpt>
      <trkpt lat="46.77073" lon="-2.05154">
        <ele>8</ele>
        <time>2018-04-28T21:13:12Z</time>
      </trkpt>
      <trkpt lat="46.77073" lon="-2.05153">
        <ele>8</ele>
        <time>2018-04-28T21:14:12Z</time>
      </trkpt>
      <trkpt lat="46.77074" lon="-2.05152">
        <ele>8</ele>
        <time>2018-04-28T21:15:12Z</time>
      </trkpt>
      <trkpt lat="46.77075" lon="-2.05151">
        <ele>8</ele>
        <time>2018-04-28T21:16:12Z</time>
      </trkpt>
      <trkpt lat="46.77076" lon="-2.0515">
        <ele>8</ele>
        <time>2018-04-28T21:17:12Z</time>
      </trkpt>
      <trkpt lat="46.77077" lon="-2.0515">
        <ele>8</ele>
        <time>2018-04-28T21:18:12Z</time>
      </trkpt>
      <trkpt lat="46.77077" lon="-2.05149">
        <ele>8</ele>
        <time>2018-04-28T21:19:12Z</time>
      </trkpt>
      <trkpt lat="46.77078" lon="-2.05149">
        <ele>8</ele>
        <time>2018-04-28T21:20:12Z</time>
      </trkpt>
      <trkpt lat="46.77079" lon="-2.05149">
        <ele>8</ele>
        <time>2018-04-28T21:21:12Z</time>
      </trkpt>
      <trkpt lat="46.7708" lon="-2.05149">
        <ele>8</ele>
        <time>2018-04-28T21:22:12Z</time>
      </trkpt>
      <trkpt lat="46.77093" lon="-2.05124">
        <ele>8</ele>
        <time>2018-04-28T21:23:12Z</time>
      </trkpt>
      <trkpt lat="46.77093" lon="-2.05124">
        <ele>8</ele>
        <time>2018-04-28T21:24:12Z</time>
      </trkpt>
      <trkpt lat="46.77094" lon="-2.05121">
        <ele>8</ele>
        <time>2018-04-28T21:25:12Z</time>
      </trkpt>
      <trkpt lat="46.77099" lon="-2.05109">
        <ele>7</ele>
        <time>2018-04-28T21:26:12Z</time>
      </trkpt>
      <trkpt lat="46.77108" lon="-2.05085">
        <ele>7</ele>
        <time>2018-04-28T21:27:12Z</time>
      </trkpt>
      <trkpt lat="46.77116" lon="-2.05066">
        <ele>6</ele>
        <time>2018-04-28T21:28:12Z</time>
      </trkpt>
      <trkpt lat="46.77126" lon="-2.05044">
        <ele>5</ele>
        <time>2018-04-28T21:29:12Z</time>
      </trkpt>
      <trkpt lat="46.77129" lon="-2.05033">
        <ele>5</ele>
        <time>2018-04-28T21:30:12Z</time>
      </trkpt>
      <trkpt lat="46.77133" lon="-2.05024">
        <ele>5</ele>
        <time>2018-04-28T21:31:12Z</time>
      </trkpt>
      <trkpt lat="46.77137" lon="-2.05011">
        <ele>5</ele>
        <time>2018-04-28T21:32:12Z</time>
      </trkpt>
      <trkpt lat="46.7714" lon="-2.04997">
        <ele>4</ele>
        <time>2018-04-28T21:33:12Z</time>
      </trkpt>
      <trkpt lat="46.77145" lon="-2.04979">
        <ele>4</ele>
        <time>2018-04-28T21:34:12Z</time>
      </trkpt>
      <trkpt lat="46.7715" lon="-2.0496">
        <ele>4</ele>
        <time>2018-04-28T21:35:12Z</time>
      </trkpt>
      <trkpt lat="46.77152" lon="-2.04948">
        <ele>4</ele>
        <time>2018-04-28T21:36:12Z</time>
      </trkpt>
      <trkpt lat="46.77152" lon="-2.04939">
        <ele>4</ele>
        <time>2018-04-28T21:37:12Z</time>
      </trkpt>
      <trkpt lat="46.77152" lon="-2.04925">
        <ele>3</ele>
        <time>2018-04-28T21:38:12Z</time>
      </trkpt>
      <trkpt lat="46.77151" lon="-2.04914">
        <ele>3</ele>
        <time>2018-04-28T21:39:12Z</time>
      </trkpt>
      <trkpt lat="46.77151" lon="-2.04914">
        <ele>3</ele>
        <time>2018-04-28T21:40:12Z</time>
      </trkpt>
      <trkpt lat="46.7715" lon="-2.04913">
        <ele>3</ele>
        <time>2018-04-28T21:41:12Z</time>
      </trkpt>
      <trkpt lat="46.77149" lon="-2.04912">
        <ele>3</ele>
        <time>2018-04-28T21:42:12Z</time>
      </trkpt>
      <trkpt lat="46.77148" lon="-2.04911">
        <ele>3</ele>
        <time>2018-04-28T21:43:12Z</time>
      </trkpt>
      <trkpt lat="46.77147" lon="-2.0491">
        <ele>3</ele>
        <time>2018-04-28T21:44:12Z</time>
      </trkpt>
      <trkpt lat="46.77147" lon="-2.04909">
        <ele>3</ele>
        <time>2018-04-28T21:45:12Z</time>
      </trkpt>
      <trkpt lat="46.77146" lon="-2.04908">
        <ele>3</ele>
        <time>2018-04-28T21:46:12Z</time>
      </trkpt>
      <trkpt lat="46.77145" lon="-2.04907">
        <ele>3</ele>
        <time>2018-04-28T21:47:12Z</time>
      </trkpt>
      <trkpt lat="46.77144" lon="-2.04905">
        <ele>3</ele>
        <time>2018-04-28T21:48:12Z</time>
      </trkpt>
      <trkpt lat="46.77143" lon="-2.04903">
        <ele>3</ele>
        <time>2018-04-28T21:49:12Z</time>
      </trkpt>
      <trkpt lat="46.77142" lon="-2.049">
        <ele>3</ele>
        <time>2018-04-28T21:50:12Z</time>
      </trkpt>
      <trkpt lat="46.77142" lon="-2.04898">
        <ele>3</ele>
        <time>2018-04-28T21:51:12Z</time>
      </trkpt>
      <trkpt lat="46.77141" lon="-2.04896">
        <ele>3</ele>
        <time>2018-04-28T21:52:12Z</time>
      </trkpt>
      <trkpt lat="46.77141" lon="-2.04893">
        <ele>3</ele>
        <time>2018-04-28T21:53:12Z</time>
      </trkpt>
      <trkpt lat="46.77141" lon="-2.0489">
        <ele>3</ele>
        <time>2018-04-28T21:54:12Z</time>
      </trkpt>
      <trkpt lat="46.77141" lon="-2.04888">
        <ele>3</ele>
        <time>2018-04-28T21:55:12Z</time>
      </trkpt>
      <trkpt lat="46.77141" lon="-2.04885">
        <ele>3</ele>
        <time>2018-04-28T21:56:12Z</time>
      </trkpt>
      <trkpt lat="46.77141" lon="-2.04883">
        <ele>3</ele>
        <time>2018-04-28T21:57:12Z</time>
      </trkpt>
      <trkpt lat="46.77141" lon="-2.04879">
        <ele>3</ele>
        <time>2018-04-28T21:58:12Z</time>
      </trkpt>
      <trkpt lat="46.77133" lon="-2.04859">
        <ele>3</ele>
        <time>2018-04-28T21:59:12Z</time>
      </trkpt>
      <trkpt lat="46.77126" lon="-2.04843">
        <ele>3</ele>
        <time>2018-04-28T22:00:12Z</time>
      </trkpt>
      <trkpt lat="46.77122" lon="-2.04838">
        <ele>4</ele>
        <time>2018-04-28T22:01:12Z</time>
      </trkpt>
      <trkpt lat="46.77114" lon="-2.04822">
        <ele>3</ele>
        <time>2018-04-28T22:02:12Z</time>
      </trkpt>
      <trkpt lat="46.771" lon="-2.04786">
        <ele>3</ele>
        <time>2018-04-28T22:03:12Z</time>
      </trkpt>
      <trkpt lat="46.77078" lon="-2.04728">
        <ele>1</ele>
        <time>2018-04-28T22:04:12Z</time>
      </trkpt>
      <trkpt lat="46.77058" lon="-2.04675">
        <ele>1</ele>
        <time>2018-04-28T22:05:12Z</time>
      </trkpt>
      <trkpt lat="46.77052" lon="-2.0466">
        <ele>3</ele>
        <time>2018-04-28T22:06:12Z</time>
      </trkpt>
      <trkpt lat="46.77046" lon="-2.04646">
        <ele>3</ele>
        <time>2018-04-28T22:07:12Z</time>
      </trkpt>
      <trkpt lat="46.7704" lon="-2.04635">
        <ele>3</ele>
        <time>2018-04-28T22:08:12Z</time>
      </trkpt>
      <trkpt lat="46.77025" lon="-2.04607">
        <ele>3</ele>
        <time>2018-04-28T22:09:12Z</time>
      </trkpt>
      <trkpt lat="46.76982" lon="-2.04541">
        <ele>4</ele>
        <time>2018-04-28T22:10:12Z</time>
      </trkpt>
      <trkpt lat="46.76944" lon="-2.04482">
        <ele>4</ele>
        <time>2018-04-28T22:11:12Z</time>
      </trkpt>
      <trkpt lat="46.76911" lon="-2.04432">
        <ele>3</ele>
        <time>2018-04-28T22:12:12Z</time>
      </trkpt>
      <trkpt lat="46.76892" lon="-2.04404">
        <ele>3</ele>
        <time>2018-04-28T22:13:12Z</time>
      </trkpt>
      <trkpt lat="46.76884" lon="-2.04394">
        <ele>3</ele>
        <time>2018-04-28T22:14:12Z</time>
      </trkpt>
      <trkpt lat="46.7687" lon="-2.04378">
        <ele>3</ele>
        <time>2018-04-28T22:15:12Z</time>
      </trkpt>
      <trkpt lat="46.7686" lon="-2.04368">
        <ele>3</ele>
        <time>2018-04-28T22:16:12Z</time>
      </trkpt>
      <trkpt lat="46.76826" lon="-2.04336">
        <ele>2</ele>
        <time>2018-04-28T22:17:12Z</time>
      </trkpt>
      <trkpt lat="46.76819" lon="-2.0433">
        <ele>2</ele>
        <time>2018-04-28T22:18:12Z</time>
      </trkpt>
      <trkpt lat="46.76794" lon="-2.04306">
        <ele>2</ele>
        <time>2018-04-28T22:19:12Z</time>
      </trkpt>
      <trkpt lat="46.76773" lon="-2.04285">
        <ele>3</ele>
        <time>2018-04-28T22:20:12Z</time>
      </trkpt>
      <trkpt lat="46.76758" lon="-2.04267">
        <ele>3</ele>
        <time>2018-04-28T22:21:12Z</time>
      </trkpt>
      <trkpt lat="46.76746" lon="-2.04252">
        <ele>3</ele>
        <time>2018-04-28T22:22:12Z</time>
      </trkpt>
      <trkpt lat="46.76743" lon="-2.04247">
        <ele>3</ele>
        <time>2018-04-28T22:23:12Z</time>
      </trkpt>
      <trkpt lat="46.76729" lon="-2.04227">
        <ele>3</ele>
        <time>2018-04-28T22:24:12Z</time>
      </trkpt>
      <trkpt lat="46.76713" lon="-2.04193">
        <ele>3</ele>
        <time>2018-04-28T22:25:12Z</time>
      </trkpt>
      <trkpt lat="46.76705" lon="-2.04172">
        <ele>4</ele>
        <time>2018-04-28T22:26:12Z</time>
      </trkpt>
      <trkpt lat="46.76682" lon="-2.04112">
        <ele>5</ele>
        <time>2018-04-28T22:27:12Z</time>
      </trkpt>
      <trkpt lat="46.76655" lon="-2.04042">
        <ele>5</ele>
        <time>2018-04-28T22:28:12Z</time>
      </trkpt>
      <trkpt lat="46.76642" lon="-2.04007">
        <ele>6</ele>
        <time>2018-04-28T22:29:12Z</time>
      </trkpt>
      <trkpt lat="46.76634" lon="-2.03987">
        <ele>6</ele>
        <time>2018-04-28T22:30:12Z</time>
      </trkpt>
      <trkpt lat="46.76633" lon="-2.03981">
        <ele>6</ele>
        <time>2018-04-28T22:31:12Z</time>
      </trkpt>
      <trkpt lat="46.76629" lon="-2.03967">
        <ele>6</ele>
        <time>2018-04-28T22:32:12Z</time>
      </trkpt>
      <trkpt lat="46.76625" lon="-2.03949">
        <ele>7</ele>
        <time>2018-04-28T22:33:12Z</time>
      </trkpt>
      <trkpt lat="46.76622" lon="-2.03922">
        <ele>7</ele>
        <time>2018-04-28T22:34:12Z</time>
      </trkpt>
      <trkpt lat="46.76619" lon="-2.03884">
        <ele>8</ele>
        <time>2018-04-28T22:35:12Z</time>
      </trkpt>
      <trkpt lat="46.76618" lon="-2.03859">
        <ele>9</ele>
        <time>2018-04-28T22:36:12Z</time>
      </trkpt>
      <trkpt lat="46.76617" lon="-2.03808">
        <ele>11</ele>
        <time>2018-04-28T22:37:12Z</time>
      </trkpt>
      <trkpt lat="46.76616" lon="-2.03767">
        <ele>12</ele>
        <time>2018-04-28T22:38:12Z</time>
      </trkpt>
      <trkpt lat="46.76613" lon="-2.03723">
        <ele>13</ele>
        <time>2018-04-28T22:39:12Z</time>
      </trkpt>
      <trkpt lat="46.76609" lon="-2.03696">
        <ele>13</ele>
        <time>2018-04-28T22:40:12Z</time>
      </trkpt>
      <trkpt lat="46.76604" lon="-2.03666">
        <ele>13</ele>
        <time>2018-04-28T22:41:12Z</time>
      </trkpt>
      <trkpt lat="46.76596" lon="-2.03635">
        <ele>12</ele>
        <time>2018-04-28T22:42:12Z</time>
      </trkpt>
      <trkpt lat="46.76588" lon="-2.03603">
        <ele>11</ele>
        <time>2018-04-28T22:43:12Z</time>
      </trkpt>
      <trkpt lat="46.76575" lon="-2.03559">
        <ele>10</ele>
        <time>2018-04-28T22:44:12Z</time>
      </trkpt>
      <trkpt lat="46.76573" lon="-2.03555">
        <ele>10</ele>
        <time>2018-04-28T22:45:12Z</time>
      </trkpt>
      <trkpt lat="46.76562" lon="-2.03527">
        <ele>10</ele>
        <time>2018-04-28T22:46:12Z</time>
      </trkpt>
      <trkpt lat="46.76558" lon="-2.03519">
        <ele>10</ele>
        <time>2018-04-28T22:47:12Z</time>
      </trkpt>
      <trkpt lat="46.76556" lon="-2.03514">
        <ele>10</ele>
        <time>2018-04-28T22:48:12Z</time>
      </trkpt>
      <trkpt lat="46.76556" lon="-2.03509">
        <ele>9</ele>
        <time>2018-04-28T22:49:12Z</time>
      </trkpt>
      <trkpt lat="46.76555" lon="-2.03501">
        <ele>9</ele>
        <time>2018-04-28T22:50:12Z</time>
      </trkpt>
      <trkpt lat="46.76555" lon="-2.03501">
        <ele>9</ele>
        <time>2018-04-28T22:51:12Z</time>
      </trkpt>
      <trkpt lat="46.76542" lon="-2.03482">
        <ele>9</ele>
        <time>2018-04-28T22:52:12Z</time>
      </trkpt>
      <trkpt lat="46.76528" lon="-2.0346">
        <ele>9</ele>
        <time>2018-04-28T22:53:12Z</time>
      </trkpt>
      <trkpt lat="46.76518" lon="-2.0344">
        <ele>8</ele>
        <time>2018-04-28T22:54:12Z</time>
      </trkpt>
      <trkpt lat="46.76511" lon="-2.03423">
        <ele>8</ele>
        <time>2018-04-28T22:55:12Z</time>
      </trkpt>
      <trkpt lat="46.76504" lon="-2.03405">
        <ele>8</ele>
        <time>2018-04-28T22:56:12Z</time>
      </trkpt>
      <trkpt lat="46.76501" lon="-2.03396">
        <ele>8</ele>
        <time>2018-04-28T22:57:12Z</time>
      </trkpt>
      <trkpt lat="46.765" lon="-2.03393">
        <ele>7</ele>
        <time>2018-04-28T22:58:12Z</time>
      </trkpt>
      <trkpt lat="46.76491" lon="-2.03363">
        <ele>7</ele>
        <time>2018-04-28T22:59:12Z</time>
      </trkpt>
      <trkpt lat="46.76488" lon="-2.03352">
        <ele>7</ele>
        <time>2018-04-28T23:00:12Z</time>
      </trkpt>
      <trkpt lat="46.76481" lon="-2.03332">
        <ele>6</ele>
        <time>2018-04-28T23:01:12Z</time>
      </trkpt>
      <trkpt lat="46.76479" lon="-2.03323">
        <ele>6</ele>
        <time>2018-04-28T23:02:12Z</time>
      </trkpt>
      <trkpt lat="46.76476" lon="-2.03317">
        <ele>7</ele>
        <time>2018-04-28T23:03:12Z</time>
      </trkpt>
      <trkpt lat="46.76463" lon="-2.0329">
        <ele>7</ele>
        <time>2018-04-28T23:04:12Z</time>
      </trkpt>
      <trkpt lat="46.76444" lon="-2.03253">
        <ele>8</ele>
        <time>2018-04-28T23:05:12Z</time>
      </trkpt>
      <trkpt lat="46.76443" lon="-2.03252">
        <ele>8</ele>
        <time>2018-04-28T23:06:12Z</time>
      </trkpt>
      <trkpt lat="46.76417" lon="-2.03201">
        <ele>8</ele>
        <time>2018-04-28T23:07:12Z</time>
      </trkpt>
      <trkpt lat="46.76393" lon="-2.03152">
        <ele>8</ele>
        <time>2018-04-28T23:08:12Z</time>
      </trkpt>
      <trkpt lat="46.7639" lon="-2.03145">
        <ele>8</ele>
        <time>2018-04-28T23:09:12Z</time>
      </trkpt>
      <trkpt lat="46.76388" lon="-2.03139">
        <ele>8</ele>
        <time>2018-04-28T23:10:12Z</time>
      </trkpt>
      <trkpt lat="46.76385" lon="-2.03132">
        <ele>8</ele>
        <time>2018-04-28T23:11:12Z</time>
      </trkpt>
      <trkpt lat="46.76383" lon="-2.03123">
        <ele>8</ele>
        <time>2018-04-28T23:12:12Z</time>
      </trkpt>
      <trkpt lat="46.76382" lon="-2.03114">
        <ele>8</ele>
        <time>2018-04-28T23:13:12Z</time>
      </trkpt>
      <trkpt lat="46.76381" lon="-2.03108">
        <ele>8</ele>
        <time>2018-04-28T23:14:12Z</time>
      </trkpt>
      <trkpt lat="46.7638" lon="-2.03102">
        <ele>8</ele>
        <time>2018-04-28T23:15:12Z</time>
      </trkpt>
      <trkpt lat="46.76379" lon="-2.03097">
        <ele>8</ele>
        <time>2018-04-28T23:16:12Z</time>
      </trkpt>
      <trkpt lat="46.76379" lon="-2.0309">
        <ele>8</ele>
        <time>2018-04-28T23:17:12Z</time>
      </trkpt>
      <trkpt lat="46.76378" lon="-2.03082">
        <ele>8</ele>
        <time>2018-04-28T23:18:12Z</time>
      </trkpt>
      <trkpt lat="46.76378" lon="-2.03065">
        <ele>8</ele>
        <time>2018-04-28T23:19:12Z</time>
      </trkpt>
      <trkpt lat="46.76378" lon="-2.03049">
        <ele>8</ele>
        <time>2018-04-28T23:20:12Z</time>
      </trkpt>
      <trkpt lat="46.76377" lon="-2.03027">
        <ele>8</ele>
        <time>2018-04-28T23:21:12Z</time>
      </trkpt>
      <trkpt lat="46.76376" lon="-2.03017">
        <ele>8</ele>
        <time>2018-04-28T23:22:12Z</time>
      </trkpt>
      <trkpt lat="46.76375" lon="-2.03006">
        <ele>8</ele>
        <time>2018-04-28T23:23:12Z</time>
      </trkpt>
      <trkpt lat="46.76375" lon="-2.03002">
        <ele>8</ele>
        <time>2018-04-28T23:24:12Z</time>
      </trkpt>
      <trkpt lat="46.76374" lon="-2.02998">
        <ele>9</ele>
        <time>2018-04-28T23:25:12Z</time>
      </trkpt>
      <trkpt lat="46.76374" lon="-2.02995">
        <ele>9</ele>
        <time>2018-04-28T23:26:12Z</time>
      </trkpt>
      <trkpt lat="46.76372" lon="-2.02988">
        <ele>9</ele>
        <time>2018-04-28T23:27:12Z</time>
      </trkpt>
      <trkpt lat="46.76371" lon="-2.02981">
        <ele>9</ele>
        <time>2018-04-28T23:28:12Z</time>
      </trkpt>
      <trkpt lat="46.76369" lon="-2.02974">
        <ele>9</ele>
        <time>2018-04-28T23:29:12Z</time>
      </trkpt>
      <trkpt lat="46.76367" lon="-2.02964">
        <ele>9</ele>
        <time>2018-04-28T23:30:12Z</time>
      </trkpt>
      <trkpt lat="46.76363" lon="-2.0295">
        <ele>9</ele>
        <time>2018-04-28T23:31:12Z</time>
      </trkpt>
      <trkpt lat="46.76357" lon="-2.02936">
        <ele>9</ele>
        <time>2018-04-28T23:32:12Z</time>
      </trkpt>
      <trkpt lat="46.76354" lon="-2.02927">
        <ele>9</ele>
        <time>2018-04-28T23:33:12Z</time>
      </trkpt>
      <trkpt lat="46.7635" lon="-2.0292">
        <ele>9</ele>
        <time>2018-04-28T23:34:12Z</time>
      </trkpt>
      <trkpt lat="46.76345" lon="-2.02911">
        <ele>9</ele>
        <time>2018-04-28T23:35:12Z</time>
      </trkpt>
      <trkpt lat="46.76339" lon="-2.02903">
        <ele>9</ele>
        <time>2018-04-28T23:36:12Z</time>
      </trkpt>
      <trkpt lat="46.76333" lon="-2.02896">
        <ele>9</ele>
        <time>2018-04-28T23:37:12Z</time>
      </trkpt>
      <trkpt lat="46.76325" lon="-2.0289">
        <ele>8</ele>
        <time>2018-04-28T23:38:12Z</time>
      </trkpt>
      <trkpt lat="46.7632" lon="-2.02886">
        <ele>8</ele>
        <time>2018-04-28T23:39:12Z</time>
      </trkpt>
      <trkpt lat="46.76311" lon="-2.02881">
        <ele>8</ele>
        <time>2018-04-28T23:40:12Z</time>
      </trkpt>
      <trkpt lat="46.76302" lon="-2.02876">
        <ele>8</ele>
        <time>2018-04-28T23:41:12Z</time>
      </trkpt>
      <trkpt lat="46.76295" lon="-2.02871">
        <ele>8</ele>
        <time>2018-04-28T23:42:12Z</time>
      </trkpt>
      <trkpt lat="46.76289" lon="-2.02868">
        <ele>8</ele>
        <time>2018-04-28T23:43:12Z</time>
      </trkpt>
      <trkpt lat="46.7628" lon="-2.0286">
        <ele>8</ele>
        <time>2018-04-28T23:44:12Z</time>
      </trkpt>
      <trkpt lat="46.7627" lon="-2.02853">
        <ele>8</ele>
        <time>2018-04-28T23:45:12Z</time>
      </trkpt>
      <trkpt lat="46.76263" lon="-2.02847">
        <ele>8</ele>
        <time>2018-04-28T23:46:12Z</time>
      </trkpt>
      <trkpt lat="46.76249" lon="-2.02833">
        <ele>7</ele>
        <time>2018-04-28T23:47:12Z</time>
      </trkpt>
      <trkpt lat="46.76248" lon="-2.02831">
        <ele>7</ele>
        <time>2018-04-28T23:48:12Z</time>
      </trkpt>
      <trkpt lat="46.76226" lon="-2.02802">
        <ele>8</ele>
        <time>2018-04-28T23:49:12Z</time>
      </trkpt>
      <trkpt lat="46.7621" lon="-2.02785">
        <ele>8</ele>
        <time>2018-04-28T23:50:12Z</time>
      </trkpt>
      <trkpt lat="46.76193" lon="-2.02769">
        <ele>9</ele>
        <time>2018-04-28T23:51:12Z</time>
      </trkpt>
      <trkpt lat="46.76153" lon="-2.02736">
        <ele>10</ele>
        <time>2018-04-28T23:52:12Z</time>
      </trkpt>
      <trkpt lat="46.76152" lon="-2.02735">
        <ele>10</ele>
        <time>2018-04-28T23:53:12Z</time>
      </trkpt>
      <trkpt lat="46.76142" lon="-2.02727">
        <ele>10</ele>
        <time>2018-04-28T23:54:12Z</time>
      </trkpt>
      <trkpt lat="46.76115" lon="-2.02706">
        <ele>9</ele>
        <time>2018-04-28T23:55:12Z</time>
      </trkpt>
      <trkpt lat="46.76103" lon="-2.02696">
        <ele>8</ele>
        <time>2018-04-28T23:56:12Z</time>
      </trkpt>
      <trkpt lat="46.76094" lon="-2.0269">
        <ele>8</ele>
        <time>2018-04-28T23:57:12Z</time>
      </trkpt>
      <trkpt lat="46.76087" lon="-2.02684">
        <ele>8</ele>
        <time>2018-04-28T23:58:12Z</time>
      </trkpt>
      <trkpt lat="46.7608" lon="-2.02679">
        <ele>8</ele>
        <time>2018-04-28T23:59:12Z</time>
      </trkpt>
      <trkpt lat="46.76072" lon="-2.02672">
        <ele>7</ele>
        <time>2018-04-29T00:00:12Z</time>
      </trkpt>
      <trkpt lat="46.76064" lon="-2.02665">
        <ele>7</ele>
        <time>2018-04-29T00:01:12Z</time>
      </trkpt>
      <trkpt lat="46.76054" lon="-2.02655">
        <ele>7</ele>
        <time>2018-04-29T00:02:12Z</time>
      </trkpt>
      <trkpt lat="46.76049" lon="-2.02649">
        <ele>7</ele>
        <time>2018-04-29T00:03:12Z</time>
      </trkpt>
      <trkpt lat="46.76045" lon="-2.02644">
        <ele>7</ele>
        <time>2018-04-29T00:04:12Z</time>
      </trkpt>
      <trkpt lat="46.76035" lon="-2.02631">
        <ele>6</ele>
        <time>2018-04-29T00:05:12Z</time>
      </trkpt>
      <trkpt lat="46.76015" lon="-2.02602">
        <ele>6</ele>
        <time>2018-04-29T00:06:12Z</time>
      </trkpt>
      <trkpt lat="46.76004" lon="-2.02584">
        <ele>6</ele>
        <time>2018-04-29T00:07:12Z</time>
      </trkpt>
      <trkpt lat="46.75985" lon="-2.0256">
        <ele>6</ele>
        <time>2018-04-29T00:08:12Z</time>
      </trkpt>
      <trkpt lat="46.75982" lon="-2.02556">
        <ele>6</ele>
        <time>2018-04-29T00:09:12Z</time>
      </trkpt>
      <trkpt lat="46.75981" lon="-2.02558">
        <ele>6</ele>
        <time>2018-04-29T00:10:12Z</time>
      </trkpt>
      <trkpt lat="46.75979" lon="-2.02559">
        <ele>6</ele>
        <time>2018-04-29T00:11:12Z</time>
      </trkpt>
      <trkpt lat="46.75977" lon="-2.02559">
        <ele>6</ele>
        <time>2018-04-29T00:12:12Z</time>
      </trkpt>
      <trkpt lat="46.75976" lon="-2.02559">
        <ele>6</ele>
        <time>2018-04-29T00:13:12Z</time>
      </trkpt>
      <trkpt lat="46.75974" lon="-2.02558">
        <ele>6</ele>
        <time>2018-04-29T00:14:12Z</time>
      </trkpt>
      <trkpt lat="46.75973" lon="-2.02557">
        <ele>6</ele>
        <time>2018-04-29T00:15:12Z</time>
      </trkpt>
      <trkpt lat="46.75972" lon="-2.02556">
        <ele>6</ele>
        <time>2018-04-29T00:16:12Z</time>
      </trkpt>
      <trkpt lat="46.75971" lon="-2.02553">
        <ele>6</ele>
        <time>2018-04-29T00:17:12Z</time>
      </trkpt>
      <trkpt lat="46.75971" lon="-2.02549">
        <ele>6</ele>
        <time>2018-04-29T00:18:12Z</time>
      </trkpt>
      <trkpt lat="46.75972" lon="-2.02547">
        <ele>6</ele>
        <time>2018-04-29T00:19:12Z</time>
      </trkpt>
      <trkpt lat="46.75972" lon="-2.02545">
        <ele>6</ele>
        <time>2018-04-29T00:20:12Z</time>
      </trkpt>
      <trkpt lat="46.7597" lon="-2.02541">
        <ele>6</ele>
        <time>2018-04-29T00:21:12Z</time>
      </trkpt>
      <trkpt lat="46.75958" lon="-2.02529">
        <ele>6</ele>
        <time>2018-04-29T00:22:12Z</time>
      </trkpt>
      <trkpt lat="46.75953" lon="-2.02526">
        <ele>6</ele>
        <time>2018-04-29T00:23:12Z</time>
      </trkpt>
      <trkpt lat="46.75937" lon="-2.02514">
        <ele>6</ele>
        <time>2018-04-29T00:24:12Z</time>
      </trkpt>
      <trkpt lat="46.75924" lon="-2.02505">
        <ele>6</ele>
        <time>2018-04-29T00:25:12Z</time>
      </trkpt>
      <trkpt lat="46.75922" lon="-2.02504">
        <ele>6</ele>
        <time>2018-04-29T00:26:12Z</time>
      </trkpt>
      <trkpt lat="46.75907" lon="-2.02498">
        <ele>6</ele>
        <time>2018-04-29T00:27:12Z</time>
      </trkpt>
      <trkpt lat="46.75893" lon="-2.02493">
        <ele>6</ele>
        <time>2018-04-29T00:28:12Z</time>
      </trkpt>
      <trkpt lat="46.75887" lon="-2.0249">
        <ele>6</ele>
        <time>2018-04-29T00:29:12Z</time>
      </trkpt>
      <trkpt lat="46.75884" lon="-2.0249">
        <ele>6</ele>
        <time>2018-04-29T00:30:12Z</time>
      </trkpt>
      <trkpt lat="46.75865" lon="-2.02483">
        <ele>6</ele>
        <time>2018-04-29T00:31:12Z</time>
      </trkpt>
      <trkpt lat="46.75847" lon="-2.02478">
        <ele>6</ele>
        <time>2018-04-29T00:32:12Z</time>
      </trkpt>
      <trkpt lat="46.75821" lon="-2.02474">
        <ele>6</ele>
        <time>2018-04-29T00:33:12Z</time>
      </trkpt>
      <trkpt lat="46.75816" lon="-2.02473">
        <ele>6</ele>
        <time>2018-04-29T00:34:12Z</time>
      </trkpt>
      <trkpt lat="46.75806" lon="-2.02475">
        <ele>6</ele>
        <time>2018-04-29T00:35:12Z</time>
      </trkpt>
      <trkpt lat="46.75806" lon="-2.02476">
        <ele>6</ele>
        <time>2018-04-29T00:36:12Z</time>
      </trkpt>
      <trkpt lat="46.75806" lon="-2.02477">
        <ele>6</ele>
        <time>2018-04-29T00:37:12Z</time>
      </trkpt>
      <trkpt lat="46.75805" lon="-2.02478">
        <ele>6</ele>
        <time>2018-04-29T00:38:12Z</time>
      </trkpt>
      <trkpt lat="46.75805" lon="-2.02479">
        <ele>6</ele>
        <time>2018-04-29T00:39:12Z</time>
      </trkpt>
      <trkpt lat="46.75805" lon="-2.0248">
        <ele>6</ele>
        <time>2018-04-29T00:40:12Z</time>
      </trkpt>
      <trkpt lat="46.75804" lon="-2.0248">
        <ele>6</ele>
        <time>2018-04-29T00:41:12Z</time>
      </trkpt>
      <trkpt lat="46.75804" lon="-2.02481">
        <ele>6</ele>
        <time>2018-04-29T00:42:12Z</time>
      </trkpt>
      <trkpt lat="46.75804" lon="-2.02482">
        <ele>6</ele>
        <time>2018-04-29T00:43:12Z</time>
      </trkpt>
      <trkpt lat="46.75803" lon="-2.02482">
        <ele>6</ele>
        <time>2018-04-29T00:44:12Z</time>
      </trkpt>
      <trkpt lat="46.75803" lon="-2.02483">
        <ele>6</ele>
        <time>2018-04-29T00:45:12Z</time>
      </trkpt>
      <trkpt lat="46.75802" lon="-2.02483">
        <ele>6</ele>
        <time>2018-04-29T00:46:12Z</time>
      </trkpt>
      <trkpt lat="46.75801" lon="-2.02483">
        <ele>6</ele>
        <time>2018-04-29T00:47:12Z</time>
      </trkpt>
      <trkpt lat="46.758" lon="-2.02483">
        <ele>6</ele>
        <time>2018-04-29T00:48:12Z</time>
      </trkpt>
      <trkpt lat="46.75799" lon="-2.02483">
        <ele>6</ele>
        <time>2018-04-29T00:49:12Z</time>
      </trkpt>
      <trkpt lat="46.75798" lon="-2.02483">
        <ele>5</ele>
        <time>2018-04-29T00:50:12Z</time>
      </trkpt>
      <trkpt lat="46.75798" lon="-2.02482">
        <ele>5</ele>
        <time>2018-04-29T00:51:12Z</time>
      </trkpt>
      <trkpt lat="46.75797" lon="-2.02482">
        <ele>5</ele>
        <time>2018-04-29T00:52:12Z</time>
      </trkpt>
      <trkpt lat="46.75797" lon="-2.02481">
        <ele>5</ele>
        <time>2018-04-29T00:53:12Z</time>
      </trkpt>
      <trkpt lat="46.75796" lon="-2.02481">
        <ele>5</ele>
        <time>2018-04-29T00:54:12Z</time>
      </trkpt>
      <trkpt lat="46.75796" lon="-2.0248">
        <ele>5</ele>
        <time>2018-04-29T00:55:12Z</time>
      </trkpt>
      <trkpt lat="46.75796" lon="-2.02479">
        <ele>5</ele>
        <time>2018-04-29T00:56:12Z</time>
      </trkpt>
      <trkpt lat="46.75796" lon="-2.02478">
        <ele>5</ele>
        <time>2018-04-29T00:57:12Z</time>
      </trkpt>
      <trkpt lat="46.75795" lon="-2.02478">
        <ele>5</ele>
        <time>2018-04-29T00:58:12Z</time>
      </trkpt>
      <trkpt lat="46.75795" lon="-2.02477">
        <ele>5</ele>
        <time>2018-04-29T00:59:12Z</time>
      </trkpt>
      <trkpt lat="46.75795" lon="-2.02476">
        <ele>5</ele>
        <time>2018-04-29T01:00:12Z</time>
      </trkpt>
      <trkpt lat="46.75795" lon="-2.02475">
        <ele>5</ele>
        <time>2018-04-29T01:01:12Z</time>
      </trkpt>
      <trkpt lat="46.75795" lon="-2.02474">
        <ele>5</ele>
        <time>2018-04-29T01:02:12Z</time>
      </trkpt>
      <trkpt lat="46.75788" lon="-2.02472">
        <ele>5</ele>
        <time>2018-04-29T01:03:12Z</time>
      </trkpt>
      <trkpt lat="46.75784" lon="-2.0247">
        <ele>5</ele>
        <time>2018-04-29T01:04:12Z</time>
      </trkpt>
      <trkpt lat="46.7578" lon="-2.02469">
        <ele>5</ele>
        <time>2018-04-29T01:05:12Z</time>
      </trkpt>
      <trkpt lat="46.75775" lon="-2.02468">
        <ele>5</ele>
        <time>2018-04-29T01:06:12Z</time>
      </trkpt>
      <trkpt lat="46.7575" lon="-2.02463">
        <ele>5</ele>
        <time>2018-04-29T01:07:12Z</time>
      </trkpt>
      <trkpt lat="46.75741" lon="-2.0246">
        <ele>5</ele>
        <time>2018-04-29T01:08:12Z</time>
      </trkpt>
      <trkpt lat="46.75738" lon="-2.02459">
        <ele>5</ele>
        <time>2018-04-29T01:09:12Z</time>
      </trkpt>
      <trkpt lat="46.75733" lon="-2.02456">
        <ele>4</ele>
        <time>2018-04-29T01:10:12Z</time>
      </trkpt>
      <trkpt lat="46.75728" lon="-2.02453">
        <ele>4</ele>
        <time>2018-04-29T01:11:12Z</time>
      </trkpt>
      <trkpt lat="46.75722" lon="-2.02449">
        <ele>4</ele>
        <time>2018-04-29T01:12:12Z</time>
      </trkpt>
      <trkpt lat="46.75717" lon="-2.02444">
        <ele>4</ele>
        <time>2018-04-29T01:13:12Z</time>
      </trkpt>
      <trkpt lat="46.75712" lon="-2.02438">
        <ele>4</ele>
        <time>2018-04-29T01:14:12Z</time>
      </trkpt>
      <trkpt lat="46.75709" lon="-2.02434">
        <ele>4</ele>
        <time>2018-04-29T01:15:12Z</time>
      </trkpt>
      <trkpt lat="46.75706" lon="-2.02431">
        <ele>4</ele>
        <time>2018-04-29T01:16:12Z</time>
      </trkpt>
      <trkpt lat="46.75704" lon="-2.02428">
        <ele>4</ele>
        <time>2018-04-29T01:17:12Z</time>
      </trkpt>
      <trkpt lat="46.75697" lon="-2.0242">
        <ele>4</ele>
        <time>2018-04-29T01:18:12Z</time>
      </trkpt>
      <trkpt lat="46.75683" lon="-2.02399">
        <ele>4</ele>
        <time>2018-04-29T01:19:12Z</time>
      </trkpt>
      <trkpt lat="46.75663" lon="-2.02374">
        <ele>4</ele>
        <time>2018-04-29T01:20:12Z</time>
      </trkpt>
      <trkpt lat="46.75642" lon="-2.02347">
        <ele>4</ele>
        <time>2018-04-29T01:21:12Z</time>
      </trkpt>
      <trkpt lat="46.7562" lon="-2.0233">
        <ele>3</ele>
        <time>2018-04-29T01:22:12Z</time>
      </trkpt>
      <trkpt lat="46.75594" lon="-2.02308">
        <ele>1</ele>
        <time>2018-04-29T01:23:12Z</time>
      </trkpt>
      <trkpt lat="46.75568" lon="-2.02289">
        <ele>1</ele>
        <time>2018-04-29T01:24:12Z</time>
      </trkpt>
      <trkpt lat="46.75543" lon="-2.0227">
        <ele>1</ele>
        <time>2018-04-29T01:25:12Z</time>
      </trkpt>
      <trkpt lat="46.75524" lon="-2.02253">
        <ele>1</ele>
        <time>2018-04-29T01:26:12Z</time>
      </trkpt>
      <trkpt lat="46.75519" lon="-2.02246">
        <ele>1</ele>
        <time>2018-04-29T01:27:12Z</time>
      </trkpt>
      <trkpt lat="46.75514" lon="-2.02239">
        <ele>1</ele>
        <time>2018-04-29T01:28:12Z</time>
      </trkpt>
      <trkpt lat="46.75509" lon="-2.02232">
        <ele>1</ele>
        <time>2018-04-29T01:29:12Z</time>
      </trkpt>
      <trkpt lat="46.75506" lon="-2.02226">
        <ele>1</ele>
        <time>2018-04-29T01:30:12Z</time>
      </trkpt>
      <trkpt lat="46.75503" lon="-2.02221">
        <ele>1</ele>
        <time>2018-04-29T01:31:12Z</time>
      </trkpt>
      <trkpt lat="46.75501" lon="-2.02214">
        <ele>1</ele>
        <time>2018-04-29T01:32:12Z</time>
      </trkpt>
      <trkpt lat="46.75498" lon="-2.02207">
        <ele>2</ele>
        <time>2018-04-29T01:33:12Z</time>
      </trkpt>
      <trkpt lat="46.75494" lon="-2.02195">
        <ele>2</ele>
        <time>2018-04-29T01:34:12Z</time>
      </trkpt>
      <trkpt lat="46.75493" lon="-2.0219">
        <ele>2</ele>
        <time>2018-04-29T01:35:12Z</time>
      </trkpt>
      <trkpt lat="46.75489" lon="-2.02176">
        <ele>2</ele>
        <time>2018-04-29T01:36:12Z</time>
      </trkpt>
      <trkpt lat="46.75484" lon="-2.02161">
        <ele>2</ele>
        <time>2018-04-29T01:37:12Z</time>
      </trkpt>
      <trkpt lat="46.75479" lon="-2.02148">
        <ele>2</ele>
        <time>2018-04-29T01:38:12Z</time>
      </trkpt>
      <trkpt lat="46.75474" lon="-2.02131">
        <ele>2</ele>
        <time>2018-04-29T01:39:12Z</time>
      </trkpt>
      <trkpt lat="46.7547" lon="-2.02123">
        <ele>3</ele>
        <time>2018-04-29T01:40:12Z</time>
      </trkpt>
      <trkpt lat="46.75466" lon="-2.02113">
        <ele>3</ele>
        <time>2018-04-29T01:41:12Z</time>
      </trkpt>
      <trkpt lat="46.75459" lon="-2.021">
        <ele>3</ele>
        <time>2018-04-29T01:42:12Z</time>
      </trkpt>
      <trkpt lat="46.75454" lon="-2.02092">
        <ele>3</ele>
        <time>2018-04-29T01:43:12Z</time>
      </trkpt>
      <trkpt lat="46.75453" lon="-2.02089">
        <ele>3</ele>
        <time>2018-04-29T01:44:12Z</time>
      </trkpt>
      <trkpt lat="46.75449" lon="-2.02083">
        <ele>3</ele>
        <time>2018-04-29T01:45:12Z</time>
      </trkpt>
      <trkpt lat="46.75445" lon="-2.02076">
        <ele>3</ele>
        <time>2018-04-29T01:46:12Z</time>
      </trkpt>
      <trkpt lat="46.75435" lon="-2.02063">
        <ele>2</ele>
        <time>2018-04-29T01:47:12Z</time>
      </trkpt>
      <trkpt lat="46.75428" lon="-2.02053">
        <ele>2</ele>
        <time>2018-04-29T01:48:12Z</time>
      </trkpt>
      <trkpt lat="46.75417" lon="-2.0204">
        <ele>2</ele>
        <time>2018-04-29T01:49:12Z</time>
      </trkpt>
      <trkpt lat="46.75404" lon="-2.02024">
        <ele>2</ele>
        <time>2018-04-29T01:50:12Z</time>
      </trkpt>
      <trkpt lat="46.75389" lon="-2.02007">
        <ele>2</ele>
        <time>2018-04-29T01:51:12Z</time>
      </trkpt>
      <trkpt lat="46.75375" lon="-2.01991">
        <ele>2</ele>
        <time>2018-04-29T01:52:12Z</time>
      </trkpt>
      <trkpt lat="46.75354" lon="-2.01964">
        <ele>3</ele>
        <time>2018-04-29T01:53:12Z</time>
      </trkpt>
      <trkpt lat="46.75348" lon="-2.01954">
        <ele>3</ele>
        <time>2018-04-29T01:54:12Z</time>
      </trkpt>
      <trkpt lat="46.75345" lon="-2.01949">
        <ele>3</ele>
        <time>2018-04-29T01:55:12Z</time>
      </trkpt>
      <trkpt lat="46.75332" lon="-2.01929">
        <ele>3</ele>
        <time>2018-04-29T01:56:12Z</time>
      </trkpt>
      <trkpt lat="46.75312" lon="-2.01896">
        <ele>3</ele>
        <time>2018-04-29T01:57:12Z</time>
      </trkpt>
      <trkpt lat="46.75285" lon="-2.01854">
        <ele>2</ele>
        <time>2018-04-29T01:58:12Z</time>
      </trkpt>
      <trkpt lat="46.75262" lon="-2.01823">
        <ele>2</ele>
        <time>2018-04-29T01:59:12Z</time>
      </trkpt>
      <trkpt lat="46.7525" lon="-2.01807">
        <ele>2</ele>
        <time>2018-04-29T02:00:12Z</time>
      </trkpt>
      <trkpt lat="46.7522" lon="-2.01766">
        <ele>3</ele>
        <time>2018-04-29T02:01:12Z</time>
      </trkpt>
      <trkpt lat="46.752" lon="-2.01737">
        <ele>3</ele>
        <time>2018-04-29T02:02:12Z</time>
      </trkpt>
      <trkpt lat="46.75196" lon="-2.01732">
        <ele>3</ele>
        <time>2018-04-29T02:03:12Z</time>
      </trkpt>
      <trkpt lat="46.75167" lon="-2.01688">
        <ele>4</ele>
        <time>2018-04-29T02:04:12Z</time>
      </trkpt>
      <trkpt lat="46.75163" lon="-2.01681">
        <ele>4</ele>
        <time>2018-04-29T02:05:12Z</time>
      </trkpt>
      <trkpt lat="46.7514" lon="-2.0164">
        <ele>4</ele>
        <time>2018-04-29T02:06:12Z</time>
      </trkpt>
      <trkpt lat="46.75134" lon="-2.01632">
        <ele>4</ele>
        <time>2018-04-29T02:07:12Z</time>
      </trkpt>
      <trkpt lat="46.7513" lon="-2.0163">
        <ele>4</ele>
        <time>2018-04-29T02:08:12Z</time>
      </trkpt>
      <trkpt lat="46.75126" lon="-2.01627">
        <ele>4</ele>
        <time>2018-04-29T02:09:12Z</time>
      </trkpt>
      <trkpt lat="46.7512" lon="-2.01629">
        <ele>4</ele>
        <time>2018-04-29T02:10:12Z</time>
      </trkpt>
      <trkpt lat="46.75116" lon="-2.01628">
        <ele>4</ele>
        <time>2018-04-29T02:11:12Z</time>
      </trkpt>
      <trkpt lat="46.75112" lon="-2.01626">
        <ele>4</ele>
        <time>2018-04-29T02:12:12Z</time>
      </trkpt>
      <trkpt lat="46.75109" lon="-2.01623">
        <ele>4</ele>
        <time>2018-04-29T02:13:12Z</time>
      </trkpt>
      <trkpt lat="46.75107" lon="-2.01618">
        <ele>4</ele>
        <time>2018-04-29T02:14:12Z</time>
      </trkpt>
      <trkpt lat="46.75106" lon="-2.01612">
        <ele>4</ele>
        <time>2018-04-29T02:15:12Z</time>
      </trkpt>
      <trkpt lat="46.75105" lon="-2.01607">
        <ele>4</ele>
        <time>2018-04-29T02:16:12Z</time>
      </trkpt>
      <trkpt lat="46.75106" lon="-2.01601">
        <ele>4</ele>
        <time>2018-04-29T02:17:12Z</time>
      </trkpt>
      <trkpt lat="46.75102" lon="-2.01593">
        <ele>4</ele>
        <time>2018-04-29T02:18:12Z</time>
      </trkpt>
      <trkpt lat="46.75099" lon="-2.01586">
        <ele>4</ele>
        <time>2018-04-29T02:19:12Z</time>
      </trkpt>
      <trkpt lat="46.75096" lon="-2.01579">
        <ele>4</ele>
        <time>2018-04-29T02:20:12Z</time>
      </trkpt>
      <trkpt lat="46.75084" lon="-2.01564">
        <ele>4</ele>
        <time>2018-04-29T02:21:12Z</time>
      </trkpt>
      <trkpt lat="46.75057" lon="-2.01531">
        <ele>4</ele>
        <time>2018-04-29T02:22:12Z</time>
      </trkpt>
      <trkpt lat="46.75037" lon="-2.01501">
        <ele>4</ele>
        <time>2018-04-29T02:23:12Z</time>
      </trkpt>
      <trkpt lat="46.75035" lon="-2.01499">
        <ele>4</ele>
        <time>2018-04-29T02:24:12Z</time>
      </trkpt>
      <trkpt lat="46.75018" lon="-2.01472">
        <ele>4</ele>
        <time>2018-04-29T02:25:12Z</time>
      </trkpt>
      <trkpt lat="46.74993" lon="-2.01431">
        <ele>4</ele>
        <time>2018-04-29T02:26:12Z</time>
      </trkpt>
      <trkpt lat="46.74972" lon="-2.01394">
        <ele>5</ele>
        <time>2018-04-29T02:27:12Z</time>
      </trkpt>
      <trkpt lat="46.74969" lon="-2.01389">
        <ele>5</ele>
        <time>2018-04-29T02:28:12Z</time>
      </trkpt>
      <trkpt lat="46.74958" lon="-2.01372">
        <ele>5</ele>
        <time>2018-04-29T02:29:12Z</time>
      </trkpt>
      <trkpt lat="46.74952" lon="-2.01363">
        <ele>6</ele>
        <time>2018-04-29T02:30:12Z</time>
      </trkpt>
      <trkpt lat="46.7495" lon="-2.01362">
        <ele>6</ele>
        <time>2018-04-29T02:31:12Z</time>
      </trkpt>
      <trkpt lat="46.74944" lon="-2.01355">
        <ele>6</ele>
        <time>2018-04-29T02:32:12Z</time>
      </trkpt>
      <trkpt lat="46.74927" lon="-2.01343">
        <ele>7</ele>
        <time>2018-04-29T02:33:12Z</time>
      </trkpt>
      <trkpt lat="46.74895" lon="-2.01325">
        <ele>7</ele>
        <time>2018-04-29T02:34:12Z</time>
      </trkpt>
      <trkpt lat="46.74863" lon="-2.01308">
        <ele>7</ele>
        <time>2018-04-29T02:35:12Z</time>
      </trkpt>
      <trkpt lat="46.74821" lon="-2.01285">
        <ele>6</ele>
        <time>2018-04-29T02:36:12Z</time>
      </trkpt>
      <trkpt lat="46.74784" lon="-2.01263">
        <ele>6</ele>
        <time>2018-04-29T02:37:12Z</time>
      </trkpt>
      <trkpt lat="46.74747" lon="-2.0124">
        <ele>7</ele>
        <time>2018-04-29T02:38:12Z</time>
      </trkpt>
      <trkpt lat="46.74723" lon="-2.01225">
        <ele>7</ele>
        <time>2018-04-29T02:39:12Z</time>
      </trkpt>
      <trkpt lat="46.74693" lon="-2.01205">
        <ele>8</ele>
        <time>2018-04-29T02:40:12Z</time>
      </trkpt>
      <trkpt lat="46.74682" lon="-2.01198">
        <ele>8</ele>
        <time>2018-04-29T02:41:12Z</time>
      </trkpt>
      <trkpt lat="46.74664" lon="-2.01183">
        <ele>8</ele>
        <time>2018-04-29T02:42:12Z</time>
      </trkpt>
      <trkpt lat="46.74646" lon="-2.01164">
        <ele>8</ele>
        <time>2018-04-29T02:43:12Z</time>
      </trkpt>
      <trkpt lat="46.74638" lon="-2.01154">
        <ele>8</ele>
        <time>2018-04-29T02:44:12Z</time>
      </trkpt>
      <trkpt lat="46.74613" lon="-2.01126">
        <ele>7</ele>
        <time>2018-04-29T02:45:12Z</time>
      </trkpt>
      <trkpt lat="46.74582" lon="-2.01089">
        <ele>4</ele>
        <time>2018-04-29T02:46:12Z</time>
      </trkpt>
      <trkpt lat="46.74564" lon="-2.01068">
        <ele>4</ele>
        <time>2018-04-29T02:47:12Z</time>
      </trkpt>
      <trkpt lat="46.74557" lon="-2.01058">
        <ele>4</ele>
        <time>2018-04-29T02:48:12Z</time>
      </trkpt>
      <trkpt lat="46.74538" lon="-2.01036">
        <ele>4</ele>
        <time>2018-04-29T02:49:12Z</time>
      </trkpt>
      <trkpt lat="46.74532" lon="-2.0103">
        <ele>5</ele>
        <time>2018-04-29T02:50:12Z</time>
      </trkpt>
      <trkpt lat="46.74512" lon="-2.01014">
        <ele>5</ele>
        <time>2018-04-29T02:51:12Z</time>
      </trkpt>
      <trkpt lat="46.74482" lon="-2.00986">
        <ele>4</ele>
        <time>2018-04-29T02:52:12Z</time>
      </trkpt>
      <trkpt lat="46.74463" lon="-2.00969">
        <ele>4</ele>
        <time>2018-04-29T02:53:12Z</time>
      </trkpt>
      <trkpt lat="46.74444" lon="-2.00952">
        <ele>4</ele>
        <time>2018-04-29T02:54:12Z</time>
      </trkpt>
      <trkpt lat="46.7439" lon="-2.00906">
        <ele>3</ele>
        <time>2018-04-29T02:55:12Z</time>
      </trkpt>
      <trkpt lat="46.74361" lon="-2.0088">
        <ele>3</ele>
        <time>2018-04-29T02:56:12Z</time>
      </trkpt>
      <trkpt lat="46.74345" lon="-2.00864">
        <ele>3</ele>
        <time>2018-04-29T02:57:12Z</time>
      </trkpt>
      <trkpt lat="46.74337" lon="-2.00853">
        <ele>3</ele>
        <time>2018-04-29T02:58:12Z</time>
      </trkpt>
      <trkpt lat="46.7433" lon="-2.00843">
        <ele>3</ele>
        <time>2018-04-29T02:59:12Z</time>
      </trkpt>
      <trkpt lat="46.74322" lon="-2.0083">
        <ele>3</ele>
        <time>2018-04-29T03:00:12Z</time>
      </trkpt>
      <trkpt lat="46.74312" lon="-2.00812">
        <ele>2</ele>
        <time>2018-04-29T03:01:12Z</time>
      </trkpt>
      <trkpt lat="46.74308" lon="-2.00805">
        <ele>2</ele>
        <time>2018-04-29T03:02:12Z</time>
      </trkpt>
      <trkpt lat="46.74301" lon="-2.00793">
        <ele>2</ele>
        <time>2018-04-29T03:03:12Z</time>
      </trkpt>
      <trkpt lat="46.74283" lon="-2.00765">
        <ele>2</ele>
        <time>2018-04-29T03:04:12Z</time>
      </trkpt>
      <trkpt lat="46.74275" lon="-2.00753">
        <ele>2</ele>
        <time>2018-04-29T03:05:12Z</time>
      </trkpt>
      <trkpt lat="46.7426" lon="-2.00726">
        <ele>2</ele>
        <time>2018-04-29T03:06:12Z</time>
      </trkpt>
      <trkpt lat="46.7425" lon="-2.00711">
        <ele>2</ele>
        <time>2018-04-29T03:07:12Z</time>
      </trkpt>
      <trkpt lat="46.74235" lon="-2.00689">
        <ele>3</ele>
        <time>2018-04-29T03:08:12Z</time>
      </trkpt>
      <trkpt lat="46.74191" lon="-2.00625">
        <ele>3</ele>
        <time>2018-04-29T03:09:12Z</time>
      </trkpt>
      <trkpt lat="46.74148" lon="-2.00565">
        <ele>3</ele>
        <time>2018-04-29T03:10:12Z</time>
      </trkpt>
      <trkpt lat="46.74143" lon="-2.00558">
        <ele>3</ele>
        <time>2018-04-29T03:11:12Z</time>
      </trkpt>
      <trkpt lat="46.74131" lon="-2.0054">
        <ele>3</ele>
        <time>2018-04-29T03:12:12Z</time>
      </trkpt>
      <trkpt lat="46.74124" lon="-2.00529">
        <ele>3</ele>
        <time>2018-04-29T03:13:12Z</time>
      </trkpt>
      <trkpt lat="46.74117" lon="-2.00519">
        <ele>3</ele>
        <time>2018-04-29T03:14:12Z</time>
      </trkpt>
      <trkpt lat="46.74114" lon="-2.00514">
        <ele>3</ele>
        <time>2018-04-29T03:15:12Z</time>
      </trkpt>
      <trkpt lat="46.74108" lon="-2.00504">
        <ele>3</ele>
        <time>2018-04-29T03:16:12Z</time>
      </trkpt>
      <trkpt lat="46.74103" lon="-2.00497">
        <ele>3</ele>
        <time>2018-04-29T03:17:12Z</time>
      </trkpt>
      <trkpt lat="46.74099" lon="-2.00488">
        <ele>3</ele>
        <time>2018-04-29T03:18:12Z</time>
      </trkpt>
      <trkpt lat="46.74096" lon="-2.00481">
        <ele>3</ele>
        <time>2018-04-29T03:19:12Z</time>
      </trkpt>
      <trkpt lat="46.74085" lon="-2.00458">
        <ele>3</ele>
        <time>2018-04-29T03:20:12Z</time>
      </trkpt>
      <trkpt lat="46.74078" lon="-2.00436">
        <ele>3</ele>
        <time>2018-04-29T03:21:12Z</time>
      </trkpt>
      <trkpt lat="46.74073" lon="-2.00423">
        <ele>3</ele>
        <time>2018-04-29T03:22:12Z</time>
      </trkpt>
      <trkpt lat="46.74067" lon="-2.00404">
        <ele>3</ele>
        <time>2018-04-29T03:23:12Z</time>
      </trkpt>
      <trkpt lat="46.74066" lon="-2.00393">
        <ele>3</ele>
        <time>2018-04-29T03:24:12Z</time>
      </trkpt>
      <trkpt lat="46.74065" lon="-2.00382">
        <ele>3</ele>
        <time>2018-04-29T03:25:12Z</time>
      </trkpt>
      <trkpt lat="46.74065" lon="-2.00368">
        <ele>3</ele>
        <time>2018-04-29T03:26:12Z</time>
      </trkpt>
      <trkpt lat="46.74067" lon="-2.00353">
        <ele>3</ele>
        <time>2018-04-29T03:27:12Z</time>
      </trkpt>
      <trkpt lat="46.7407" lon="-2.00339">
        <ele>2</ele>
        <time>2018-04-29T03:28:12Z</time>
      </trkpt>
      <trkpt lat="46.74075" lon="-2.00318">
        <ele>3</ele>
        <time>2018-04-29T03:29:12Z</time>
      </trkpt>
      <trkpt lat="46.74079" lon="-2.00302">
        <ele>3</ele>
        <time>2018-04-29T03:30:12Z</time>
      </trkpt>
      <trkpt lat="46.74085" lon="-2.00279">
        <ele>3</ele>
        <time>2018-04-29T03:31:12Z</time>
      </trkpt>
      <trkpt lat="46.74088" lon="-2.00267">
        <ele>4</ele>
        <time>2018-04-29T03:32:12Z</time>
      </trkpt>
      <trkpt lat="46.7411" lon="-2.00185">
        <ele>5</ele>
        <time>2018-04-29T03:33:12Z</time>
      </trkpt>
      <trkpt lat="46.74115" lon="-2.00164">
        <ele>5</ele>
        <time>2018-04-29T03:34:12Z</time>
      </trkpt>
      <trkpt lat="46.74119" lon="-2.00146">
        <ele>5</ele>
        <time>2018-04-29T03:35:12Z</time>
      </trkpt>
      <trkpt lat="46.74123" lon="-2.00124">
        <ele>6</ele>
        <time>2018-04-29T03:36:12Z</time>
      </trkpt>
      <trkpt lat="46.74127" lon="-2.001">
        <ele>6</ele>
        <time>2018-04-29T03:37:12Z</time>
      </trkpt>
      <trkpt lat="46.74134" lon="-2.0004">
        <ele>6</ele>
        <time>2018-04-29T03:38:12Z</time>
      </trkpt>
      <trkpt lat="46.74142" lon="-1.99944">
        <ele>6</ele>
        <time>2018-04-29T03:39:12Z</time>
      </trkpt>
      <trkpt lat="46.74143" lon="-1.99924">
        <ele>7</ele>
        <time>2018-04-29T03:40:12Z</time>
      </trkpt>
      <trkpt lat="46.74148" lon="-1.99843">
        <ele>7</ele>
        <time>2018-04-29T03:41:12Z</time>
      </trkpt>
      <trkpt lat="46.74154" lon="-1.99732">
        <ele>5</ele>
        <time>2018-04-29T03:42:12Z</time>
      </trkpt>
      <trkpt lat="46.74155" lon="-1.99686">
        <ele>5</ele>
        <time>2018-04-29T03:43:12Z</time>
      </trkpt>
      <trkpt lat="46.74157" lon="-1.99675">
        <ele>5</ele>
        <time>2018-04-29T03:44:12Z</time>
      </trkpt>
      <trkpt lat="46.74158" lon="-1.99666">
        <ele>5</ele>
        <time>2018-04-29T03:45:12Z</time>
      </trkpt>
      <trkpt lat="46.74162" lon="-1.99638">
        <ele>6</ele>
        <time>2018-04-29T03:46:12Z</time>
      </trkpt>
      <trkpt lat="46.74165" lon="-1.99622">
        <ele>6</ele>
        <time>2018-04-29T03:47:12Z</time>
      </trkpt>
      <trkpt lat="46.74174" lon="-1.9959">
        <ele>7</ele>
        <time>2018-04-29T03:48:12Z</time>
      </trkpt>
      <trkpt lat="46.74182" lon="-1.99559">
        <ele>6</ele>
        <time>2018-04-29T03:49:12Z</time>
      </trkpt>
      <trkpt lat="46.74192" lon="-1.99525">
        <ele>6</ele>
        <time>2018-04-29T03:50:12Z</time>
      </trkpt>
      <trkpt lat="46.742" lon="-1.99493">
        <ele>5</ele>
        <time>2018-04-29T03:51:12Z</time>
      </trkpt>
      <trkpt lat="46.74204" lon="-1.99474">
        <ele>5</ele>
        <time>2018-04-29T03:52:12Z</time>
      </trkpt>
      <trkpt lat="46.74206" lon="-1.99468">
        <ele>5</ele>
        <time>2018-04-29T03:53:12Z</time>
      </trkpt>
      <trkpt lat="46.74211" lon="-1.99436">
        <ele>5</ele>
        <time>2018-04-29T03:54:12Z</time>
      </trkpt>
      <trkpt lat="46.74216" lon="-1.99406">
        <ele>4</ele>
        <time>2018-04-29T03:55:12Z</time>
      </trkpt>
      <trkpt lat="46.74216" lon="-1.99393">
        <ele>5</ele>
        <time>2018-04-29T03:56:12Z</time>
      </trkpt>
      <trkpt lat="46.74216" lon="-1.99379">
        <ele>5</ele>
        <time>2018-04-29T03:57:12Z</time>
      </trkpt>
      <trkpt lat="46.74215" lon="-1.99361">
        <ele>5</ele>
        <time>2018-04-29T03:58:12Z</time>
      </trkpt>
      <trkpt lat="46.74215" lon="-1.99356">
        <ele>5</ele>
        <time>2018-04-29T03:59:12Z</time>
      </trkpt>
      <trkpt lat="46.74212" lon="-1.99342">
        <ele>5</ele>
        <time>2018-04-29T04:00:12Z</time>
      </trkpt>
      <trkpt lat="46.74204" lon="-1.99332">
        <ele>6</ele>
        <time>2018-04-29T04:01:12Z</time>
      </trkpt>
      <trkpt lat="46.74197" lon="-1.99324">
        <ele>6</ele>
        <time>2018-04-29T04:02:12Z</time>
      </trkpt>
      <trkpt lat="46.74197" lon="-1.99324">
        <ele>6</ele>
        <time>2018-04-29T04:03:12Z</time>
      </trkpt>
      <trkpt lat="46.74194" lon="-1.99324">
        <ele>6</ele>
        <time>2018-04-29T04:04:12Z</time>
      </trkpt>
      <trkpt lat="46.7419" lon="-1.99324">
        <ele>6</ele>
        <time>2018-04-29T04:05:12Z</time>
      </trkpt>
      <trkpt lat="46.74186" lon="-1.99322">
        <ele>6</ele>
        <time>2018-04-29T04:06:12Z</time>
      </trkpt>
      <trkpt lat="46.74183" lon="-1.9932">
        <ele>6</ele>
        <time>2018-04-29T04:07:12Z</time>
      </trkpt>
      <trkpt lat="46.74181" lon="-1.99317">
        <ele>6</ele>
        <time>2018-04-29T04:08:12Z</time>
      </trkpt>
      <trkpt lat="46.74179" lon="-1.99312">
        <ele>6</ele>
        <time>2018-04-29T04:09:12Z</time>
      </trkpt>
      <trkpt lat="46.74178" lon="-1.99309">
        <ele>6</ele>
        <time>2018-04-29T04:10:12Z</time>
      </trkpt>
      <trkpt lat="46.74178" lon="-1.99306">
        <ele>5</ele>
        <time>2018-04-29T04:11:12Z</time>
      </trkpt>
      <trkpt lat="46.74178" lon="-1.99301">
        <ele>5</ele>
        <time>2018-04-29T04:12:12Z</time>
      </trkpt>
      <trkpt lat="46.74178" lon="-1.99298">
        <ele>5</ele>
        <time>2018-04-29T04:13:12Z</time>
      </trkpt>
      <trkpt lat="46.7418" lon="-1.99292">
        <ele>5</ele>
        <time>2018-04-29T04:14:12Z</time>
      </trkpt>
      <trkpt lat="46.74181" lon="-1.99289">
        <ele>5</ele>
        <time>2018-04-29T04:15:12Z</time>
      </trkpt>
      <trkpt lat="46.74182" lon="-1.99286">
        <ele>5</ele>
        <time>2018-04-29T04:16:12Z</time>
      </trkpt>
      <trkpt lat="46.74184" lon="-1.99283">
        <ele>4</ele>
        <time>2018-04-29T04:17:12Z</time>
      </trkpt>
      <trkpt lat="46.74187" lon="-1.99281">
        <ele>4</ele>
        <time>2018-04-29T04:18:12Z</time>
      </trkpt>
      <trkpt lat="46.74189" lon="-1.99281">
        <ele>4</ele>
        <time>2018-04-29T04:19:12Z</time>
      </trkpt>
      <trkpt lat="46.74192" lon="-1.9928">
        <ele>4</ele>
        <time>2018-04-29T04:20:12Z</time>
      </trkpt>
      <trkpt lat="46.74198" lon="-1.9926">
        <ele>4</ele>
        <time>2018-04-29T04:21:12Z</time>
      </trkpt>
      <trkpt lat="46.74202" lon="-1.99249">
        <ele>3</ele>
        <time>2018-04-29T04:22:12Z</time>
      </trkpt>
      <trkpt lat="46.74202" lon="-1.99249">
        <ele>3</ele>
        <time>2018-04-29T04:23:12Z</time>
      </trkpt>
      <trkpt lat="46.74196" lon="-1.99205">
        <ele>3</ele>
        <time>2018-04-29T04:24:12Z</time>
      </trkpt>
      <trkpt lat="46.74188" lon="-1.99143">
        <ele>2</ele>
        <time>2018-04-29T04:25:12Z</time>
      </trkpt>
      <trkpt lat="46.74182" lon="-1.99097">
        <ele>4</ele>
        <time>2018-04-29T04:26:12Z</time>
      </trkpt>
      <trkpt lat="46.74173" lon="-1.99025">
        <ele>4</ele>
        <time>2018-04-29T04:27:12Z</time>
      </trkpt>
      <trkpt lat="46.74165" lon="-1.98955">
        <ele>4</ele>
        <time>2018-04-29T04:28:12Z</time>
      </trkpt>
      <trkpt lat="46.74158" lon="-1.98902">
        <ele>4</ele>
        <time>2018-04-29T04:29:12Z</time>
      </trkpt>
      <trkpt lat="46.74152" lon="-1.98853">
        <ele>4</ele>
        <time>2018-04-29T04:30:12Z</time>
      </trkpt>
      <trkpt lat="46.74145" lon="-1.98827">
        <ele>4</ele>
        <time>2018-04-29T04:31:12Z</time>
      </trkpt>
      <trkpt lat="46.74134" lon="-1.98793">
        <ele>3</ele>
        <time>2018-04-29T04:32:12Z</time>
      </trkpt>
      <trkpt lat="46.74119" lon="-1.98748">
        <ele>3</ele>
        <time>2018-04-29T04:33:12Z</time>
      </trkpt>
      <trkpt lat="46.74115" lon="-1.98734">
        <ele>3</ele>
        <time>2018-04-29T04:34:12Z</time>
      </trkpt>
      <trkpt lat="46.74104" lon="-1.98704">
        <ele>3</ele>
        <time>2018-04-29T04:35:12Z</time>
      </trkpt>
      <trkpt lat="46.74103" lon="-1.98702">
        <ele>3</ele>
        <time>2018-04-29T04:36:12Z</time>
      </trkpt>
      <trkpt lat="46.74089" lon="-1.98664">
        <ele>3</ele>
        <time>2018-04-29T04:37:12Z</time>
      </trkpt>
      <trkpt lat="46.74064" lon="-1.98605">
        <ele>2</ele>
        <time>2018-04-29T04:38:12Z</time>
      </trkpt>
      <trkpt lat="46.7406" lon="-1.98596">
        <ele>2</ele>
        <time>2018-04-29T04:39:12Z</time>
      </trkpt>
      <trkpt lat="46.74055" lon="-1.98586">
        <ele>2</ele>
        <time>2018-04-29T04:40:12Z</time>
      </trkpt>
      <trkpt lat="46.74052" lon="-1.98577">
        <ele>2</ele>
        <time>2018-04-29T04:41:12Z</time>
      </trkpt>
      <trkpt lat="46.74044" lon="-1.98553">
        <ele>2</ele>
        <time>2018-04-29T04:42:12Z</time>
      </trkpt>
      <trkpt lat="46.74027" lon="-1.98499">
        <ele>3</ele>
        <time>2018-04-29T04:43:12Z</time>
      </trkpt>
      <trkpt lat="46.74008" lon="-1.98438">
        <ele>4</ele>
        <time>2018-04-29T04:44:12Z</time>
      </trkpt>
      <trkpt lat="46.74002" lon="-1.98415">
        <ele>4</ele>
        <time>2018-04-29T04:45:12Z</time>
      </trkpt>
      <trkpt lat="46.73987" lon="-1.98366">
        <ele>4</ele>
        <time>2018-04-29T04:46:12Z</time>
      </trkpt>
      <trkpt lat="46.73969" lon="-1.98308">
        <ele>3</ele>
        <time>2018-04-29T04:47:12Z</time>
      </trkpt>
      <trkpt lat="46.7395" lon="-1.98244">
        <ele>4</ele>
        <time>2018-04-29T04:48:12Z</time>
      </trkpt>
      <trkpt lat="46.73949" lon="-1.9824">
        <ele>4</ele>
        <time>2018-04-29T04:49:12Z</time>
      </trkpt>
      <trkpt lat="46.73936" lon="-1.98195">
        <ele>5</ele>
        <time>2018-04-29T04:50:12Z</time>
      </trkpt>
      <trkpt lat="46.73923" lon="-1.98154">
        <ele>7</ele>
        <time>2018-04-29T04:51:12Z</time>
      </trkpt>
      <trkpt lat="46.739" lon="-1.98078">
        <ele>7</ele>
        <time>2018-04-29T04:52:12Z</time>
      </trkpt>
      <trkpt lat="46.73872" lon="-1.97988">
        <ele>7</ele>
        <time>2018-04-29T04:53:12Z</time>
      </trkpt>
      <trkpt lat="46.73855" lon="-1.97933">
        <ele>7</ele>
        <time>2018-04-29T04:54:12Z</time>
      </trkpt>
      <trkpt lat="46.73839" lon="-1.97888">
        <ele>6</ele>
        <time>2018-04-29T04:55:12Z</time>
      </trkpt>
      <trkpt lat="46.73838" lon="-1.97887">
        <ele>7</ele>
        <time>2018-04-29T04:56:12Z</time>
      </trkpt>
      <trkpt lat="46.73824" lon="-1.97858">
        <ele>7</ele>
        <time>2018-04-29T04:57:12Z</time>
      </trkpt>
      <trkpt lat="46.73808" lon="-1.97827">
        <ele>7</ele>
        <time>2018-04-29T04:58:12Z</time>
      </trkpt>
      <trkpt lat="46.73808" lon="-1.97827">
        <ele>7</ele>
        <time>2018-04-29T04:59:12Z</time>
      </trkpt>
      <trkpt lat="46.73797" lon="-1.97808">
        <ele>7</ele>
        <time>2018-04-29T05:00:12Z</time>
      </trkpt>
      <trkpt lat="46.73774" lon="-1.97766">
        <ele>8</ele>
        <time>2018-04-29T05:01:12Z</time>
      </trkpt>
      <trkpt lat="46.73744" lon="-1.97715">
        <ele>8</ele>
        <time>2018-04-29T05:02:12Z</time>
      </trkpt>
      <trkpt lat="46.73717" lon="-1.97674">
        <ele>7</ele>
        <time>2018-04-29T05:03:12Z</time>
      </trkpt>
      <trkpt lat="46.73698" lon="-1.97651">
        <ele>7</ele>
        <time>2018-04-29T05:04:12Z</time>
      </trkpt>
      <trkpt lat="46.7366" lon="-1.97612">
        <ele>7</ele>
        <time>2018-04-29T05:05:12Z</time>
      </trkpt>
      <trkpt lat="46.73606" lon="-1.97556">
        <ele>6</ele>
        <time>2018-04-29T05:06:12Z</time>
      </trkpt>
      <trkpt lat="46.73584" lon="-1.97533">
        <ele>6</ele>
        <time>2018-04-29T05:07:12Z</time>
      </trkpt>
      <trkpt lat="46.7355" lon="-1.97498">
        <ele>6</ele>
        <time>2018-04-29T05:08:12Z</time>
      </trkpt>
      <trkpt lat="46.73533" lon="-1.9748">
        <ele>6</ele>
        <time>2018-04-29T05:09:12Z</time>
      </trkpt>
      <trkpt lat="46.73498" lon="-1.97445">
        <ele>6</ele>
        <time>2018-04-29T05:10:12Z</time>
      </trkpt>
      <trkpt lat="46.73476" lon="-1.97423">
        <ele>8</ele>
        <time>2018-04-29T05:11:12Z</time>
      </trkpt>
      <trkpt lat="46.73447" lon="-1.97394">
        <ele>8</ele>
        <time>2018-04-29T05:12:12Z</time>
      </trkpt>
      <trkpt lat="46.73429" lon="-1.97377">
        <ele>7</ele>
        <time>2018-04-29T05:13:12Z</time>
      </trkpt>
      <trkpt lat="46.73417" lon="-1.97367">
        <ele>6</ele>
        <time>2018-04-29T05:14:12Z</time>
      </trkpt>
      <trkpt lat="46.73405" lon="-1.97358">
        <ele>6</ele>
        <time>2018-04-29T05:15:12Z</time>
      </trkpt>
      <trkpt lat="46.73396" lon="-1.97354">
        <ele>6</ele>
        <time>2018-04-29T05:16:12Z</time>
      </trkpt>
      <trkpt lat="46.73384" lon="-1.97347">
        <ele>7</ele>
        <time>2018-04-29T05:17:12Z</time>
      </trkpt>
      <trkpt lat="46.7336" lon="-1.97335">
        <ele>7</ele>
        <time>2018-04-29T05:18:12Z</time>
      </trkpt>
      <trkpt lat="46.73327" lon="-1.97318">
        <ele>8</ele>
        <time>2018-04-29T05:19:12Z</time>
      </trkpt>
      <trkpt lat="46.73295" lon="-1.97301">
        <ele>9</ele>
        <time>2018-04-29T05:20:12Z</time>
      </trkpt>
      <trkpt lat="46.73269" lon="-1.97288">
        <ele>9</ele>
        <time>2018-04-29T05:21:12Z</time>
      </trkpt>
      <trkpt lat="46.73244" lon="-1.97274">
        <ele>9</ele>
        <time>2018-04-29T05:22:12Z</time>
      </trkpt>
      <trkpt lat="46.73232" lon="-1.97264">
        <ele>10</ele>
        <time>2018-04-29T05:23:12Z</time>
      </trkpt>
      <trkpt lat="46.73221" lon="-1.97253">
        <ele>10</ele>
        <time>2018-04-29T05:24:12Z</time>
      </trkpt>
      <trkpt lat="46.73211" lon="-1.97241">
        <ele>11</ele>
        <time>2018-04-29T05:25:12Z</time>
      </trkpt>
      <trkpt lat="46.732" lon="-1.97229">
        <ele>11</ele>
        <time>2018-04-29T05:26:12Z</time>
      </trkpt>
      <trkpt lat="46.73183" lon="-1.97206">
        <ele>11</ele>
        <time>2018-04-29T05:27:12Z</time>
      </trkpt>
      <trkpt lat="46.73182" lon="-1.97205">
        <ele>11</ele>
        <time>2018-04-29T05:28:12Z</time>
      </trkpt>
      <trkpt lat="46.73159" lon="-1.97171">
        <ele>11</ele>
        <time>2018-04-29T05:29:12Z</time>
      </trkpt>
      <trkpt lat="46.73145" lon="-1.97152">
        <ele>11</ele>
        <time>2018-04-29T05:30:12Z</time>
      </trkpt>
      <trkpt lat="46.73133" lon="-1.97137">
        <ele>12</ele>
        <time>2018-04-29T05:31:12Z</time>
      </trkpt>
      <trkpt lat="46.7311" lon="-1.97105">
        <ele>12</ele>
        <time>2018-04-29T05:32:12Z</time>
      </trkpt>
      <trkpt lat="46.73082" lon="-1.97065">
        <ele>12</ele>
        <time>2018-04-29T05:33:12Z</time>
      </trkpt>
      <trkpt lat="46.7305" lon="-1.97018">
        <ele>13</ele>
        <time>2018-04-29T05:34:12Z</time>
      </trkpt>
      <trkpt lat="46.73026" lon="-1.96984">
        <ele>13</ele>
        <time>2018-04-29T05:35:12Z</time>
      </trkpt>
      <trkpt lat="46.73012" lon="-1.96967">
        <ele>13</ele>
        <time>2018-04-29T05:36:12Z</time>
      </trkpt>
      <trkpt lat="46.72998" lon="-1.96937">
        <ele>13</ele>
        <time>2018-04-29T05:37:12Z</time>
      </trkpt>
      <trkpt lat="46.72983" lon="-1.96904">
        <ele>12</ele>
        <time>2018-04-29T05:38:12Z</time>
      </trkpt>
      <trkpt lat="46.72977" lon="-1.96892">
        <ele>12</ele>
        <time>2018-04-29T05:39:12Z</time>
      </trkpt>
      <trkpt lat="46.72967" lon="-1.96865">
        <ele>12</ele>
        <time>2018-04-29T05:40:12Z</time>
      </trkpt>
      <trkpt lat="46.72959" lon="-1.96845">
        <ele>11</ele>
        <time>2018-04-29T05:41:12Z</time>
      </trkpt>
      <trkpt lat="46.72952" lon="-1.9683">
        <ele>11</ele>
        <time>2018-04-29T05:42:12Z</time>
      </trkpt>
      <trkpt lat="46.72945" lon="-1.96814">
        <ele>11</ele>
        <time>2018-04-29T05:43:12Z</time>
      </trkpt>
      <trkpt lat="46.72934" lon="-1.96792">
        <ele>10</ele>
        <time>2018-04-29T05:44:12Z</time>
      </trkpt>
      <trkpt lat="46.72924" lon="-1.96771">
        <ele>9</ele>
        <time>2018-04-29T05:45:12Z</time>
      </trkpt>
      <trkpt lat="46.72909" lon="-1.96738">
        <ele>7</ele>
        <time>2018-04-29T05:46:12Z</time>
      </trkpt>
      <trkpt lat="46.72863" lon="-1.96646">
        <ele>8</ele>
        <time>2018-04-29T05:47:12Z</time>
      </trkpt>
      <trkpt lat="46.72862" lon="-1.96643">
        <ele>8</ele>
        <time>2018-04-29T05:48:12Z</time>
      </trkpt>
      <trkpt lat="46.72848" lon="-1.96613">
        <ele>7</ele>
        <time>2018-04-29T05:49:12Z</time>
      </trkpt>
      <trkpt lat="46.72837" lon="-1.96594">
        <ele>6</ele>
        <time>2018-04-29T05:50:12Z</time>
      </trkpt>
      <trkpt lat="46.72822" lon="-1.96572">
        <ele>6</ele>
        <time>2018-04-29T05:51:12Z</time>
      </trkpt>
      <trkpt lat="46.72814" lon="-1.96558">
        <ele>6</ele>
        <time>2018-04-29T05:52:12Z</time>
      </trkpt>
      <trkpt lat="46.72805" lon="-1.96543">
        <ele>6</ele>
        <time>2018-04-29T05:53:12Z</time>
      </trkpt>
      <trkpt lat="46.7279" lon="-1.96512">
        <ele>7</ele>
        <time>2018-04-29T05:54:12Z</time>
      </trkpt>
      <trkpt lat="46.72726" lon="-1.96371">
        <ele>7</ele>
        <time>2018-04-29T05:55:12Z</time>
      </trkpt>
      <trkpt lat="46.72716" lon="-1.96343">
        <ele>6</ele>
        <time>2018-04-29T05:56:12Z</time>
      </trkpt>
      <trkpt lat="46.72705" lon="-1.96306">
        <ele>7</ele>
        <time>2018-04-29T05:57:12Z</time>
      </trkpt>
      <trkpt lat="46.72698" lon="-1.9628">
        <ele>8</ele>
        <time>2018-04-29T05:58:12Z</time>
      </trkpt>
      <trkpt lat="46.72691" lon="-1.96248">
        <ele>9</ele>
        <time>2018-04-29T05:59:12Z</time>
      </trkpt>
      <trkpt lat="46.72673" lon="-1.96205">
        <ele>9</ele>
        <time>2018-04-29T06:00:12Z</time>
      </trkpt>
      <trkpt lat="46.72651" lon="-1.96167">
        <ele>9</ele>
        <time>2018-04-29T06:01:12Z</time>
      </trkpt>
      <trkpt lat="46.72599" lon="-1.96076">
        <ele>11</ele>
        <time>2018-04-29T06:02:12Z</time>
      </trkpt>
      <trkpt lat="46.7258" lon="-1.96033">
        <ele>11</ele>
        <time>2018-04-29T06:03:12Z</time>
      </trkpt>
      <trkpt lat="46.72552" lon="-1.95967">
        <ele>10</ele>
        <time>2018-04-29T06:04:12Z</time>
      </trkpt>
      <trkpt lat="46.72541" lon="-1.9594">
        <ele>9</ele>
        <time>2018-04-29T06:05:12Z</time>
      </trkpt>
      <trkpt lat="46.72522" lon="-1.95893">
        <ele>8</ele>
        <time>2018-04-29T06:06:12Z</time>
      </trkpt>
      <trkpt lat="46.72484" lon="-1.95782">
        <ele>6</ele>
        <time>2018-04-29T06:07:12Z</time>
      </trkpt>
      <trkpt lat="46.72455" lon="-1.95675">
        <ele>4</ele>
        <time>2018-04-29T06:08:12Z</time>
      </trkpt>
      <trkpt lat="46.72448" lon="-1.9565">
        <ele>4</ele>
        <time>2018-04-29T06:09:12Z</time>
      </trkpt>
      <trkpt lat="46.7244" lon="-1.95616">
        <ele>4</ele>
        <time>2018-04-29T06:10:12Z</time>
      </trkpt>
      <trkpt lat="46.72434" lon="-1.95607">
        <ele>5</ele>
        <time>2018-04-29T06:11:12Z</time>
      </trkpt>
      <trkpt lat="46.72429" lon="-1.95598">
        <ele>5</ele>
        <time>2018-04-29T06:12:12Z</time>
      </trkpt>
      <trkpt lat="46.72429" lon="-1.95598">
        <ele>5</ele>
        <time>2018-04-29T06:13:12Z</time>
      </trkpt>
      <trkpt lat="46.72424" lon="-1.95602">
        <ele>5</ele>
        <time>2018-04-29T06:14:12Z</time>
      </trkpt>
      <trkpt lat="46.72417" lon="-1.95604">
        <ele>5</ele>
        <time>2018-04-29T06:15:12Z</time>
      </trkpt>
      <trkpt lat="46.72409" lon="-1.95606">
        <ele>5</ele>
        <time>2018-04-29T06:16:12Z</time>
      </trkpt>
      <trkpt lat="46.72403" lon="-1.95606">
        <ele>5</ele>
        <time>2018-04-29T06:17:12Z</time>
      </trkpt>
      <trkpt lat="46.7239" lon="-1.95607">
        <ele>6</ele>
        <time>2018-04-29T06:18:12Z</time>
      </trkpt>
      <trkpt lat="46.72379" lon="-1.95608">
        <ele>6</ele>
        <time>2018-04-29T06:19:12Z</time>
      </trkpt>
      <trkpt lat="46.72362" lon="-1.9561">
        <ele>7</ele>
        <time>2018-04-29T06:20:12Z</time>
      </trkpt>
      <trkpt lat="46.72304" lon="-1.95614">
        <ele>10</ele>
        <time>2018-04-29T06:21:12Z</time>
      </trkpt>
      <trkpt lat="46.723" lon="-1.95614">
        <ele>10</ele>
        <time>2018-04-29T06:22:12Z</time>
      </trkpt>
      <trkpt lat="46.72253" lon="-1.95619">
        <ele>12</ele>
        <time>2018-04-29T06:23:12Z</time>
      </trkpt>
      <trkpt lat="46.72236" lon="-1.9562">
        <ele>12</ele>
        <time>2018-04-29T06:24:12Z</time>
      </trkpt>
      <trkpt lat="46.72224" lon="-1.95623">
        <ele>12</ele>
        <time>2018-04-29T06:25:12Z</time>
      </trkpt>
      <trkpt lat="46.72215" lon="-1.95627">
        <ele>12</ele>
        <time>2018-04-29T06:26:12Z</time>
      </trkpt>
      <trkpt lat="46.72209" lon="-1.95632">
        <ele>13</ele>
        <time>2018-04-29T06:27:12Z</time>
      </trkpt>
      <trkpt lat="46.722" lon="-1.95639">
        <ele>13</ele>
        <time>2018-04-29T06:28:12Z</time>
      </trkpt>
      <trkpt lat="46.72177" lon="-1.95669">
        <ele>14</ele>
        <time>2018-04-29T06:29:12Z</time>
      </trkpt>
      <trkpt lat="46.72147" lon="-1.95709">
        <ele>14</ele>
        <time>2018-04-29T06:30:12Z</time>
      </trkpt>
      <trkpt lat="46.72112" lon="-1.95757">
        <ele>13</ele>
        <time>2018-04-29T06:31:12Z</time>
      </trkpt>
      <trkpt lat="46.72101" lon="-1.95773">
        <ele>14</ele>
        <time>2018-04-29T06:32:12Z</time>
      </trkpt>
      <trkpt lat="46.72094" lon="-1.95784">
        <ele>14</ele>
        <time>2018-04-29T06:33:12Z</time>
      </trkpt>
      <trkpt lat="46.72087" lon="-1.95796">
        <ele>15</ele>
        <time>2018-04-29T06:34:12Z</time>
      </trkpt>
      <trkpt lat="46.72081" lon="-1.95809">
        <ele>15</ele>
        <time>2018-04-29T06:35:12Z</time>
      </trkpt>
      <trkpt lat="46.72076" lon="-1.9582">
        <ele>16</ele>
        <time>2018-04-29T06:36:12Z</time>
      </trkpt>
      <trkpt lat="46.72072" lon="-1.95829">
        <ele>16</ele>
        <time>2018-04-29T06:37:12Z</time>
      </trkpt>
      <trkpt lat="46.72067" lon="-1.95845">
        <ele>17</ele>
        <time>2018-04-29T06:38:12Z</time>
      </trkpt>
      <trkpt lat="46.72064" lon="-1.95857">
        <ele>17</ele>
        <time>2018-04-29T06:39:12Z</time>
      </trkpt>
      <trkpt lat="46.72063" lon="-1.95859">
        <ele>17</ele>
        <time>2018-04-29T06:40:12Z</time>
      </trkpt>
      <trkpt lat="46.72056" lon="-1.95885">
        <ele>17</ele>
        <time>2018-04-29T06:41:12Z</time>
      </trkpt>
      <trkpt lat="46.72043" lon="-1.95939">
        <ele>18</ele>
        <time>2018-04-29T06:42:12Z</time>
      </trkpt>
      <trkpt lat="46.72024" lon="-1.96006">
        <ele>20</ele>
        <time>2018-04-29T06:43:12Z</time>
      </trkpt>
      <trkpt lat="46.71994" lon="-1.96126">
        <ele>17</ele>
        <time>2018-04-29T06:44:12Z</time>
      </trkpt>
      <trkpt lat="46.7198" lon="-1.96175">
        <ele>16</ele>
        <time>2018-04-29T06:45:12Z</time>
      </trkpt>
      <trkpt lat="46.71974" lon="-1.96203">
        <ele>15</ele>
        <time>2018-04-29T06:46:12Z</time>
      </trkpt>
      <trkpt lat="46.71968" lon="-1.96225">
        <ele>15</ele>
        <time>2018-04-29T06:47:12Z</time>
      </trkpt>
      <trkpt lat="46.71964" lon="-1.96236">
        <ele>14</ele>
        <time>2018-04-29T06:48:12Z</time>
      </trkpt>
      <trkpt lat="46.71962" lon="-1.96242">
        <ele>14</ele>
        <time>2018-04-29T06:49:12Z</time>
      </trkpt>
      <trkpt lat="46.71956" lon="-1.96257">
        <ele>14</ele>
        <time>2018-04-29T06:50:12Z</time>
      </trkpt>
      <trkpt lat="46.71953" lon="-1.96265">
        <ele>14</ele>
        <time>2018-04-29T06:51:12Z</time>
      </trkpt>
      <trkpt lat="46.71948" lon="-1.96274">
        <ele>14</ele>
        <time>2018-04-29T06:52:12Z</time>
      </trkpt>
      <trkpt lat="46.71941" lon="-1.96286">
        <ele>14</ele>
        <time>2018-04-29T06:53:12Z</time>
      </trkpt>
      <trkpt lat="46.71927" lon="-1.96309">
        <ele>15</ele>
        <time>2018-04-29T06:54:12Z</time>
      </trkpt>
      <trkpt lat="46.71913" lon="-1.96333">
        <ele>15</ele>
        <time>2018-04-29T06:55:12Z</time>
      </trkpt>
      <trkpt lat="46.71894" lon="-1.96363">
        <ele>16</ele>
        <time>2018-04-29T06:56:12Z</time>
      </trkpt>
      <trkpt lat="46.71879" lon="-1.96391">
        <ele>16</ele>
        <time>2018-04-29T06:57:12Z</time>
      </trkpt>
      <trkpt lat="46.71872" lon="-1.96405">
        <ele>16</ele>
        <time>2018-04-29T06:58:12Z</time>
      </trkpt>
      <trkpt lat="46.71869" lon="-1.96413">
        <ele>17</ele>
        <time>2018-04-29T06:59:12Z</time>
      </trkpt>
      <trkpt lat="46.71866" lon="-1.96422">
        <ele>17</ele>
        <time>2018-04-29T07:00:12Z</time>
      </trkpt>
      <trkpt lat="46.71864" lon="-1.9643">
        <ele>16</ele>
        <time>2018-04-29T07:01:12Z</time>
      </trkpt>
      <trkpt lat="46.71862" lon="-1.96438">
        <ele>16</ele>
        <time>2018-04-29T07:02:12Z</time>
      </trkpt>
      <trkpt lat="46.7186" lon="-1.96455">
        <ele>16</ele>
        <time>2018-04-29T07:03:12Z</time>
      </trkpt>
      <trkpt lat="46.71855" lon="-1.96503">
        <ele>15</ele>
        <time>2018-04-29T07:04:12Z</time>
      </trkpt>
      <trkpt lat="46.71848" lon="-1.96557">
        <ele>13</ele>
        <time>2018-04-29T07:05:12Z</time>
      </trkpt>
      <trkpt lat="46.71848" lon="-1.96563">
        <ele>13</ele>
        <time>2018-04-29T07:06:12Z</time>
      </trkpt>
      <trkpt lat="46.71847" lon="-1.96574">
        <ele>13</ele>
        <time>2018-04-29T07:07:12Z</time>
      </trkpt>
      <trkpt lat="46.71847" lon="-1.96591">
        <ele>13</ele>
        <time>2018-04-29T07:08:12Z</time>
      </trkpt>
      <trkpt lat="46.71848" lon="-1.96608">
        <ele>12</ele>
        <time>2018-04-29T07:09:12Z</time>
      </trkpt>
      <trkpt lat="46.71848" lon="-1.96623">
        <ele>12</ele>
        <time>2018-04-29T07:10:12Z</time>
      </trkpt>
      <trkpt lat="46.71849" lon="-1.96656">
        <ele>12</ele>
        <time>2018-04-29T07:11:12Z</time>
      </trkpt>
      <trkpt lat="46.7185" lon="-1.96694">
        <ele>12</ele>
        <time>2018-04-29T07:12:12Z</time>
      </trkpt>
      <trkpt lat="46.71851" lon="-1.96722">
        <ele>12</ele>
        <time>2018-04-29T07:13:12Z</time>
      </trkpt>
      <trkpt lat="46.71852" lon="-1.96743">
        <ele>12</ele>
        <time>2018-04-29T07:14:12Z</time>
      </trkpt>
      <trkpt lat="46.71852" lon="-1.96752">
        <ele>12</ele>
        <time>2018-04-29T07:15:12Z</time>
      </trkpt>
      <trkpt lat="46.71854" lon="-1.96774">
        <ele>13</ele>
        <time>2018-04-29T07:16:12Z</time>
      </trkpt>
      <trkpt lat="46.71843" lon="-1.96822">
        <ele>14</ele>
        <time>2018-04-29T07:17:12Z</time>
      </trkpt>
      <trkpt lat="46.71843" lon="-1.96822">
        <ele>14</ele>
        <time>2018-04-29T07:18:12Z</time>
      </trkpt>
      <trkpt lat="46.71839" lon="-1.9684">
        <ele>14</ele>
        <time>2018-04-29T07:19:12Z</time>
      </trkpt>
      <trkpt lat="46.71835" lon="-1.96855">
        <ele>14</ele>
        <time>2018-04-29T07:20:12Z</time>
      </trkpt>
      <trkpt lat="46.71833" lon="-1.96862">
        <ele>14</ele>
        <time>2018-04-29T07:21:12Z</time>
      </trkpt>
      <trkpt lat="46.71826" lon="-1.96859">
        <ele>14</ele>
        <time>2018-04-29T07:22:12Z</time>
      </trkpt>
      <trkpt lat="46.71812" lon="-1.96843">
        <ele>14</ele>
        <time>2018-04-29T07:23:12Z</time>
      </trkpt>
      <trkpt lat="46.71808" lon="-1.96839">
        <ele>14</ele>
        <time>2018-04-29T07:24:12Z</time>
      </trkpt>
      <trkpt lat="46.71796" lon="-1.96835">
        <ele>14</ele>
        <time>2018-04-29T07:25:12Z</time>
      </trkpt>
      <trkpt lat="46.71781" lon="-1.9683">
        <ele>13</ele>
        <time>2018-04-29T07:26:12Z</time>
      </trkpt>
      <trkpt lat="46.71767" lon="-1.96825">
        <ele>13</ele>
        <time>2018-04-29T07:27:12Z</time>
      </trkpt>
      <trkpt lat="46.71755" lon="-1.9682">
        <ele>13</ele>
        <time>2018-04-29T07:28:12Z</time>
      </trkpt>
      <trkpt lat="46.71747" lon="-1.96817">
        <ele>13</ele>
        <time>2018-04-29T07:29:12Z</time>
      </trkpt>
      <trkpt lat="46.71738" lon="-1.96811">
        <ele>13</ele>
        <time>2018-04-29T07:30:12Z</time>
      </trkpt>
      <trkpt lat="46.71726" lon="-1.96803">
        <ele>13</ele>
        <time>2018-04-29T07:31:12Z</time>
      </trkpt>
      <trkpt lat="46.71712" lon="-1.96794">
        <ele>13</ele>
        <time>2018-04-29T07:32:12Z</time>
      </trkpt>
      <trkpt lat="46.71699" lon="-1.96786">
        <ele>13</ele>
        <time>2018-04-29T07:33:12Z</time>
      </trkpt>
      <trkpt lat="46.71689" lon="-1.96781">
        <ele>14</ele>
        <time>2018-04-29T07:34:12Z</time>
      </trkpt>
      <trkpt lat="46.7168" lon="-1.96777">
        <ele>14</ele>
        <time>2018-04-29T07:35:12Z</time>
      </trkpt>
      <trkpt lat="46.71672" lon="-1.96774">
        <ele>14</ele>
        <time>2018-04-29T07:36:12Z</time>
      </trkpt>
      <trkpt lat="46.71664" lon="-1.96774">
        <ele>14</ele>
        <time>2018-04-29T07:37:12Z</time>
      </trkpt>
      <trkpt lat="46.71657" lon="-1.96774">
        <ele>14</ele>
        <time>2018-04-29T07:38:12Z</time>
      </trkpt>
      <trkpt lat="46.7165" lon="-1.96775">
        <ele>14</ele>
        <time>2018-04-29T07:39:12Z</time>
      </trkpt>
      <trkpt lat="46.71643" lon="-1.96776">
        <ele>14</ele>
        <time>2018-04-29T07:40:12Z</time>
      </trkpt>
      <trkpt lat="46.71634" lon="-1.9678">
        <ele>14</ele>
        <time>2018-04-29T07:41:12Z</time>
      </trkpt>
      <trkpt lat="46.71615" lon="-1.96791">
        <ele>14</ele>
        <time>2018-04-29T07:42:12Z</time>
      </trkpt>
      <trkpt lat="46.71598" lon="-1.96802">
        <ele>14</ele>
        <time>2018-04-29T07:43:12Z</time>
      </trkpt>
      <trkpt lat="46.71593" lon="-1.96805">
        <ele>14</ele>
        <time>2018-04-29T07:44:12Z</time>
      </trkpt>
      <trkpt lat="46.71587" lon="-1.96807">
        <ele>14</ele>
        <time>2018-04-29T07:45:12Z</time>
      </trkpt>
      <trkpt lat="46.71581" lon="-1.96809">
        <ele>14</ele>
        <time>2018-04-29T07:46:12Z</time>
      </trkpt>
      <trkpt lat="46.71571" lon="-1.9681">
        <ele>14</ele>
        <time>2018-04-29T07:47:12Z</time>
      </trkpt>
      <trkpt lat="46.71558" lon="-1.96809">
        <ele>14</ele>
        <time>2018-04-29T07:48:12Z</time>
      </trkpt>
      <trkpt lat="46.71543" lon="-1.96807">
        <ele>14</ele>
        <time>2018-04-29T07:49:12Z</time>
      </trkpt>
      <trkpt lat="46.71528" lon="-1.96807">
        <ele>14</ele>
        <time>2018-04-29T07:50:12Z</time>
      </trkpt>
      <trkpt lat="46.71496" lon="-1.96806">
        <ele>13</ele>
        <time>2018-04-29T07:51:12Z</time>
      </trkpt>
      <trkpt lat="46.71474" lon="-1.96801">
        <ele>13</ele>
        <time>2018-04-29T07:52:12Z</time>
      </trkpt>
      <trkpt lat="46.71442" lon="-1.96789">
        <ele>13</ele>
        <time>2018-04-29T07:53:12Z</time>
      </trkpt>
      <trkpt lat="46.71424" lon="-1.96783">
        <ele>13</ele>
        <time>2018-04-29T07:54:12Z</time>
      </trkpt>
      <trkpt lat="46.71403" lon="-1.96777">
        <ele>14</ele>
        <time>2018-04-29T07:55:12Z</time>
      </trkpt>
      <trkpt lat="46.71403" lon="-1.96777">
        <ele>14</ele>
        <time>2018-04-29T07:56:12Z</time>
      </trkpt>
      <trkpt lat="46.71395" lon="-1.96774">
        <ele>14</ele>
        <time>2018-04-29T07:57:12Z</time>
      </trkpt>
      <trkpt lat="46.71382" lon="-1.96767">
        <ele>15</ele>
        <time>2018-04-29T07:58:12Z</time>
      </trkpt>
      <trkpt lat="46.7137" lon="-1.96762">
        <ele>15</ele>
        <time>2018-04-29T07:59:12Z</time>
      </trkpt>
      <trkpt lat="46.71362" lon="-1.96758">
        <ele>16</ele>
        <time>2018-04-29T08:00:12Z</time>
      </trkpt>
      <trkpt lat="46.71348" lon="-1.96755">
        <ele>16</ele>
        <time>2018-04-29T08:01:12Z</time>
      </trkpt>
      <trkpt lat="46.71332" lon="-1.96753">
        <ele>17</ele>
        <time>2018-04-29T08:02:12Z</time>
      </trkpt>
      <trkpt lat="46.7132" lon="-1.9675">
        <ele>17</ele>
        <time>2018-04-29T08:03:12Z</time>
      </trkpt>
      <trkpt lat="46.7131" lon="-1.96749">
        <ele>16</ele>
        <time>2018-04-29T08:04:12Z</time>
      </trkpt>
      <trkpt lat="46.713" lon="-1.9675">
        <ele>16</ele>
        <time>2018-04-29T08:05:12Z</time>
      </trkpt>
      <trkpt lat="46.71292" lon="-1.9675">
        <ele>16</ele>
        <time>2018-04-29T08:06:12Z</time>
      </trkpt>
      <trkpt lat="46.7128" lon="-1.96751">
        <ele>16</ele>
        <time>2018-04-29T08:07:12Z</time>
      </trkpt>
      <trkpt lat="46.71268" lon="-1.96753">
        <ele>15</ele>
        <time>2018-04-29T08:08:12Z</time>
      </trkpt>
      <trkpt lat="46.71248" lon="-1.9676">
        <ele>15</ele>
        <time>2018-04-29T08:09:12Z</time>
      </trkpt>
      <trkpt lat="46.71248" lon="-1.9676">
        <ele>15</ele>
        <time>2018-04-29T08:10:12Z</time>
      </trkpt>
      <trkpt lat="46.71239" lon="-1.96763">
        <ele>15</ele>
        <time>2018-04-29T08:11:12Z</time>
      </trkpt>
      <trkpt lat="46.71215" lon="-1.96763">
        <ele>15</ele>
        <time>2018-04-29T08:12:12Z</time>
      </trkpt>
      <trkpt lat="46.71179" lon="-1.96765">
        <ele>15</ele>
        <time>2018-04-29T08:13:12Z</time>
      </trkpt>
      <trkpt lat="46.71128" lon="-1.96765">
        <ele>14</ele>
        <time>2018-04-29T08:14:12Z</time>
      </trkpt>
      <trkpt lat="46.71081" lon="-1.96765">
        <ele>14</ele>
        <time>2018-04-29T08:15:12Z</time>
      </trkpt>
      <trkpt lat="46.71065" lon="-1.96766">
        <ele>14</ele>
        <time>2018-04-29T08:16:12Z</time>
      </trkpt>
      <trkpt lat="46.71039" lon="-1.96766">
        <ele>13</ele>
        <time>2018-04-29T08:17:12Z</time>
      </trkpt>
      <trkpt lat="46.71035" lon="-1.9677">
        <ele>13</ele>
        <time>2018-04-29T08:18:12Z</time>
      </trkpt>
      <trkpt lat="46.7103" lon="-1.96775">
        <ele>13</ele>
        <time>2018-04-29T08:19:12Z</time>
      </trkpt>
      <trkpt lat="46.71023" lon="-1.96781">
        <ele>13</ele>
        <time>2018-04-29T08:20:12Z</time>
      </trkpt>
      <trkpt lat="46.71023" lon="-1.96781">
        <ele>13</ele>
        <time>2018-04-29T08:21:12Z</time>
      </trkpt>
      <trkpt lat="46.71021" lon="-1.96786">
        <ele>13</ele>
        <time>2018-04-29T08:22:12Z</time>
      </trkpt>
      <trkpt lat="46.71019" lon="-1.96789">
        <ele>13</ele>
        <time>2018-04-29T08:23:12Z</time>
      </trkpt>
      <trkpt lat="46.71015" lon="-1.96791">
        <ele>13</ele>
        <time>2018-04-29T08:24:12Z</time>
      </trkpt>
      <trkpt lat="46.71012" lon="-1.96792">
        <ele>13</ele>
        <time>2018-04-29T08:25:12Z</time>
      </trkpt>
      <trkpt lat="46.71008" lon="-1.96792">
        <ele>13</ele>
        <time>2018-04-29T08:26:12Z</time>
      </trkpt>
      <trkpt lat="46.71004" lon="-1.96792">
        <ele>13</ele>
        <time>2018-04-29T08:27:12Z</time>
      </trkpt>
      <trkpt lat="46.71002" lon="-1.9679">
        <ele>13</ele>
        <time>2018-04-29T08:28:12Z</time>
      </trkpt>
      <trkpt lat="46.70999" lon="-1.96787">
        <ele>13</ele>
        <time>2018-04-29T08:29:12Z</time>
      </trkpt>
      <trkpt lat="46.70996" lon="-1.96783">
        <ele>13</ele>
        <time>2018-04-29T08:30:12Z</time>
      </trkpt>
      <trkpt lat="46.70994" lon="-1.96779">
        <ele>13</ele>
        <time>2018-04-29T08:31:12Z</time>
      </trkpt>
      <trkpt lat="46.70993" lon="-1.96774">
        <ele>13</ele>
        <time>2018-04-29T08:32:12Z</time>
      </trkpt>
      <trkpt lat="46.70993" lon="-1.9677">
        <ele>13</ele>
        <time>2018-04-29T08:33:12Z</time>
      </trkpt>
      <trkpt lat="46.70993" lon="-1.96765">
        <ele>13</ele>
        <time>2018-04-29T08:34:12Z</time>
      </trkpt>
      <trkpt lat="46.70994" lon="-1.96759">
        <ele>13</ele>
        <time>2018-04-29T08:35:12Z</time>
      </trkpt>
      <trkpt lat="46.7099" lon="-1.96745">
        <ele>13</ele>
        <time>2018-04-29T08:36:12Z</time>
      </trkpt>
      <trkpt lat="46.70986" lon="-1.96731">
        <ele>13</ele>
        <time>2018-04-29T08:37:12Z</time>
      </trkpt>
      <trkpt lat="46.70982" lon="-1.96719">
        <ele>13</ele>
        <time>2018-04-29T08:38:12Z</time>
      </trkpt>
      <trkpt lat="46.70981" lon="-1.96714">
        <ele>13</ele>
        <time>2018-04-29T08:39:12Z</time>
      </trkpt>
      <trkpt lat="46.70976" lon="-1.96705">
        <ele>13</ele>
        <time>2018-04-29T08:40:12Z</time>
      </trkpt>
      <trkpt lat="46.70973" lon="-1.96697">
        <ele>13</ele>
        <time>2018-04-29T08:41:12Z</time>
      </trkpt>
      <trkpt lat="46.70969" lon="-1.96685">
        <ele>13</ele>
        <time>2018-04-29T08:42:12Z</time>
      </trkpt>
      <trkpt lat="46.70963" lon="-1.96669">
        <ele>13</ele>
        <time>2018-04-29T08:43:12Z</time>
      </trkpt>
      <trkpt lat="46.70955" lon="-1.96651">
        <ele>13</ele>
        <time>2018-04-29T08:44:12Z</time>
      </trkpt>
      <trkpt lat="46.7095" lon="-1.9664">
        <ele>13</ele>
        <time>2018-04-29T08:45:12Z</time>
      </trkpt>
      <trkpt lat="46.70947" lon="-1.9663">
        <ele>13</ele>
        <time>2018-04-29T08:46:12Z</time>
      </trkpt>
      <trkpt lat="46.70943" lon="-1.96619">
        <ele>13</ele>
        <time>2018-04-29T08:47:12Z</time>
      </trkpt>
      <trkpt lat="46.70941" lon="-1.96605">
        <ele>13</ele>
        <time>2018-04-29T08:48:12Z</time>
      </trkpt>
      <trkpt lat="46.70939" lon="-1.96593">
        <ele>13</ele>
        <time>2018-04-29T08:49:12Z</time>
      </trkpt>
      <trkpt lat="46.70938" lon="-1.96578">
        <ele>13</ele>
        <time>2018-04-29T08:50:12Z</time>
      </trkpt>
      <trkpt lat="46.70938" lon="-1.96567">
        <ele>13</ele>
        <time>2018-04-29T08:51:12Z</time>
      </trkpt>
      <trkpt lat="46.70938" lon="-1.96557">
        <ele>13</ele>
        <time>2018-04-29T08:52:12Z</time>
      </trkpt>
      <trkpt lat="46.7094" lon="-1.96544">
        <ele>13</ele>
        <time>2018-04-29T08:53:12Z</time>
      </trkpt>
      <trkpt lat="46.70942" lon="-1.96531">
        <ele>13</ele>
        <time>2018-04-29T08:54:12Z</time>
      </trkpt>
      <trkpt lat="46.70946" lon="-1.96512">
        <ele>14</ele>
        <time>2018-04-29T08:55:12Z</time>
      </trkpt>
      <trkpt lat="46.7095" lon="-1.96493">
        <ele>14</ele>
        <time>2018-04-29T08:56:12Z</time>
      </trkpt>
      <trkpt lat="46.70955" lon="-1.9647">
        <ele>14</ele>
        <time>2018-04-29T08:57:12Z</time>
      </trkpt>
      <trkpt lat="46.70959" lon="-1.96453">
        <ele>14</ele>
        <time>2018-04-29T08:58:12Z</time>
      </trkpt>
      <trkpt lat="46.70963" lon="-1.96436">
        <ele>14</ele>
        <time>2018-04-29T08:59:12Z</time>
      </trkpt>
      <trkpt lat="46.70966" lon="-1.96422">
        <ele>14</ele>
        <time>2018-04-29T09:00:12Z</time>
      </trkpt>
      <trkpt lat="46.70969" lon="-1.96404">
        <ele>14</ele>
        <time>2018-04-29T09:01:12Z</time>
      </trkpt>
      <trkpt lat="46.70972" lon="-1.9639">
        <ele>13</ele>
        <time>2018-04-29T09:02:12Z</time>
      </trkpt>
      <trkpt lat="46.70972" lon="-1.9639">
        <ele>13</ele>
        <time>2018-04-29T09:03:12Z</time>
      </trkpt>
      <trkpt lat="46.70972" lon="-1.96386">
        <ele>13</ele>
        <time>2018-04-29T09:04:12Z</time>
      </trkpt>
      <trkpt lat="46.70975" lon="-1.96369">
        <ele>13</ele>
        <time>2018-04-29T09:05:12Z</time>
      </trkpt>
      <trkpt lat="46.70976" lon="-1.96356">
        <ele>13</ele>
        <time>2018-04-29T09:06:12Z</time>
      </trkpt>
      <trkpt lat="46.70978" lon="-1.9633">
        <ele>13</ele>
        <time>2018-04-29T09:07:12Z</time>
      </trkpt>
      <trkpt lat="46.70979" lon="-1.96306">
        <ele>13</ele>
        <time>2018-04-29T09:08:12Z</time>
      </trkpt>
      <trkpt lat="46.70979" lon="-1.96277">
        <ele>13</ele>
        <time>2018-04-29T09:09:12Z</time>
      </trkpt>
      <trkpt lat="46.70978" lon="-1.96247">
        <ele>13</ele>
        <time>2018-04-29T09:10:12Z</time>
      </trkpt>
      <trkpt lat="46.70978" lon="-1.96214">
        <ele>13</ele>
        <time>2018-04-29T09:11:12Z</time>
      </trkpt>
      <trkpt lat="46.70978" lon="-1.96188">
        <ele>13</ele>
        <time>2018-04-29T09:12:12Z</time>
      </trkpt>
      <trkpt lat="46.70977" lon="-1.96155">
        <ele>14</ele>
        <time>2018-04-29T09:13:12Z</time>
      </trkpt>
      <trkpt lat="46.70976" lon="-1.96132">
        <ele>15</ele>
        <time>2018-04-29T09:14:12Z</time>
      </trkpt>
      <trkpt lat="46.70976" lon="-1.96124">
        <ele>15</ele>
        <time>2018-04-29T09:15:12Z</time>
      </trkpt>
      <trkpt lat="46.70977" lon="-1.96114">
        <ele>15</ele>
        <time>2018-04-29T09:16:12Z</time>
      </trkpt>
      <trkpt lat="46.70977" lon="-1.96114">
        <ele>15</ele>
        <time>2018-04-29T09:17:12Z</time>
      </trkpt>
      <trkpt lat="46.70973" lon="-1.96112">
        <ele>16</ele>
        <time>2018-04-29T09:18:12Z</time>
      </trkpt>
      <trkpt lat="46.7097" lon="-1.96108">
        <ele>16</ele>
        <time>2018-04-29T09:19:12Z</time>
      </trkpt>
      <trkpt lat="46.70968" lon="-1.96102">
        <ele>16</ele>
        <time>2018-04-29T09:20:12Z</time>
      </trkpt>
      <trkpt lat="46.70967" lon="-1.96095">
        <ele>16</ele>
        <time>2018-04-29T09:21:12Z</time>
      </trkpt>
      <trkpt lat="46.70954" lon="-1.96093">
        <ele>16</ele>
        <time>2018-04-29T09:22:12Z</time>
      </trkpt>
      <trkpt lat="46.70938" lon="-1.96092">
        <ele>16</ele>
        <time>2018-04-29T09:23:12Z</time>
      </trkpt>
      <trkpt lat="46.7092" lon="-1.9609">
        <ele>16</ele>
        <time>2018-04-29T09:24:12Z</time>
      </trkpt>
      <trkpt lat="46.70896" lon="-1.96087">
        <ele>16</ele>
        <time>2018-04-29T09:25:12Z</time>
      </trkpt>
      <trkpt lat="46.70848" lon="-1.96082">
        <ele>15</ele>
        <time>2018-04-29T09:26:12Z</time>
      </trkpt>
      <trkpt lat="46.7081" lon="-1.96079">
        <ele>15</ele>
        <time>2018-04-29T09:27:12Z</time>
      </trkpt>
      <trkpt lat="46.70763" lon="-1.96074">
        <ele>16</ele>
        <time>2018-04-29T09:28:12Z</time>
      </trkpt>
      <trkpt lat="46.70722" lon="-1.96071">
        <ele>16</ele>
        <time>2018-04-29T09:29:12Z</time>
      </trkpt>
      <trkpt lat="46.70717" lon="-1.96071">
        <ele>16</ele>
        <time>2018-04-29T09:30:12Z</time>
      </trkpt>
      <trkpt lat="46.70684" lon="-1.96067">
        <ele>16</ele>
        <time>2018-04-29T09:31:12Z</time>
      </trkpt>
      <trkpt lat="46.70647" lon="-1.96064">
        <ele>16</ele>
        <time>2018-04-29T09:32:12Z</time>
      </trkpt>
      <trkpt lat="46.7063" lon="-1.96062">
        <ele>16</ele>
        <time>2018-04-29T09:33:12Z</time>
      </trkpt>
      <trkpt lat="46.70615" lon="-1.96059">
        <ele>16</ele>
        <time>2018-04-29T09:34:12Z</time>
      </trkpt>
      <trkpt lat="46.70579" lon="-1.96052">
        <ele>16</ele>
        <time>2018-04-29T09:35:12Z</time>
      </trkpt>
      <trkpt lat="46.70555" lon="-1.96046">
        <ele>16</ele>
        <time>2018-04-29T09:36:12Z</time>
      </trkpt>
      <trkpt lat="46.70533" lon="-1.96039">
        <ele>16</ele>
        <time>2018-04-29T09:37:12Z</time>
      </trkpt>
      <trkpt lat="46.70506" lon="-1.96029">
        <ele>15</ele>
        <time>2018-04-29T09:38:12Z</time>
      </trkpt>
      <trkpt lat="46.70475" lon="-1.96016">
        <ele>15</ele>
        <time>2018-04-29T09:39:12Z</time>
      </trkpt>
      <trkpt lat="46.70447" lon="-1.96003">
        <ele>16</ele>
        <time>2018-04-29T09:40:12Z</time>
      </trkpt>
      <trkpt lat="46.70419" lon="-1.95986">
        <ele>16</ele>
        <time>2018-04-29T09:41:12Z</time>
      </trkpt>
      <trkpt lat="46.70393" lon="-1.95972">
        <ele>15</ele>
        <time>2018-04-29T09:42:12Z</time>
      </trkpt>
      <trkpt lat="46.70369" lon="-1.95955">
        <ele>15</ele>
        <time>2018-04-29T09:43:12Z</time>
      </trkpt>
      <trkpt lat="46.7036" lon="-1.95948">
        <ele>15</ele>
        <time>2018-04-29T09:44:12Z</time>
      </trkpt>
      <trkpt lat="46.70359" lon="-1.95952">
        <ele>15</ele>
        <time>2018-04-29T09:45:12Z</time>
      </trkpt>
      <trkpt lat="46.70357" lon="-1.95956">
        <ele>15</ele>
        <time>2018-04-29T09:46:12Z</time>
      </trkpt>
      <trkpt lat="46.70354" lon="-1.95958">
        <ele>15</ele>
        <time>2018-04-29T09:47:12Z</time>
      </trkpt>
      <trkpt lat="46.7035" lon="-1.95958">
        <ele>15</ele>
        <time>2018-04-29T09:48:12Z</time>
      </trkpt>
      <trkpt lat="46.70349" lon="-1.95957">
        <ele>15</ele>
        <time>2018-04-29T09:49:12Z</time>
      </trkpt>
      <trkpt lat="46.70347" lon="-1.95955">
        <ele>15</ele>
        <time>2018-04-29T09:50:12Z</time>
      </trkpt>
      <trkpt lat="46.70344" lon="-1.95951">
        <ele>15</ele>
        <time>2018-04-29T09:51:12Z</time>
      </trkpt>
      <trkpt lat="46.70344" lon="-1.95946">
        <ele>14</ele>
        <time>2018-04-29T09:52:12Z</time>
      </trkpt>
      <trkpt lat="46.70344" lon="-1.95941">
        <ele>14</ele>
        <time>2018-04-29T09:53:12Z</time>
      </trkpt>
      <trkpt lat="46.70345" lon="-1.95938">
        <ele>14</ele>
        <time>2018-04-29T09:54:12Z</time>
      </trkpt>
      <trkpt lat="46.70333" lon="-1.95927">
        <ele>14</ele>
        <time>2018-04-29T09:55:12Z</time>
      </trkpt>
      <trkpt lat="46.70313" lon="-1.9591">
        <ele>14</ele>
        <time>2018-04-29T09:56:12Z</time>
      </trkpt>
      <trkpt lat="46.70302" lon="-1.95899">
        <ele>13</ele>
        <time>2018-04-29T09:57:12Z</time>
      </trkpt>
      <trkpt lat="46.70296" lon="-1.95894">
        <ele>13</ele>
        <time>2018-04-29T09:58:12Z</time>
      </trkpt>
      <trkpt lat="46.70274" lon="-1.95872">
        <ele>13</ele>
        <time>2018-04-29T09:59:12Z</time>
      </trkpt>
      <trkpt lat="46.70256" lon="-1.95852">
        <ele>12</ele>
        <time>2018-04-29T10:00:12Z</time>
      </trkpt>
      <trkpt lat="46.70241" lon="-1.95834">
        <ele>12</ele>
        <time>2018-04-29T10:01:12Z</time>
      </trkpt>
      <trkpt lat="46.70228" lon="-1.95813">
        <ele>12</ele>
        <time>2018-04-29T10:02:12Z</time>
      </trkpt>
      <trkpt lat="46.70217" lon="-1.95794">
        <ele>12</ele>
        <time>2018-04-29T10:03:12Z</time>
      </trkpt>
      <trkpt lat="46.70208" lon="-1.95777">
        <ele>12</ele>
        <time>2018-04-29T10:04:12Z</time>
      </trkpt>
      <trkpt lat="46.70197" lon="-1.95753">
        <ele>13</ele>
        <time>2018-04-29T10:05:12Z</time>
      </trkpt>
      <trkpt lat="46.70187" lon="-1.95726">
        <ele>12</ele>
        <time>2018-04-29T10:06:12Z</time>
      </trkpt>
      <trkpt lat="46.70181" lon="-1.95706">
        <ele>12</ele>
        <time>2018-04-29T10:07:12Z</time>
      </trkpt>
      <trkpt lat="46.70176" lon="-1.95686">
        <ele>12</ele>
        <time>2018-04-29T10:08:12Z</time>
      </trkpt>
      <trkpt lat="46.70175" lon="-1.95682">
        <ele>12</ele>
        <time>2018-04-29T10:09:12Z</time>
      </trkpt>
      <trkpt lat="46.70171" lon="-1.95673">
        <ele>12</ele>
        <time>2018-04-29T10:10:12Z</time>
      </trkpt>
      <trkpt lat="46.7017" lon="-1.95669">
        <ele>12</ele>
        <time>2018-04-29T10:11:12Z</time>
      </trkpt>
      <trkpt lat="46.70168" lon="-1.95666">
        <ele>12</ele>
        <time>2018-04-29T10:12:12Z</time>
      </trkpt>
      <trkpt lat="46.70166" lon="-1.9566">
        <ele>12</ele>
        <time>2018-04-29T10:13:12Z</time>
      </trkpt>
      <trkpt lat="46.70165" lon="-1.95657">
        <ele>12</ele>
        <time>2018-04-29T10:14:12Z</time>
      </trkpt>
      <trkpt lat="46.70164" lon="-1.95654">
        <ele>12</ele>
        <time>2018-04-29T10:15:12Z</time>
      </trkpt>
      <trkpt lat="46.70164" lon="-1.95654">
        <ele>12</ele>
        <time>2018-04-29T10:16:12Z</time>
      </trkpt>
      <trkpt lat="46.70163" lon="-1.95654">
        <ele>12</ele>
        <time>2018-04-29T10:17:12Z</time>
      </trkpt>
      <trkpt lat="46.70162" lon="-1.95654">
        <ele>12</ele>
        <time>2018-04-29T10:18:12Z</time>
      </trkpt>
      <trkpt lat="46.70161" lon="-1.95654">
        <ele>12</ele>
        <time>2018-04-29T10:19:12Z</time>
      </trkpt>
      <trkpt lat="46.7016" lon="-1.95654">
        <ele>12</ele>
        <time>2018-04-29T10:20:12Z</time>
      </trkpt>
      <trkpt lat="46.7016" lon="-1.95653">
        <ele>12</ele>
        <time>2018-04-29T10:21:12Z</time>
      </trkpt>
      <trkpt lat="46.70159" lon="-1.95653">
        <ele>12</ele>
        <time>2018-04-29T10:22:12Z</time>
      </trkpt>
      <trkpt lat="46.70159" lon="-1.95652">
        <ele>12</ele>
        <time>2018-04-29T10:23:12Z</time>
      </trkpt>
      <trkpt lat="46.70158" lon="-1.95652">
        <ele>12</ele>
        <time>2018-04-29T10:24:12Z</time>
      </trkpt>
      <trkpt lat="46.70158" lon="-1.95651">
        <ele>12</ele>
        <time>2018-04-29T10:25:12Z</time>
      </trkpt>
      <trkpt lat="46.70157" lon="-1.95651">
        <ele>12</ele>
        <time>2018-04-29T10:26:12Z</time>
      </trkpt>
      <trkpt lat="46.70157" lon="-1.9565">
        <ele>12</ele>
        <time>2018-04-29T10:27:12Z</time>
      </trkpt>
      <trkpt lat="46.70157" lon="-1.95649">
        <ele>12</ele>
        <time>2018-04-29T10:28:12Z</time>
      </trkpt>
      <trkpt lat="46.70156" lon="-1.95649">
        <ele>12</ele>
        <time>2018-04-29T10:29:12Z</time>
      </trkpt>
      <trkpt lat="46.70156" lon="-1.95648">
        <ele>12</ele>
        <time>2018-04-29T10:30:12Z</time>
      </trkpt>
      <trkpt lat="46.70156" lon="-1.95647">
        <ele>12</ele>
        <time>2018-04-29T10:31:12Z</time>
      </trkpt>
      <trkpt lat="46.70156" lon="-1.95646">
        <ele>12</ele>
        <time>2018-04-29T10:32:12Z</time>
      </trkpt>
      <trkpt lat="46.70156" lon="-1.95645">
        <ele>12</ele>
        <time>2018-04-29T10:33:12Z</time>
      </trkpt>
      <trkpt lat="46.70155" lon="-1.95644">
        <ele>12</ele>
        <time>2018-04-29T10:34:12Z</time>
      </trkpt>
      <trkpt lat="46.70155" lon="-1.95643">
        <ele>12</ele>
        <time>2018-04-29T10:35:12Z</time>
      </trkpt>
      <trkpt lat="46.70155" lon="-1.95642">
        <ele>12</ele>
        <time>2018-04-29T10:36:12Z</time>
      </trkpt>
      <trkpt lat="46.70156" lon="-1.95641">
        <ele>12</ele>
        <time>2018-04-29T10:37:12Z</time>
      </trkpt>
      <trkpt lat="46.70156" lon="-1.9564">
        <ele>12</ele>
        <time>2018-04-29T10:38:12Z</time>
      </trkpt>
      <trkpt lat="46.70156" lon="-1.95639">
        <ele>12</ele>
        <time>2018-04-29T10:39:12Z</time>
      </trkpt>
      <trkpt lat="46.70156" lon="-1.95638">
        <ele>11</ele>
        <time>2018-04-29T10:40:12Z</time>
      </trkpt>
      <trkpt lat="46.70156" lon="-1.95637">
        <ele>11</ele>
        <time>2018-04-29T10:41:12Z</time>
      </trkpt>
      <trkpt lat="46.70157" lon="-1.95637">
        <ele>11</ele>
        <time>2018-04-29T10:42:12Z</time>
      </trkpt>
      <trkpt lat="46.70157" lon="-1.95636">
        <ele>11</ele>
        <time>2018-04-29T10:43:12Z</time>
      </trkpt>
      <trkpt lat="46.70157" lon="-1.95635">
        <ele>11</ele>
        <time>2018-04-29T10:44:12Z</time>
      </trkpt>
      <trkpt lat="46.70158" lon="-1.95635">
        <ele>11</ele>
        <time>2018-04-29T10:45:12Z</time>
      </trkpt>
      <trkpt lat="46.70158" lon="-1.95634">
        <ele>11</ele>
        <time>2018-04-29T10:46:12Z</time>
      </trkpt>
      <trkpt lat="46.70159" lon="-1.95634">
        <ele>11</ele>
        <time>2018-04-29T10:47:12Z</time>
      </trkpt>
      <trkpt lat="46.70159" lon="-1.95633">
        <ele>11</ele>
        <time>2018-04-29T10:48:12Z</time>
      </trkpt>
      <trkpt lat="46.7016" lon="-1.95633">
        <ele>11</ele>
        <time>2018-04-29T10:49:12Z</time>
      </trkpt>
      <trkpt lat="46.7016" lon="-1.95632">
        <ele>11</ele>
        <time>2018-04-29T10:50:12Z</time>
      </trkpt>
      <trkpt lat="46.70161" lon="-1.95632">
        <ele>11</ele>
        <time>2018-04-29T10:51:12Z</time>
      </trkpt>
      <trkpt lat="46.70162" lon="-1.95624">
        <ele>11</ele>
        <time>2018-04-29T10:52:12Z</time>
      </trkpt>
      <trkpt lat="46.70163" lon="-1.9561">
        <ele>11</ele>
        <time>2018-04-29T10:53:12Z</time>
      </trkpt>
      <trkpt lat="46.70153" lon="-1.9555">
        <ele>10</ele>
        <time>2018-04-29T10:54:12Z</time>
      </trkpt>
      <trkpt lat="46.70143" lon="-1.95473">
        <ele>9</ele>
        <time>2018-04-29T10:55:12Z</time>
      </trkpt>
      <trkpt lat="46.70142" lon="-1.95447">
        <ele>9</ele>
        <time>2018-04-29T10:56:12Z</time>
      </trkpt>
      <trkpt lat="46.70147" lon="-1.95382">
        <ele>8</ele>
        <time>2018-04-29T10:57:12Z</time>
      </trkpt>
      <trkpt lat="46.70163" lon="-1.95279">
        <ele>6</ele>
        <time>2018-04-29T10:58:12Z</time>
      </trkpt>
      <trkpt lat="46.70167" lon="-1.95232">
        <ele>5</ele>
        <time>2018-04-29T10:59:12Z</time>
      </trkpt>
      <trkpt lat="46.70167" lon="-1.95226">
        <ele>5</ele>
        <time>2018-04-29T11:00:12Z</time>
      </trkpt>
      <trkpt lat="46.70168" lon="-1.95219">
        <ele>5</ele>
        <time>2018-04-29T11:01:12Z</time>
      </trkpt>
      <trkpt lat="46.70167" lon="-1.95198">
        <ele>6</ele>
        <time>2018-04-29T11:02:12Z</time>
      </trkpt>
      <trkpt lat="46.70166" lon="-1.95179">
        <ele>6</ele>
        <time>2018-04-29T11:03:12Z</time>
      </trkpt>
      <trkpt lat="46.70162" lon="-1.95161">
        <ele>6</ele>
        <time>2018-04-29T11:04:12Z</time>
      </trkpt>
      <trkpt lat="46.7016" lon="-1.95145">
        <ele>6</ele>
        <time>2018-04-29T11:05:12Z</time>
      </trkpt>
      <trkpt lat="46.70158" lon="-1.95126">
        <ele>6</ele>
        <time>2018-04-29T11:06:12Z</time>
      </trkpt>
      <trkpt lat="46.70157" lon="-1.95107">
        <ele>5</ele>
        <time>2018-04-29T11:07:12Z</time>
      </trkpt>
      <trkpt lat="46.70156" lon="-1.95089">
        <ele>5</ele>
        <time>2018-04-29T11:08:12Z</time>
      </trkpt>
      <trkpt lat="46.70156" lon="-1.95069">
        <ele>5</ele>
        <time>2018-04-29T11:09:12Z</time>
      </trkpt>
      <trkpt lat="46.70156" lon="-1.95069">
        <ele>5</ele>
        <time>2018-04-29T11:10:12Z</time>
      </trkpt>
      <trkpt lat="46.70155" lon="-1.95069">
        <ele>5</ele>
        <time>2018-04-29T11:11:12Z</time>
      </trkpt>
      <trkpt lat="46.70154" lon="-1.95069">
        <ele>5</ele>
        <time>2018-04-29T11:12:12Z</time>
      </trkpt>
      <trkpt lat="46.70153" lon="-1.95069">
        <ele>5</ele>
        <time>2018-04-29T11:13:12Z</time>
      </trkpt>
      <trkpt lat="46.70152" lon="-1.95069">
        <ele>5</ele>
        <time>2018-04-29T11:14:12Z</time>
      </trkpt>
      <trkpt lat="46.70152" lon="-1.95068">
        <ele>5</ele>
        <time>2018-04-29T11:15:12Z</time>
      </trkpt>
      <trkpt lat="46.70151" lon="-1.95068">
        <ele>5</ele>
        <time>2018-04-29T11:16:12Z</time>
      </trkpt>
      <trkpt lat="46.70151" lon="-1.95067">
        <ele>5</ele>
        <time>2018-04-29T11:17:12Z</time>
      </trkpt>
      <trkpt lat="46.7015" lon="-1.95067">
        <ele>5</ele>
        <time>2018-04-29T11:18:12Z</time>
      </trkpt>
      <trkpt lat="46.7015" lon="-1.95066">
        <ele>5</ele>
        <time>2018-04-29T11:19:12Z</time>
      </trkpt>
      <trkpt lat="46.70149" lon="-1.95066">
        <ele>5</ele>
        <time>2018-04-29T11:20:12Z</time>
      </trkpt>
      <trkpt lat="46.70149" lon="-1.95065">
        <ele>5</ele>
        <time>2018-04-29T11:21:12Z</time>
      </trkpt>
      <trkpt lat="46.70149" lon="-1.95064">
        <ele>5</ele>
        <time>2018-04-29T11:22:12Z</time>
      </trkpt>
      <trkpt lat="46.70149" lon="-1.95063">
        <ele>5</ele>
        <time>2018-04-29T11:23:12Z</time>
      </trkpt>
      <trkpt lat="46.70148" lon="-1.95063">
        <ele>5</ele>
        <time>2018-04-29T11:24:12Z</time>
      </trkpt>
      <trkpt lat="46.70148" lon="-1.95062">
        <ele>5</ele>
        <time>2018-04-29T11:25:12Z</time>
      </trkpt>
      <trkpt lat="46.70148" lon="-1.95061">
        <ele>5</ele>
        <time>2018-04-29T11:26:12Z</time>
      </trkpt>
      <trkpt lat="46.70148" lon="-1.9506">
        <ele>5</ele>
        <time>2018-04-29T11:27:12Z</time>
      </trkpt>
      <trkpt lat="46.70148" lon="-1.95059">
        <ele>5</ele>
        <time>2018-04-29T11:28:12Z</time>
      </trkpt>
      <trkpt lat="46.70148" lon="-1.95058">
        <ele>5</ele>
        <time>2018-04-29T11:29:12Z</time>
      </trkpt>
      <trkpt lat="46.70125" lon="-1.95054">
        <ele>5</ele>
        <time>2018-04-29T11:30:12Z</time>
      </trkpt>
      <trkpt lat="46.70103" lon="-1.9505">
        <ele>5</ele>
        <time>2018-04-29T11:31:12Z</time>
      </trkpt>
      <trkpt lat="46.70069" lon="-1.95044">
        <ele>6</ele>
        <time>2018-04-29T11:32:12Z</time>
      </trkpt>
      <trkpt lat="46.7005" lon="-1.95039">
        <ele>6</ele>
        <time>2018-04-29T11:33:12Z</time>
      </trkpt>
      <trkpt lat="46.70034" lon="-1.95036">
        <ele>7</ele>
        <time>2018-04-29T11:34:12Z</time>
      </trkpt>
      <trkpt lat="46.70019" lon="-1.9503">
        <ele>7</ele>
        <time>2018-04-29T11:35:12Z</time>
      </trkpt>
      <trkpt lat="46.70013" lon="-1.95027">
        <ele>7</ele>
        <time>2018-04-29T11:36:12Z</time>
      </trkpt>
      <trkpt lat="46.70007" lon="-1.95023">
        <ele>7</ele>
        <time>2018-04-29T11:37:12Z</time>
      </trkpt>
      <trkpt lat="46.69997" lon="-1.95014">
        <ele>7</ele>
        <time>2018-04-29T11:38:12Z</time>
      </trkpt>
      <trkpt lat="46.69981" lon="-1.94999">
        <ele>7</ele>
        <time>2018-04-29T11:39:12Z</time>
      </trkpt>
      <trkpt lat="46.69963" lon="-1.9498">
        <ele>8</ele>
        <time>2018-04-29T11:40:12Z</time>
      </trkpt>
      <trkpt lat="46.69949" lon="-1.94964">
        <ele>8</ele>
        <time>2018-04-29T11:41:12Z</time>
      </trkpt>
      <trkpt lat="46.69934" lon="-1.94944">
        <ele>8</ele>
        <time>2018-04-29T11:42:12Z</time>
      </trkpt>
      <trkpt lat="46.69918" lon="-1.94924">
        <ele>7</ele>
        <time>2018-04-29T11:43:12Z</time>
      </trkpt>
      <trkpt lat="46.69911" lon="-1.94912">
        <ele>7</ele>
        <time>2018-04-29T11:44:12Z</time>
      </trkpt>
      <trkpt lat="46.69896" lon="-1.94891">
        <ele>6</ele>
        <time>2018-04-29T11:45:12Z</time>
      </trkpt>
      <trkpt lat="46.69874" lon="-1.94856">
        <ele>6</ele>
        <time>2018-04-29T11:46:12Z</time>
      </trkpt>
      <trkpt lat="46.69867" lon="-1.94841">
        <ele>5</ele>
        <time>2018-04-29T11:47:12Z</time>
      </trkpt>
      <trkpt lat="46.6986" lon="-1.94828">
        <ele>5</ele>
        <time>2018-04-29T11:48:12Z</time>
      </trkpt>
      <trkpt lat="46.69848" lon="-1.94802">
        <ele>5</ele>
        <time>2018-04-29T11:49:12Z</time>
      </trkpt>
      <trkpt lat="46.69836" lon="-1.94769">
        <ele>5</ele>
        <time>2018-04-29T11:50:12Z</time>
      </trkpt>
      <trkpt lat="46.69828" lon="-1.94745">
        <ele>5</ele>
        <time>2018-04-29T11:51:12Z</time>
      </trkpt>
      <trkpt lat="46.69828" lon="-1.94745">
        <ele>5</ele>
        <time>2018-04-29T11:52:12Z</time>
      </trkpt>
      <trkpt lat="46.69826" lon="-1.94736">
        <ele>5</ele>
        <time>2018-04-29T11:53:12Z</time>
      </trkpt>
      <trkpt lat="46.69825" lon="-1.94732">
        <ele>5</ele>
        <time>2018-04-29T11:54:12Z</time>
      </trkpt>
      <trkpt lat="46.69819" lon="-1.94712">
        <ele>4</ele>
        <time>2018-04-29T11:55:12Z</time>
      </trkpt>
      <trkpt lat="46.69814" lon="-1.94695">
        <ele>4</ele>
        <time>2018-04-29T11:56:12Z</time>
      </trkpt>
      <trkpt lat="46.69809" lon="-1.94676">
        <ele>4</ele>
        <time>2018-04-29T11:57:12Z</time>
      </trkpt>
      <trkpt lat="46.69805" lon="-1.94657">
        <ele>4</ele>
        <time>2018-04-29T11:58:12Z</time>
      </trkpt>
      <trkpt lat="46.69799" lon="-1.94634">
        <ele>4</ele>
        <time>2018-04-29T11:59:12Z</time>
      </trkpt>
      <trkpt lat="46.6978" lon="-1.94548">
        <ele>3</ele>
        <time>2018-04-29T12:00:12Z</time>
      </trkpt>
      <trkpt lat="46.69765" lon="-1.94496">
        <ele>4</ele>
        <time>2018-04-29T12:01:12Z</time>
      </trkpt>
      <trkpt lat="46.69758" lon="-1.94477">
        <ele>4</ele>
        <time>2018-04-29T12:02:12Z</time>
      </trkpt>
      <trkpt lat="46.69753" lon="-1.94463">
        <ele>4</ele>
        <time>2018-04-29T12:03:12Z</time>
      </trkpt>
      <trkpt lat="46.69748" lon="-1.94448">
        <ele>2</ele>
        <time>2018-04-29T12:04:12Z</time>
      </trkpt>
      <trkpt lat="46.69745" lon="-1.9444">
        <ele>2</ele>
        <time>2018-04-29T12:05:12Z</time>
      </trkpt>
      <trkpt lat="46.69735" lon="-1.94411">
        <ele>3</ele>
        <time>2018-04-29T12:06:12Z</time>
      </trkpt>
      <trkpt lat="46.69732" lon="-1.944">
        <ele>4</ele>
        <time>2018-04-29T12:07:12Z</time>
      </trkpt>
      <trkpt lat="46.69727" lon="-1.94384">
        <ele>4</ele>
        <time>2018-04-29T12:08:12Z</time>
      </trkpt>
      <trkpt lat="46.69718" lon="-1.9436">
        <ele>4</ele>
        <time>2018-04-29T12:09:12Z</time>
      </trkpt>
      <trkpt lat="46.69709" lon="-1.94333">
        <ele>4</ele>
        <time>2018-04-29T12:10:12Z</time>
      </trkpt>
      <trkpt lat="46.69703" lon="-1.94314">
        <ele>4</ele>
        <time>2018-04-29T12:11:12Z</time>
      </trkpt>
      <trkpt lat="46.697" lon="-1.94303">
        <ele>4</ele>
        <time>2018-04-29T12:12:12Z</time>
      </trkpt>
      <trkpt lat="46.69696" lon="-1.94286">
        <ele>4</ele>
        <time>2018-04-29T12:13:12Z</time>
      </trkpt>
      <trkpt lat="46.69688" lon="-1.94251">
        <ele>4</ele>
        <time>2018-04-29T12:14:12Z</time>
      </trkpt>
      <trkpt lat="46.69675" lon="-1.94202">
        <ele>5</ele>
        <time>2018-04-29T12:15:12Z</time>
      </trkpt>
      <trkpt lat="46.6966" lon="-1.94143">
        <ele>4</ele>
        <time>2018-04-29T12:16:12Z</time>
      </trkpt>
      <trkpt lat="46.69658" lon="-1.94132">
        <ele>4</ele>
        <time>2018-04-29T12:17:12Z</time>
      </trkpt>
      <trkpt lat="46.69653" lon="-1.9411">
        <ele>3</ele>
        <time>2018-04-29T12:18:12Z</time>
      </trkpt>
      <trkpt lat="46.69644" lon="-1.94108">
        <ele>3</ele>
        <time>2018-04-29T12:19:12Z</time>
      </trkpt>
      <trkpt lat="46.69639" lon="-1.94108">
        <ele>3</ele>
        <time>2018-04-29T12:20:12Z</time>
      </trkpt>
      <trkpt lat="46.69636" lon="-1.9411">
        <ele>3</ele>
        <time>2018-04-29T12:21:12Z</time>
      </trkpt>
      <trkpt lat="46.69633" lon="-1.94111">
        <ele>3</ele>
        <time>2018-04-29T12:22:12Z</time>
      </trkpt>
      <trkpt lat="46.69622" lon="-1.94114">
        <ele>3</ele>
        <time>2018-04-29T12:23:12Z</time>
      </trkpt>
      <trkpt lat="46.69618" lon="-1.94115">
        <ele>3</ele>
        <time>2018-04-29T12:24:12Z</time>
      </trkpt>
      <trkpt lat="46.69615" lon="-1.94114">
        <ele>3</ele>
        <time>2018-04-29T12:25:12Z</time>
      </trkpt>
      <trkpt lat="46.69615" lon="-1.94114">
        <ele>3</ele>
        <time>2018-04-29T12:26:12Z</time>
      </trkpt>
      <trkpt lat="46.69614" lon="-1.94119">
        <ele>3</ele>
        <time>2018-04-29T12:27:12Z</time>
      </trkpt>
      <trkpt lat="46.69614" lon="-1.9412">
        <ele>3</ele>
        <time>2018-04-29T12:28:12Z</time>
      </trkpt>
      <trkpt lat="46.69613" lon="-1.94121">
        <ele>3</ele>
        <time>2018-04-29T12:29:12Z</time>
      </trkpt>
      <trkpt lat="46.69613" lon="-1.94122">
        <ele>3</ele>
        <time>2018-04-29T12:30:12Z</time>
      </trkpt>
      <trkpt lat="46.69612" lon="-1.94122">
        <ele>3</ele>
        <time>2018-04-29T12:31:12Z</time>
      </trkpt>
      <trkpt lat="46.69611" lon="-1.94123">
        <ele>3</ele>
        <time>2018-04-29T12:32:12Z</time>
      </trkpt>
      <trkpt lat="46.6961" lon="-1.94123">
        <ele>3</ele>
        <time>2018-04-29T12:33:12Z</time>
      </trkpt>
      <trkpt lat="46.69609" lon="-1.94123">
        <ele>3</ele>
        <time>2018-04-29T12:34:12Z</time>
      </trkpt>
      <trkpt lat="46.69608" lon="-1.94123">
        <ele>3</ele>
        <time>2018-04-29T12:35:12Z</time>
      </trkpt>
      <trkpt lat="46.69607" lon="-1.94123">
        <ele>3</ele>
        <time>2018-04-29T12:36:12Z</time>
      </trkpt>
      <trkpt lat="46.69606" lon="-1.94122">
        <ele>3</ele>
        <time>2018-04-29T12:37:12Z</time>
      </trkpt>
      <trkpt lat="46.69605" lon="-1.94121">
        <ele>3</ele>
        <time>2018-04-29T12:38:12Z</time>
      </trkpt>
      <trkpt lat="46.69591" lon="-1.94088">
        <ele>3</ele>
        <time>2018-04-29T12:39:12Z</time>
      </trkpt>
      <trkpt lat="46.69582" lon="-1.94068">
        <ele>3</ele>
        <time>2018-04-29T12:40:12Z</time>
      </trkpt>
      <trkpt lat="46.69576" lon="-1.94051">
        <ele>3</ele>
        <time>2018-04-29T12:41:12Z</time>
      </trkpt>
      <trkpt lat="46.69576" lon="-1.94051">
        <ele>3</ele>
        <time>2018-04-29T12:42:12Z</time>
      </trkpt>
      <trkpt lat="46.6958" lon="-1.94048">
        <ele>3</ele>
        <time>2018-04-29T12:43:12Z</time>
      </trkpt>
      <trkpt lat="46.69582" lon="-1.94047">
        <ele>3</ele>
        <time>2018-04-29T12:44:12Z</time>
      </trkpt>
      <trkpt lat="46.69582" lon="-1.94047">
        <ele>3</ele>
        <time>2018-04-29T12:45:12Z</time>
      </trkpt>
      <trkpt lat="46.69573" lon="-1.94025">
        <ele>4</ele>
        <time>2018-04-29T12:46:12Z</time>
      </trkpt>
      <trkpt lat="46.69548" lon="-1.93973">
        <ele>4</ele>
        <time>2018-04-29T12:47:12Z</time>
      </trkpt>
      <trkpt lat="46.69544" lon="-1.93963">
        <ele>4</ele>
        <time>2018-04-29T12:48:12Z</time>
      </trkpt>
      <trkpt lat="46.69543" lon="-1.9396">
        <ele>4</ele>
        <time>2018-04-29T12:49:12Z</time>
      </trkpt>
      <trkpt lat="46.69535" lon="-1.93937">
        <ele>4</ele>
        <time>2018-04-29T12:50:12Z</time>
      </trkpt>
      <trkpt lat="46.69532" lon="-1.93928">
        <ele>4</ele>
        <time>2018-04-29T12:51:12Z</time>
      </trkpt>
      <trkpt lat="46.69529" lon="-1.9392">
        <ele>4</ele>
        <time>2018-04-29T12:52:12Z</time>
      </trkpt>
      <trkpt lat="46.69526" lon="-1.93911">
        <ele>4</ele>
        <time>2018-04-29T12:53:12Z</time>
      </trkpt>
      <trkpt lat="46.69525" lon="-1.93905">
        <ele>4</ele>
        <time>2018-04-29T12:54:12Z</time>
      </trkpt>
      <trkpt lat="46.69522" lon="-1.93898">
        <ele>4</ele>
        <time>2018-04-29T12:55:12Z</time>
      </trkpt>
      <trkpt lat="46.69511" lon="-1.93878">
        <ele>4</ele>
        <time>2018-04-29T12:56:12Z</time>
      </trkpt>
      <trkpt lat="46.6951" lon="-1.93875">
        <ele>4</ele>
        <time>2018-04-29T12:57:12Z</time>
      </trkpt>
      <trkpt lat="46.69507" lon="-1.93869">
        <ele>4</ele>
        <time>2018-04-29T12:58:12Z</time>
      </trkpt>
      <trkpt lat="46.69505" lon="-1.93865">
        <ele>4</ele>
        <time>2018-04-29T12:59:12Z</time>
      </trkpt>
      <trkpt lat="46.69495" lon="-1.93843">
        <ele>3</ele>
        <time>2018-04-29T13:00:12Z</time>
      </trkpt>
      <trkpt lat="46.69492" lon="-1.93841">
        <ele>3</ele>
        <time>2018-04-29T13:01:12Z</time>
      </trkpt>
      <trkpt lat="46.69488" lon="-1.93834">
        <ele>3</ele>
        <time>2018-04-29T13:02:12Z</time>
      </trkpt>
      <trkpt lat="46.6947" lon="-1.93801">
        <ele>3</ele>
        <time>2018-04-29T13:03:12Z</time>
      </trkpt>
      <trkpt lat="46.69464" lon="-1.93789">
        <ele>3</ele>
        <time>2018-04-29T13:04:12Z</time>
      </trkpt>
      <trkpt lat="46.6946" lon="-1.93781">
        <ele>3</ele>
        <time>2018-04-29T13:05:12Z</time>
      </trkpt>
      <trkpt lat="46.69452" lon="-1.93761">
        <ele>3</ele>
        <time>2018-04-29T13:06:12Z</time>
      </trkpt>
    </trkseg>
  </trk>
</gpx>